
Distance (Route):
Temperature : -21.2°C
Humidity : 29.7%
Pressure : 417.0hPa| Receiver | Frames | First received | Last received |
|---|---|---|---|
| KRY50SP-1 | 525 | 2026-09-04 17:05:32 | 2026-09-04 18:51:52 |
| DB0DAN | 250 | 2026-09-04 16:52:40 | 2026-09-04 18:38:25 |
| SP6BVK | 137 | 2026-09-04 17:01:33 | 2026-09-04 18:51:27 |
| EDDB2-12 | 129 | 2026-09-04 16:45:49 | 2026-09-04 18:39:06 |
| SP3BTT-10 | 128 | 2026-09-04 16:50:13 | 2026-09-04 18:51:15 |
| AA1-15 | 125 | 2026-09-04 17:21:11 | 2026-09-04 18:27:14 |
| 13BRC | 109 | 2026-09-04 16:50:27 | 2026-09-04 18:18:58 |
| SONDE2-11 | 108 | 2026-09-04 16:45:25 | 2026-09-04 18:38:44 |
| EDDB2-11 | 107 | 2026-09-04 16:46:00 | 2026-09-04 18:38:43 |
| SP3WXH-11 | 90 | 2026-09-04 17:06:52 | 2026-09-04 18:38:55 |
| S3001 | 88 | 2026-09-04 16:56:47 | 2026-09-04 18:24:45 |
| DM0DOS-11 | 67 | 2026-09-04 17:51:14 | 2026-09-04 18:06:38 |
| 3Z3Z-3 | 65 | 2026-09-04 17:46:37 | 2026-09-04 18:25:03 |
| DAC517 | 63 | 2026-09-04 16:49:22 | 2026-09-04 18:03:04 |
| DL2RXE-15 | 56 | 2026-09-04 16:52:36 | 2026-09-04 18:14:34 |
| SONCRA | 41 | 2026-09-04 17:22:45 | 2026-09-04 18:12:57 |
| POL2MAQ | 39 | 2026-09-04 17:38:46 | 2026-09-04 18:04:41 |
| OE3JTB-15 | 38 | 2026-09-04 17:19:37 | 2026-09-04 18:38:27 |
| Receiver | Date | Latitude | Longitude | Direction | Speed | Altitude | Climb | Temperature | Humidity | Pressure | Voltage | Killtimer | Uptime | BKT | XDATA |
|---|---|---|---|---|---|---|---|---|---|---|---|---|---|---|---|
| KRY50SP-1 | 2026-09-04 18:51:52 | 52.00480 | 17.75605 | 97° | 135km/h | 7116m | -2.8m/s | -21.2°C | 29.7% | 417.0hPa | 2.5V | 07:41:00 | 00:00:00 | 00:00:00 | |
| KRY50SP-1 | 2026-09-04 18:51:29 | 52.00569 | 17.74401 | 99° | 133km/h | 7177m | -2.9m/s | -21.4°C | 41.4% | 413.5hPa | 2.5V | 07:41:00 | 00:00:00 | 00:00:00 | |
| SP6BVK | 2026-09-04 18:51:27 | 52.00579 | 17.74293 | 98° | 133km/h | 7183m | -2.6m/s | -21.4°C | 43.3% | 413.2hPa | 2.5V | 07:41:00 | 00:00:00 | 00:00:00 | |
| KRY50SP-1 | 2026-09-04 18:51:23 | 52.00597 | 17.74076 | 99° | 133km/h | 7194m | -3.0m/s | -21.4°C | 45.7% | 412.5hPa | 2.5V | 07:41:00 | 00:00:00 | 00:00:00 | |
| SP3BTT-10 | 2026-09-04 18:51:15 | 52.00642 | 17.73590 | 99° | 131km/h | 7220m | -2.8m/s | -21.0°C | 62.7% | 411.0hPa | 2.5V | 00:00:00 | 00:00:00 | 00:00:00 | |
| KRY50SP-1 | 2026-09-04 18:51:12 | 52.00652 | 17.73482 | 100° | 133km/h | 7226m | -2.9m/s | -20.9°C | 62.8% | 410.8hPa | 2.5V | 07:42:00 | 00:00:00 | 00:00:00 | |
| KRY50SP-1 | 2026-09-04 18:50:37 | 52.00832 | 17.71603 | 100° | 131km/h | 7327m | -2.8m/s | -20.9°C | 79.3% | 405.2hPa | 2.5V | 07:42:00 | 00:00:00 | 00:00:00 | |
| KRY50SP-1 | 2026-09-04 18:50:15 | 52.00932 | 17.70440 | 99° | 128km/h | 7389m | -2.7m/s | -21.3°C | 82.2% | 401.7hPa | 2.5V | 07:43:00 | 00:00:00 | 00:00:00 | |
| KRY50SP-1 | 2026-09-04 18:50:10 | 52.00953 | 17.70180 | 98° | 128km/h | 7404m | -2.8m/s | -21.4°C | 82.6% | 401.1hPa | 2.5V | 07:43:00 | 00:00:00 | 00:00:00 | |
| KRY50SP-1 | 2026-09-04 18:49:53 | 52.01017 | 17.69311 | 98° | 124km/h | 7452m | -2.9m/s | -21.6°C | 83.0% | 398.4hPa | 2.5V | 07:43:00 | 00:00:00 | 00:00:00 | |
| KRY50SP-1 | 2026-09-04 18:49:47 | 52.01039 | 17.69009 | 97° | 124km/h | 7469m | -2.7m/s | -21.8°C | 82.9% | 397.5hPa | 2.5V | 07:43:00 | 00:00:00 | 00:00:00 | |
| SP6BVK | 2026-09-04 18:49:45 | 52.01046 | 17.68909 | 97° | 122km/h | 7475m | -2.9m/s | -21.8°C | 82.7% | 397.2hPa | 2.5V | 07:43:00 | 00:00:00 | 00:00:00 | |
| KRY50SP-1 | 2026-09-04 18:49:30 | 52.01098 | 17.68164 | 97° | 122km/h | 7518m | -2.9m/s | -22.0°C | 83.4% | 394.9hPa | 2.5V | 07:43:00 | 00:00:00 | 00:00:00 | |
| KRY50SP-1 | 2026-09-04 18:49:06 | 52.01179 | 17.66986 | 97° | 120km/h | 7586m | -2.9m/s | -22.4°C | 86.5% | 391.2hPa | 2.5V | 07:43:00 | 00:00:00 | 00:00:00 | |
| SP6BVK | 2026-09-04 18:49:03 | 52.01188 | 17.66840 | 97° | 120km/h | 7595m | -2.9m/s | -22.5°C | 87.1% | 390.7hPa | 2.5V | 07:43:00 | 00:00:00 | 00:00:00 | |
| KRY50SP-1 | 2026-09-04 18:48:34 | 52.01270 | 17.65435 | 96° | 115km/h | 7680m | -3.1m/s | -23.1°C | 0% | 386.3hPa | 2.5V | 07:44:00 | 00:00:00 | 00:00:00 | |
| KRY50SP-1 | 2026-09-04 18:48:11 | 52.01327 | 17.64360 | 96° | 111km/h | 7750m | -3.2m/s | -23.4°C | 0% | 0hPa | 2.5V | 07:44:00 | 00:00:00 | 00:00:00 | |
| SP6BVK | 2026-09-04 18:47:40 | 52.01384 | 17.62933 | 95° | 111km/h | 7850m | -3.3m/s | -24.1°C | 0% | 377.3hPa | 2.5V | 07:45:00 | 00:00:00 | 00:00:00 | |
| KRY50SP-1 | 2026-09-04 18:46:58 | 52.01477 | 17.60944 | 96° | 119km/h | 7993m | -3.6m/s | -25.2°C | 0% | 369.9hPa | 2.5V | 07:46:00 | 00:00:00 | 00:00:00 | |
| SP6BVK | 2026-09-04 18:46:39 | 52.01538 | 17.60016 | 97° | 120km/h | 8059m | -3.5m/s | -25.4°C | 87.3% | 366.7hPa | 2.5V | 07:46:00 | 00:00:00 | 00:00:00 | |
| KRY50SP-1 | 2026-09-04 18:44:38 | 52.01995 | 17.54002 | 99° | 124km/h | 8474m | -3.5m/s | -28.3°C | 79.1% | 346.0hPa | 2.5V | 07:48:00 | 00:00:00 | 00:00:00 | |
| KRY50SP-1 | 2026-09-04 18:44:27 | 52.02042 | 17.53448 | 99° | 124km/h | 8512m | -3.8m/s | -28.6°C | 79.1% | 344.1hPa | 2.5V | 07:48:00 | 00:00:00 | 00:00:00 | |
| KRY50SP-1 | 2026-09-04 18:44:21 | 52.02070 | 17.53146 | 99° | 124km/h | 8534m | -3.7m/s | -28.9°C | 76.1% | 343.1hPa | 2.5V | 07:49:00 | 00:00:00 | 00:00:00 | |
| KRY50SP-1 | 2026-09-04 18:44:04 | 52.02149 | 17.52295 | 100° | 122km/h | 8593m | -3.5m/s | -29.3°C | 76.6% | 340.4hPa | 2.5V | 07:49:00 | 00:00:00 | 00:00:00 | |
| KRY50SP-1 | 2026-09-04 18:43:58 | 52.02180 | 17.51993 | 100° | 126km/h | 8614m | -3.4m/s | -29.5°C | 77.0% | 339.4hPa | 2.5V | 07:49:00 | 00:00:00 | 00:00:00 | |
| KRY50SP-1 | 2026-09-04 18:43:08 | 52.02411 | 17.49421 | 99° | 128km/h | 8792m | -3.5m/s | -30.9°C | 84.8% | 331.0hPa | 2.5V | 07:49:00 | 00:00:00 | 00:00:00 | |
| SP6BVK | 2026-09-04 18:42:33 | 52.02573 | 17.47569 | 99° | 131km/h | 8903m | -2.9m/s | -31.8°C | 85.1% | 325.9hPa | 2.5V | 07:50:00 | 00:00:00 | 00:00:00 | |
| KRY50SP-1 | 2026-09-04 18:42:09 | 52.02682 | 17.46266 | 98° | 135km/h | 8976m | -3.0m/s | -32.2°C | 80.6% | 322.6hPa | 2.5V | 07:50:00 | 00:00:00 | 00:00:00 | |
| KRY50SP-1 | 2026-09-04 18:41:51 | 52.02761 | 17.45270 | 98° | 137km/h | 9029m | -2.8m/s | -32.6°C | 74.6% | 320.1hPa | 2.5V | 07:51:00 | 00:00:00 | 00:00:00 | |
| SP6BVK | 2026-09-04 18:41:33 | 52.02850 | 17.44214 | 100° | 137km/h | 9084m | -3.0m/s | -33.0°C | 72.7% | 317.7hPa | 2.5V | 07:51:00 | 00:00:00 | 00:00:00 | |
| KRY50SP-1 | 2026-09-04 18:41:30 | 52.02860 | 17.44102 | 100° | 139km/h | 9089m | -3.1m/s | -33.1°C | 72.7% | 317.4hPa | 2.5V | 07:51:00 | 00:00:00 | 00:00:00 | |
| SP3BTT-10 | 2026-09-04 18:41:27 | 52.02880 | 17.43877 | 99° | 141km/h | 9101m | -2.9m/s | -33.1°C | 79.4% | 316.8hPa | 2.5V | 00:00:00 | 00:00:00 | 00:00:00 | |
| KRY50SP-1 | 2026-09-04 18:41:25 | 52.02885 | 17.43820 | 99° | 141km/h | 9104m | -3.0m/s | -33.2°C | 73.7% | 316.7hPa | 2.5V | 07:51:00 | 00:00:00 | 00:00:00 | |
| KRY50SP-1 | 2026-09-04 18:41:13 | 52.02949 | 17.43142 | 100° | 139km/h | 9138m | -3.0m/s | -33.5°C | 76.1% | 315.2hPa | 2.5V | 07:51:00 | 00:00:00 | 00:00:00 | |
| SP6BVK | 2026-09-04 18:41:11 | 52.02959 | 17.43029 | 100° | 139km/h | 9144m | -2.7m/s | -33.5°C | 76.7% | 314.9hPa | 2.5V | 07:51:00 | 00:00:00 | 00:00:00 | |
| KRY50SP-1 | 2026-09-04 18:41:02 | 52.03008 | 17.42518 | 100° | 141km/h | 9170m | -2.8m/s | -33.7°C | 78.1% | 313.8hPa | 2.5V | 07:52:00 | 00:00:00 | 00:00:00 | |
| KRY50SP-1 | 2026-09-04 18:40:57 | 52.03036 | 17.42233 | 100° | 141km/h | 9185m | -2.9m/s | -33.8°C | 79.1% | 313.1hPa | 2.5V | 07:52:00 | 00:00:00 | 00:00:00 | |
| KRY50SP-1 | 2026-09-04 18:40:35 | 52.03165 | 17.40966 | 100° | 144km/h | 9248m | -2.9m/s | -34.4°C | 82.4% | 310.3hPa | 2.5V | 07:52:00 | 00:00:00 | 00:00:00 | |
| KRY50SP-1 | 2026-09-04 18:40:18 | 52.03272 | 17.39975 | 101° | 146km/h | 9295m | -2.8m/s | -34.8°C | 84.2% | 308.3hPa | 2.5V | 07:52:00 | 00:00:00 | 00:00:00 | |
| KRY50SP-1 | 2026-09-04 18:40:13 | 52.03304 | 17.39680 | 101° | 146km/h | 9308m | -2.6m/s | -34.9°C | 84.5% | 307.6hPa | 2.5V | 07:52:00 | 00:00:00 | 00:00:00 | |
| KRY50SP-1 | 2026-09-04 18:40:01 | 52.03384 | 17.38971 | 101° | 148km/h | 9342m | -2.7m/s | -35.1°C | 74.8% | 306.1hPa | 2.5V | 07:53:00 | 00:00:00 | 00:00:00 | |
| SP3BTT-10 | 2026-09-04 18:39:58 | 52.03410 | 17.38733 | 101° | 150km/h | 9353m | -2.8m/s | -35.0°C | 79.0% | 305.6hPa | 2.5V | 07:52:00 | 00:00:00 | 00:00:00 | |
| KRY50SP-1 | 2026-09-04 18:39:56 | 52.03418 | 17.38673 | 102° | 148km/h | 9356m | -2.7m/s | -35.1°C | 72.4% | 305.6hPa | 2.5V | 07:53:00 | 00:00:00 | 00:00:00 | |
| KRY50SP-1 | 2026-09-04 18:39:51 | 52.03453 | 17.38374 | 102° | 150km/h | 9370m | -3.1m/s | -35.2°C | 75.8% | 305.0hPa | 2.5V | 07:53:00 | 00:00:00 | 00:00:00 | |
| SP6BVK | 2026-09-04 18:39:48 | 52.03473 | 17.38193 | 102° | 150km/h | 9378m | -2.7m/s | -35.2°C | 74.2% | 304.6hPa | 2.5V | 07:53:00 | 00:00:00 | 00:00:00 | |
| KRY50SP-1 | 2026-09-04 18:39:45 | 52.03494 | 17.38012 | 101° | 150km/h | 9386m | -2.8m/s | -35.2°C | 70.7% | 304.2hPa | 2.5V | 07:53:00 | 00:00:00 | 00:00:00 | |
| KRY50SP-1 | 2026-09-04 18:39:40 | 52.03528 | 17.37710 | 101° | 150km/h | 9400m | -2.7m/s | -35.3°C | 69.0% | 303.6hPa | 2.5V | 07:53:00 | 00:00:00 | 00:00:00 | |
| KRY50SP-1 | 2026-09-04 18:39:34 | 52.03569 | 17.37347 | 101° | 150km/h | 9416m | -2.6m/s | -35.4°C | 69.0% | 302.9hPa | 2.5V | 07:53:00 | 00:00:00 | 00:00:00 | |
| KRY50SP-1 | 2026-09-04 18:39:29 | 52.03609 | 17.36984 | 101° | 148km/h | 9432m | -2.9m/s | -35.5°C | 65.3% | 302.2hPa | 2.5V | 07:53:00 | 00:00:00 | 00:00:00 | |
| SP6BVK | 2026-09-04 18:39:27 | 52.03615 | 17.36923 | 100° | 148km/h | 9435m | -2.6m/s | -35.5°C | 65.4% | 302.0hPa | 2.5V | 07:53:00 | 00:00:00 | 00:00:00 | |
| KRY50SP-1 | 2026-09-04 18:39:18 | 52.03673 | 17.36382 | 101° | 150km/h | 9459m | -2.7m/s | -35.6°C | 63.6% | 301.0hPa | 2.5V | 07:54:00 | 00:00:00 | 00:00:00 | |
| SP3BTT-10 | 2026-09-04 18:39:13 | 52.03712 | 17.36020 | 100° | 150km/h | 9474m | -2.5m/s | -35.6°C | 63.1% | 300.3hPa | 2.5V | 00:00:00 | 00:00:00 | 00:00:00 | |
| KRY50SP-1 | 2026-09-04 18:39:12 | 52.03712 | 17.36020 | 101° | 150km/h | 9474m | -2.6m/s | -35.6°C | 57.6% | 300.4hPa | 2.5V | 07:54:00 | 00:00:00 | 00:00:00 | |
| SP6BVK | 2026-09-04 18:39:07 | 52.03744 | 17.35719 | 101° | 148km/h | 9487m | -2.6m/s | -35.7°C | 54.4% | 299.8hPa | 2.5V | 07:54:00 | 00:00:00 | 00:00:00 | |
| EDDB2-12 | 2026-09-04 18:39:06 | 52.03776 | 17.35418 | 99° | 150km/h | 9500m | -2.6m/s | -35.8°C | 54.7% | 299.3hPa | 2.5V | 00:00:00 | 00:00:00 | 00:00:00 | |
| SP3WXH-11 | 2026-09-04 18:38:55 | 52.03826 | 17.34935 | 100° | 148km/h | 9520m | -2.5m/s | -35.9°C | 54.5% | 298.4hPa | 2.5V | 00:00:00 | 00:00:00 | 00:00:00 | |
| KRY50SP-1 | 2026-09-04 18:38:49 | 52.03859 | 17.34633 | 100° | 150km/h | 9533m | -2.6m/s | -36.1°C | 54.9% | 297.8hPa | 2.5V | 07:54:00 | 00:00:00 | 00:00:00 | |
| SP6BVK | 2026-09-04 18:38:46 | 52.03877 | 17.34452 | 101° | 150km/h | 9540m | -2.7m/s | -36.1°C | 55.2% | 297.5hPa | 2.5V | 07:54:00 | 00:00:00 | 00:00:00 | |
| SONDE2-11 | 2026-09-04 18:38:44 | 52.03903 | 17.34210 | 99° | 148km/h | 9550m | -2.6m/s | -36.2°C | 55.7% | 297.1hPa | 2.5V | 00:00:00 | 00:00:00 | 00:00:00 | |
| EDDB2-11 | 2026-09-04 18:38:43 | 52.03903 | 17.34210 | 99° | 148km/h | 9550m | -2.6m/s | -36.2°C | 55.7% | 297.1hPa | 2.5V | 00:00:00 | 00:00:00 | 00:00:00 | |
| KRY50SP-1 | 2026-09-04 18:38:38 | 52.03934 | 17.33907 | 101° | 150km/h | 9562m | -2.5m/s | -36.3°C | 56.1% | 296.6hPa | 2.5V | 07:54:00 | 00:00:00 | 00:00:00 | |
| EDDB2-12 | 2026-09-04 18:38:35 | 52.03960 | 17.33666 | 100° | 150km/h | 9572m | -2.6m/s | -36.4°C | 56.7% | 296.1hPa | 2.5V | 00:00:00 | 00:00:00 | 00:00:00 | |
| KRY50SP-1 | 2026-09-04 18:38:31 | 52.03973 | 17.33545 | 101° | 151km/h | 9577m | -2.5m/s | -36.5°C | 56.8% | 295.9hPa | 2.5V | 07:54:00 | 00:00:00 | 00:00:00 | |
| SP3BTT-10 | 2026-09-04 18:38:30 | 52.03985 | 17.33423 | 100° | 146km/h | 9582m | -2.4m/s | -36.5°C | 62.6% | 295.7hPa | 2.5V | 00:00:00 | 00:00:00 | 00:00:00 | |
| OE3JTB-15 | 2026-09-04 18:38:27 | 52.04003 | 17.33241 | 99° | 148km/h | 9589m | -2.4m/s | -36.5°C | 63.0% | 295.3hPa | 2.5V | 07:54:00 | 02:21:02 | 00:00:00 | |
| SP6BVK | 2026-09-04 18:38:26 | 52.04003 | 17.33241 | 100° | 148km/h | 9589m | -2.4m/s | -36.6°C | 57.3% | 295.4hPa | 2.5V | 07:54:00 | 00:00:00 | 00:00:00 | |
| DB0DAN | 2026-09-04 18:38:25 | 52.04014 | 17.33121 | 99° | 141km/h | 9594m | -2.4m/s | -36.6°C | 57.6% | 295.2hPa | 2.5V | 00:00:00 | 00:00:00 | 00:00:00 | |
| SP3WXH-11 | 2026-09-04 18:38:24 | 52.04020 | 17.33062 | 99° | 146km/h | 9597m | -2.6m/s | -36.7°C | 57.5% | 295.1hPa | 2.5V | 00:00:00 | 00:00:00 | 00:00:00 | |
| KRY50SP-1 | 2026-09-04 18:38:20 | 52.04039 | 17.32884 | 101° | 148km/h | 9604m | -2.5m/s | -36.7°C | 57.6% | 294.8hPa | 2.5V | 07:54:00 | 00:00:00 | 00:00:00 | |
| KRY50SP-1 | 2026-09-04 18:38:15 | 52.04069 | 17.32583 | 99° | 148km/h | 9617m | -2.6m/s | -36.9°C | 58.1% | 294.2hPa | 2.5V | 07:54:00 | 00:00:00 | 00:00:00 | |
| SONDE2-11 | 2026-09-04 18:38:13 | 52.04091 | 17.32345 | 98° | 144km/h | 9628m | -2.6m/s | -37.0°C | 57.5% | 293.8hPa | 2.5V | 00:00:00 | 00:00:00 | 00:00:00 | |
| EDDB2-11 | 2026-09-04 18:38:12 | 52.04091 | 17.32345 | 98° | 144km/h | 9628m | -2.6m/s | -37.0°C | 57.5% | 293.8hPa | 2.5V | 00:00:00 | 00:00:00 | 00:00:00 | |
| KRY50SP-1 | 2026-09-04 18:38:09 | 52.04103 | 17.32226 | 100° | 146km/h | 9633m | -2.7m/s | -37.0°C | 57.3% | 293.5hPa | 2.5V | 07:54:00 | 00:00:00 | 00:00:00 | |
| SP6BVK | 2026-09-04 18:38:05 | 52.04128 | 17.31988 | 101° | 148km/h | 9643m | -2.7m/s | -37.1°C | 56.3% | 293.1hPa | 2.5V | 07:54:00 | 00:00:00 | 00:00:00 | |
| KRY50SP-1 | 2026-09-04 18:38:03 | 52.04140 | 17.31869 | 100° | 146km/h | 9648m | -2.7m/s | -37.1°C | 56.3% | 292.9hPa | 2.5V | 07:54:00 | 00:00:00 | 00:00:00 | |
| OE3JTB-15 | 2026-09-04 18:37:58 | 52.04175 | 17.31515 | 100° | 146km/h | 9664m | -2.6m/s | -37.2°C | 63.0% | 292.3hPa | 2.5V | 00:00:00 | 00:00:00 | 00:00:00 | |
| KRY50SP-1 | 2026-09-04 18:37:57 | 52.04175 | 17.31515 | 100° | 144km/h | 9664m | -2.6m/s | -37.3°C | 57.2% | 292.3hPa | 2.5V | 07:54:00 | 00:00:00 | 00:00:00 | |
| DB0DAN | 2026-09-04 18:37:55 | 52.04193 | 17.31339 | 100° | 139km/h | 9672m | -3m/s | -37.4°C | 57.5% | 291.93hPa | 2.5V | 00:00:00 | 00:00:00 | 00:00:00 | |
| SP3WXH-11 | 2026-09-04 18:37:53 | 52.04205 | 17.31221 | 99° | 146km/h | 9678m | -3.0m/s | -37.4°C | 57.8% | 291.7hPa | 2.5V | 00:00:00 | 00:00:00 | 00:00:00 | |
| KRY50SP-1 | 2026-09-04 18:37:51 | 52.04211 | 17.31162 | 100° | 148km/h | 9681m | -2.7m/s | -37.4°C | 57.5% | 291.6hPa | 2.5V | 07:54:00 | 00:00:00 | 00:00:00 | |
| KRY50SP-1 | 2026-09-04 18:37:46 | 52.04242 | 17.30865 | 100° | 146km/h | 9694m | -2.4m/s | -37.6°C | 57.3% | 291.1hPa | 2.5V | 07:54:00 | 00:00:00 | 00:00:00 | |
| SP6BVK | 2026-09-04 18:37:45 | 52.04253 | 17.30747 | 101° | 146km/h | 9699m | -2.7m/s | -37.6°C | 57.6% | 290.8hPa | 2.5V | 07:54:00 | 00:00:00 | 00:00:00 | |
| KRY50SP-1 | 2026-09-04 18:37:41 | 52.04272 | 17.30569 | 101° | 146km/h | 9706m | -2.6m/s | -37.7°C | 58.0% | 290.5hPa | 2.5V | 07:54:00 | 00:00:00 | 00:00:00 | |
| DB0DAN | 2026-09-04 18:37:40 | 52.04285 | 17.30450 | 100° | 141km/h | 9712m | -2.5m/s | -37.8°C | 58.2% | 290.29hPa | 2.5V | 00:00:00 | 00:00:00 | 00:00:00 | |
| SP3BTT-10 | 2026-09-04 18:37:40 | 52.04285 | 17.30450 | 100° | 148km/h | 9712m | -2.5m/s | -37.7°C | 64.1% | 290.2hPa | 2.5V | 00:00:00 | 00:00:00 | 00:00:00 | |
| KRY50SP-1 | 2026-09-04 18:37:36 | 52.04303 | 17.30271 | 100° | 148km/h | 9719m | -2.5m/s | -37.9°C | 58.1% | 289.9hPa | 2.5V | 07:55:00 | 00:00:00 | 00:00:00 | |
| EDDB2-12 | 2026-09-04 18:37:33 | 52.04332 | 17.29974 | 99° | 146km/h | 9732m | -2.5m/s | -38.0°C | 59.2% | 289.5hPa | 2.5V | 00:00:00 | 00:00:00 | 00:00:00 | |
| KRY50SP-1 | 2026-09-04 18:37:32 | 52.04332 | 17.29974 | 100° | 146km/h | 9732m | -2.5m/s | -38.0°C | 59.2% | 289.5hPa | 2.5V | 07:55:00 | 00:00:00 | 00:00:00 | |
| KRY50SP-1 | 2026-09-04 18:37:25 | 52.04369 | 17.29617 | 101° | 148km/h | 9747m | -2.5m/s | -38.1°C | 59.8% | 288.9hPa | 2.5V | 07:55:00 | 00:00:00 | 00:00:00 | |
| SP6BVK | 2026-09-04 18:37:24 | 52.04375 | 17.29557 | 100° | 148km/h | 9749m | -2.6m/s | -38.2°C | 59.8% | 288.7hPa | 2.5V | 07:55:00 | 00:00:00 | 00:00:00 | |
| SP3WXH-11 | 2026-09-04 18:37:22 | 52.04393 | 17.29378 | 99° | 146km/h | 9757m | -2.7m/s | -38.2°C | 60.0% | 288.4hPa | 2.5V | 00:00:00 | 00:00:00 | 00:00:00 | |
| KRY50SP-1 | 2026-09-04 18:37:20 | 52.04399 | 17.29318 | 100° | 146km/h | 9760m | -2.4m/s | -38.3°C | 60.1% | 288.3hPa | 2.5V | 07:55:00 | 00:00:00 | 00:00:00 | |
| KRY50SP-1 | 2026-09-04 18:37:15 | 52.04435 | 17.28960 | 100° | 150km/h | 9775m | -2.4m/s | -38.4°C | 60.6% | 287.7hPa | 2.5V | 07:55:00 | 00:00:00 | 00:00:00 | |
| DB0DAN | 2026-09-04 18:37:10 | 52.04465 | 17.28657 | 99° | 141km/h | 9787m | -2.5m/s | -38.5°C | 61.4% | 287.15hPa | 2.5V | 00:00:00 | 00:00:00 | 00:00:00 | |
| EDDB2-11 | 2026-09-04 18:37:10 | 52.04465 | 17.28657 | 98° | 148km/h | 9787m | -2.5m/s | -38.5°C | 61.4% | 287.1hPa | 2.5V | 00:00:00 | 00:00:00 | 00:00:00 | |
| KRY50SP-1 | 2026-09-04 18:37:09 | 52.04465 | 17.28658 | 100° | 148km/h | 9787m | -2.5m/s | -38.5°C | 61.4% | 287.2hPa | 2.5V | 07:55:00 | 00:00:00 | 00:00:00 | |
| KRY50SP-1 | 2026-09-04 18:37:04 | 52.04493 | 17.28359 | 100° | 148km/h | 9799m | -2.3m/s | -38.6°C | 62.1% | 286.7hPa | 2.5V | 07:55:00 | 00:00:00 | 00:00:00 | |
| SP6BVK | 2026-09-04 18:37:03 | 52.04499 | 17.28299 | 100° | 148km/h | 9801m | -2.6m/s | -38.7°C | 62.0% | 286.6hPa | 2.5V | 07:55:00 | 00:00:00 | 00:00:00 | |
| EDDB2-12 | 2026-09-04 18:37:02 | 52.04517 | 17.28120 | 99° | 148km/h | 9809m | -2.4m/s | -38.7°C | 62.0% | 286.2hPa | 2.5V | 00:00:00 | 00:00:00 | 00:00:00 | |
| KRY50SP-1 | 2026-09-04 18:36:58 | 52.04529 | 17.27999 | 100° | 150km/h | 9814m | -2.5m/s | -38.8°C | 62.1% | 286.0hPa | 2.5V | 07:55:00 | 00:00:00 | 00:00:00 | |
| DB0DAN | 2026-09-04 18:36:55 | 52.04553 | 17.27758 | 99° | 142km/h | 9824m | -2.7m/s | -38.9°C | 62.9% | 285.56hPa | 2.5V | 00:00:00 | 00:00:00 | 00:00:00 | |
| SP3BTT-10 | 2026-09-04 18:36:11 | 52.04801 | 17.25109 | 99° | 148km/h | 9940m | -2.7m/s | -39.9°C | 74.3% | 280.7hPa | 2.5V | 00:00:00 | 00:00:00 | 00:00:00 | |
| SP6BVK | 2026-09-04 18:36:01 | 52.04854 | 17.24566 | 99° | 151km/h | 9964m | -2.6m/s | -40.2°C | 67.9% | 279.8hPa | 2.5V | 07:56:00 | 00:00:00 | 00:00:00 | |
| KRY50SP-1 | 2026-09-04 18:35:55 | 52.04885 | 17.24204 | 100° | 148km/h | 9979m | -2.5m/s | -40.3°C | 68.0% | 279.1hPa | 2.5V | 07:57:00 | 00:00:00 | 00:00:00 | |
| KRY50SP-1 | 2026-09-04 18:35:34 | 52.05009 | 17.22938 | 100° | 151km/h | 10038m | -2.5m/s | -40.8°C | 70.4% | 276.9hPa | 2.5V | 07:57:00 | 00:00:00 | 00:00:00 | |
| SP3BTT-10 | 2026-09-04 18:35:25 | 52.05069 | 17.22340 | 100° | 146km/h | 10065m | -2.4m/s | -41.0°C | 77.1% | 275.7hPa | 2.5V | 00:00:00 | 00:00:00 | 00:00:00 | |
| KRY50SP-1 | 2026-09-04 18:35:24 | 52.05069 | 17.22340 | 101° | 150km/h | 10065m | -2.5m/s | -41.1°C | 69.7% | 275.7hPa | 2.5V | 07:57:00 | 00:00:00 | 00:00:00 | |
| KRY50SP-1 | 2026-09-04 18:35:13 | 52.05130 | 17.21680 | 99° | 146km/h | 10093m | -2.7m/s | -41.3°C | 67.2% | 274.6hPa | 2.5V | 07:57:00 | 00:00:00 | 00:00:00 | |
| KRY50SP-1 | 2026-09-04 18:35:07 | 52.05163 | 17.21322 | 100° | 148km/h | 10109m | -2.4m/s | -41.5°C | 65.6% | 273.9hPa | 2.5V | 07:57:00 | 00:00:00 | 00:00:00 | |
| SP6BVK | 2026-09-04 18:34:59 | 52.05205 | 17.20842 | 99° | 146km/h | 10129m | -2.4m/s | -41.6°C | 65.3% | 273.1hPa | 2.5V | 07:58:00 | 00:00:00 | 00:00:00 | |
| KRY50SP-1 | 2026-09-04 18:34:56 | 52.05220 | 17.20664 | 99° | 146km/h | 10137m | -2.6m/s | -41.7°C | 65.5% | 272.8hPa | 2.5V | 07:58:00 | 00:00:00 | 00:00:00 | |
| KRY50SP-1 | 2026-09-04 18:34:51 | 52.05247 | 17.20369 | 100° | 148km/h | 10151m | -2.6m/s | -41.8°C | 65.7% | 272.3hPa | 2.5V | 07:58:00 | 00:00:00 | 00:00:00 | |
| SP3BTT-10 | 2026-09-04 18:34:40 | 52.05305 | 17.19654 | 98° | 146km/h | 10183m | -2.7m/s | -42.0°C | 72.1% | 270.9hPa | 2.5V | 00:00:00 | 00:00:00 | 00:00:00 | |
| KRY50SP-1 | 2026-09-04 18:34:39 | 52.05305 | 17.19654 | 98° | 144km/h | 10183m | -2.7m/s | -42.1°C | 64.8% | 271.0hPa | 2.5V | 07:58:00 | 00:00:00 | 00:00:00 | |
| KRY50SP-1 | 2026-09-04 18:34:33 | 52.05336 | 17.19300 | 99° | 148km/h | 10199m | -2.5m/s | -42.2°C | 64.7% | 270.3hPa | 2.5V | 07:58:00 | 00:00:00 | 00:00:00 | |
| KRY50SP-1 | 2026-09-04 18:34:28 | 52.05360 | 17.19001 | 98° | 146km/h | 10212m | -2.6m/s | -42.3°C | 63.1% | 269.8hPa | 2.5V | 07:58:00 | 00:00:00 | 00:00:00 | |
| KRY50SP-1 | 2026-09-04 18:34:22 | 52.05386 | 17.18644 | 98° | 146km/h | 10228m | -2.6m/s | -42.5°C | 63.8% | 269.2hPa | 2.5V | 07:58:00 | 00:00:00 | 00:00:00 | |
| SP6BVK | 2026-09-04 18:34:17 | 52.05411 | 17.18346 | 98° | 148km/h | 10241m | -2.7m/s | -42.6°C | 63.6% | 268.7hPa | 2.5V | 07:58:00 | 00:00:00 | 00:00:00 | |
| KRY50SP-1 | 2026-09-04 18:34:12 | 52.05434 | 17.18048 | 98° | 146km/h | 10254m | -2.8m/s | -42.7°C | 63.7% | 268.1hPa | 2.5V | 07:59:00 | 00:00:00 | 00:00:00 | |
| KRY50SP-1 | 2026-09-04 18:34:07 | 52.05461 | 17.17692 | 98° | 146km/h | 10270m | -2.7m/s | -42.9°C | 64.6% | 267.5hPa | 2.5V | 07:59:00 | 00:00:00 | 00:00:00 | |
| KRY50SP-1 | 2026-09-04 18:33:45 | 52.05550 | 17.16449 | 97° | 144km/h | 10326m | -3.3m/s | -43.4°C | 62.4% | 265.3hPa | 2.5V | 07:59:00 | 00:00:00 | 00:00:00 | |
| KRY50SP-1 | 2026-09-04 18:33:28 | 52.05616 | 17.15447 | 97° | 144km/h | 10387m | -3.7m/s | -43.9°C | 64.6% | 263.0hPa | 2.5V | 07:59:00 | 00:00:00 | 00:00:00 | |
| KRY50SP-1 | 2026-09-04 18:33:23 | 52.05634 | 17.15148 | 96° | 148km/h | 10405m | -3.6m/s | -44.0°C | 66.5% | 262.2hPa | 2.5V | 08:00:00 | 00:00:00 | 00:00:00 | |
| KRY50SP-1 | 2026-09-04 18:33:17 | 52.05654 | 17.14788 | 96° | 148km/h | 10427m | -3.6m/s | -44.2°C | 68.0% | 261.4hPa | 2.5V | 08:00:00 | 00:00:00 | 00:00:00 | |
| SP6BVK | 2026-09-04 18:33:16 | 52.05657 | 17.14728 | 95° | 146km/h | 10430m | -3.7m/s | -44.2°C | 68.2% | 261.2hPa | 2.5V | 08:00:00 | 00:00:00 | 00:00:00 | |
| SP3BTT-10 | 2026-09-04 18:33:13 | 52.05669 | 17.14489 | 95° | 150km/h | 10445m | -3.2m/s | -44.3°C | 78.2% | 260.6hPa | 2.5V | 00:00:00 | 00:00:00 | 00:00:00 | |
| KRY50SP-1 | 2026-09-04 18:33:12 | 52.05669 | 17.14488 | 95° | 148km/h | 10445m | -3.2m/s | -44.3°C | 70.0% | 260.7hPa | 2.5V | 08:00:00 | 00:00:00 | 00:00:00 | |
| KRY50SP-1 | 2026-09-04 18:32:39 | 52.05759 | 17.12480 | 96° | 151km/h | 10563m | -3.6m/s | -45.3°C | 73.1% | 256.1hPa | 2.5V | 08:00:00 | 00:00:00 | 00:00:00 | |
| SP6BVK | 2026-09-04 18:32:36 | 52.05769 | 17.12293 | 95° | 153km/h | 10574m | -3.6m/s | -45.4°C | 71.7% | 255.7hPa | 2.5V | 08:00:00 | 00:00:00 | 00:00:00 | |
| KRY50SP-1 | 2026-09-04 18:32:34 | 52.05774 | 17.12169 | 95° | 153km/h | 10581m | -3.6m/s | -45.4°C | 70.7% | 255.4hPa | 2.5V | 08:00:00 | 00:00:00 | 00:00:00 | |
| SP3BTT-10 | 2026-09-04 18:32:27 | 52.05798 | 17.11671 | 95° | 155km/h | 10610m | -3.5m/s | -45.6°C | 78.6% | 254.2hPa | 2.5V | 00:00:00 | 00:00:00 | 00:00:00 | |
| OE3JTB-15 | 2026-09-04 18:32:26 | 52.05801 | 17.11608 | 96° | 155km/h | 10614m | -3.8m/s | -45.6°C | 78.3% | 254.1hPa | 2.5V | 00:00:00 | 02:15:01 | 00:00:00 | |
| KRY50SP-1 | 2026-09-04 18:32:24 | 52.05808 | 17.11483 | 96° | 153km/h | 10621m | -3.6m/s | -45.7°C | 69.6% | 253.9hPa | 2.5V | 08:00:00 | 00:00:00 | 00:00:00 | |
| EDDB2-12 | 2026-09-04 18:32:22 | 52.05819 | 17.11294 | 94° | 153km/h | 10632m | -3.6m/s | -45.8°C | 70.4% | 253.4hPa | 2.5V | 00:00:00 | 00:00:00 | 00:00:00 | |
| KRY50SP-1 | 2026-09-04 18:32:18 | 52.05826 | 17.11168 | 96° | 155km/h | 10638m | -3.3m/s | -45.9°C | 70.5% | 253.2hPa | 2.5V | 08:00:00 | 00:00:00 | 00:00:00 | |
| SP6BVK | 2026-09-04 18:32:15 | 52.05836 | 17.10977 | 96° | 155km/h | 10647m | -3.1m/s | -45.9°C | 70.8% | 252.9hPa | 2.5V | 08:00:00 | 00:00:00 | 00:00:00 | |
| SP3WXH-11 | 2026-09-04 18:32:12 | 52.05852 | 17.10658 | 94° | 155km/h | 10662m | -3.5m/s | -46.1°C | 70.6% | 252.3hPa | 2.5V | 00:00:00 | 00:00:00 | 00:00:00 | |
| KRY50SP-1 | 2026-09-04 18:32:07 | 52.05862 | 17.10468 | 96° | 155km/h | 10672m | -3.3m/s | -46.1°C | 71.4% | 251.9hPa | 2.5V | 08:00:00 | 00:00:00 | 00:00:00 | |
| SONDE2-11 | 2026-09-04 18:32:00 | 52.05890 | 17.09959 | 94° | 157km/h | 10697m | -3.2m/s | -46.3°C | 71.0% | 251.0hPa | 2.5V | 00:00:00 | 00:00:00 | 00:00:00 | |
| EDDB2-11 | 2026-09-04 18:31:59 | 52.05893 | 17.09895 | 93° | 157km/h | 10700m | -2.8m/s | -46.3°C | 70.8% | 250.9hPa | 2.5V | 00:00:00 | 00:00:00 | 00:00:00 | |
| EDDB2-12 | 2026-09-04 18:31:51 | 52.05915 | 17.09392 | 95° | 153km/h | 10724m | -2.8m/s | -46.6°C | 69.3% | 249.9hPa | 2.5V | 00:00:00 | 00:00:00 | 00:00:00 | |
| KRY50SP-1 | 2026-09-04 18:31:50 | 52.05915 | 17.09392 | 96° | 155km/h | 10725m | -2.8m/s | -46.6°C | 69.4% | 249.9hPa | 2.5V | 08:00:00 | 00:00:00 | 00:00:00 | |
| KRY50SP-1 | 2026-09-04 18:31:45 | 52.05930 | 17.09069 | 94° | 159km/h | 10740m | -2.7m/s | -46.7°C | 68.8% | 249.4hPa | 2.5V | 08:00:00 | 00:00:00 | 00:00:00 | |
| KRY50SP-1 | 2026-09-04 18:31:40 | 52.05940 | 17.08752 | 95° | 153km/h | 10758m | -4.0m/s | -46.9°C | 69.0% | 248.8hPa | 2.5V | 08:01:00 | 00:00:00 | 00:00:00 | |
| SP3BTT-10 | 2026-09-04 18:31:39 | 52.05946 | 17.08627 | 95° | 157km/h | 10764m | -3.1m/s | -46.9°C | 77.9% | 248.4hPa | 2.5V | 00:00:00 | 00:00:00 | 00:00:00 | |
| KRY50SP-1 | 2026-09-04 18:31:35 | 52.05956 | 17.08435 | 96° | 161km/h | 10773m | -3.6m/s | -47.0°C | 69.1% | 248.2hPa | 2.5V | 08:01:00 | 00:00:00 | 00:00:00 | |
| SP6BVK | 2026-09-04 18:31:33 | 52.05962 | 17.08304 | 95° | 162km/h | 10780m | -2.6m/s | -47.0°C | 69.9% | 247.9hPa | 2.5V | 08:01:00 | 00:00:00 | 00:00:00 | |
| EDDB2-11 | 2026-09-04 18:31:29 | 52.05973 | 17.07918 | 93° | 151km/h | 10798m | -2.9m/s | -47.2°C | 71.4% | 247.2hPa | 2.5V | 00:00:00 | 00:00:00 | 00:00:00 | |
| OE3JTB-15 | 2026-09-04 18:31:28 | 52.05973 | 17.07918 | 94° | 157km/h | 10798m | -2.9m/s | -47.2°C | 80.5% | 247.2hPa | 2.5V | 00:00:00 | 00:00:00 | 00:00:00 | |
| KRY50SP-1 | 2026-09-04 18:31:23 | 52.05985 | 17.07668 | 96° | 155km/h | 10811m | -3.3m/s | -47.3°C | 71.1% | 246.7hPa | 2.5V | 08:01:00 | 00:00:00 | 00:00:00 | |
| EDDB2-12 | 2026-09-04 18:31:20 | 52.05997 | 17.07407 | 92° | 161km/h | 10823m | -2.7m/s | -47.4°C | 70.6% | 246.3hPa | 2.5V | 00:00:00 | 00:00:00 | 00:00:00 | |
| KRY50SP-1 | 2026-09-04 18:31:18 | 52.05999 | 17.07341 | 94° | 159km/h | 10826m | -3.1m/s | -47.4°C | 70.3% | 246.2hPa | 2.5V | 08:01:00 | 00:00:00 | 00:00:00 | |
| SP6BVK | 2026-09-04 18:31:13 | 52.06008 | 17.06958 | 95° | 153km/h | 10844m | -3.0m/s | -47.6°C | 69.4% | 245.5hPa | 2.5V | 08:01:00 | 00:00:00 | 00:00:00 | |
| KRY50SP-1 | 2026-09-04 18:31:12 | 52.06008 | 17.06958 | 95° | 153km/h | 10844m | -3.0m/s | -47.6°C | 69.4% | 245.5hPa | 2.5V | 08:01:00 | 00:00:00 | 00:00:00 | |
| DB0DAN | 2026-09-04 18:31:10 | 52.06019 | 17.06769 | 96° | 148km/h | 10852m | -2.8m/s | -47.6°C | 67.8% | 245.17hPa | 2.5V | 00:00:00 | 00:00:00 | 00:00:00 | |
| SP3WXH-11 | 2026-09-04 18:31:10 | 52.06022 | 17.06705 | 95° | 157km/h | 10855m | -3.0m/s | -47.7°C | 67.1% | 245.1hPa | 2.5V | 00:00:00 | 00:00:00 | 00:00:00 | |
| KRY50SP-1 | 2026-09-04 18:31:07 | 52.06026 | 17.06640 | 97° | 159km/h | 10858m | -2.9m/s | -47.7°C | 66.4% | 245.0hPa | 2.5V | 08:01:00 | 00:00:00 | 00:00:00 | |
| KRY50SP-1 | 2026-09-04 18:31:01 | 52.06043 | 17.06247 | 94° | 159km/h | 10877m | -2.5m/s | -47.8°C | 65.6% | 244.3hPa | 2.5V | 08:01:00 | 00:00:00 | 00:00:00 | |
| SONDE2-11 | 2026-09-04 18:30:58 | 52.06050 | 17.05990 | 93° | 153km/h | 10888m | -2.7m/s | -47.9°C | 64.5% | 243.9hPa | 2.5V | 00:00:00 | 00:00:00 | 00:00:00 | |
| EDDB2-11 | 2026-09-04 18:30:57 | 52.06062 | 17.05736 | 94° | 157km/h | 10899m | -3.3m/s | -48.0°C | 63.0% | 243.5hPa | 2.5V | 00:00:00 | 00:00:00 | 00:00:00 | |
| EDDB2-12 | 2026-09-04 18:30:49 | 52.06077 | 17.05407 | 93° | 161km/h | 10913m | -3.3m/s | -48.2°C | 60.5% | 242.9hPa | 2.5V | 00:00:00 | 00:00:00 | 00:00:00 | |
| KRY50SP-1 | 2026-09-04 18:30:44 | 52.06084 | 17.05145 | 93° | 157km/h | 10925m | -2.9m/s | -48.3°C | 58.3% | 242.5hPa | 2.5V | 08:02:00 | 00:00:00 | 00:00:00 | |
| DB0DAN | 2026-09-04 18:30:40 | 52.06095 | 17.04826 | 94° | 148km/h | 10940m | -2.9m/s | -48.4°C | 56.4% | 241.98hPa | 2.5V | 00:00:00 | 00:00:00 | 00:00:00 | |
| SP3WXH-11 | 2026-09-04 18:30:39 | 52.06101 | 17.04697 | 94° | 157km/h | 10946m | -3.2m/s | -48.4°C | 55.6% | 241.7hPa | 2.5V | 00:00:00 | 00:00:00 | 00:00:00 | |
| KRY50SP-1 | 2026-09-04 18:30:33 | 52.06113 | 17.04434 | 94° | 161km/h | 10957m | -2.8m/s | -48.5°C | 56.0% | 241.3hPa | 2.5V | 08:02:00 | 00:00:00 | 00:00:00 | |
| SP6BVK | 2026-09-04 18:30:31 | 52.06116 | 17.04302 | 93° | 161km/h | 10963m | -3.0m/s | -48.5°C | 56.5% | 241.1hPa | 2.5V | 08:02:00 | 00:00:00 | 00:00:00 | |
| SONDE2-11 | 2026-09-04 18:30:27 | 52.06124 | 17.03980 | 92° | 153km/h | 10978m | -2.8m/s | -48.7°C | 56.7% | 240.6hPa | 2.5V | 00:00:00 | 00:00:00 | 00:00:00 | |
| DB0DAN | 2026-09-04 18:30:25 | 52.06128 | 17.03853 | 93° | 146km/h | 10983m | -2.9m/s | -48.7°C | 56.8% | 240.33hPa | 2.5V | 00:00:00 | 00:00:00 | 00:00:00 | |
| KRY50SP-1 | 2026-09-04 18:30:21 | 52.06135 | 17.03663 | 95° | 155km/h | 10993m | -2.8m/s | -48.8°C | 56.9% | 240.1hPa | 2.5V | 08:02:00 | 00:00:00 | 00:00:00 | |
| EDDB2-12 | 2026-09-04 18:30:18 | 52.06145 | 17.03406 | 93° | 159km/h | 11004m | -2.9m/s | -48.9°C | 57.4% | 239.6hPa | 2.5V | 00:00:00 | 00:00:00 | 00:00:00 | |
| KRY50SP-1 | 2026-09-04 18:30:16 | 52.06147 | 17.03341 | 93° | 159km/h | 11007m | -2.7m/s | -48.9°C | 57.6% | 239.6hPa | 2.5V | 08:02:00 | 00:00:00 | 00:00:00 | |
| DB0DAN | 2026-09-04 18:30:10 | 52.06158 | 17.02890 | 93° | 148km/h | 11026m | -2.9m/s | -49.1°C | 57.6% | 238.82hPa | 2.5V | 00:00:00 | 00:00:00 | 00:00:00 | |
| SP3BTT-10 | 2026-09-04 18:30:08 | 52.06162 | 17.02764 | 94° | 157km/h | 11033m | -3.0m/s | -49.1°C | 65.5% | 238.6hPa | 2.5V | 00:00:00 | 00:00:00 | 00:00:00 | |
| SP3WXH-11 | 2026-09-04 18:30:07 | 52.06165 | 17.02700 | 93° | 155km/h | 11035m | -2.6m/s | -49.2°C | 56.9% | 238.5hPa | 2.5V | 00:00:00 | 00:00:00 | 00:00:00 | |
| KRY50SP-1 | 2026-09-04 18:30:05 | 52.06168 | 17.02636 | 95° | 155km/h | 11038m | -3.0m/s | -49.2°C | 56.6% | 238.4hPa | 2.5V | 08:02:00 | 00:00:00 | 00:00:00 | |
| EDDB2-11 | 2026-09-04 18:29:56 | 52.06195 | 17.01926 | 93° | 153km/h | 11069m | -2.8m/s | -49.4°C | 55.2% | 237.3hPa | 2.5V | 00:00:00 | 00:00:00 | 00:00:00 | |
| DB0DAN | 2026-09-04 18:29:55 | 52.06195 | 17.01926 | 93° | 148km/h | 11069m | -2.8m/s | -49.4°C | 55.2% | 237.31hPa | 2.5V | 00:00:00 | 00:00:00 | 00:00:00 | |
| EDDB2-12 | 2026-09-04 18:29:47 | 52.06216 | 17.01420 | 94° | 155km/h | 11091m | -2.9m/s | -49.6°C | 55.1% | 236.5hPa | 2.5V | 00:00:00 | 00:00:00 | 00:00:00 | |
| KRY50SP-1 | 2026-09-04 18:29:42 | 52.06229 | 17.01162 | 95° | 159km/h | 11102m | -2.6m/s | -49.7°C | 55.4% | 236.1hPa | 2.5V | 08:03:00 | 00:00:00 | 00:00:00 | |
| DB0DAN | 2026-09-04 18:29:40 | 52.06237 | 17.00968 | 94° | 150km/h | 11110m | -2.9m/s | -49.8°C | 55.7% | 235.79hPa | 2.5V | 00:00:00 | 00:00:00 | 00:00:00 | |
| KRY50SP-1 | 2026-09-04 18:29:37 | 52.06242 | 17.00839 | 95° | 157km/h | 11116m | -2.7m/s | -49.8°C | 55.9% | 235.6hPa | 2.5V | 08:03:00 | 00:00:00 | 00:00:00 | |
| SP3WXH-11 | 2026-09-04 18:29:36 | 52.06247 | 17.00711 | 93° | 155km/h | 11122m | -2.9m/s | -49.9°C | 56.2% | 235.5hPa | 2.5V | 00:00:00 | 00:00:00 | 00:00:00 | |
| KRY50SP-1 | 2026-09-04 18:29:31 | 52.06258 | 17.00456 | 95° | 155km/h | 11132m | -2.8m/s | -50.0°C | 56.4% | 235.0hPa | 2.5V | 08:03:00 | 00:00:00 | 00:00:00 | |
| SP6BVK | 2026-09-04 18:29:29 | 52.06264 | 17.00328 | 95° | 157km/h | 11138m | -2.6m/s | -50.0°C | 56.8% | 234.8hPa | 2.5V | 08:03:00 | 00:00:00 | 00:00:00 | |
| OE3JTB-15 | 2026-09-04 18:29:28 | 52.06269 | 17.00200 | 95° | 155km/h | 11143m | -2.7m/s | -50.0°C | 65.5% | 234.6hPa | 2.5V | 08:03:00 | 00:00:00 | 00:00:00 | |
| KRY50SP-1 | 2026-09-04 18:29:26 | 52.06273 | 17.00136 | 95° | 157km/h | 11146m | -2.7m/s | -50.1°C | 56.9% | 234.5hPa | 2.5V | 08:03:00 | 00:00:00 | 00:00:00 | |
| SONDE2-11 | 2026-09-04 18:29:25 | 52.06279 | 17.00008 | 94° | 155km/h | 11151m | -2.9m/s | -50.1°C | 57.3% | 234.4hPa | 2.5V | 00:00:00 | 00:00:00 | 00:00:00 | |
| SP3BTT-10 | 2026-09-04 18:29:23 | 52.06285 | 16.99880 | 95° | 155km/h | 11157m | -2.7m/s | -50.1°C | 66.1% | 234.1hPa | 2.5V | 08:03:00 | 00:00:00 | 00:00:00 | |
| KRY50SP-1 | 2026-09-04 18:29:21 | 52.06288 | 16.99816 | 96° | 157km/h | 11160m | -2.6m/s | -50.2°C | 57.6% | 234.0hPa | 2.5V | 08:03:00 | 00:00:00 | 00:00:00 | |
| EDDB2-12 | 2026-09-04 18:29:16 | 52.06308 | 16.99435 | 95° | 153km/h | 11176m | -2.8m/s | -50.4°C | 58.3% | 233.4hPa | 2.5V | 00:00:00 | 00:00:00 | 00:00:00 | |
| KRY50SP-1 | 2026-09-04 18:29:15 | 52.06308 | 16.99435 | 96° | 155km/h | 11176m | -2.8m/s | -50.4°C | 58.3% | 233.4hPa | 2.5V | 08:03:00 | 00:00:00 | 00:00:00 | |
| KRY50SP-1 | 2026-09-04 18:29:10 | 52.06325 | 16.99117 | 96° | 157km/h | 11190m | -2.6m/s | -50.5°C | 59.5% | 233.0hPa | 2.5V | 08:03:00 | 00:00:00 | 00:00:00 | |
| SP6BVK | 2026-09-04 18:29:08 | 52.06332 | 16.98989 | 96° | 157km/h | 11195m | -2.6m/s | -50.5°C | 59.8% | 232.8hPa | 2.5V | 08:04:00 | 00:00:00 | 00:00:00 | |
| SP3WXH-11 | 2026-09-04 18:29:05 | 52.06347 | 16.98733 | 95° | 155km/h | 11205m | -2.7m/s | -50.6°C | 60.6% | 232.5hPa | 2.5V | 00:00:00 | 00:00:00 | 00:00:00 | |
| KRY50SP-1 | 2026-09-04 18:29:04 | 52.06347 | 16.98732 | 97° | 155km/h | 11205m | -2.7m/s | -50.6°C | 60.6% | 232.5hPa | 2.5V | 08:04:00 | 00:00:00 | 00:00:00 | |
| SONDE2-11 | 2026-09-04 18:28:54 | 52.06393 | 16.98033 | 96° | 153km/h | 11235m | -2.7m/s | -50.9°C | 61.6% | 231.4hPa | 2.5V | 00:00:00 | 00:00:00 | 00:00:00 | |
| EDDB2-11 | 2026-09-04 18:28:53 | 52.06407 | 16.97844 | 97° | 153km/h | 11242m | -2.4m/s | -50.9°C | 62.1% | 231.1hPa | 2.5V | 00:00:00 | 00:00:00 | 00:00:00 | |
| EDDB2-12 | 2026-09-04 18:28:45 | 52.06437 | 16.97465 | 97° | 155km/h | 11258m | -2.5m/s | -51.1°C | 62.3% | 230.5hPa | 2.5V | 00:00:00 | 00:00:00 | 00:00:00 | |
| KRY50SP-1 | 2026-09-04 18:28:44 | 52.06437 | 16.97464 | 98° | 157km/h | 11258m | -2.5m/s | -51.1°C | 62.3% | 230.5hPa | 2.5V | 08:04:00 | 00:00:00 | 00:00:00 | |
| OE3JTB-15 | 2026-09-04 18:28:42 | 52.06452 | 16.97273 | 98° | 159km/h | 11266m | -2.5m/s | -51.1°C | 71.8% | 230.2hPa | 2.5V | 00:00:00 | 00:00:00 | 00:00:00 | |
| KRY50SP-1 | 2026-09-04 18:28:39 | 52.06462 | 16.97145 | 98° | 157km/h | 11271m | -2.5m/s | -51.2°C | 62.6% | 230.1hPa | 2.5V | 08:04:00 | 00:00:00 | 00:00:00 | |
| SP3BTT-10 | 2026-09-04 18:28:38 | 52.06472 | 16.97018 | 98° | 159km/h | 11276m | -2.5m/s | -51.1°C | 71.9% | 229.8hPa | 2.5V | 00:00:00 | 00:00:00 | 00:00:00 | |
| SP3WXH-11 | 2026-09-04 18:28:34 | 52.06494 | 16.96763 | 98° | 157km/h | 11286m | -2.7m/s | -51.2°C | 62.4% | 229.6hPa | 2.5V | 00:00:00 | 00:00:00 | 00:00:00 | |
| KRY50SP-1 | 2026-09-04 18:28:33 | 52.06493 | 16.96763 | 99° | 157km/h | 11286m | -2.7m/s | -51.2°C | 62.4% | 229.6hPa | 2.5V | 08:04:00 | 00:00:00 | 00:00:00 | |
| KRY50SP-1 | 2026-09-04 18:28:27 | 52.06527 | 16.96377 | 99° | 159km/h | 11302m | -2.6m/s | -51.3°C | 62.1% | 229.0hPa | 2.5V | 08:04:00 | 00:00:00 | 00:00:00 | |
| SP6BVK | 2026-09-04 18:28:26 | 52.06533 | 16.96313 | 99° | 159km/h | 11304m | -2.6m/s | -51.3°C | 61.8% | 228.9hPa | 2.5V | 08:04:00 | 00:00:00 | 00:00:00 | |
| SONDE2-11 | 2026-09-04 18:28:23 | 52.06556 | 16.96055 | 98° | 157km/h | 11314m | -2.6m/s | -51.4°C | 59.6% | 228.5hPa | 2.5V | 00:00:00 | 00:00:00 | 00:00:00 | |
| EDDB2-11 | 2026-09-04 18:28:22 | 52.06562 | 16.95991 | 98° | 159km/h | 11317m | -2.5m/s | -51.4°C | 59.2% | 228.4hPa | 2.5V | 00:00:00 | 00:00:00 | 00:00:00 | |
| KRY50SP-1 | 2026-09-04 18:28:16 | 52.06592 | 16.95669 | 100° | 159km/h | 11330m | -2.6m/s | -51.5°C | 57.7% | 227.9hPa | 2.5V | 08:05:00 | 00:00:00 | 00:00:00 | |
| EDDB2-12 | 2026-09-04 18:28:14 | 52.06619 | 16.95411 | 99° | 159km/h | 11340m | -2.5m/s | -51.6°C | 57.1% | 227.6hPa | 2.5V | 00:00:00 | 00:00:00 | 00:00:00 | |
| OE3JTB-15 | 2026-09-04 18:28:13 | 52.06619 | 16.95411 | 100° | 159km/h | 11340m | -2.5m/s | -51.5°C | 66.1% | 227.6hPa | 2.5V | 00:00:00 | 02:10:48 | 00:00:00 | |
| DB0DAN | 2026-09-04 18:28:10 | 52.06638 | 16.95218 | 99° | 151km/h | 11348m | -2.5m/s | -51.6°C | 56.2% | 227.4hPa | 2.5V | 00:00:00 | 00:00:00 | 00:00:00 | |
| SP6BVK | 2026-09-04 18:28:06 | 52.06657 | 16.95024 | 100° | 159km/h | 11356m | -2.7m/s | -51.6°C | 56.5% | 227.1hPa | 2.4V | 08:05:00 | 00:00:00 | 00:00:00 | |
| KRY50SP-1 | 2026-09-04 18:28:04 | 52.06669 | 16.94895 | 100° | 159km/h | 11361m | -2.6m/s | -51.7°C | 56.3% | 226.9hPa | 2.4V | 08:05:00 | 00:00:00 | 00:00:00 | |
| SP3WXH-11 | 2026-09-04 18:28:03 | 52.06681 | 16.94765 | 98° | 159km/h | 11366m | -2.8m/s | -51.7°C | 55.7% | 226.7hPa | 2.4V | 00:00:00 | 00:00:00 | 00:00:00 | |
| KRY50SP-1 | 2026-09-04 18:28:00 | 52.06699 | 16.94571 | 99° | 161km/h | 11375m | -2.8m/s | -51.8°C | 54.8% | 226.5hPa | 2.4V | 08:05:00 | 00:00:00 | 00:00:00 | |
| DB0DAN | 2026-09-04 18:27:55 | 52.06727 | 16.94245 | 98° | 153km/h | 11388m | -2.9m/s | -51.8°C | 53.2% | 225.97hPa | 2.4V | 00:00:00 | 00:00:00 | 00:00:00 | |
| SONDE2-11 | 2026-09-04 18:27:52 | 52.06743 | 16.94050 | 97° | 159km/h | 11397m | -2.9m/s | -51.8°C | 53.4% | 225.7hPa | 2.5V | 00:00:00 | 00:00:00 | 00:00:00 | |
| EDDB2-11 | 2026-09-04 18:27:51 | 52.06748 | 16.93985 | 97° | 159km/h | 11400m | -2.7m/s | -51.9°C | 53.2% | 225.6hPa | 2.5V | 00:00:00 | 00:00:00 | 00:00:00 | |
| KRY50SP-1 | 2026-09-04 18:27:48 | 52.06759 | 16.93856 | 99° | 159km/h | 11405m | -2.9m/s | -51.9°C | 52.9% | 225.4hPa | 2.5V | 08:05:00 | 00:00:00 | 00:00:00 | |
| SP6BVK | 2026-09-04 18:27:45 | 52.06775 | 16.93662 | 99° | 159km/h | 11414m | -3.0m/s | -52.0°C | 52.8% | 225.0hPa | 2.5V | 08:05:00 | 00:00:00 | 00:00:00 | |
| OE3JTB-15 | 2026-09-04 18:27:44 | 52.06787 | 16.93533 | 98° | 159km/h | 11420m | -2.9m/s | -52.0°C | 62.0% | 224.8hPa | 2.5V | 00:00:00 | 00:00:00 | 00:00:00 | |
| EDDB2-12 | 2026-09-04 18:27:43 | 52.06792 | 16.93469 | 97° | 159km/h | 11423m | -2.8m/s | -52.1°C | 53.4% | 224.7hPa | 2.5V | 00:00:00 | 00:00:00 | 00:00:00 | |
| KRY50SP-1 | 2026-09-04 18:27:42 | 52.06792 | 16.93469 | 99° | 159km/h | 11423m | -2.8m/s | -52.1°C | 53.4% | 224.7hPa | 2.5V | 08:05:00 | 00:00:00 | 00:00:00 | |
| DB0DAN | 2026-09-04 18:27:40 | 52.06808 | 16.93275 | 97° | 151km/h | 11432m | -2.6m/s | -52.1°C | 54.1% | 224.44hPa | 2.5V | 00:00:00 | 00:00:00 | 00:00:00 | |
| KRY50SP-1 | 2026-09-04 18:27:36 | 52.06824 | 16.93081 | 99° | 159km/h | 11440m | -2.7m/s | -52.2°C | 55.0% | 224.1hPa | 2.5V | 08:05:00 | 00:00:00 | 00:00:00 | |
| SP3WXH-11 | 2026-09-04 18:27:32 | 52.06851 | 16.92758 | 98° | 159km/h | 11453m | -2.8m/s | -52.3°C | 55.9% | 223.7hPa | 2.5V | 00:00:00 | 00:00:00 | 00:00:00 | |
| KRY50SP-1 | 2026-09-04 18:27:30 | 52.06856 | 16.92693 | 99° | 159km/h | 11456m | -2.9m/s | -52.4°C | 56.0% | 223.6hPa | 2.5V | 08:05:00 | 00:00:00 | 00:00:00 | |
| DB0DAN | 2026-09-04 18:27:25 | 52.06888 | 16.92307 | 97° | 151km/h | 11473m | -2.8m/s | -52.5°C | 57% | 222.99hPa | 2.5V | 00:00:00 | 00:00:00 | 00:00:00 | |
| AA1-15 | 2026-09-04 18:27:14 | 52.06945 | 16.91591 | 98° | 161km/h | 11504m | -2.8m/s | 0°C | 0% | 0hPa | 2.5V | 18:12:15 | 02:09:49 | 00:00:00 | |
| EDDB2-12 | 2026-09-04 18:27:12 | 52.06956 | 16.91460 | 97° | 159km/h | 11510m | -2.7m/s | -52.9°C | 58.8% | 221.7hPa | 2.4V | 00:00:00 | 00:00:00 | 00:00:00 | |
| DB0DAN | 2026-09-04 18:27:10 | 52.06967 | 16.91331 | 98° | 151km/h | 11516m | -2.7m/s | -52.9°C | 59.1% | 221.51hPa | 2.4V | 00:00:00 | 00:00:00 | 00:00:00 | |
| KRY50SP-1 | 2026-09-04 18:25:44 | 52.07325 | 16.85857 | 96° | 157km/h | 11763m | -3.0m/s | -55.2°C | 67.7% | 213.1hPa | 2.5V | 08:07:00 | 00:00:00 | 00:00:00 | |
| SP6BVK | 2026-09-04 18:25:43 | 52.07328 | 16.85793 | 96° | 157km/h | 11766m | -3.1m/s | -55.2°C | 67.7% | 213.1hPa | 2.5V | 08:07:00 | 00:00:00 | 00:00:00 | |
| DB0DAN | 2026-09-04 18:25:40 | 52.07342 | 16.85538 | 94° | 148km/h | 11778m | -3.1m/s | -55.3°C | 68.1% | 212.65hPa | 2.5V | 00:00:00 | 00:00:00 | 00:00:00 | |
| KRY50SP-1 | 2026-09-04 18:25:33 | 52.07359 | 16.85158 | 95° | 155km/h | 11796m | -3.1m/s | -55.5°C | 68.0% | 212.0hPa | 2.5V | 08:07:00 | 00:00:00 | 00:00:00 | |
| KRY50SP-1 | 2026-09-04 18:25:27 | 52.07377 | 16.84773 | 95° | 157km/h | 11815m | -3.1m/s | -55.6°C | 68.3% | 211.5hPa | 2.5V | 08:07:00 | 00:00:00 | 00:00:00 | |
| DB0DAN | 2026-09-04 18:25:25 | 52.07386 | 16.84581 | 94° | 148km/h | 11823m | -3.1m/s | -55.7°C | 68.5% | 211.17hPa | 2.5V | 00:00:00 | 00:00:00 | 00:00:00 | |
| SP6BVK | 2026-09-04 18:25:22 | 52.07392 | 16.84453 | 95° | 155km/h | 11830m | -3.2m/s | -55.8°C | 68.7% | 211.0hPa | 2.5V | 08:07:00 | 00:00:00 | 00:00:00 | |
| KRY50SP-1 | 2026-09-04 18:25:21 | 52.07395 | 16.84390 | 95° | 155km/h | 11833m | -3.2m/s | -55.8°C | 68.9% | 210.9hPa | 2.5V | 08:07:00 | 00:00:00 | 00:00:00 | |
| SONDE2-11 | 2026-09-04 18:25:17 | 52.07412 | 16.84010 | 94° | 153km/h | 11852m | -3.1m/s | -56.0°C | 68.7% | 210.2hPa | 2.5V | 00:00:00 | 00:00:00 | 00:00:00 | |
| EDDB2-11 | 2026-09-04 18:25:16 | 52.07412 | 16.84010 | 94° | 153km/h | 11852m | -3.1m/s | -56.0°C | 68.7% | 210.2hPa | 2.5V | 00:00:00 | 00:00:00 | 00:00:00 | |
| DB0DAN | 2026-09-04 18:25:10 | 52.07429 | 16.83626 | 94° | 148km/h | 11871m | -3m/s | -56.2°C | 69% | 209.59hPa | 2.5V | 00:00:00 | 00:00:00 | 00:00:00 | |
| EDDB2-12 | 2026-09-04 18:25:08 | 52.07437 | 16.83435 | 93° | 153km/h | 11880m | -3.2m/s | -56.2°C | 69.7% | 209.3hPa | 2.5V | 00:00:00 | 00:00:00 | 00:00:00 | |
| OE3JTB-15 | 2026-09-04 18:25:07 | 52.07437 | 16.83435 | 94° | 155km/h | 11880m | -3.2m/s | -56.2°C | 81.4% | 209.3hPa | 2.5V | 00:00:00 | 00:00:00 | 00:00:00 | |
| SP3BTT-10 | 2026-09-04 18:25:06 | 52.07440 | 16.83372 | 94° | 155km/h | 11883m | -3.1m/s | -56.2°C | 81.5% | 209.2hPa | 2.5V | 00:00:00 | 00:00:00 | 00:00:00 | |
| KRY50SP-1 | 2026-09-04 18:25:05 | 52.07440 | 16.83372 | 95° | 155km/h | 11883m | -3.1m/s | -56.3°C | 69.9% | 209.2hPa | 2.5V | 08:07:00 | 00:00:00 | 00:00:00 | |
| 3Z3Z-3 | 2026-09-04 18:25:03 | 52.07445 | 16.83246 | 95° | 153km/h | 11889m | -3.1m/s | -56.3°C | 70.2% | 209.0hPa | 2.5V | 00:00:00 | 00:00:00 | 00:00:00 | |
| SP6BVK | 2026-09-04 18:25:02 | 52.07447 | 16.83184 | 95° | 153km/h | 11892m | -3.0m/s | -56.4°C | 70.0% | 208.9hPa | 2.5V | 08:07:00 | 00:00:00 | 00:00:00 | |
| SP3WXH-11 | 2026-09-04 18:24:57 | 52.07469 | 16.82676 | 93° | 157km/h | 11917m | -3.2m/s | -56.6°C | 69.6% | 208.1hPa | 2.5V | 00:00:00 | 00:00:00 | 00:00:00 | |
| DB0DAN | 2026-09-04 18:24:55 | 52.07469 | 16.82676 | 94° | 150km/h | 11917m | -3.2m/s | -56.6°C | 69.6% | 208.08hPa | 2.5V | 00:00:00 | 00:00:00 | 00:00:00 | |
| SONDE2-11 | 2026-09-04 18:24:46 | 52.07485 | 16.82041 | 92° | 151km/h | 11949m | -3.5m/s | -56.9°C | 69.2% | 207.1hPa | 2.5V | 00:00:00 | 00:00:00 | 00:00:00 | |
| S3001 | 2026-09-04 18:24:45 | 52.07485 | 16.82041 | 92° | 151km/h | 11949m | -3.5m/s | -56.9°C | 69.2% | 207.1hPa | 2.5V | 00:00:00 | 00:00:00 | 00:00:00 | |
| KRY50SP-1 | 2026-09-04 18:24:43 | 52.07487 | 16.81978 | 94° | 153km/h | 11952m | -3.1m/s | -56.9°C | 69.2% | 207.0hPa | 2.5V | 08:08:00 | 00:00:00 | 00:00:00 | |
| SP6BVK | 2026-09-04 18:24:42 | 52.07489 | 16.81915 | 94° | 155km/h | 11955m | -3.2m/s | -56.9°C | 68.8% | 206.8hPa | 2.5V | 08:08:00 | 00:00:00 | 00:00:00 | |
| DB0DAN | 2026-09-04 18:24:40 | 52.07496 | 16.81722 | 93° | 151km/h | 11965m | -3.1m/s | -57°C | 67.8% | 206.57hPa | 2.5V | 00:00:00 | 00:00:00 | 00:00:00 | |
| KRY50SP-1 | 2026-09-04 18:24:27 | 52.07507 | 16.80951 | 93° | 150km/h | 12002m | -3.4m/s | -57.3°C | 66.1% | 205.3hPa | 2.5V | 08:08:00 | 00:00:00 | 00:00:00 | |
| DB0DAN | 2026-09-04 18:24:25 | 52.07515 | 16.80764 | 94° | 146km/h | 12011m | -3.4m/s | -57.4°C | 65.5% | 205.07hPa | 2.5V | 00:00:00 | 00:00:00 | 00:00:00 | |
| KRY50SP-1 | 2026-09-04 18:24:15 | 52.07530 | 16.80173 | 91° | 159km/h | 12040m | -3.0m/s | -57.6°C | 65.6% | 204.0hPa | 2.5V | 08:08:00 | 00:00:00 | 00:00:00 | |
| SP3BTT-10 | 2026-09-04 18:24:11 | 52.07532 | 16.79860 | 93° | 157km/h | 12057m | -3.8m/s | -57.7°C | 77.4% | 203.4hPa | 2.5V | 00:00:00 | 00:00:00 | 00:00:00 | |
| KRY50SP-1 | 2026-09-04 18:24:09 | 52.07533 | 16.79799 | 95° | 150km/h | 12060m | -3.1m/s | -57.8°C | 66.0% | 203.4hPa | 2.5V | 08:08:00 | 00:00:00 | 00:00:00 | |
| SP6BVK | 2026-09-04 18:24:00 | 52.07553 | 16.79215 | 91° | 161km/h | 12090m | -3.8m/s | -58.0°C | 67.3% | 202.5hPa | 2.5V | 08:09:00 | 00:00:00 | 00:00:00 | |
| KRY50SP-1 | 2026-09-04 18:23:58 | 52.07552 | 16.79085 | 91° | 155km/h | 12096m | -3.1m/s | -58.1°C | 68.1% | 202.3hPa | 2.5V | 08:09:00 | 00:00:00 | 00:00:00 | |
| KRY50SP-1 | 2026-09-04 18:23:46 | 52.07568 | 16.78322 | 93° | 164km/h | 12136m | -3.8m/s | -58.5°C | 68.9% | 201.0hPa | 2.5V | 08:09:00 | 00:00:00 | 00:00:00 | |
| SP3BTT-10 | 2026-09-04 18:23:26 | 52.07574 | 16.76961 | 90° | 159km/h | 12208m | -3.1m/s | -59.0°C | 80.8% | 198.7hPa | 2.5V | 00:00:00 | 00:00:00 | 00:00:00 | |
| KRY50SP-1 | 2026-09-04 18:23:24 | 52.07574 | 16.76898 | 91° | 151km/h | 12211m | -3.1m/s | -59.1°C | 68.0% | 198.6hPa | 2.5V | 08:09:00 | 00:00:00 | 00:00:00 | |
| KRY50SP-1 | 2026-09-04 18:23:19 | 52.07580 | 16.76587 | 95° | 157km/h | 12228m | -3.5m/s | -59.2°C | 68.4% | 198.2hPa | 2.5V | 08:09:00 | 00:00:00 | 00:00:00 | |
| SP6BVK | 2026-09-04 18:23:18 | 52.07583 | 16.76522 | 94° | 161km/h | 12231m | -2.9m/s | -59.2°C | 68.2% | 198.0hPa | 2.5V | 08:09:00 | 00:00:00 | 00:00:00 | |
| KRY50SP-1 | 2026-09-04 18:23:13 | 52.07588 | 16.76184 | 90° | 166km/h | 12247m | -3.7m/s | -59.4°C | 68.6% | 197.5hPa | 2.5V | 08:09:00 | 00:00:00 | 00:00:00 | |
| KRY50SP-1 | 2026-09-04 18:23:08 | 52.07580 | 16.75857 | 89° | 153km/h | 12265m | -3.7m/s | -59.5°C | 69.0% | 197.0hPa | 2.5V | 08:10:00 | 00:00:00 | 00:00:00 | |
| SP6BVK | 2026-09-04 18:22:58 | 52.07590 | 16.75208 | 91° | 166km/h | 12297m | -3.6m/s | -59.8°C | 69.0% | 196.0hPa | 2.5V | 08:10:00 | 00:00:00 | 00:00:00 | |
| KRY50SP-1 | 2026-09-04 18:22:56 | 52.07589 | 16.75072 | 89° | 164km/h | 12304m | -2.7m/s | -59.8°C | 68.9% | 195.7hPa | 2.5V | 08:10:00 | 00:00:00 | 00:00:00 | |
| DB0DAN | 2026-09-04 18:22:55 | 52.07585 | 16.74939 | 87° | 151km/h | 12311m | -3.9m/s | -59.9°C | 68.8% | 195.49hPa | 2.5V | 00:00:00 | 00:00:00 | 00:00:00 | |
| KRY50SP-1 | 2026-09-04 18:22:50 | 52.07581 | 16.74686 | 91° | 150km/h | 12324m | -3.7m/s | -60.0°C | 69.3% | 195.1hPa | 2.6V | 08:10:00 | 00:00:00 | 00:00:00 | |
| KRY50SP-1 | 2026-09-04 18:22:45 | 52.07591 | 16.74301 | 93° | 164km/h | 12343m | -3.9m/s | -60.2°C | 69.7% | 194.5hPa | 2.6V | 08:10:00 | 00:00:00 | 00:00:00 | |
| 3Z3Z-3 | 2026-09-04 18:22:44 | 52.07591 | 16.74301 | 93° | 164km/h | 12343m | -3.9m/s | -60.2°C | 69.7% | 194.5hPa | 2.6V | 08:10:00 | 00:00:00 | 00:00:00 | |
| SP3BTT-10 | 2026-09-04 18:22:43 | 52.07592 | 16.74165 | 90° | 159km/h | 12350m | -2.8m/s | -60.2°C | 83.7% | 194.2hPa | 2.6V | 08:09:00 | 00:00:00 | 00:00:00 | |
| OE3JTB-15 | 2026-09-04 18:22:35 | 52.07583 | 16.73647 | 91° | 159km/h | 12376m | -4.0m/s | -60.5°C | 86.0% | 193.5hPa | 2.5V | 00:00:00 | 02:05:10 | 00:00:00 | |
| 3Z3Z-3 | 2026-09-04 18:22:34 | 52.07584 | 16.73584 | 93° | 151km/h | 12380m | -2.9m/s | -60.5°C | 72.9% | 193.4hPa | 2.5V | 08:10:00 | 00:00:00 | 00:00:00 | |
| KRY50SP-1 | 2026-09-04 18:22:32 | 52.07585 | 16.73522 | 93° | 153km/h | 12383m | -3.4m/s | -60.6°C | 72.5% | 193.3hPa | 2.5V | 08:10:00 | 00:00:00 | 00:00:00 | |
| KRY50SP-1 | 2026-09-04 18:22:26 | 52.07593 | 16.73125 | 91° | 166km/h | 12403m | -2.9m/s | -60.8°C | 74.2% | 192.7hPa | 2.5V | 08:10:00 | 00:00:00 | 00:00:00 | |
| 3Z3Z-3 | 2026-09-04 18:22:22 | 52.07588 | 16.72858 | 89° | 159km/h | 12416m | -3.6m/s | -60.9°C | 74.4% | 192.2hPa | 2.5V | 08:10:00 | 00:00:00 | 00:00:00 | |
| KRY50SP-1 | 2026-09-04 18:22:21 | 52.07587 | 16.72794 | 89° | 155km/h | 12419m | -3.3m/s | -60.9°C | 75.0% | 192.2hPa | 2.5V | 08:10:00 | 00:00:00 | 00:00:00 | |
| KRY50SP-1 | 2026-09-04 18:22:04 | 52.07590 | 16.71692 | 91° | 153km/h | 12473m | -2.9m/s | -61.5°C | 75.4% | 190.5hPa | 2.5V | 08:11:00 | 00:00:00 | 00:00:00 | |
| OE3JTB-15 | 2026-09-04 18:22:00 | 52.07596 | 16.71373 | 93° | 162km/h | 12489m | -3.6m/s | -61.6°C | 89.7% | 190.0hPa | 2.5V | 00:00:00 | 00:00:00 | 00:00:00 | |
| KRY50SP-1 | 2026-09-04 18:21:59 | 52.07596 | 16.71373 | 94° | 161km/h | 12489m | -3.6m/s | -61.6°C | 75.4% | 190.0hPa | 2.5V | 08:11:00 | 00:00:00 | 00:00:00 | |
| SP6BVK | 2026-09-04 18:21:56 | 52.07600 | 16.71173 | 92° | 164km/h | 12499m | -3.7m/s | -61.7°C | 75.0% | 189.7hPa | 2.5V | 08:11:00 | 00:00:00 | 00:00:00 | |
| KRY50SP-1 | 2026-09-04 18:21:53 | 52.07599 | 16.70972 | 91° | 161km/h | 12509m | -3.6m/s | -61.8°C | 74.9% | 189.4hPa | 2.5V | 08:11:00 | 00:00:00 | 00:00:00 | |
| SP3BTT-10 | 2026-09-04 18:21:52 | 52.07599 | 16.70842 | 91° | 166km/h | 12515m | -3.0m/s | -61.8°C | 88.6% | 189.1hPa | 2.5V | 00:00:00 | 00:00:00 | 00:00:00 | |
| KRY50SP-1 | 2026-09-04 18:21:48 | 52.07601 | 16.70649 | 93° | 157km/h | 12525m | -2.8m/s | -62.0°C | 73.5% | 188.9hPa | 2.5V | 08:11:00 | 00:00:00 | 00:00:00 | |
| KRY50SP-1 | 2026-09-04 18:21:43 | 52.07612 | 16.70320 | 94° | 166km/h | 12541m | -3.8m/s | -62.1°C | 72.0% | 188.4hPa | 2.5V | 08:11:00 | 00:00:00 | 00:00:00 | |
| DB0DAN | 2026-09-04 18:21:40 | 52.07617 | 16.70045 | 90° | 159km/h | 12554m | -3m/s | -62.2°C | 71.9% | 188hPa | 2.5V | 00:00:00 | 00:00:00 | 00:00:00 | |
| KRY50SP-1 | 2026-09-04 18:21:37 | 52.07617 | 16.69910 | 91° | 162km/h | 12561m | -3.7m/s | -62.3°C | 71.7% | 187.8hPa | 2.6V | 08:11:00 | 00:00:00 | 00:00:00 | |
| SP6BVK | 2026-09-04 18:21:35 | 52.07618 | 16.69779 | 92° | 159km/h | 12568m | -3.0m/s | -62.3°C | 70.4% | 187.6hPa | 2.6V | 08:11:00 | 00:00:00 | 00:00:00 | |
| KRY50SP-1 | 2026-09-04 18:21:32 | 52.07624 | 16.69518 | 95° | 161km/h | 12581m | -3.8m/s | -62.4°C | 68.9% | 187.2hPa | 2.6V | 08:11:00 | 00:00:00 | 00:00:00 | |
| OE3JTB-15 | 2026-09-04 18:21:31 | 52.07627 | 16.69451 | 94° | 166km/h | 12584m | -3.4m/s | -62.3°C | 82.6% | 187.0hPa | 2.6V | 00:00:00 | 00:00:00 | 00:00:00 | |
| EDDB2-12 | 2026-09-04 18:21:30 | 52.07630 | 16.69384 | 93° | 164km/h | 12587m | -3.2m/s | -62.4°C | 68.4% | 187.0hPa | 2.6V | 00:00:00 | 00:00:00 | 00:00:00 | |
| KRY50SP-1 | 2026-09-04 18:21:26 | 52.07636 | 16.69178 | 94° | 168km/h | 12597m | -3.2m/s | -62.5°C | 68.4% | 186.6hPa | 2.6V | 08:11:00 | 00:00:00 | 00:00:00 | |
| DB0DAN | 2026-09-04 18:21:25 | 52.07640 | 16.69040 | 92° | 161km/h | 12604m | -3.1m/s | -62.5°C | 68.3% | 186.47hPa | 2.6V | 00:00:00 | 00:00:00 | 00:00:00 | |
| KRY50SP-1 | 2026-09-04 18:21:21 | 52.07645 | 16.68835 | 94° | 164km/h | 12614m | -3.2m/s | -62.6°C | 67.3% | 186.2hPa | 2.5V | 08:11:00 | 00:00:00 | 00:00:00 | |
| SP6BVK | 2026-09-04 18:21:15 | 52.07663 | 16.68433 | 96° | 168km/h | 12634m | -3.7m/s | -62.7°C | 64.7% | 185.6hPa | 2.5V | 08:11:00 | 00:00:00 | 00:00:00 | |
| DB0DAN | 2026-09-04 18:21:10 | 52.07683 | 16.68013 | 93° | 162km/h | 12655m | -3.3m/s | -62.9°C | 64.8% | 184.92hPa | 2.5V | 00:00:00 | 00:00:00 | 00:00:00 | |
| SP3BTT-10 | 2026-09-04 18:21:07 | 52.07690 | 16.67807 | 94° | 172km/h | 12666m | -3.3m/s | -62.8°C | 76.5% | 184.6hPa | 2.5V | 00:00:00 | 00:00:00 | 00:00:00 | |
| KRY50SP-1 | 2026-09-04 18:21:04 | 52.07696 | 16.67673 | 96° | 164km/h | 12672m | -3.4m/s | -62.9°C | 61.4% | 184.4hPa | 2.5V | 08:11:00 | 00:00:00 | 00:00:00 | |
| KRY50SP-1 | 2026-09-04 18:20:58 | 52.07722 | 16.67262 | 96° | 173km/h | 12692m | -3.5m/s | -63.0°C | 58.9% | 183.9hPa | 2.5V | 08:11:00 | 00:00:00 | 00:00:00 | |
| SP6BVK | 2026-09-04 18:20:55 | 52.07734 | 16.66976 | 94° | 173km/h | 12707m | -3.7m/s | -63.1°C | 57.0% | 183.4hPa | 2.5V | 08:11:00 | 00:00:00 | 00:00:00 | |
| KRY50SP-1 | 2026-09-04 18:20:53 | 52.07736 | 16.66906 | 93° | 170km/h | 12710m | -3.3m/s | -63.1°C | 56.6% | 183.3hPa | 2.5V | 08:11:00 | 00:00:00 | 00:00:00 | |
| KRY50SP-1 | 2026-09-04 18:20:47 | 52.07753 | 16.66498 | 97° | 168km/h | 12732m | -3.1m/s | -63.2°C | 54.7% | 182.7hPa | 2.5V | 08:11:00 | 00:00:00 | 00:00:00 | |
| KRY50SP-1 | 2026-09-04 18:20:37 | 52.07786 | 16.65793 | 94° | 166km/h | 12767m | -3.2m/s | -63.2°C | 49.3% | 181.6hPa | 2.5V | 08:12:00 | 00:00:00 | 00:00:00 | |
| 3Z3Z-3 | 2026-09-04 18:20:36 | 52.07789 | 16.65726 | 95° | 166km/h | 12770m | -3.6m/s | -63.2°C | 48.8% | 181.6hPa | 2.5V | 00:00:00 | 00:00:00 | 00:00:00 | |
| SP6BVK | 2026-09-04 18:20:34 | 52.07796 | 16.65591 | 97° | 166km/h | 12777m | -3.2m/s | -63.3°C | 48.4% | 181.3hPa | 2.5V | 08:12:00 | 00:00:00 | 00:00:00 | |
| OE3JTB-15 | 2026-09-04 18:20:33 | 52.07805 | 16.65454 | 97° | 170km/h | 12785m | -4.0m/s | -63.3°C | 59.4% | 181.0hPa | 2.5V | 00:00:00 | 00:00:00 | 00:00:00 | |
| KRY50SP-1 | 2026-09-04 18:20:32 | 52.07805 | 16.65454 | 98° | 170km/h | 12785m | -4.1m/s | -63.4°C | 47.6% | 181.1hPa | 2.6V | 08:12:00 | 00:00:00 | 00:00:00 | |
| KRY50SP-1 | 2026-09-04 18:20:26 | 52.07833 | 16.65025 | 96° | 177km/h | 12807m | -3.9m/s | -63.6°C | 46.8% | 180.4hPa | 2.6V | 08:12:00 | 00:00:00 | 00:00:00 | |
| KRY50SP-1 | 2026-09-04 18:20:16 | 52.07874 | 16.64340 | 99° | 168km/h | 12843m | -3.8m/s | -63.9°C | 42.4% | 179.4hPa | 2.6V | 08:12:00 | 00:00:00 | 00:00:00 | |
| SP6BVK | 2026-09-04 18:20:13 | 52.07892 | 16.64130 | 98° | 175km/h | 12854m | -2.8m/s | -63.8°C | 41.0% | 179.1hPa | 2.6V | 08:12:00 | 00:00:00 | 00:00:00 | |
| OE3JTB-15 | 2026-09-04 18:20:02 | 52.07940 | 16.63295 | 99° | 172km/h | 12897m | -3.3m/s | -63.3°C | 47.4% | 177.8hPa | 2.6V | 00:00:00 | 00:00:00 | 00:00:00 | |
| KRY50SP-1 | 2026-09-04 18:19:58 | 52.07959 | 16.63092 | 100° | 170km/h | 12908m | -3.9m/s | -63.2°C | 36.2% | 177.5hPa | 2.6V | 08:12:00 | 00:00:00 | 00:00:00 | |
| KRY50SP-1 | 2026-09-04 18:19:24 | 52.08167 | 16.60732 | 98° | 179km/h | 13031m | -3.1m/s | -62.7°C | 29.8% | 174.1hPa | 2.6V | 08:13:00 | 00:00:00 | 00:00:00 | |
| KRY50SP-1 | 2026-09-04 18:19:12 | 52.08235 | 16.59909 | 101° | 175km/h | 13073m | -3.6m/s | -62.8°C | 28.9% | 172.8hPa | 2.6V | 08:13:00 | 00:00:00 | 00:00:00 | |
| SP6BVK | 2026-09-04 18:19:11 | 52.08242 | 16.59837 | 100° | 177km/h | 13077m | -3.3m/s | -62.8°C | 29.0% | 172.8hPa | 2.6V | 08:13:00 | 00:00:00 | 00:00:00 | |
| KRY50SP-1 | 2026-09-04 18:19:01 | 52.08294 | 16.59144 | 99° | 162km/h | 13109m | -3.3m/s | -63.1°C | 29.4% | 171.8hPa | 2.6V | 08:13:00 | 00:00:00 | 00:00:00 | |
| 13BRC | 2026-09-04 18:18:58 | 52.08314 | 16.58945 | 101° | 168km/h | 13120m | -3.7m/s | -63.2°C | 29.3% | 171.6hPa | 2.6V | 00:00:00 | 00:00:00 | 00:00:00 | |
| KRY50SP-1 | 2026-09-04 18:18:55 | 52.08336 | 16.58738 | 100° | 173km/h | 13129m | -3.4m/s | -63.3°C | 29.3% | 171.3hPa | 2.6V | 08:14:00 | 00:00:00 | 00:00:00 | |
| SP3BTT-10 | 2026-09-04 18:18:52 | 52.08359 | 16.58459 | 97° | 166km/h | 13142m | -2.9m/s | -63.3°C | 38.8% | 170.9hPa | 2.6V | 00:00:00 | 00:00:00 | 00:00:00 | |
| SP6BVK | 2026-09-04 18:18:51 | 52.08359 | 16.58459 | 98° | 168km/h | 13142m | -2.9m/s | -63.3°C | 29.4% | 170.9hPa | 2.6V | 08:14:00 | 00:00:00 | 00:00:00 | |
| KRY50SP-1 | 2026-09-04 18:18:50 | 52.08364 | 16.58391 | 98° | 164km/h | 13145m | -3.5m/s | -63.3°C | 29.3% | 170.8hPa | 2.6V | 08:14:00 | 00:00:00 | 00:00:00 | |
| KRY50SP-1 | 2026-09-04 18:18:44 | 52.08406 | 16.57997 | 104° | 164km/h | 13164m | -3.7m/s | -63.2°C | 28.6% | 170.3hPa | 2.6V | 08:14:00 | 00:00:00 | 00:00:00 | |
| KRY50SP-1 | 2026-09-04 18:18:38 | 52.08461 | 16.57586 | 101° | 175km/h | 13184m | -3.3m/s | -63.3°C | 28.5% | 169.7hPa | 2.6V | 08:14:00 | 00:00:00 | 00:00:00 | |
| 3Z3Z-3 | 2026-09-04 18:18:33 | 52.08494 | 16.57242 | 100° | 162km/h | 13199m | -3.0m/s | -63.3°C | 27.1% | 169.3hPa | 2.6V | 00:00:00 | 00:00:00 | 00:00:00 | |
| KRY50SP-1 | 2026-09-04 18:18:32 | 52.08501 | 16.57177 | 101° | 161km/h | 13202m | -3.5m/s | -63.3°C | 27.1% | 169.2hPa | 2.6V | 08:14:00 | 00:00:00 | 00:00:00 | |
| KRY50SP-1 | 2026-09-04 18:18:21 | 52.08593 | 16.56438 | 100° | 168km/h | 13236m | -3.4m/s | -63.0°C | 26.0% | 168.4hPa | 2.6V | 08:14:00 | 00:00:00 | 00:00:00 | |
| 13BRC | 2026-09-04 18:18:17 | 52.08621 | 16.56172 | 102° | 162km/h | 13249m | -3.1m/s | -63.0°C | 26.0% | 168.0hPa | 2.6V | 08:14:00 | 00:00:00 | 00:00:00 | |
| KRY50SP-1 | 2026-09-04 18:18:15 | 52.08637 | 16.56041 | 103° | 162km/h | 13255m | -3.5m/s | -63.1°C | 25.8% | 167.8hPa | 2.6V | 08:14:00 | 00:00:00 | 00:00:00 | |
| KRY50SP-1 | 2026-09-04 18:18:10 | 52.08693 | 16.55641 | 103° | 170km/h | 13273m | -3.4m/s | -63.3°C | 25.5% | 167.2hPa | 2.6V | 08:14:00 | 00:00:00 | 00:00:00 | |
| SP3BTT-10 | 2026-09-04 18:18:07 | 52.08718 | 16.55439 | 101° | 155km/h | 13282m | -3.2m/s | -63.3°C | 34.0% | 166.9hPa | 2.6V | 00:00:00 | 00:00:00 | 00:00:00 | |
| KRY50SP-1 | 2026-09-04 18:18:04 | 52.08733 | 16.55307 | 102° | 164km/h | 13289m | -3.4m/s | -63.4°C | 25.0% | 166.8hPa | 2.6V | 08:15:00 | 00:00:00 | 00:00:00 | |
| SONDE2-11 | 2026-09-04 18:18:02 | 52.08759 | 16.55110 | 102° | 162km/h | 13298m | -3.2m/s | -63.5°C | 24.6% | 166.6hPa | 2.6V | 00:00:00 | 00:00:00 | 00:00:00 | |
| S3001 | 2026-09-04 18:18:01 | 52.08768 | 16.55044 | 103° | 164km/h | 13301m | -3.3m/s | -63.5°C | 24.4% | 166.4hPa | 2.6V | 00:00:00 | 00:00:00 | 00:00:00 | |
| KRY50SP-1 | 2026-09-04 18:17:59 | 52.08777 | 16.54978 | 104° | 166km/h | 13305m | -3.1m/s | -63.5°C | 24.3% | 166.4hPa | 2.6V | 08:15:00 | 00:00:00 | 00:00:00 | |
| 3Z3Z-3 | 2026-09-04 18:17:57 | 52.08798 | 16.54845 | 105° | 168km/h | 13311m | -3.4m/s | -63.6°C | 24.0% | 166.2hPa | 2.6V | 00:00:00 | 00:00:00 | 00:00:00 | |
| DB0DAN | 2026-09-04 18:17:55 | 52.08829 | 16.54647 | 104° | 159km/h | 13321m | -3.3m/s | -63.6°C | 23.5% | 165.98hPa | 2.6V | 00:00:00 | 00:00:00 | 00:00:00 | |
| KRY50SP-1 | 2026-09-04 18:17:17 | 52.09200 | 16.52318 | 105° | 137km/h | 13466m | -4.2m/s | -62.7°C | 13.6% | 162.1hPa | 2.6V | 08:15:00 | 00:00:00 | 00:00:00 | |
| 13BRC | 2026-09-04 18:17:16 | 52.09200 | 16.52318 | 105° | 137km/h | 13466m | -4.2m/s | -62.7°C | 13.6% | 162.1hPa | 2.6V | 08:15:00 | 00:00:00 | 00:00:00 | |
| SP6BVK | 2026-09-04 18:16:25 | 52.09439 | 16.49814 | 95° | 113km/h | 13674m | -3.9m/s | -59.7°C | 7.1% | 156.9hPa | 2.6V | 08:16:00 | 00:00:00 | 00:00:00 | |
| KRY50SP-1 | 2026-09-04 18:16:17 | 52.09448 | 16.49450 | 91° | 110km/h | 13705m | -3.9m/s | -59.8°C | 6.7% | 156.0hPa | 2.6V | 08:17:00 | 00:00:00 | 00:00:00 | |
| KRY50SP-1 | 2026-09-04 18:16:02 | 52.09424 | 16.48751 | 87° | 106km/h | 13768m | -3.6m/s | -59.7°C | 5.9% | 154.5hPa | 2.6V | 08:17:00 | 00:00:00 | 00:00:00 | |
| KRY50SP-1 | 2026-09-04 18:15:56 | 52.09412 | 16.48533 | 85° | 106km/h | 13787m | -3.7m/s | -59.5°C | 5.6% | 154.1hPa | 2.6V | 08:17:00 | 00:00:00 | 00:00:00 | |
| DB0DAN | 2026-09-04 18:15:55 | 52.09406 | 16.48447 | 83° | 100km/h | 13794m | -3.7m/s | -59.3°C | 5.4% | 153.84hPa | 2.6V | 00:00:00 | 00:00:00 | 00:00:00 | |
| EDDB2-12 | 2026-09-04 18:15:49 | 52.09384 | 16.48193 | 82° | 102km/h | 13817m | -3.7m/s | -59.3°C | 5.2% | 153.3hPa | 2.5V | 00:00:00 | 00:00:00 | 00:00:00 | |
| 13BRC | 2026-09-04 18:15:47 | 52.09381 | 16.48151 | 82° | 102km/h | 13821m | -4.1m/s | -59.2°C | 5.2% | 153.2hPa | 2.5V | 08:17:00 | 00:00:00 | 00:00:00 | |
| KRY50SP-1 | 2026-09-04 18:15:45 | 52.09374 | 16.48069 | 83° | 100km/h | 13828m | -3.7m/s | -59.2°C | 5.2% | 153.0hPa | 2.5V | 08:17:00 | 00:00:00 | 00:00:00 | |
| SP6BVK | 2026-09-04 18:15:44 | 52.09370 | 16.48028 | 83° | 100km/h | 13832m | -3.7m/s | -59.2°C | 5.2% | 152.9hPa | 2.5V | 08:17:00 | 00:00:00 | 00:00:00 | |
| DB0DAN | 2026-09-04 18:15:40 | 52.09355 | 16.47821 | 83° | 99km/h | 13851m | -3.7m/s | -59.2°C | 5.2% | 152.46hPa | 2.5V | 00:00:00 | 00:00:00 | 00:00:00 | |
| SP3WXH-11 | 2026-09-04 18:15:39 | 52.09348 | 16.47735 | 82° | 106km/h | 13858m | -3.6m/s | -59.2°C | 5.1% | 152.3hPa | 2.6V | 00:00:00 | 00:00:00 | 00:00:00 | |
| 3Z3Z-3 | 2026-09-04 18:15:37 | 52.09348 | 16.47735 | 83° | 106km/h | 13859m | -3.6m/s | -59.2°C | 5.1% | 152.3hPa | 2.6V | 00:00:00 | 00:00:00 | 00:00:00 | |
| KRY50SP-1 | 2026-09-04 18:15:34 | 52.09337 | 16.47604 | 82° | 108km/h | 13870m | -3.7m/s | -59.3°C | 5.0% | 152.0hPa | 2.6V | 08:17:00 | 00:00:00 | 00:00:00 | |
| KRY50SP-1 | 2026-09-04 18:15:29 | 52.09309 | 16.47339 | 81° | 110km/h | 13892m | -3.7m/s | -59.4°C | 4.8% | 151.4hPa | 2.6V | 08:17:00 | 00:00:00 | 00:00:00 | |
| 13BRC | 2026-09-04 18:15:27 | 52.09299 | 16.47251 | 80° | 108km/h | 13899m | -3.5m/s | -59.5°C | 4.8% | 151.3hPa | 2.6V | 08:17:00 | 00:00:00 | 00:00:00 | |
| DB0DAN | 2026-09-04 18:15:25 | 52.09289 | 16.47163 | 79° | 102km/h | 13907m | -3.5m/s | -59.5°C | 4.8% | 151.05hPa | 2.6V | 00:00:00 | 00:00:00 | 00:00:00 | |
| KRY50SP-1 | 2026-09-04 18:15:23 | 52.09284 | 16.47120 | 81° | 108km/h | 13910m | -3.5m/s | -59.4°C | 4.8% | 151.0hPa | 2.5V | 08:17:00 | 00:00:00 | 00:00:00 | |
| 3Z3Z-3 | 2026-09-04 18:15:19 | 52.09267 | 16.46948 | 82° | 106km/h | 13924m | -3.5m/s | -59.2°C | 4.7% | 150.6hPa | 2.5V | 00:00:00 | 00:00:00 | 00:00:00 | |
| EDDB2-12 | 2026-09-04 18:15:18 | 52.09259 | 16.46861 | 82° | 108km/h | 13931m | -3.4m/s | -59.1°C | 4.6% | 150.5hPa | 2.5V | 00:00:00 | 00:00:00 | 00:00:00 | |
| KRY50SP-1 | 2026-09-04 18:15:12 | 52.09240 | 16.46634 | 84° | 115km/h | 13949m | -3.3m/s | -59.1°C | 4.5% | 150.1hPa | 2.5V | 08:17:00 | 00:00:00 | 00:00:00 | |
| DB0DAN | 2026-09-04 18:15:10 | 52.09229 | 16.46490 | 83° | 113km/h | 13959m | -3.3m/s | -59.1°C | 4.5% | 149.83hPa | 2.5V | 00:00:00 | 00:00:00 | 00:00:00 | |
| SP3WXH-11 | 2026-09-04 18:15:08 | 52.09217 | 16.46344 | 82° | 117km/h | 13970m | -3.9m/s | -59.2°C | 4.5% | 149.6hPa | 2.5V | 00:00:00 | 00:00:00 | 00:00:00 | |
| SP3BTT-10 | 2026-09-04 18:15:07 | 52.09217 | 16.46344 | 83° | 122km/h | 13970m | -3.8m/s | -59.1°C | 8.6% | 149.5hPa | 2.5V | 00:00:00 | 00:00:00 | 00:00:00 | |
| 13BRC | 2026-09-04 18:15:05 | 52.09214 | 16.46296 | 84° | 117km/h | 13974m | -3.6m/s | -59.2°C | 4.5% | 149.5hPa | 2.5V | 08:17:00 | 00:00:00 | 00:00:00 | |
| KRY50SP-1 | 2026-09-04 18:15:01 | 52.09201 | 16.46109 | 87° | 113km/h | 13988m | -3.6m/s | -59.0°C | 4.3% | 149.2hPa | 2.5V | 08:17:00 | 00:00:00 | 00:00:00 | |
| SONDE2-11 | 2026-09-04 18:14:56 | 52.09188 | 16.45770 | 86° | 124km/h | 14013m | -4.0m/s | -58.9°C | 4.1% | 148.5hPa | 2.5V | 00:00:00 | 00:00:00 | 00:00:00 | |
| DB0DAN | 2026-09-04 18:14:55 | 52.09188 | 16.45770 | 86° | 119km/h | 14013m | -4m/s | -58.9°C | 4.1% | 148.51hPa | 2.5V | 00:00:00 | 00:00:00 | 00:00:00 | |
| S3001 | 2026-09-04 18:14:55 | 52.09183 | 16.45666 | 85° | 126km/h | 14020m | -3.6m/s | -58.8°C | 4.1% | 148.4hPa | 2.5V | 00:00:00 | 00:00:00 | 00:00:00 | |
| EDDB2-12 | 2026-09-04 18:14:47 | 52.09168 | 16.45366 | 87° | 117km/h | 14040m | -3.5m/s | -58.5°C | 4.0% | 147.9hPa | 2.5V | 00:00:00 | 00:00:00 | 00:00:00 | |
| 3Z3Z-3 | 2026-09-04 18:14:46 | 52.09169 | 16.45366 | 88° | 119km/h | 14041m | -3.5m/s | -58.5°C | 4.0% | 147.9hPa | 2.5V | 00:00:00 | 00:00:00 | 00:00:00 | |
| 13BRC | 2026-09-04 18:14:45 | 52.09167 | 16.45318 | 89° | 117km/h | 14044m | -3.6m/s | -58.5°C | 4.0% | 147.8hPa | 2.5V | 08:17:00 | 00:00:00 | 00:00:00 | |
| KRY50SP-1 | 2026-09-04 18:14:44 | 52.09167 | 16.45270 | 90° | 119km/h | 14048m | -3.4m/s | -58.5°C | 4.0% | 147.7hPa | 2.5V | 08:17:00 | 00:00:00 | 00:00:00 | |
| SP6BVK | 2026-09-04 18:14:42 | 52.09167 | 16.45173 | 92° | 120km/h | 14055m | -3.9m/s | -58.5°C | 3.9% | 147.5hPa | 2.5V | 08:17:00 | 00:00:00 | 00:00:00 | |
| DB0DAN | 2026-09-04 18:14:40 | 52.09168 | 16.45022 | 91° | 120km/h | 14066m | -3.3m/s | -58.5°C | 4% | 147.27hPa | 2.5V | 00:00:00 | 00:00:00 | 00:00:00 | |
| KRY50SP-1 | 2026-09-04 18:14:38 | 52.09168 | 16.44969 | 92° | 128km/h | 14070m | -3.8m/s | -58.5°C | 4.0% | 147.2hPa | 2.6V | 08:18:00 | 00:00:00 | 00:00:00 | |
| SP3WXH-11 | 2026-09-04 18:14:37 | 52.09167 | 16.44809 | 88° | 130km/h | 14080m | -3.9m/s | -58.5°C | 4.0% | 146.9hPa | 2.6V | 00:00:00 | 00:00:00 | 00:00:00 | |
| 3Z3Z-3 | 2026-09-04 18:14:35 | 52.09167 | 16.44809 | 89° | 131km/h | 14080m | -3.9m/s | -58.5°C | 4.0% | 146.9hPa | 2.6V | 00:00:00 | 00:00:00 | 00:00:00 | |
| DL2RXE-15 | 2026-09-04 18:14:34 | 52.09166 | 16.44756 | 88° | 130km/h | 14084m | -3.3m/s | -58.4°C | 4.1% | 146.8hPa | 2.6V | 00:00:00 | 00:00:00 | 00:00:00 | |
| KRY50SP-1 | 2026-09-04 18:14:32 | 52.09162 | 16.44652 | 87° | 124km/h | 14091m | -4.0m/s | -58.3°C | 4.0% | 146.7hPa | 2.6V | 08:18:00 | 00:00:00 | 00:00:00 | |
| KRY50SP-1 | 2026-09-04 18:14:27 | 52.09156 | 16.44408 | 91° | 117km/h | 14108m | -4.0m/s | -58.3°C | 4.1% | 146.3hPa | 2.6V | 08:18:00 | 00:00:00 | 00:00:00 | |
| SONDE2-11 | 2026-09-04 18:14:25 | 52.09159 | 16.44261 | 93° | 120km/h | 14119m | -4.1m/s | -58.3°C | 4.1% | 146.0hPa | 2.6V | 00:00:00 | 00:00:00 | 00:00:00 | |
| S3001 | 2026-09-04 18:14:24 | 52.09162 | 16.44160 | 93° | 126km/h | 14126m | -3.9m/s | -58.4°C | 3.9% | 145.8hPa | 2.6V | 00:00:00 | 00:00:00 | 00:00:00 | |
| KRY50SP-1 | 2026-09-04 18:14:22 | 52.09164 | 16.44107 | 94° | 130km/h | 14130m | -3.8m/s | -58.4°C | 3.9% | 145.8hPa | 2.6V | 08:18:00 | 00:00:00 | 00:00:00 | |
| EDDB2-12 | 2026-09-04 18:14:16 | 52.09162 | 16.43790 | 87° | 124km/h | 14152m | -3.7m/s | -58.6°C | 3.9% | 145.2hPa | 2.6V | 00:00:00 | 00:00:00 | 00:00:00 | |
| 3Z3Z-3 | 2026-09-04 18:14:12 | 52.09159 | 16.43641 | 90° | 117km/h | 14162m | -3.7m/s | -58.6°C | 3.9% | 145.0hPa | 2.6V | 00:00:00 | 00:00:00 | 00:00:00 | |
| KRY50SP-1 | 2026-09-04 18:14:11 | 52.09159 | 16.43593 | 92° | 117km/h | 14166m | -3.4m/s | -58.6°C | 3.9% | 145.0hPa | 2.6V | 08:18:00 | 00:00:00 | 00:00:00 | |
| KRY50SP-1 | 2026-09-04 18:14:05 | 52.09172 | 16.43293 | 95° | 131km/h | 14188m | -4.1m/s | -58.8°C | 4.0% | 144.4hPa | 2.6V | 08:18:00 | 00:00:00 | 00:00:00 | |
| 13BRC | 2026-09-04 18:14:04 | 52.09175 | 16.43240 | 95° | 133km/h | 14191m | -3.7m/s | -58.8°C | 4.0% | 144.3hPa | 2.6V | 08:18:00 | 00:00:00 | 00:00:00 | |
| SP6BVK | 2026-09-04 18:14:01 | 52.09178 | 16.43076 | 90° | 131km/h | 14202m | -4.0m/s | -59.0°C | 4.0% | 144.1hPa | 2.6V | 08:18:00 | 00:00:00 | 00:00:00 | |
| SONDE2-11 | 2026-09-04 18:13:54 | 52.09186 | 16.42628 | 96° | 120km/h | 14236m | -3.5m/s | -59.2°C | 3.8% | 143.2hPa | 2.6V | 00:00:00 | 00:00:00 | 00:00:00 | |
| S3001 | 2026-09-04 18:13:53 | 52.09189 | 16.42579 | 97° | 124km/h | 14240m | -4.0m/s | -59.2°C | 3.8% | 143.1hPa | 2.6V | 00:00:00 | 00:00:00 | 00:00:00 | |
| EDDB2-12 | 2026-09-04 18:13:45 | 52.09217 | 16.42209 | 95° | 130km/h | 14267m | -3.9m/s | -59.4°C | 3.9% | 142.5hPa | 2.6V | 00:00:00 | 00:00:00 | 00:00:00 | |
| KRY50SP-1 | 2026-09-04 18:13:44 | 52.09217 | 16.42209 | 96° | 130km/h | 14267m | -3.9m/s | -59.4°C | 3.9% | 142.5hPa | 2.6V | 08:19:00 | 00:00:00 | 00:00:00 | |
| 13BRC | 2026-09-04 18:13:43 | 52.09219 | 16.42156 | 95° | 128km/h | 14271m | -3.6m/s | -59.4°C | 4.0% | 142.4hPa | 2.6V | 08:19:00 | 00:00:00 | 00:00:00 | |
| SP6BVK | 2026-09-04 18:13:41 | 52.09224 | 16.42054 | 96° | 124km/h | 14278m | -3.8m/s | -59.4°C | 4.0% | 142.2hPa | 2.6V | 08:19:00 | 00:00:00 | 00:00:00 | |
| DB0DAN | 2026-09-04 18:13:40 | 52.09230 | 16.41954 | 97° | 117km/h | 14286m | -3.7m/s | -59.4°C | 4% | 142.08hPa | 2.6V | 00:00:00 | 00:00:00 | 00:00:00 | |
| 3Z3Z-3 | 2026-09-04 18:13:39 | 52.09230 | 16.41953 | 98° | 122km/h | 14286m | -3.7m/s | -59.4°C | 4.0% | 142.1hPa | 2.5V | 00:00:00 | 00:00:00 | 00:00:00 | |
| DL2RXE-15 | 2026-09-04 18:13:38 | 52.09234 | 16.41904 | 98° | 120km/h | 14290m | -4.3m/s | -59.4°C | 4.0% | 142.0hPa | 2.5V | 00:00:00 | 00:00:00 | 00:00:00 | |
| KRY50SP-1 | 2026-09-04 18:13:34 | 52.09253 | 16.41709 | 101° | 119km/h | 14307m | -5.7m/s | -59.3°C | 3.8% | 141.6hPa | 2.5V | 08:19:00 | 00:00:00 | 00:00:00 | |
| KRY50SP-1 | 2026-09-04 18:13:28 | 52.09286 | 16.41429 | 100° | 115km/h | 14343m | -5.5m/s | -59.1°C | 3.7% | 140.8hPa | 2.5V | 08:19:00 | 00:00:00 | 00:00:00 | |
| DB0DAN | 2026-09-04 18:13:25 | 52.09300 | 16.41241 | 96° | 110km/h | 14363m | -6.2m/s | -59.1°C | 3.6% | 140.35hPa | 2.5V | 00:00:00 | 00:00:00 | 00:00:00 | |
| SONDE2-11 | 2026-09-04 18:13:23 | 52.09311 | 16.41104 | 98° | 111km/h | 14380m | -4.3m/s | -58.8°C | 3.7% | 140.0hPa | 2.5V | 00:00:00 | 00:00:00 | 00:00:00 | |
| S3001 | 2026-09-04 18:13:22 | 52.09315 | 16.41059 | 99° | 111km/h | 14384m | -4.2m/s | -58.7°C | 3.5% | 139.8hPa | 2.5V | 00:00:00 | 00:00:00 | 00:00:00 | |
| SP6BVK | 2026-09-04 18:13:21 | 52.09315 | 16.41059 | 100° | 113km/h | 14385m | -4.2m/s | -58.7°C | 3.5% | 139.8hPa | 2.5V | 08:19:00 | 00:00:00 | 00:00:00 | |
| SP3BTT-10 | 2026-09-04 18:13:20 | 52.09320 | 16.41013 | 100° | 111km/h | 14389m | -4.4m/s | -58.6°C | 7.4% | 139.7hPa | 2.5V | 00:00:00 | 00:00:00 | 00:00:00 | |
| KRY50SP-1 | 2026-09-04 18:13:17 | 52.09329 | 16.40919 | 100° | 119km/h | 14398m | -4.6m/s | -58.5°C | 3.4% | 139.5hPa | 2.5V | 08:19:00 | 00:00:00 | 00:00:00 | |
| EDDB2-12 | 2026-09-04 18:13:14 | 52.09346 | 16.40723 | 97° | 119km/h | 14416m | -4.6m/s | -58.4°C | 3.3% | 139.2hPa | 2.5V | 00:00:00 | 00:00:00 | 00:00:00 | |
| KRY50SP-1 | 2026-09-04 18:13:12 | 52.09350 | 16.40675 | 98° | 117km/h | 14421m | -4.5m/s | -58.4°C | 3.4% | 139.1hPa | 2.5V | 08:19:00 | 00:00:00 | 00:00:00 | |
| DB0DAN | 2026-09-04 18:13:10 | 52.09360 | 16.40537 | 96° | 102km/h | 14433m | -4.1m/s | -58.4°C | 3.4% | 138.78hPa | 2.5V | 00:00:00 | 00:00:00 | 00:00:00 | |
| KRY50SP-1 | 2026-09-04 18:13:06 | 52.09368 | 16.40409 | 97° | 104km/h | 14445m | -4.4m/s | -58.4°C | 3.4% | 138.5hPa | 2.6V | 08:19:00 | 00:00:00 | 00:00:00 | |
| SP3WXH-11 | 2026-09-04 18:13:04 | 52.09380 | 16.40236 | 97° | 110km/h | 14462m | -3.7m/s | -58.5°C | 3.5% | 138.2hPa | 2.6V | 00:00:00 | 00:00:00 | 00:00:00 | |
| KRY50SP-1 | 2026-09-04 18:13:01 | 52.09384 | 16.40190 | 98° | 113km/h | 14466m | -3.8m/s | -58.5°C | 3.5% | 138.0hPa | 2.6V | 08:19:00 | 00:00:00 | 00:00:00 | |
| SONCRA | 2026-09-04 18:12:57 | 52.09401 | 16.39906 | 94° | 113km/h | 14489m | -4.0m/s | 0°C | -1.0% | -1.0hPa | 2.6V | 00:00:00 | 00:00:00 | 00:00:00 | |
| DB0DAN | 2026-09-04 18:12:55 | 52.09403 | 16.39861 | 93° | 102km/h | 14493m | -4.4m/s | -58.4°C | 3.3% | 137.5hPa | 2.6V | 00:00:00 | 00:00:00 | 00:00:00 | |
| SONDE2-11 | 2026-09-04 18:12:52 | 52.09408 | 16.39693 | 91° | 97km/h | 14511m | -4.6m/s | -58.4°C | 3.3% | 137.1hPa | 2.6V | 00:00:00 | 00:00:00 | 00:00:00 | |
| S3001 | 2026-09-04 18:12:51 | 52.09409 | 16.39654 | 92° | 95km/h | 14515m | -4.4m/s | -58.4°C | 3.3% | 137.0hPa | 2.6V | 00:00:00 | 00:00:00 | 00:00:00 | |
| SP3BTT-10 | 2026-09-04 18:12:50 | 52.09409 | 16.39654 | 93° | 104km/h | 14515m | -4.3m/s | -58.4°C | 7.0% | 136.9hPa | 2.6V | 00:00:00 | 00:00:00 | 00:00:00 | |
| KRY50SP-1 | 2026-09-04 18:12:44 | 52.09418 | 16.39443 | 94° | 111km/h | 14537m | -4.6m/s | -58.3°C | 3.3% | 136.6hPa | 2.6V | 08:20:00 | 00:00:00 | 00:00:00 | |
| EDDB2-12 | 2026-09-04 18:12:43 | 52.09422 | 16.39350 | 95° | 117km/h | 14545m | -3.7m/s | -58.3°C | 3.3% | 136.3hPa | 2.6V | 00:00:00 | 00:00:00 | 00:00:00 | |
| SP6BVK | 2026-09-04 18:12:40 | 52.09426 | 16.39252 | 94° | 119km/h | 14554m | -3.8m/s | -58.3°C | 3.3% | 136.2hPa | 2.6V | 08:20:00 | 00:00:00 | 00:00:00 | |
| KRY50SP-1 | 2026-09-04 18:12:38 | 52.09430 | 16.39157 | 95° | 115km/h | 14562m | -3.7m/s | -58.3°C | 3.3% | 136.0hPa | 2.6V | 08:20:00 | 00:00:00 | 00:00:00 | |
| KRY50SP-1 | 2026-09-04 18:12:32 | 52.09442 | 16.38897 | 97° | 102km/h | 14587m | -4.8m/s | -58.4°C | 3.4% | 135.5hPa | 2.6V | 08:20:00 | 00:00:00 | 00:00:00 | |
| KRY50SP-1 | 2026-09-04 18:12:27 | 52.09458 | 16.38685 | 100° | 108km/h | 14610m | -4.6m/s | -58.3°C | 3.4% | 135.0hPa | 2.6V | 08:20:00 | 00:00:00 | 00:00:00 | |
| 3Z3Z-3 | 2026-09-04 18:12:24 | 52.09471 | 16.38551 | 99° | 111km/h | 14623m | -4.1m/s | -58.3°C | 3.5% | 134.8hPa | 2.6V | 00:00:00 | 00:00:00 | 00:00:00 | |
| KRY50SP-1 | 2026-09-04 18:12:22 | 52.09479 | 16.38461 | 99° | 110km/h | 14632m | -4.2m/s | -58.2°C | 3.5% | 134.6hPa | 2.6V | 08:20:00 | 00:00:00 | 00:00:00 | |
| SONDE2-11 | 2026-09-04 18:12:21 | 52.09492 | 16.38330 | 100° | 104km/h | 14645m | -3.8m/s | -57.9°C | 3.4% | 134.3hPa | 2.6V | 00:00:00 | 00:00:00 | 00:00:00 | |
| EDDB2-11 | 2026-09-04 18:12:20 | 52.09492 | 16.38330 | 100° | 104km/h | 14645m | -3.8m/s | -57.9°C | 3.4% | 134.3hPa | 2.6V | 00:00:00 | 00:00:00 | 00:00:00 | |
| SP6BVK | 2026-09-04 18:12:19 | 52.09492 | 16.38330 | 101° | 104km/h | 14645m | -3.8m/s | -57.9°C | 3.4% | 134.3hPa | 2.6V | 08:20:00 | 00:00:00 | 00:00:00 | |
| KRY50SP-1 | 2026-09-04 18:12:16 | 52.09505 | 16.38208 | 103° | 97km/h | 14658m | -4.1m/s | -57.8°C | 3.4% | 134.1hPa | 2.6V | 08:20:00 | 00:00:00 | 00:00:00 | |
| AA1-15 | 2026-09-04 18:11:58 | 52.09592 | 16.37450 | 98° | 84km/h | 14738m | -4.4m/s | -56.9°C | 3.6% | 132.4hPa | 2.6V | 08:23:02 | 01:54:33 | 00:00:00 | |
| 3Z3Z-3 | 2026-09-04 18:11:56 | 52.09595 | 16.37416 | 101° | 84km/h | 14742m | -3.9m/s | -56.9°C | 3.1% | 132.3hPa | 2.5V | 00:00:00 | 00:00:00 | 00:00:00 | |
| DB0DAN | 2026-09-04 18:11:55 | 52.09605 | 16.37346 | 105° | 88km/h | 14749m | -4.2m/s | -57°C | 2.9% | 132.16hPa | 2.5V | 00:00:00 | 00:00:00 | 00:00:00 | |
| EDDB2-11 | 2026-09-04 18:11:49 | 52.09642 | 16.37097 | 99° | 104km/h | 14775m | -4.1m/s | -56.9°C | 3.0% | 131.7hPa | 2.6V | 00:00:00 | 00:00:00 | 00:00:00 | |
| KRY50SP-1 | 2026-09-04 18:11:48 | 52.09642 | 16.37097 | 101° | 106km/h | 14776m | -4.1m/s | -56.9°C | 3.0% | 131.6hPa | 2.6V | 08:21:00 | 00:00:00 | 00:00:00 | |
| 3Z3Z-3 | 2026-09-04 18:11:45 | 52.09653 | 16.36976 | 99° | 91km/h | 14788m | -4.0m/s | -56.8°C | 3.0% | 131.4hPa | 2.6V | 00:00:00 | 00:00:00 | 00:00:00 | |
| DB0DAN | 2026-09-04 18:11:40 | 52.09682 | 16.36771 | 108° | 84km/h | 14815m | -5m/s | -56.4°C | 3% | 130.88hPa | 2.6V | 00:00:00 | 00:00:00 | 00:00:00 | |
| AA1-15 | 2026-09-04 18:11:36 | 52.09712 | 16.36621 | 106° | 104km/h | 14833m | -4.4m/s | -56.2°C | 3.1% | 130.5hPa | 2.5V | 08:23:02 | 01:54:11 | 00:00:00 | |
| KRY50SP-1 | 2026-09-04 18:11:32 | 52.09730 | 16.36493 | 100° | 108km/h | 14847m | -4.4m/s | -56.2°C | 2.8% | 130.2hPa | 2.5V | 08:21:00 | 00:00:00 | 00:00:00 | |
| SP3WXH-11 | 2026-09-04 18:11:31 | 52.09736 | 16.36365 | 92° | 97km/h | 14859m | -4.1m/s | -56.2°C | 2.8% | 130.0hPa | 2.5V | 00:00:00 | 00:00:00 | 00:00:00 | |
| OE3JTB-15 | 2026-09-04 18:11:28 | 52.09736 | 16.36288 | 90° | 91km/h | 14868m | -3.3m/s | -56.2°C | 6.1% | 129.7hPa | 2.5V | 00:00:00 | 00:00:00 | 00:00:00 | |
| KRY50SP-1 | 2026-09-04 18:11:27 | 52.09736 | 16.36288 | 91° | 89km/h | 14868m | -3.3m/s | -56.2°C | 2.8% | 129.7hPa | 2.5V | 08:21:00 | 00:00:00 | 00:00:00 | |
| DB0DAN | 2026-09-04 18:11:25 | 52.09738 | 16.36190 | 97° | 71km/h | 14879m | -3.9m/s | -56.2°C | 2.8% | 129.49hPa | 2.5V | 00:00:00 | 00:00:00 | 00:00:00 | |
| KRY50SP-1 | 2026-09-04 18:11:22 | 52.09747 | 16.36129 | 108° | 77km/h | 14886m | -3.0m/s | -56.2°C | 2.8% | 129.4hPa | 2.5V | 08:21:00 | 00:00:00 | 00:00:00 | |
| SP3BTT-10 | 2026-09-04 18:11:20 | 52.09769 | 16.36031 | 110° | 93km/h | 14897m | -3.8m/s | -56.3°C | 6.2% | 129.0hPa | 2.5V | 00:00:00 | 00:00:00 | 00:00:00 | |
| SONDE2-11 | 2026-09-04 18:11:19 | 52.09785 | 16.35954 | 105° | 102km/h | 14904m | -3.5m/s | -56.3°C | 2.9% | 129.0hPa | 2.5V | 00:00:00 | 00:00:00 | 00:00:00 | |
| EDDB2-11 | 2026-09-04 18:11:18 | 52.09785 | 16.35954 | 105° | 102km/h | 14904m | -3.5m/s | -56.3°C | 2.9% | 129.0hPa | 2.5V | 00:00:00 | 00:00:00 | 00:00:00 | |
| S3001 | 2026-09-04 18:11:17 | 52.09791 | 16.35912 | 102° | 106km/h | 14908m | -3.9m/s | -56.3°C | 2.8% | 128.9hPa | 2.5V | 00:00:00 | 00:00:00 | 00:00:00 | |
| KRY50SP-1 | 2026-09-04 18:11:16 | 52.09791 | 16.35912 | 103° | 106km/h | 14908m | -3.9m/s | -56.3°C | 2.8% | 128.9hPa | 2.5V | 08:22:00 | 00:00:00 | 00:00:00 | |
| DB0DAN | 2026-09-04 18:11:10 | 52.09803 | 16.35637 | 92° | 80km/h | 14934m | -4m/s | -56.3°C | 2.7% | 128.38hPa | 2.5V | 00:00:00 | 00:00:00 | 00:00:00 | |
| EDDB2-12 | 2026-09-04 18:11:10 | 52.09804 | 16.35604 | 93° | 78km/h | 14938m | -3.8m/s | -56.3°C | 2.7% | 128.2hPa | 2.5V | 00:00:00 | 00:00:00 | 00:00:00 | |
| KRY50SP-1 | 2026-09-04 18:11:05 | 52.09813 | 16.35506 | 105° | 80km/h | 14951m | -3.6m/s | -56.3°C | 2.7% | 128.1hPa | 2.5V | 08:22:00 | 00:00:00 | 00:00:00 | |
| SP3WXH-11 | 2026-09-04 18:11:00 | 52.09853 | 16.35241 | 95° | 102km/h | 14979m | -4.4m/s | -56.3°C | 2.7% | 127.5hPa | 2.5V | 00:00:00 | 00:00:00 | 00:00:00 | |
| EDDB2-11 | 2026-09-04 18:10:47 | 52.09841 | 16.34811 | 95° | 71km/h | 15028m | -3.2m/s | -56.6°C | 2.7% | 126.5hPa | 2.5V | 00:00:00 | 00:00:00 | 00:00:00 | |
| S3001 | 2026-09-04 18:10:46 | 52.09844 | 16.34782 | 102° | 75km/h | 15032m | -3.4m/s | -56.7°C | 2.7% | 126.4hPa | 2.5V | 00:00:00 | 00:00:00 | 00:00:00 | |
| KRY50SP-1 | 2026-09-04 18:10:43 | 52.09854 | 16.34716 | 105° | 89km/h | 15040m | -4.1m/s | -56.7°C | 2.7% | 126.3hPa | 2.5V | 08:22:00 | 00:00:00 | 00:00:00 | |
| DB0DAN | 2026-09-04 18:10:40 | 52.09871 | 16.34558 | 95° | 95km/h | 15057m | -3.8m/s | -56.7°C | 2.6% | 125.96hPa | 2.5V | 00:00:00 | 00:00:00 | 00:00:00 | |
| KRY50SP-1 | 2026-09-04 18:10:38 | 52.09873 | 16.34517 | 95° | 104km/h | 15062m | -4.3m/s | -56.7°C | 2.6% | 125.9hPa | 2.5V | 08:22:00 | 00:00:00 | 00:00:00 | |
| SP6BVK | 2026-09-04 18:10:37 | 52.09874 | 16.34474 | 94° | 104km/h | 15066m | -4.2m/s | -56.6°C | 2.6% | 125.8hPa | 2.5V | 08:22:00 | 00:00:00 | 00:00:00 | |
| SP3BTT-10 | 2026-09-04 18:10:36 | 52.09875 | 16.34386 | 92° | 91km/h | 15075m | -4.5m/s | -56.6°C | 5.9% | 125.6hPa | 2.5V | 00:00:00 | 00:00:00 | 00:00:00 | |
| 13BRC | 2026-09-04 18:10:35 | 52.09875 | 16.34386 | 93° | 108km/h | 15075m | -4.6m/s | -56.6°C | 2.5% | 125.6hPa | 2.5V | 08:22:00 | 00:00:00 | 00:00:00 | |
| KRY50SP-1 | 2026-09-04 18:10:32 | 52.09875 | 16.34258 | 90° | 100km/h | 15089m | -3.9m/s | -56.7°C | 2.6% | 125.3hPa | 2.5V | 08:22:00 | 00:00:00 | 00:00:00 | |
| OE3JTB-15 | 2026-09-04 18:10:30 | 52.09875 | 16.34144 | 95° | 95km/h | 15099m | -3.8m/s | -56.8°C | 6.0% | 125.0hPa | 2.5V | 00:00:00 | 01:53:05 | 00:00:00 | |
| 3Z3Z-3 | 2026-09-04 18:10:28 | 52.09877 | 16.34111 | 98° | 80km/h | 15103m | -4.5m/s | -56.8°C | 2.6% | 125.0hPa | 2.5V | 08:22:00 | 00:00:00 | 00:00:00 | |
| KRY50SP-1 | 2026-09-04 18:10:27 | 52.09880 | 16.34079 | 103° | 82km/h | 15108m | -4.4m/s | -56.8°C | 2.6% | 124.9hPa | 2.5V | 08:22:00 | 00:00:00 | 00:00:00 | |
| DB0DAN | 2026-09-04 18:10:25 | 52.09896 | 16.33981 | 106° | 82km/h | 15122m | -4.6m/s | -56.8°C | 2.6% | 124.61hPa | 2.5V | 00:00:00 | 00:00:00 | 00:00:00 | |
| AA1-15 | 2026-09-04 18:10:19 | 52.09931 | 16.33766 | 100° | 102km/h | 15150m | -4.2m/s | -56.4°C | 2.5% | 124.1hPa | 2.5V | 08:23:02 | 01:52:54 | 00:00:00 | |
| 3Z3Z-3 | 2026-09-04 18:10:18 | 52.09936 | 16.33723 | 100° | 106km/h | 15155m | -4.7m/s | -56.2°C | 2.5% | 124.0hPa | 2.6V | 00:00:00 | 00:00:00 | 00:00:00 | |
| S3001 | 2026-09-04 18:10:16 | 52.09942 | 16.33602 | 93° | 91km/h | 15169m | -4.8m/s | -55.9°C | 2.5% | 123.8hPa | 2.6V | 00:00:00 | 00:00:00 | 00:00:00 | |
| 13BRC | 2026-09-04 18:10:14 | 52.09942 | 16.33602 | 95° | 93km/h | 15169m | -4.8m/s | -55.9°C | 2.5% | 123.7hPa | 2.6V | 08:23:00 | 00:00:00 | 00:00:00 | |
| KRY50SP-1 | 2026-09-04 18:10:11 | 52.09944 | 16.33498 | 93° | 78km/h | 15181m | -4.6m/s | -55.4°C | 2.3% | 123.5hPa | 2.6V | 08:23:00 | 00:00:00 | 00:00:00 | |
| DB0DAN | 2026-09-04 18:10:10 | 52.09944 | 16.33437 | 86° | 69km/h | 15191m | -4.5m/s | -55.4°C | 2.3% | 123.3hPa | 2.6V | 00:00:00 | 00:00:00 | 00:00:00 | |
| AA1-15 | 2026-09-04 18:10:05 | 52.09929 | 16.33264 | 81° | 95km/h | 15216m | -4.7m/s | -55.5°C | 2.2% | 122.8hPa | 2.6V | 08:23:02 | 01:52:40 | 00:00:00 | |
| 3Z3Z-3 | 2026-09-04 18:10:04 | 52.09929 | 16.33264 | 82° | 95km/h | 15216m | -4.7m/s | -55.5°C | 2.3% | 122.8hPa | 2.5V | 00:00:00 | 00:00:00 | 00:00:00 | |
| SP3WXH-11 | 2026-09-04 18:09:57 | 52.09940 | 16.32926 | 103° | 89km/h | 15254m | -4.7m/s | -55.5°C | 2.3% | 122.1hPa | 2.5V | 00:00:00 | 00:00:00 | 00:00:00 | |
| SP6BVK | 2026-09-04 18:09:56 | 52.09940 | 16.32926 | 105° | 91km/h | 15254m | -4.7m/s | -55.5°C | 2.3% | 122.1hPa | 2.5V | 08:23:00 | 00:00:00 | 00:00:00 | |
| DB0DAN | 2026-09-04 18:09:55 | 52.09949 | 16.32860 | 98° | 71km/h | 15264m | -4.6m/s | -55.6°C | 2.4% | 121.94hPa | 2.5V | 00:00:00 | 00:00:00 | 00:00:00 | |
| AA1-15 | 2026-09-04 18:09:55 | 52.09949 | 16.32860 | 98° | 75km/h | 15264m | -4.6m/s | -55.6°C | 2.3% | 121.9hPa | 2.5V | 08:23:02 | 01:52:30 | 00:00:00 | |
| EDDB2-11 | 2026-09-04 18:09:45 | 52.09923 | 16.32478 | 91° | 111km/h | 15309m | -3.9m/s | -55.8°C | 2.3% | 121.1hPa | 2.5V | 00:00:00 | 00:00:00 | 00:00:00 | |
| S3001 | 2026-09-04 18:09:44 | 52.09925 | 16.32432 | 95° | 111km/h | 15313m | -4.5m/s | -55.7°C | 2.3% | 120.9hPa | 2.5V | 00:00:00 | 00:00:00 | 00:00:00 | |
| DB0DAN | 2026-09-04 18:09:40 | 52.09943 | 16.32273 | 99° | 80km/h | 15329m | -4.5m/s | -55.7°C | 2.3% | 120.6hPa | 2.5V | 00:00:00 | 00:00:00 | 00:00:00 | |
| AA1-15 | 2026-09-04 18:09:37 | 52.09946 | 16.32175 | 87° | 82km/h | 15343m | -4.4m/s | -55.7°C | 2.1% | 120.3hPa | 2.6V | 08:23:02 | 01:52:12 | 00:00:00 | |
| AA1-15 | 2026-09-04 18:09:26 | 52.09938 | 16.31704 | 100° | 102km/h | 15389m | -4.3m/s | -55.7°C | 1.9% | 119.5hPa | 2.6V | 08:25:35 | 01:52:01 | 00:00:00 | |
| DB0DAN | 2026-09-04 18:09:25 | 52.09943 | 16.31664 | 99° | 93km/h | 15393m | -4m/s | -55.7°C | 2.1% | 119.44hPa | 2.6V | 00:00:00 | 00:00:00 | 00:00:00 | |
| KRY50SP-1 | 2026-09-04 18:09:22 | 52.09951 | 16.31586 | 102° | 99km/h | 15402m | -4.8m/s | -55.7°C | 2.0% | 119.3hPa | 2.5V | 08:23:00 | 00:00:00 | 00:00:00 | |
| KRY50SP-1 | 2026-09-04 18:09:17 | 52.09971 | 16.31339 | 96° | 104km/h | 15428m | -4.6m/s | -55.8°C | 2.0% | 118.8hPa | 2.5V | 08:23:00 | 00:00:00 | 00:00:00 | |
| 3Z3Z-3 | 2026-09-04 18:09:16 | 52.09971 | 16.31339 | 96° | 104km/h | 15428m | -4.6m/s | -55.8°C | 2.0% | 118.8hPa | 2.5V | 08:23:00 | 00:00:00 | 00:00:00 | |
| EDDB2-11 | 2026-09-04 18:09:14 | 52.09978 | 16.31211 | 95° | 102km/h | 15442m | -4.7m/s | -55.9°C | 1.9% | 118.5hPa | 2.5V | 00:00:00 | 00:00:00 | 00:00:00 | |
| S3001 | 2026-09-04 18:09:13 | 52.09980 | 16.31168 | 94° | 104km/h | 15447m | -5.1m/s | -55.9°C | 2.0% | 118.4hPa | 2.5V | 00:00:00 | 00:00:00 | 00:00:00 | |
| OE3JTB-15 | 2026-09-04 18:09:12 | 52.09982 | 16.31125 | 95° | 102km/h | 15452m | -4.7m/s | -55.9°C | 5.2% | 118.2hPa | 2.5V | 00:00:00 | 00:00:00 | 00:00:00 | |
| DB0DAN | 2026-09-04 18:09:10 | 52.09987 | 16.31040 | 97° | 97km/h | 15461m | -4.5m/s | -56°C | 1.9% | 118.16hPa | 2.5V | 00:00:00 | 00:00:00 | 00:00:00 | |
| AA1-15 | 2026-09-04 18:09:05 | 52.10008 | 16.30839 | 101° | 100km/h | 15485m | -4.6m/s | -55.8°C | 1.6% | 117.7hPa | 2.5V | 08:25:35 | 01:51:40 | 00:00:00 | |
| SP3BTT-10 | 2026-09-04 18:09:05 | 52.10008 | 16.30839 | 102° | 78km/h | 15486m | -4.5m/s | -55.7°C | 5.3% | 117.6hPa | 2.5V | 00:00:00 | 00:00:00 | 00:00:00 | |
| KRY50SP-1 | 2026-09-04 18:09:00 | 52.10023 | 16.30680 | 99° | 95km/h | 15503m | -4.9m/s | -55.6°C | 1.9% | 117.3hPa | 2.5V | 08:23:00 | 00:00:00 | 00:00:00 | |
| DB0DAN | 2026-09-04 18:08:55 | 52.10045 | 16.30453 | 100° | 86km/h | 15535m | -5.3m/s | -55.4°C | 1.8% | 116.76hPa | 2.5V | 00:00:00 | 00:00:00 | 00:00:00 | |
| SONCRA | 2026-09-04 18:08:49 | 52.10066 | 16.30209 | 96° | 84km/h | 15575m | -5.8m/s | -54.6°C | 1.7% | 116.0hPa | 2.5V | 00:00:00 | 00:00:00 | 00:00:00 | |
| KRY50SP-1 | 2026-09-04 18:08:45 | 52.10075 | 16.30106 | 99° | 84km/h | 15592m | -5.9m/s | -54.2°C | 1.6% | 115.7hPa | 2.5V | 08:24:00 | 00:00:00 | 00:00:00 | |
| S3001 | 2026-09-04 18:08:42 | 52.10085 | 16.30005 | 99° | 80km/h | 15611m | -6.0m/s | -53.9°C | 1.6% | 115.4hPa | 2.5V | 00:00:00 | 00:00:00 | 00:00:00 | |
| KRY50SP-1 | 2026-09-04 18:08:39 | 52.10092 | 16.29939 | 101° | 80km/h | 15622m | -5.7m/s | -53.8°C | 1.6% | 115.2hPa | 2.5V | 08:24:00 | 00:00:00 | 00:00:00 | |
| KRY50SP-1 | 2026-09-04 18:08:34 | 52.10114 | 16.29775 | 104° | 82km/h | 15651m | -6.1m/s | -53.5°C | 1.6% | 114.7hPa | 2.5V | 08:24:00 | 00:00:00 | 00:00:00 | |
| SP6BVK | 2026-09-04 18:08:33 | 52.10118 | 16.29742 | 104° | 80km/h | 15657m | -6.3m/s | -53.4°C | 1.5% | 114.6hPa | 2.5V | 08:24:00 | 00:00:00 | 00:00:00 | |
| 13BRC | 2026-09-04 18:08:30 | 52.10131 | 16.29649 | 102° | 77km/h | 15676m | -6.4m/s | -53.4°C | 1.6% | 114.2hPa | 2.5V | 08:24:00 | 00:00:00 | 00:00:00 | |
| KRY50SP-1 | 2026-09-04 18:08:28 | 52.10138 | 16.29588 | 102° | 75km/h | 15690m | -7.1m/s | -53.4°C | 1.6% | 114.0hPa | 2.5V | 08:24:00 | 00:00:00 | 00:00:00 | |
| DB0DAN | 2026-09-04 18:08:25 | 52.10153 | 16.29470 | 104° | 69km/h | 15720m | -8.8m/s | -53.3°C | 1.5% | 113.51hPa | 2.5V | 00:00:00 | 00:00:00 | 00:00:00 | |
| SP3WXH-11 | 2026-09-04 18:08:24 | 52.10157 | 16.29442 | 103° | 69km/h | 15730m | -10.8m/s | -53.3°C | 1.5% | 113.3hPa | 2.5V | 00:00:00 | 00:00:00 | 00:00:00 | |
| KRY50SP-1 | 2026-09-04 18:08:23 | 52.10157 | 16.29442 | 104° | 69km/h | 15730m | -10.8m/s | -53.3°C | 1.5% | 113.4hPa | 2.5V | 08:24:00 | 00:00:00 | 00:00:00 | |
| OE3JTB-15 | 2026-09-04 18:08:20 | 52.10170 | 16.29335 | 99° | 60km/h | 15774m | -9.6m/s | -53.3°C | 4.3% | 112.5hPa | 2.5V | 00:00:00 | 00:00:00 | 00:00:00 | |
| KRY50SP-1 | 2026-09-04 18:08:18 | 52.10172 | 16.29310 | 99° | 62km/h | 15783m | -9.4m/s | -53.3°C | 1.5% | 112.4hPa | 2.5V | 08:24:00 | 00:00:00 | 00:00:00 | |
| SONCRA | 2026-09-04 18:08:17 | 52.10177 | 16.29259 | 97° | 62km/h | 15802m | -9.5m/s | -53.3°C | 1.5% | 112.1hPa | 2.5V | 00:00:00 | 00:00:00 | 00:00:00 | |
| EDDB2-11 | 2026-09-04 18:08:12 | 52.10187 | 16.29129 | 96° | 64km/h | 15850m | -9.7m/s | -53.3°C | 1.5% | 111.3hPa | 2.5V | 00:00:00 | 00:00:00 | 00:00:00 | |
| DB0DAN | 2026-09-04 18:08:10 | 52.10190 | 16.29077 | 95° | 60km/h | 15869m | -9.7m/s | -53.3°C | 1.5% | 110.9hPa | 2.5V | 00:00:00 | 00:00:00 | 00:00:00 | |
| AA1-15 | 2026-09-04 18:08:08 | 52.10192 | 16.29026 | 92° | 60km/h | 15888m | -9.4m/s | -53.5°C | 1% | 110.6hPa | 2.6V | 08:25:35 | 01:50:43 | 00:00:00 | |
| KRY50SP-1 | 2026-09-04 18:08:07 | 52.10192 | 16.29026 | 93° | 60km/h | 15889m | -9.4m/s | -53.5°C | 1.5% | 110.6hPa | 2.5V | 08:24:00 | 00:00:00 | 00:00:00 | |
| EDDB2-12 | 2026-09-04 18:08:03 | 52.10192 | 16.28905 | 87° | 57km/h | 15936m | -9.8m/s | -53.8°C | 1.6% | 109.8hPa | 2.5V | 00:00:00 | 00:00:00 | 00:00:00 | |
| KRY50SP-1 | 2026-09-04 18:08:02 | 52.10190 | 16.28881 | 86° | 58km/h | 15946m | -9.6m/s | -53.8°C | 1.5% | 109.6hPa | 2.5V | 08:24:00 | 00:00:00 | 00:00:00 | |
| KRY50SP-1 | 2026-09-04 18:07:56 | 52.10185 | 16.28764 | 87° | 58km/h | 15994m | -9.8m/s | -53.7°C | 1.5% | 108.8hPa | 2.5V | 08:24:00 | 00:00:00 | 00:00:00 | |
| DB0DAN | 2026-09-04 18:07:55 | 52.10184 | 16.28716 | 88° | 57km/h | 16014m | -9.9m/s | -53.9°C | 1.5% | 108.49hPa | 2.5V | 00:00:00 | 00:00:00 | 00:00:00 | |
| SP3WXH-11 | 2026-09-04 18:07:53 | 52.10183 | 16.28668 | 87° | 58km/h | 16033m | -9.8m/s | -54.0°C | 1.5% | 108.1hPa | 2.6V | 00:00:00 | 00:00:00 | 00:00:00 | |
| SONCRA | 2026-09-04 18:07:46 | 52.10181 | 16.28493 | 90° | 62km/h | 16103m | -10.1m/s | -54.4°C | 1.6% | 107.0hPa | 2.6V | 00:00:00 | 00:00:00 | 00:00:00 | |
| KRY50SP-1 | 2026-09-04 18:07:44 | 52.10181 | 16.28467 | 93° | 64km/h | 16113m | -10.0m/s | -54.5°C | 1.6% | 106.8hPa | 2.6V | 08:25:00 | 00:00:00 | 00:00:00 | |
| DB0DAN | 2026-09-04 18:07:40 | 52.10188 | 16.28333 | 97° | 66km/h | 16163m | -10m/s | -54.7°C | 1.6% | 105.95hPa | 2.6V | 00:00:00 | 00:00:00 | 00:00:00 | |
| AA1-15 | 2026-09-04 18:07:27 | 52.10225 | 16.27951 | 101° | 71km/h | 16296m | -10.3m/s | -55°C | 1.2% | 103.8hPa | 2.5V | 08:25:35 | 01:50:02 | 00:00:00 | |
| DB0DAN | 2026-09-04 18:07:25 | 52.10231 | 16.27894 | 100° | 66km/h | 16317m | -10.1m/s | -55.1°C | 1.6% | 103.45hPa | 2.5V | 00:00:00 | 00:00:00 | 00:00:00 | |
| AA1-15 | 2026-09-04 18:07:14 | 52.10252 | 16.27602 | 93° | 64km/h | 16430m | -10m/s | -55.5°C | 1.2% | 101.7hPa | 2.5V | 08:25:35 | 01:49:49 | 00:00:00 | |
| KRY50SP-1 | 2026-09-04 18:07:13 | 52.10252 | 16.27601 | 94° | 64km/h | 16430m | -10.0m/s | -55.5°C | 1.6% | 101.7hPa | 2.5V | 08:25:00 | 00:00:00 | 00:00:00 | |
| DB0DAN | 2026-09-04 18:07:10 | 52.10257 | 16.27499 | 95° | 60km/h | 16470m | -10m/s | -55.8°C | 1.6% | 101.01hPa | 2.5V | 00:00:00 | 00:00:00 | 00:00:00 | |
| AA1-15 | 2026-09-04 18:07:04 | 52.10267 | 16.27342 | 95° | 66km/h | 16531m | -9.9m/s | -56°C | 1.3% | 100.1hPa | 2.5V | 08:25:35 | 01:49:39 | 00:00:00 | |
| AA1-15 | 2026-09-04 18:06:46 | 52.10283 | 16.26870 | 98° | 60km/h | 16716m | -10.4m/s | -55.3°C | 1.2% | 97.2hPa | 2.5V | 08:26:26 | 01:49:21 | 00:00:00 | |
| OE3JTB-15 | 2026-09-04 18:06:46 | 52.10282 | 16.26870 | 98° | 51km/h | 16717m | -10.4m/s | -55.2°C | 4.8% | 97.1hPa | 2.6V | 00:00:00 | 00:00:00 | 00:00:00 | |
| 3Z3Z-3 | 2026-09-04 18:06:45 | 52.10282 | 16.26870 | 99° | 60km/h | 16717m | -10.4m/s | -55.3°C | 1.6% | 97.2hPa | 2.6V | 08:26:00 | 00:00:00 | 00:00:00 | |
| SONCRA | 2026-09-04 18:06:44 | 52.10290 | 16.26799 | 102° | 57km/h | 16748m | -10.4m/s | -55.3°C | 1.6% | 96.8hPa | 2.6V | 00:00:00 | 00:00:00 | 00:00:00 | |
| DB0DAN | 2026-09-04 18:06:40 | 52.10301 | 16.26734 | 109° | 51km/h | 16778m | -10m/s | -54.9°C | 1.6% | 96.22hPa | 2.6V | 00:00:00 | 00:00:00 | 00:00:00 | |
| EDDB2-11 | 2026-09-04 18:06:39 | 52.10311 | 16.26693 | 112° | 51km/h | 16798m | -10.0m/s | -54.8°C | 1.6% | 95.9hPa | 2.6V | 00:00:00 | 00:00:00 | 00:00:00 | |
| DM0DOS-11 | 2026-09-04 18:06:38 | 52.10332 | 16.26597 | 101° | 47km/h | 16847m | -9.2m/s | -54.6°C | 4.5% | 95.1hPa | 2.6V | 08:26:06 | 01:49:08 | 00:00:00 | |
| AA1-15 | 2026-09-04 18:06:35 | 52.10326 | 16.26635 | 110° | 49km/h | 16828m | -9.9m/s | -54.7°C | 1.1% | 95.5hPa | 2.5V | 08:26:26 | 01:49:10 | 00:00:00 | |
| 3Z3Z-3 | 2026-09-04 18:06:34 | 52.10325 | 16.26635 | 111° | 49km/h | 16829m | -9.9m/s | -54.7°C | 1.5% | 95.5hPa | 2.5V | 08:26:00 | 00:00:00 | 00:00:00 | |
| EDDB2-12 | 2026-09-04 18:06:30 | 52.10337 | 16.26539 | 94° | 47km/h | 16871m | -7.8m/s | -54.5°C | 1.5% | 94.8hPa | 2.5V | 00:00:00 | 00:00:00 | 00:00:00 | |
| SP6BVK | 2026-09-04 18:06:29 | 52.10337 | 16.26538 | 95° | 47km/h | 16872m | -7.8m/s | -54.5°C | 1.5% | 94.8hPa | 2.5V | 08:26:00 | 00:00:00 | 00:00:00 | |
| DB0DAN | 2026-09-04 18:06:25 | 52.10339 | 16.26448 | 96° | 38km/h | 16902m | -4.7m/s | -54.4°C | 1.5% | 94.37hPa | 2.5V | 00:00:00 | 00:00:00 | 00:00:00 | |
| AA1-15 | 2026-09-04 18:06:24 | 52.10340 | 16.26432 | 103° | 37km/h | 16907m | -5.5m/s | -54.4°C | 1% | 94.3hPa | 2.5V | 08:26:26 | 01:48:59 | 00:00:00 | |
| DM0DOS-11 | 2026-09-04 18:06:23 | 52.10343 | 16.26418 | 108° | 37km/h | 16912m | -5.4m/s | -54.4°C | 4.4% | 94.2hPa | 2.6V | 08:26:16 | 01:48:58 | 00:00:00 | |
| SP3WXH-11 | 2026-09-04 18:06:20 | 52.10354 | 16.26372 | 112° | 42km/h | 16928m | -5.4m/s | -54.4°C | 1.5% | 94.0hPa | 2.5V | 00:00:00 | 00:00:00 | 00:00:00 | |
| KRY50SP-1 | 2026-09-04 18:06:19 | 52.10354 | 16.26372 | 113° | 42km/h | 16929m | -5.4m/s | -54.4°C | 1.5% | 94.0hPa | 2.5V | 08:26:00 | 00:00:00 | 00:00:00 | |
| DM0DOS-11 | 2026-09-04 18:06:18 | 52.10371 | 16.26252 | 93° | 40km/h | 16968m | -5.7m/s | -54.4°C | 4.4% | 93.4hPa | 2.5V | 08:26:26 | 01:48:48 | 00:00:00 | |
| AA1-15 | 2026-09-04 18:06:13 | 52.10371 | 16.26252 | 93° | 40km/h | 16968m | -5.7m/s | -54.4°C | 1% | 93.4hPa | 2.5V | 08:26:26 | 01:48:48 | 00:00:00 | |
| DB0DAN | 2026-09-04 18:06:10 | 52.10372 | 16.26207 | 92° | 33km/h | 16985m | -5.1m/s | -54.4°C | 1.4% | 93.07hPa | 2.5V | 00:00:00 | 00:00:00 | 00:00:00 | |
| DM0DOS-11 | 2026-09-04 18:06:08 | 52.10375 | 16.26092 | 88° | 46km/h | 17044m | -8.5m/s | -54.5°C | 4.3% | 92.3hPa | 2.5V | 08:26:36 | 01:48:38 | 00:00:00 | |
| AA1-15 | 2026-09-04 18:06:03 | 52.10375 | 16.26092 | 89° | 46km/h | 17044m | -8.5m/s | -54.5°C | 0.9% | 92.3hPa | 2.5V | 08:27:17 | 01:48:38 | 00:00:00 | |
| EDDB2-12 | 2026-09-04 18:05:59 | 52.10373 | 16.26021 | 85° | 38km/h | 17075m | -7.9m/s | -54.7°C | 1.4% | 91.9hPa | 2.6V | 00:00:00 | 00:00:00 | 00:00:00 | |
| DB0DAN | 2026-09-04 18:05:55 | 52.10370 | 16.25960 | 84° | 38km/h | 17107m | -9.6m/s | -54.9°C | 1.4% | 91.41hPa | 2.6V | 00:00:00 | 00:00:00 | 00:00:00 | |
| AA1-15 | 2026-09-04 18:05:53 | 52.10367 | 16.25927 | 84° | 42km/h | 17125m | -10.2m/s | -55.1°C | 1% | 91.2hPa | 2.5V | 08:27:17 | 01:48:28 | 00:00:00 | |
| SP3WXH-11 | 2026-09-04 18:05:49 | 52.10363 | 16.25854 | 83° | 46km/h | 17160m | -8.9m/s | -55.3°C | 1.4% | 90.7hPa | 2.5V | 00:00:00 | 00:00:00 | 00:00:00 | |
| AA1-15 | 2026-09-04 18:05:43 | 52.10350 | 16.25733 | 79° | 53km/h | 17227m | -12.2m/s | -55.5°C | 1% | 89.7hPa | 2.5V | 08:27:17 | 01:48:18 | 00:00:00 | |
| SONCRA | 2026-09-04 18:05:42 | 52.10348 | 16.25712 | 79° | 55km/h | 17239m | -10.7m/s | -55.5°C | 1.5% | 89.5hPa | 2.6V | 00:00:00 | 00:00:00 | 00:00:00 | |
| DB0DAN | 2026-09-04 18:05:40 | 52.10343 | 16.25665 | 81° | 57km/h | 17261m | -10.6m/s | -55.5°C | 1.5% | 89.24hPa | 2.6V | 00:00:00 | 00:00:00 | 00:00:00 | |
| AA1-15 | 2026-09-04 18:05:30 | 52.10342 | 16.25426 | 94° | 57km/h | 17374m | -11.3m/s | -55.8°C | 1.1% | 87.7hPa | 2.5V | 08:27:17 | 01:48:05 | 00:00:00 | |
| AA1-15 | 2026-09-04 18:05:20 | 52.10348 | 16.25182 | 94° | 64km/h | 17487m | -11.7m/s | -55.4°C | 0.9% | 86.1hPa | 2.5V | 18:12:15 | 01:47:55 | 00:00:00 | |
| SP3WXH-11 | 2026-09-04 18:05:18 | 52.10352 | 16.25131 | 99° | 60km/h | 17510m | -11.9m/s | -55.3°C | 1.4% | 85.8hPa | 2.5V | 00:00:00 | 00:00:00 | 00:00:00 | |
| KRY50SP-1 | 2026-09-04 18:05:14 | 52.10361 | 16.25056 | 103° | 62km/h | 17544m | -10.3m/s | -55.4°C | 1.4% | 85.4hPa | 2.5V | 08:28:00 | 00:00:00 | 00:00:00 | |
| DM0DOS-11 | 2026-09-04 18:05:13 | 52.10375 | 16.24923 | 97° | 68km/h | 17601m | -11m/s | -55.2°C | 4.6% | 84.6hPa | 2.5V | 08:27:29 | 01:47:45 | 00:00:00 | |
| DB0DAN | 2026-09-04 18:05:10 | 52.10375 | 16.24923 | 97° | 64km/h | 17601m | -11m/s | -55.2°C | 1.4% | 84.65hPa | 2.5V | 00:00:00 | 00:00:00 | 00:00:00 | |
| AA1-15 | 2026-09-04 18:05:05 | 52.10391 | 16.24789 | 104° | 64km/h | 17658m | -10.9m/s | -55.3°C | 1% | 83.9hPa | 2.5V | 18:12:15 | 01:47:40 | 00:00:00 | |
| AA1-15 | 2026-09-04 18:04:55 | 52.10430 | 16.24568 | 104° | 51km/h | 17768m | -10.3m/s | -55.1°C | 1% | 82.4hPa | 2.6V | 18:12:15 | 01:47:30 | 00:00:00 | |
| DM0DOS-11 | 2026-09-04 18:04:54 | 52.10440 | 16.24457 | 97° | 60km/h | 17823m | -10.5m/s | -54.8°C | 4.7% | 81.7hPa | 2.6V | 08:27:49 | 01:47:25 | 00:00:00 | |
| AA1-15 | 2026-09-04 18:04:44 | 52.10455 | 16.24312 | 103° | 57km/h | 17889m | -11.9m/s | -54.4°C | 1% | 80.9hPa | 2.6V | 18:12:15 | 01:47:19 | 00:00:00 | |
| DM0DOS-11 | 2026-09-04 18:04:43 | 52.10469 | 16.24224 | 107° | 55km/h | 17935m | -11.6m/s | -53.7°C | 4.5% | 80.3hPa | 2.5V | 08:27:59 | 01:47:15 | 00:00:00 | |
| POL2MAQ | 2026-09-04 18:04:41 | 52.10462 | 16.24267 | 104° | 55km/h | 17912m | -12.3m/s | -54.0°C | 1.4% | 80.6hPa | 2.5V | 08:28:00 | 00:00:00 | 00:00:00 | |
| DB0DAN | 2026-09-04 18:04:40 | 52.10469 | 16.24224 | 107° | 51km/h | 17935m | -11.6m/s | -53.7°C | 1.4% | 80.29hPa | 2.5V | 00:00:00 | 00:00:00 | 00:00:00 | |
| KRY50SP-1 | 2026-09-04 18:04:36 | 52.10483 | 16.24160 | 113° | 57km/h | 17968m | -11.0m/s | -53.0°C | 1.3% | 79.9hPa | 2.5V | 08:28:00 | 00:00:00 | 00:00:00 | |
| EDDB2-11 | 2026-09-04 18:04:35 | 52.10499 | 16.24101 | 117° | 49km/h | 18000m | -11.0m/s | -52.7°C | 1.2% | 79.5hPa | 2.5V | 00:00:00 | 00:00:00 | 00:00:00 | |
| S3001 | 2026-09-04 18:04:34 | 52.10505 | 16.24083 | 118° | 47km/h | 18011m | -10.0m/s | -52.6°C | 1.2% | 79.3hPa | 2.5V | 00:00:00 | 00:00:00 | 00:00:00 | |
| DM0DOS-11 | 2026-09-04 18:04:33 | 52.10521 | 16.24035 | 114° | 38km/h | 18044m | -11.5m/s | -52.1°C | 4% | 78.9hPa | 2.5V | 08:30:00 | 01:47:05 | 00:00:00 | |
| AA1-15 | 2026-09-04 18:04:33 | 52.10511 | 16.24066 | 120° | 47km/h | 18021m | -11.2m/s | -52.5°C | 0.7% | 79.2hPa | 2.5V | 18:12:15 | 01:47:07 | 00:00:00 | |
| KRY50SP-1 | 2026-09-04 18:04:31 | 52.10510 | 16.24066 | 121° | 47km/h | 18021m | -11.2m/s | -52.5°C | 1.2% | 79.3hPa | 2.5V | 08:28:00 | 00:00:00 | 00:00:00 | |
| 3Z3Z-3 | 2026-09-04 18:04:30 | 52.10516 | 16.24050 | 118° | 44km/h | 18033m | -11.9m/s | -52.3°C | 1.2% | 79.1hPa | 2.5V | 08:28:00 | 00:00:00 | 00:00:00 | |
| EDDB2-12 | 2026-09-04 18:04:26 | 52.10535 | 16.23983 | 115° | 33km/h | 18089m | -11.3m/s | -51.9°C | 1.1% | 78.4hPa | 2.5V | 00:00:00 | 00:00:00 | 00:00:00 | |
| OE3JTB-15 | 2026-09-04 18:04:24 | 52.10542 | 16.23960 | 121° | 27km/h | 18112m | -11.7m/s | -51.6°C | 3.8% | 78.1hPa | 2.5V | 00:00:00 | 01:46:59 | 00:00:00 | |
| DM0DOS-11 | 2026-09-04 18:04:23 | 52.10555 | 16.23918 | 116° | 27km/h | 18159m | -11.8m/s | -51.3°C | 3.7% | 77.5hPa | 2.5V | 08:30:00 | 01:46:55 | 00:00:00 | |
| 13BRC | 2026-09-04 18:04:22 | 52.10546 | 16.23949 | 120° | 31km/h | 18124m | -12.1m/s | -51.6°C | 1.1% | 78.0hPa | 2.5V | 08:28:00 | 00:00:00 | 00:00:00 | |
| POL2MAQ | 2026-09-04 18:04:21 | 52.10549 | 16.23938 | 119° | 29km/h | 18136m | -12.0m/s | -51.5°C | 1.1% | 77.9hPa | 2.5V | 08:28:00 | 00:00:00 | 00:00:00 | |
| KRY50SP-1 | 2026-09-04 18:04:20 | 52.10553 | 16.23928 | 116° | 26km/h | 18147m | -11.7m/s | -51.5°C | 1.1% | 77.7hPa | 2.5V | 08:28:00 | 00:00:00 | 00:00:00 | |
| 3Z3Z-3 | 2026-09-04 18:04:19 | 52.10555 | 16.23918 | 118° | 27km/h | 18159m | -11.8m/s | -51.3°C | 1.1% | 77.6hPa | 2.5V | 08:28:00 | 00:00:00 | 00:00:00 | |
| SP3WXH-11 | 2026-09-04 18:04:16 | 52.10561 | 16.23878 | 95° | 24km/h | 18206m | -10.4m/s | -51.2°C | 1.1% | 77.0hPa | 2.5V | 00:00:00 | 00:00:00 | 00:00:00 | |
| KRY50SP-1 | 2026-09-04 18:04:15 | 52.10561 | 16.23867 | 88° | 26km/h | 18217m | -12.1m/s | -51.2°C | 1.1% | 76.9hPa | 2.5V | 08:28:00 | 00:00:00 | 00:00:00 | |
| DB0DAN | 2026-09-04 18:04:10 | 52.10555 | 16.23820 | 65° | 22km/h | 18275m | -12.2m/s | -51.4°C | 1.1% | 76.19hPa | 2.5V | 00:00:00 | 00:00:00 | 00:00:00 | |
| KRY50SP-1 | 2026-09-04 18:04:09 | 52.10555 | 16.23820 | 66° | 22km/h | 18276m | -12.2m/s | -51.4°C | 1.1% | 76.2hPa | 2.6V | 08:28:00 | 00:00:00 | 00:00:00 | |
| 3Z3Z-3 | 2026-09-04 18:04:08 | 52.10553 | 16.23811 | 71° | 24km/h | 18288m | -12.7m/s | -51.4°C | 1.1% | 76.0hPa | 2.6V | 08:28:00 | 00:00:00 | 00:00:00 | |
| SP6BVK | 2026-09-04 18:04:05 | 52.10546 | 16.23784 | 75° | 24km/h | 18324m | -11.5m/s | -51.6°C | 1.1% | 75.6hPa | 2.6V | 08:28:00 | 00:00:00 | 00:00:00 | |
| EDDB2-11 | 2026-09-04 18:04:04 | 52.10543 | 16.23752 | 82° | 27km/h | 18358m | -12.3m/s | -51.8°C | 1.1% | 75.2hPa | 2.6V | 00:00:00 | 00:00:00 | 00:00:00 | |
| S3001 | 2026-09-04 18:04:03 | 52.10542 | 16.23740 | 82° | 29km/h | 18371m | -12.3m/s | -51.9°C | 1.1% | 75.1hPa | 2.6V | 00:00:00 | 00:00:00 | 00:00:00 | |
| 13BRC | 2026-09-04 18:04:01 | 52.10542 | 16.23740 | 84° | 29km/h | 18371m | -12.3m/s | -51.9°C | 1.1% | 75.1hPa | 2.6V | 08:28:00 | 00:00:00 | 00:00:00 | |
| EDDB2-12 | 2026-09-04 18:03:55 | 52.10529 | 16.23648 | 76° | 31km/h | 18454m | -12.3m/s | -52.6°C | 1.2% | 74.1hPa | 2.6V | 00:00:00 | 00:00:00 | 00:00:00 | |
| SP3WXH-11 | 2026-09-04 18:03:45 | 52.10510 | 16.23524 | 65° | 40km/h | 18577m | -11.4m/s | -52.0°C | 1.1% | 72.7hPa | 2.6V | 00:00:00 | 00:00:00 | 00:00:00 | |
| SP6BVK | 2026-09-04 18:03:44 | 52.10510 | 16.23524 | 66° | 40km/h | 18577m | -11.4m/s | -52.0°C | 1.1% | 72.7hPa | 2.6V | 08:28:00 | 00:00:00 | 00:00:00 | |
| DM0DOS-11 | 2026-09-04 18:03:43 | 52.10501 | 16.23491 | 67° | 47km/h | 18601m | -12.1m/s | -52.1°C | 3.9% | 72.4hPa | 2.6V | 08:30:00 | 01:46:18 | 00:00:00 | |
| KRY50SP-1 | 2026-09-04 18:03:42 | 52.10497 | 16.23471 | 71° | 51km/h | 18614m | -12.5m/s | -52.2°C | 1.2% | 72.3hPa | 2.5V | 08:28:00 | 00:00:00 | 00:00:00 | |
| 13BRC | 2026-09-04 18:03:41 | 52.10497 | 16.23471 | 71° | 51km/h | 18614m | -12.5m/s | -52.2°C | 1.2% | 72.3hPa | 2.5V | 08:28:00 | 00:00:00 | 00:00:00 | |
| DB0DAN | 2026-09-04 18:03:40 | 52.10487 | 16.23432 | 71° | 49km/h | 18639m | -12.4m/s | -52.4°C | 1.2% | 72hPa | 2.5V | 00:00:00 | 00:00:00 | 00:00:00 | |
| POL2MAQ | 2026-09-04 18:03:39 | 52.10487 | 16.23432 | 72° | 51km/h | 18639m | -12.4m/s | -52.4°C | 1.2% | 72.0hPa | 2.5V | 08:28:00 | 00:00:00 | 00:00:00 | |
| SONCRA | 2026-09-04 18:03:38 | 52.10479 | 16.23392 | 70° | 49km/h | 18664m | -12.5m/s | -52.6°C | 1.2% | 71.8hPa | 2.5V | 00:00:00 | 00:00:00 | 00:00:00 | |
| 3Z3Z-3 | 2026-09-04 18:03:36 | 52.10475 | 16.23373 | 72° | 49km/h | 18677m | -11.4m/s | -52.7°C | 1.2% | 71.6hPa | 2.5V | 08:29:00 | 00:00:00 | 00:00:00 | |
| S3001 | 2026-09-04 18:03:31 | 52.10459 | 16.23274 | 82° | 31km/h | 18749m | -12.8m/s | -52.6°C | 1.2% | 70.8hPa | 2.5V | 00:00:00 | 00:00:00 | 00:00:00 | |
| KRY50SP-1 | 2026-09-04 18:03:29 | 52.10458 | 16.23261 | 91° | 33km/h | 18762m | -12.7m/s | -52.4°C | 1.1% | 70.6hPa | 2.5V | 08:29:00 | 00:00:00 | 00:00:00 | |
| DB0DAN | 2026-09-04 18:03:25 | 52.10463 | 16.23188 | 102° | 38km/h | 18824m | -12.1m/s | -52°C | 1.1% | 70hPa | 2.5V | 00:00:00 | 00:00:00 | 00:00:00 | |
| EDDB2-12 | 2026-09-04 18:03:24 | 52.10465 | 16.23172 | 103° | 40km/h | 18837m | -12.9m/s | -52.0°C | 1.1% | 69.8hPa | 2.6V | 00:00:00 | 00:00:00 | 00:00:00 | |
| DM0DOS-11 | 2026-09-04 18:03:23 | 52.10472 | 16.23123 | 102° | 42km/h | 18875m | -13m/s | -52.2°C | 3.8% | 69.5hPa | 2.6V | 08:30:00 | 01:45:56 | 00:00:00 | |
| 13BRC | 2026-09-04 18:03:21 | 52.10470 | 16.23140 | 104° | 40km/h | 18862m | -13.1m/s | -52.1°C | 1.1% | 69.6hPa | 2.6V | 08:29:00 | 00:00:00 | 00:00:00 | |
| KRY50SP-1 | 2026-09-04 18:03:18 | 52.10475 | 16.23090 | 99° | 40km/h | 18900m | -13.1m/s | -52.3°C | 1.1% | 69.2hPa | 2.6V | 08:29:00 | 00:00:00 | 00:00:00 | |
| POL2MAQ | 2026-09-04 18:03:17 | 52.10477 | 16.23073 | 96° | 38km/h | 18913m | -13.3m/s | -52.4°C | 1.2% | 69.0hPa | 2.6V | 08:29:00 | 00:00:00 | 00:00:00 | |
| SP3WXH-11 | 2026-09-04 18:03:14 | 52.10481 | 16.23021 | 105° | 27km/h | 18964m | -12.5m/s | -52.7°C | 1.2% | 68.5hPa | 2.6V | 00:00:00 | 00:00:00 | 00:00:00 | |
| DM0DOS-11 | 2026-09-04 18:03:13 | 52.10490 | 16.22990 | 119° | 26km/h | 19002m | -13.6m/s | -52.7°C | 3.9% | 68.1hPa | 2.6V | 08:30:00 | 01:45:46 | 00:00:00 | |
| SP3BTT-10 | 2026-09-04 18:03:09 | 52.10496 | 16.22973 | 126° | 35km/h | 19030m | -13.5m/s | -52.7°C | 4.0% | 67.8hPa | 2.5V | 00:00:00 | 00:00:00 | 08:30:00 | |
| KRY50SP-1 | 2026-09-04 18:03:08 | 52.10496 | 16.22973 | 126° | 20km/h | 19030m | -13.6m/s | -52.8°C | 1.2% | 67.8hPa | 2.5V | 08:29:00 | 00:00:00 | 00:00:00 | |
| SONCRA | 2026-09-04 18:03:07 | 52.10502 | 16.22961 | 128° | 16km/h | 19056m | -13.4m/s | -52.8°C | 1.2% | 67.5hPa | 2.5V | 00:00:00 | 00:00:00 | 00:00:00 | |
| DAC517 | 2026-09-04 18:03:04 | 52.10507 | 16.22949 | 119° | 16km/h | 19083m | -13.4m/s | -52.7°C | 1.2% | 67.3hPa | 2.5V | 00:00:00 | 00:00:00 | 00:00:00 | |
| DM0DOS-11 | 2026-09-04 18:03:03 | 52.10513 | 16.22922 | 92° | 16km/h | 19136m | -13.1m/s | -52.9°C | 3.9% | 66.7hPa | 2.5V | 08:30:00 | 01:45:36 | 00:00:00 | |
| EDDB2-11 | 2026-09-04 18:03:02 | 52.10513 | 16.22922 | 92° | 16km/h | 19136m | -13.1m/s | -52.9°C | 1.2% | 66.7hPa | 2.5V | 00:00:00 | 00:00:00 | 00:00:00 | |
| S3001 | 2026-09-04 18:03:01 | 52.10513 | 16.22915 | 85° | 15km/h | 19149m | -12.7m/s | -53.0°C | 1.2% | 66.6hPa | 2.5V | 00:00:00 | 00:00:00 | 00:00:00 | |
| 13BRC | 2026-09-04 18:03:00 | 52.10513 | 16.22921 | 94° | 16km/h | 19136m | -13.1m/s | -52.9°C | 1.2% | 66.7hPa | 2.5V | 08:29:00 | 00:00:00 | 00:00:00 | |
| KRY50SP-1 | 2026-09-04 18:02:57 | 52.10511 | 16.22903 | 69° | 15km/h | 19174m | -11.9m/s | -52.9°C | 1.2% | 66.3hPa | 2.5V | 08:29:00 | 00:00:00 | 00:00:00 | |
| DM0DOS-11 | 2026-09-04 18:02:56 | 52.10495 | 16.22866 | 60° | 20km/h | 19261m | -12.7m/s | -53°C | 3.9% | 65.4hPa | 2.5V | 08:30:00 | 01:45:26 | 00:00:00 | |
| DB0DAN | 2026-09-04 18:02:55 | 52.10507 | 16.22887 | 63° | 15km/h | 19211m | -12.7m/s | -52.9°C | 1.2% | 65.92hPa | 2.6V | 00:00:00 | 00:00:00 | 00:00:00 | |
| EDDB2-12 | 2026-09-04 18:02:53 | 52.10502 | 16.22877 | 43° | 16km/h | 19236m | -13.0m/s | -53.0°C | 1.2% | 65.7hPa | 2.6V | 00:00:00 | 00:00:00 | 00:00:00 | |
| OE3JTB-15 | 2026-09-04 18:02:50 | 52.10492 | 16.22858 | 60° | 35km/h | 19275m | -13.1m/s | -53.1°C | 3.9% | 65.2hPa | 2.6V | 00:00:00 | 01:45:25 | 00:00:00 | |
| KRY50SP-1 | 2026-09-04 18:02:46 | 52.10484 | 16.22831 | 61° | 26km/h | 19313m | -13.2m/s | -53.5°C | 1.2% | 64.9hPa | 2.6V | 00:00:00 | 00:00:00 | 00:00:00 | |
| 3Z3Z-3 | 2026-09-04 18:02:43 | 52.10474 | 16.22799 | 70° | 31km/h | 19353m | -13.1m/s | -53.7°C | 1.2% | 64.5hPa | 2.6V | 00:00:00 | 00:00:00 | 00:00:00 | |
| KRY50SP-1 | 2026-09-04 18:02:41 | 52.10467 | 16.22777 | 71° | 31km/h | 19379m | -13.6m/s | -53.9°C | 1.2% | 64.2hPa | 2.6V | 00:00:00 | 00:00:00 | 00:00:00 | |
| 13BRC | 2026-09-04 18:02:40 | 52.10463 | 16.22765 | 55° | 31km/h | 19393m | -12.9m/s | -53.9°C | 1.2% | 64.1hPa | 2.6V | 00:00:00 | 00:00:00 | 00:00:00 | |
| DM0DOS-11 | 2026-09-04 18:02:39 | 52.10455 | 16.22743 | 57° | 31km/h | 19418m | -13m/s | -54°C | 4.1% | 63.8hPa | 2.6V | 08:30:00 | 01:45:14 | 00:00:00 | |
| DAC517 | 2026-09-04 18:02:38 | 52.10455 | 16.22743 | 58° | 31km/h | 19419m | -13.0m/s | -54.0°C | 1.2% | 63.8hPa | 2.5V | 00:00:00 | 00:00:00 | 00:00:00 | |
| POL2MAQ | 2026-09-04 18:02:36 | 52.10448 | 16.22722 | 62° | 29km/h | 19444m | -12.4m/s | -54.2°C | 1.2% | 63.6hPa | 2.5V | 00:00:00 | 00:00:00 | 00:00:00 | |
| KRY50SP-1 | 2026-09-04 18:02:35 | 52.10445 | 16.22711 | 68° | 27km/h | 19457m | -12.4m/s | -54.2°C | 1.2% | 63.5hPa | 2.5V | 00:00:00 | 00:00:00 | 00:00:00 | |
| DM0DOS-11 | 2026-09-04 18:02:34 | 52.10418 | 16.22615 | 66° | 44km/h | 19551m | -13m/s | -54.6°C | 4.4% | 62.6hPa | 2.5V | 08:30:00 | 01:45:04 | 00:00:00 | |
| AA1-15 | 2026-09-04 18:02:30 | 52.10422 | 16.22632 | 70° | 46km/h | 19538m | -13.9m/s | -54.6°C | 0.8% | 62.7hPa | 2.5V | 18:12:15 | 01:45:05 | 00:00:00 | |
| KRY50SP-1 | 2026-09-04 18:02:29 | 52.10423 | 16.22632 | 70° | 46km/h | 19538m | -13.9m/s | -54.6°C | 1.3% | 62.7hPa | 2.5V | 00:00:00 | 00:00:00 | 00:00:00 | |
| DB0DAN | 2026-09-04 18:02:25 | 52.10403 | 16.22540 | 72° | 46km/h | 19604m | -12.6m/s | -54.9°C | 1.3% | 62.08hPa | 2.5V | 00:00:00 | 00:00:00 | 00:00:00 | |
| DM0DOS-11 | 2026-09-04 18:02:24 | 52.10394 | 16.22433 | 89° | 38km/h | 19696m | -17.4m/s | -54.9°C | 4.4% | 61.2hPa | 2.5V | 08:30:00 | 01:44:54 | 00:00:00 | |
| EDDB2-12 | 2026-09-04 18:02:22 | 52.10396 | 16.22484 | 83° | 42km/h | 19646m | -15.8m/s | -55.0°C | 1.3% | 61.7hPa | 2.6V | 00:00:00 | 00:00:00 | 00:00:00 | |
| OE3JTB-15 | 2026-09-04 18:02:21 | 52.10395 | 16.22467 | 88° | 31km/h | 19662m | -16.3m/s | -55.0°C | 4.5% | 61.5hPa | 2.6V | 00:00:00 | 00:00:00 | 08:30:00 | |
| 13BRC | 2026-09-04 18:02:19 | 52.10394 | 16.22449 | 89° | 42km/h | 19679m | -17.1m/s | -55.0°C | 1.3% | 61.4hPa | 2.5V | 00:00:00 | 00:00:00 | 00:00:00 | |
| KRY50SP-1 | 2026-09-04 18:02:18 | 52.10394 | 16.22433 | 90° | 38km/h | 19696m | -17.4m/s | -54.9°C | 1.3% | 61.2hPa | 2.5V | 00:00:00 | 00:00:00 | 00:00:00 | |
| POL2MAQ | 2026-09-04 18:02:15 | 52.10393 | 16.22390 | 86° | 33km/h | 19746m | -16.4m/s | -54.6°C | 1.2% | 60.8hPa | 2.5V | 00:00:00 | 00:00:00 | 00:00:00 | |
| DM0DOS-11 | 2026-09-04 18:02:14 | 52.10387 | 16.22308 | 86° | 27km/h | 19840m | -3m/s | -54.8°C | 4.5% | 59.7hPa | 2.5V | 08:30:00 | 01:44:44 | 00:00:00 | |
| KRY50SP-1 | 2026-09-04 18:02:13 | 52.10391 | 16.22365 | 81° | 29km/h | 19782m | -16.8m/s | -54.7°C | 1.2% | 60.4hPa | 2.6V | 00:00:00 | 00:00:00 | 00:00:00 | |
| SP3WXH-11 | 2026-09-04 18:02:12 | 52.10389 | 16.22343 | 82° | 27km/h | 19811m | -13.6m/s | -54.8°C | 1.2% | 60.1hPa | 2.6V | 00:00:00 | 00:00:00 | 00:00:00 | |
| 3Z3Z-3 | 2026-09-04 18:02:11 | 52.10388 | 16.22343 | 83° | 27km/h | 19811m | -13.6m/s | -54.8°C | 1.2% | 60.1hPa | 2.6V | 00:00:00 | 00:00:00 | 00:00:00 | |
| DB0DAN | 2026-09-04 18:02:10 | 52.10387 | 16.22320 | 86° | 27km/h | 19835m | -8.8m/s | -54.8°C | 1.3% | 59.82hPa | 2.6V | 00:00:00 | 00:00:00 | 00:00:00 | |
| KRY50SP-1 | 2026-09-04 18:02:08 | 52.10386 | 16.22308 | 87° | 27km/h | 19841m | -3.0m/s | -54.8°C | 1.3% | 59.7hPa | 2.5V | 00:00:00 | 00:00:00 | 00:00:00 | |
| SONCRA | 2026-09-04 18:02:05 | 52.10387 | 16.22250 | 86° | 26km/h | 19821m | 4.5m/s | -54.8°C | 1.3% | 59.9hPa | 2.5V | 00:00:00 | 00:00:00 | 00:00:00 | |
| KRY50SP-1 | 2026-09-04 18:02:02 | 52.10386 | 16.22240 | 85° | 26km/h | 19817m | 4.3m/s | -54.8°C | 1.3% | 60.0hPa | 2.5V | 00:00:00 | 00:00:00 | 00:00:00 | |
| SP6BVK | 2026-09-04 18:02:01 | 52.10386 | 16.22229 | 88° | 26km/h | 19812m | 5.1m/s | -54.8°C | 1.3% | 60.0hPa | 2.5V | 00:00:00 | 00:00:00 | 00:00:00 | |
| SONDE2-11 | 2026-09-04 18:02:00 | 52.10386 | 16.22194 | 91° | 29km/h | 19798m | 5.1m/s | -54.8°C | 1.3% | 60.1hPa | 2.5V | 00:00:00 | 00:00:00 | 00:00:00 | |
| EDDB2-11 | 2026-09-04 18:01:59 | 52.10386 | 16.22194 | 91° | 29km/h | 19798m | 5.1m/s | -54.8°C | 1.3% | 60.1hPa | 2.5V | 00:00:00 | 00:00:00 | 00:00:00 | |
| DM0DOS-11 | 2026-09-04 18:01:58 | 52.10386 | 16.22168 | 89° | 33km/h | 19789m | 3.8m/s | -54.8°C | 4.4% | 60.2hPa | 2.5V | 08:30:00 | 01:44:32 | 00:00:00 | |
| KRY50SP-1 | 2026-09-04 18:01:57 | 52.10386 | 16.22181 | 90° | 31km/h | 19793m | 4.7m/s | -54.8°C | 1.3% | 60.2hPa | 2.6V | 00:00:00 | 00:00:00 | 00:00:00 | |
| DB0DAN | 2026-09-04 18:01:55 | 52.10387 | 16.22140 | 97° | 33km/h | 19779m | 4.3m/s | -54.8°C | 1.3% | 60.3hPa | 2.6V | 00:00:00 | 00:00:00 | 00:00:00 | |
| AA1-15 | 2026-09-04 18:01:54 | 52.10388 | 16.22126 | 96° | 35km/h | 19775m | 4.7m/s | -54.8°C | 0.8% | 60.3hPa | 2.6V | 18:12:15 | 01:44:29 | 00:00:00 | |
| EDDB2-12 | 2026-09-04 18:01:51 | 52.10390 | 16.22085 | 91° | 31km/h | 19761m | 4.3m/s | -54.7°C | 1.3% | 60.5hPa | 2.5V | 00:00:00 | 00:00:00 | 00:00:00 | |
| DM0DOS-11 | 2026-09-04 18:01:48 | 52.10391 | 16.22029 | 86° | 38km/h | 19743m | 5.1m/s | -54.7°C | 4.4% | 60.6hPa | 2.5V | 08:30:00 | 01:44:22 | 00:00:00 | |
| 3Z3Z-3 | 2026-09-04 18:01:47 | 52.10391 | 16.22044 | 92° | 37km/h | 19748m | 5.0m/s | -54.7°C | 1.3% | 60.6hPa | 2.5V | 00:00:00 | 00:00:00 | 00:00:00 | |
| KRY50SP-1 | 2026-09-04 18:01:45 | 52.10390 | 16.22013 | 87° | 40km/h | 19739m | 3.9m/s | -54.7°C | 1.3% | 60.7hPa | 2.5V | 00:00:00 | 00:00:00 | 00:00:00 | |
| DB0DAN | 2026-09-04 18:01:40 | 52.10386 | 16.21915 | 90° | 37km/h | 19710m | 4.8m/s | -54.9°C | 1.3% | 60.93hPa | 2.5V | 00:00:00 | 00:00:00 | 00:00:00 | |
| KRY50SP-1 | 2026-09-04 18:01:40 | 52.10386 | 16.21915 | 91° | 38km/h | 19711m | 4.8m/s | -54.9°C | 1.3% | 60.9hPa | 2.5V | 00:00:00 | 00:00:00 | 00:00:00 | |
| 13BRC | 2026-09-04 18:01:39 | 52.10386 | 16.21900 | 93° | 37km/h | 19706m | 3.9m/s | -55.0°C | 1.4% | 61.0hPa | 2.5V | 00:00:00 | 00:00:00 | 00:00:00 | |
| DM0DOS-11 | 2026-09-04 18:01:38 | 52.10386 | 16.21870 | 84° | 35km/h | 19697m | 5.1m/s | -55.1°C | 4.6% | 61.1hPa | 2.5V | 08:30:00 | 01:44:12 | 00:00:00 | |
| AA1-15 | 2026-09-04 18:01:34 | 52.10382 | 16.21825 | 82° | 40km/h | 19682m | 5m/s | -55.1°C | 1% | 61.2hPa | 2.5V | 18:12:15 | 01:44:09 | 00:00:00 | |
| SP3BTT-10 | 2026-09-04 18:01:34 | 52.10382 | 16.21825 | 83° | 40km/h | 19683m | 4.9m/s | -55.1°C | 4.6% | 61.2hPa | 2.6V | 00:00:00 | 00:00:00 | 00:00:00 | |
| DAC517 | 2026-09-04 18:01:33 | 52.10382 | 16.21825 | 83° | 40km/h | 19683m | 5.0m/s | -55.1°C | 1.4% | 61.2hPa | 2.6V | 00:00:00 | 00:00:00 | 00:00:00 | |
| DM0DOS-11 | 2026-09-04 18:01:28 | 52.10369 | 16.21694 | 81° | 49km/h | 19650m | 4.8m/s | -55.1°C | 4.6% | 61.5hPa | 2.6V | 08:30:00 | 01:44:02 | 00:00:00 | |
| KRY50SP-1 | 2026-09-04 18:01:27 | 52.10371 | 16.21714 | 84° | 51km/h | 19655m | 3.6m/s | -55.1°C | 1.4% | 61.5hPa | 2.5V | 00:00:00 | 00:00:00 | 00:00:00 | |
| 3Z3Z-3 | 2026-09-04 18:01:26 | 52.10369 | 16.21694 | 83° | 49km/h | 19651m | 4.8m/s | -55.1°C | 1.4% | 61.5hPa | 2.5V | 00:00:00 | 00:00:00 | 00:00:00 | |
| DB0DAN | 2026-09-04 18:01:25 | 52.10364 | 16.21654 | 76° | 47km/h | 19641m | 4.1m/s | -55°C | 1.3% | 61.62hPa | 2.5V | 00:00:00 | 00:00:00 | 00:00:00 | |
| AA1-15 | 2026-09-04 18:01:19 | 52.10344 | 16.21542 | 70° | 46km/h | 19613m | 4.8m/s | -55°C | 0.9% | 61.9hPa | 2.5V | 18:12:15 | 01:43:54 | 00:00:00 | |
| DM0DOS-11 | 2026-09-04 18:01:18 | 52.10337 | 16.21507 | 71° | 44km/h | 19604m | 3.7m/s | -54.9°C | 4.6% | 62hPa | 2.6V | 08:30:00 | 01:43:52 | 00:00:00 | |
| KRY50SP-1 | 2026-09-04 18:01:17 | 52.10340 | 16.21525 | 73° | 46km/h | 19609m | 5.0m/s | -54.9°C | 1.4% | 61.9hPa | 2.6V | 00:00:00 | 00:00:00 | 00:00:00 | |
| 3Z3Z-3 | 2026-09-04 18:01:16 | 52.10337 | 16.21507 | 73° | 44km/h | 19604m | 3.7m/s | -54.9°C | 1.3% | 62.0hPa | 2.6V | 00:00:00 | 00:00:00 | 00:00:00 | |
| POL2MAQ | 2026-09-04 18:01:13 | 52.10325 | 16.21455 | 73° | 46km/h | 19589m | 5.2m/s | -54.8°C | 1.3% | 62.1hPa | 2.6V | 00:00:00 | 00:00:00 | 00:00:00 | |
| DB0DAN | 2026-09-04 18:01:10 | 52.10312 | 16.21386 | 69° | 42km/h | 19569m | 4.4m/s | -54.7°C | 1.3% | 62.29hPa | 2.6V | 00:00:00 | 00:00:00 | 00:00:00 | |
| AA1-15 | 2026-09-04 18:01:09 | 52.10308 | 16.21370 | 69° | 42km/h | 19565m | 5m/s | -54.7°C | 0.9% | 62.4hPa | 2.5V | 18:12:15 | 01:43:44 | 00:00:00 | |
| DM0DOS-11 | 2026-09-04 18:01:08 | 52.10301 | 16.21339 | 69° | 38km/h | 19555m | 4.5m/s | -54.6°C | 4.5% | 62.4hPa | 2.5V | 08:30:00 | 01:43:42 | 00:00:00 | |
| KRY50SP-1 | 2026-09-04 18:01:06 | 52.10301 | 16.21339 | 70° | 38km/h | 19556m | 4.5m/s | -54.6°C | 1.3% | 62.4hPa | 2.6V | 00:00:00 | 00:00:00 | 00:00:00 | |
| 3Z3Z-3 | 2026-09-04 18:01:05 | 52.10297 | 16.21324 | 69° | 40km/h | 19551m | 5.3m/s | -54.6°C | 1.3% | 62.5hPa | 2.6V | 00:00:00 | 00:00:00 | 00:00:00 | |
| KRY50SP-1 | 2026-09-04 18:01:01 | 52.10282 | 16.21264 | 73° | 37km/h | 19533m | 4.1m/s | -54.6°C | 1.3% | 62.7hPa | 2.6V | 00:00:00 | 00:00:00 | 00:00:00 | |
| SP6BVK | 2026-09-04 18:00:59 | 52.10276 | 16.21235 | 71° | 38km/h | 19523m | 4.9m/s | -54.5°C | 1.3% | 62.7hPa | 2.6V | 00:00:00 | 00:00:00 | 00:00:00 | |
| DM0DOS-11 | 2026-09-04 18:00:58 | 52.10253 | 16.21150 | 58° | 38km/h | 19494m | 4.7m/s | -54.4°C | 4.3% | 63hPa | 2.6V | 08:30:00 | 01:43:29 | 00:00:00 | |
| SONDE2-11 | 2026-09-04 18:00:58 | 52.10266 | 16.21191 | 68° | 35km/h | 19509m | 4.6m/s | -54.4°C | 1.3% | 62.9hPa | 2.6V | 00:00:00 | 00:00:00 | 00:00:00 | |
| S3001 | 2026-09-04 18:00:56 | 52.10263 | 16.21178 | 64° | 37km/h | 19504m | 5.4m/s | -54.4°C | 1.3% | 62.9hPa | 2.6V | 00:00:00 | 00:00:00 | 00:00:00 | |
| EDDB2-12 | 2026-09-04 18:00:49 | 52.10230 | 16.21086 | 60° | 35km/h | 19471m | 4.2m/s | -54.3°C | 1.3% | 63.2hPa | 2.6V | 00:00:00 | 00:00:00 | 00:00:00 | |
| DM0DOS-11 | 2026-09-04 18:00:48 | 52.10210 | 16.21026 | 63° | 35km/h | 19449m | 4.1m/s | -54.2°C | 4.4% | 63.5hPa | 2.6V | 08:30:00 | 01:43:19 | 00:00:00 | |
| AA1-15 | 2026-09-04 18:00:47 | 52.10221 | 16.21062 | 61° | 31km/h | 19462m | 3.8m/s | -54.3°C | 0.8% | 63.4hPa | 2.5V | 18:12:15 | 01:43:22 | 00:00:00 | |
| KRY50SP-1 | 2026-09-04 18:00:45 | 52.10214 | 16.21039 | 65° | 33km/h | 19454m | 4.6m/s | -54.2°C | 1.3% | 63.4hPa | 2.6V | 00:00:00 | 00:00:00 | 00:00:00 | |
| SP3WXH-11 | 2026-09-04 18:00:39 | 52.10189 | 16.20969 | 60° | 33km/h | 19425m | 4.3m/s | -54.0°C | 1.3% | 63.7hPa | 2.6V | 00:00:00 | 00:00:00 | 00:00:00 | |
| DM0DOS-11 | 2026-09-04 18:00:38 | 52.10175 | 16.20916 | 75° | 27km/h | 19402m | 3.9m/s | -53.8°C | 4.3% | 64hPa | 2.6V | 08:30:00 | 01:43:09 | 00:00:00 | |
| 13BRC | 2026-09-04 18:00:37 | 52.10185 | 16.20957 | 62° | 31km/h | 19420m | 4.6m/s | -54.0°C | 1.3% | 63.7hPa | 2.6V | 00:00:00 | 00:00:00 | 00:00:00 | |
| KRY50SP-1 | 2026-09-04 18:00:35 | 52.10177 | 16.20927 | 73° | 26km/h | 19407m | 5.2m/s | -53.9°C | 1.3% | 63.9hPa | 2.6V | 00:00:00 | 00:00:00 | 00:00:00 | |
| 3Z3Z-3 | 2026-09-04 18:00:34 | 52.10177 | 16.20927 | 73° | 26km/h | 19407m | 5.2m/s | -53.9°C | 1.3% | 63.9hPa | 2.6V | 00:00:00 | 00:00:00 | 00:00:00 | |
| POL2MAQ | 2026-09-04 18:00:33 | 52.10175 | 16.20916 | 77° | 27km/h | 19402m | 3.9m/s | -53.8°C | 1.3% | 64.0hPa | 2.6V | 00:00:00 | 00:00:00 | 00:00:00 | |
| SONCRA | 2026-09-04 18:00:32 | 52.10170 | 16.20885 | 71° | 22km/h | 19389m | 4.3m/s | -53.9°C | 1.3% | 64.1hPa | 2.6V | 00:00:00 | 00:00:00 | 00:00:00 | |
| DM0DOS-11 | 2026-09-04 18:00:29 | 52.10140 | 16.20809 | 49° | 27km/h | 19354m | 5.1m/s | -53.6°C | 4.3% | 64.4hPa | 2.6V | 08:30:00 | 01:42:58 | 00:00:00 | |
| KRY50SP-1 | 2026-09-04 18:00:28 | 52.10165 | 16.20867 | 67° | 27km/h | 19380m | 5.4m/s | -53.8°C | 1.3% | 64.2hPa | 2.5V | 00:00:00 | 00:00:00 | 00:00:00 | |
| SONDE2-11 | 2026-09-04 18:00:27 | 52.10154 | 16.20835 | 51° | 29km/h | 19367m | 4.9m/s | -53.8°C | 1.3% | 64.3hPa | 2.5V | 00:00:00 | 00:00:00 | 00:00:00 | |
| EDDB2-11 | 2026-09-04 18:00:26 | 52.10154 | 16.20835 | 51° | 29km/h | 19367m | 4.9m/s | -53.8°C | 1.3% | 64.3hPa | 2.5V | 00:00:00 | 00:00:00 | 00:00:00 | |
| OE3JTB-15 | 2026-09-04 18:00:25 | 52.10149 | 16.20826 | 48° | 26km/h | 19362m | 4.4m/s | -53.7°C | 4.3% | 64.3hPa | 2.5V | 00:00:00 | 00:00:00 | 00:00:00 | |
| 3Z3Z-3 | 2026-09-04 18:00:24 | 52.10144 | 16.20818 | 49° | 27km/h | 19358m | 3.5m/s | -53.7°C | 1.3% | 64.4hPa | 2.5V | 00:00:00 | 00:00:00 | 00:00:00 | |
| KRY50SP-1 | 2026-09-04 18:00:23 | 52.10144 | 16.20818 | 49° | 27km/h | 19358m | 3.5m/s | -53.7°C | 1.3% | 64.4hPa | 2.5V | 00:00:00 | 00:00:00 | 00:00:00 | |
| EDDB2-12 | 2026-09-04 18:00:18 | 52.10121 | 16.20762 | 55° | 24km/h | 19332m | 4.1m/s | -53.5°C | 1.2% | 64.7hPa | 2.5V | 00:00:00 | 00:00:00 | 00:00:00 | |
| DM0DOS-11 | 2026-09-04 18:00:17 | 52.10105 | 16.20724 | 54° | 27km/h | 19314m | 5.2m/s | -53.3°C | 4.2% | 64.8hPa | 2.5V | 08:30:00 | 01:42:49 | 00:00:00 | |
| KRY50SP-1 | 2026-09-04 18:00:14 | 52.10105 | 16.20724 | 55° | 27km/h | 19314m | 5.2m/s | -53.3°C | 1.2% | 64.9hPa | 2.5V | 00:00:00 | 00:00:00 | 00:00:00 | |
| POL2MAQ | 2026-09-04 18:00:13 | 52.10105 | 16.20724 | 55° | 27km/h | 19314m | 5.2m/s | -53.3°C | 1.2% | 64.9hPa | 2.5V | 00:00:00 | 00:00:00 | 00:00:00 | |
| 3Z3Z-3 | 2026-09-04 18:00:12 | 52.10101 | 16.20716 | 53° | 26km/h | 19309m | 4.0m/s | -53.3°C | 1.2% | 64.9hPa | 2.5V | 00:00:00 | 00:00:00 | 00:00:00 | |
| DM0DOS-11 | 2026-09-04 18:00:09 | 52.10070 | 16.20648 | 63° | 24km/h | 19271m | 4.4m/s | -53.2°C | 4.2% | 65.3hPa | 2.5V | 08:30:00 | 01:42:39 | 00:00:00 | |
| SP3WXH-11 | 2026-09-04 18:00:08 | 52.10083 | 16.20678 | 47° | 18km/h | 19288m | 3.9m/s | -53.3°C | 1.3% | 65.1hPa | 2.5V | 00:00:00 | 00:00:00 | 00:00:00 | |
| SP3BTT-10 | 2026-09-04 18:00:04 | 52.10071 | 16.20647 | 64° | 18km/h | 19271m | 4.4m/s | -53.2°C | 4.2% | 65.2hPa | 2.5V | 00:00:00 | 00:00:00 | 00:00:00 | |
| KRY50SP-1 | 2026-09-04 18:00:02 | 52.10068 | 16.20639 | 65° | 22km/h | 19266m | 5.0m/s | -53.2°C | 1.2% | 65.3hPa | 2.5V | 00:00:00 | 00:00:00 | 00:00:00 | |
| SONCRA | 2026-09-04 18:00:01 | 52.10060 | 16.20615 | 61° | 22km/h | 19252m | 4.1m/s | -53.1°C | 1.2% | 65.5hPa | 2.5V | 00:00:00 | 00:00:00 | 00:00:00 | |
| SP6BVK | 2026-09-04 17:59:58 | 52.10057 | 16.20607 | 63° | 20km/h | 19249m | 3.3m/s | -53.1°C | 1.2% | 65.5hPa | 2.5V | 00:00:00 | 00:00:00 | 00:00:00 | |
| 13BRC | 2026-09-04 17:59:57 | 52.10055 | 16.20600 | 63° | 18km/h | 19245m | 5.2m/s | -53.0°C | 1.2% | 65.5hPa | 2.5V | 00:00:00 | 00:00:00 | 00:00:00 | |
| OE3JTB-15 | 2026-09-04 17:59:56 | 52.10052 | 16.20588 | 74° | 18km/h | 19235m | 5.4m/s | -53.0°C | 4.1% | 65.6hPa | 2.5V | 00:00:00 | 01:42:31 | 00:00:00 | |
| DM0DOS-11 | 2026-09-04 17:59:55 | 52.10051 | 16.20576 | 84° | 15km/h | 19226m | 4.2m/s | -53°C | 4.1% | 65.8hPa | 2.5V | 08:30:00 | 01:42:29 | 00:00:00 | |
| S3001 | 2026-09-04 17:59:54 | 52.10051 | 16.20576 | 84° | 15km/h | 19226m | 4.3m/s | -53.1°C | 1.2% | 65.8hPa | 2.6V | 00:00:00 | 00:00:00 | 00:00:00 | |
| POL2MAQ | 2026-09-04 17:59:52 | 52.10051 | 16.20570 | 90° | 13km/h | 19221m | 5.3m/s | -53.1°C | 1.2% | 65.8hPa | 2.6V | 00:00:00 | 00:00:00 | 00:00:00 | |
| KRY50SP-1 | 2026-09-04 17:59:51 | 52.10050 | 16.20559 | 84° | 15km/h | 19212m | 5.2m/s | -53.1°C | 1.2% | 65.9hPa | 2.6V | 00:00:00 | 00:00:00 | 00:00:00 | |
| 3Z3Z-3 | 2026-09-04 17:59:50 | 52.10050 | 16.20559 | 84° | 15km/h | 19212m | 5.2m/s | -53.1°C | 1.2% | 65.9hPa | 2.6V | 00:00:00 | 00:00:00 | 00:00:00 | |
| DM0DOS-11 | 2026-09-04 17:59:49 | 52.10041 | 16.20508 | 80° | 20km/h | 19180m | 4.8m/s | -53.1°C | 4.1% | 66.2hPa | 2.6V | 08:30:00 | 01:42:19 | 00:00:00 | |
| EDDB2-12 | 2026-09-04 17:59:47 | 52.10045 | 16.20531 | 72° | 16km/h | 19194m | 4.4m/s | -53.1°C | 1.2% | 66.1hPa | 2.6V | 00:00:00 | 00:00:00 | 00:00:00 | |
| KRY50SP-1 | 2026-09-04 17:59:44 | 52.10042 | 16.20516 | 78° | 20km/h | 19186m | 5.1m/s | -53.1°C | 1.2% | 66.2hPa | 2.6V | 00:00:00 | 00:00:00 | 00:00:00 | |
| KRY50SP-1 | 2026-09-04 17:59:39 | 52.10042 | 16.20482 | 107° | 15km/h | 19162m | 5.1m/s | -53.0°C | 1.2% | 66.4hPa | 2.6V | 00:00:00 | 00:00:00 | 00:00:00 | |
| SP3WXH-11 | 2026-09-04 17:59:37 | 52.10046 | 16.20466 | 118° | 13km/h | 19147m | 5.2m/s | -53.0°C | 1.2% | 66.5hPa | 2.6V | 00:00:00 | 00:00:00 | 00:00:00 | |
| 13BRC | 2026-09-04 17:59:36 | 52.10046 | 16.20466 | 120° | 13km/h | 19147m | 5.2m/s | -53.0°C | 1.2% | 66.5hPa | 2.6V | 00:00:00 | 00:00:00 | 00:00:00 | |
| DM0DOS-11 | 2026-09-04 17:59:35 | 52.10052 | 16.20448 | 114° | 20km/h | 19132m | 4.7m/s | -53°C | 4.2% | 66.7hPa | 2.6V | 08:30:00 | 01:42:09 | 00:00:00 | |
| KRY50SP-1 | 2026-09-04 17:59:33 | 52.10052 | 16.20447 | 116° | 20km/h | 19133m | 4.7m/s | -53.0°C | 1.3% | 66.7hPa | 2.5V | 00:00:00 | 00:00:00 | 00:00:00 | |
| POL2MAQ | 2026-09-04 17:59:32 | 52.10054 | 16.20440 | 119° | 20km/h | 19128m | 5.3m/s | -53.0°C | 1.3% | 66.8hPa | 2.5V | 00:00:00 | 00:00:00 | 00:00:00 | |
| SONCRA | 2026-09-04 17:59:30 | 52.10067 | 16.20397 | 114° | 22km/h | 19103m | 5.2m/s | -53.0°C | 1.3% | 67.0hPa | 2.5V | 00:00:00 | 00:00:00 | 00:00:00 | |
| DM0DOS-11 | 2026-09-04 17:59:29 | 52.10075 | 16.20367 | 109° | 18km/h | 19084m | 4.3m/s | -53.1°C | 4.1% | 67.2hPa | 2.5V | 08:30:00 | 01:41:59 | 00:00:00 | |
| 3Z3Z-3 | 2026-09-04 17:59:28 | 52.10064 | 16.20406 | 113° | 24km/h | 19109m | 5.1m/s | -53.0°C | 1.2% | 66.9hPa | 2.5V | 00:00:00 | 00:00:00 | 00:00:00 | |
| OE3JTB-15 | 2026-09-04 17:59:27 | 52.10069 | 16.20389 | 120° | 29km/h | 19098m | 4.8m/s | -53.0°C | 4.1% | 67.0hPa | 2.5V | 00:00:00 | 00:00:00 | 00:00:00 | |
| DB0DAN | 2026-09-04 17:59:25 | 52.10074 | 16.20375 | 111° | 18km/h | 19089m | 5.7m/s | -53.1°C | 1.3% | 67.14hPa | 2.5V | 00:00:00 | 00:00:00 | 00:00:00 | |
| EDDB2-11 | 2026-09-04 17:59:24 | 52.10075 | 16.20367 | 109° | 18km/h | 19084m | 4.3m/s | -53.1°C | 1.2% | 67.2hPa | 2.5V | 00:00:00 | 00:00:00 | 00:00:00 | |
| S3001 | 2026-09-04 17:59:23 | 52.10077 | 16.20360 | 110° | 16km/h | 19079m | 5.4m/s | -53.1°C | 1.2% | 67.3hPa | 2.5V | 00:00:00 | 00:00:00 | 00:00:00 | |
| KRY50SP-1 | 2026-09-04 17:59:22 | 52.10077 | 16.20360 | 112° | 18km/h | 19080m | 5.4m/s | -53.1°C | 1.2% | 67.3hPa | 2.5V | 00:00:00 | 00:00:00 | 00:00:00 | |
| SP3BTT-10 | 2026-09-04 17:59:19 | 52.10082 | 16.20326 | 105° | 35km/h | 19061m | 4.1m/s | -52.9°C | 4.1% | 67.4hPa | 2.5V | 00:00:00 | 00:00:00 | 00:00:00 | |
| KRY50SP-1 | 2026-09-04 17:59:17 | 52.10084 | 16.20314 | 109° | 29km/h | 19056m | 5.1m/s | -53.0°C | 1.3% | 67.5hPa | 2.5V | 00:00:00 | 00:00:00 | 00:00:00 | |
| EDDB2-12 | 2026-09-04 17:59:16 | 52.10090 | 16.20291 | 108° | 29km/h | 19047m | 3.8m/s | -53.0°C | 1.3% | 67.6hPa | 2.5V | 00:00:00 | 00:00:00 | 00:00:00 | |
| DM0DOS-11 | 2026-09-04 17:59:15 | 52.10094 | 16.20267 | 101° | 29km/h | 19038m | 4.5m/s | -53°C | 4.2% | 67.7hPa | 2.5V | 08:30:00 | 01:41:49 | 00:00:00 | |
| KRY50SP-1 | 2026-09-04 17:59:11 | 52.10097 | 16.20243 | 106° | 27km/h | 19028m | 5.1m/s | -53.0°C | 1.3% | 67.8hPa | 2.5V | 00:00:00 | 00:00:00 | 00:00:00 | |
| DM0DOS-11 | 2026-09-04 17:59:10 | 52.10111 | 16.20150 | 102° | 33km/h | 18991m | 4.4m/s | -52.9°C | 4.2% | 68.2hPa | 2.5V | 08:30:00 | 01:41:39 | 00:00:00 | |
| SP3WXH-11 | 2026-09-04 17:59:06 | 52.10107 | 16.20175 | 106° | 31km/h | 19000m | 3.3m/s | -52.9°C | 1.3% | 68.1hPa | 2.5V | 00:00:00 | 00:00:00 | 00:00:00 | |
| 3Z3Z-3 | 2026-09-04 17:59:04 | 52.10109 | 16.20162 | 105° | 33km/h | 18996m | 5.2m/s | -52.9°C | 1.3% | 68.1hPa | 2.5V | 00:00:00 | 00:00:00 | 00:00:00 | |
| KRY50SP-1 | 2026-09-04 17:59:01 | 52.10115 | 16.20124 | 106° | 33km/h | 18982m | 5.0m/s | -52.9°C | 1.3% | 68.3hPa | 2.5V | 00:00:00 | 00:00:00 | 00:00:00 | |
| SONCRA | 2026-09-04 17:58:58 | 52.10122 | 16.20071 | 100° | 33km/h | 18962m | 5.6m/s | -52.7°C | 1.2% | 68.5hPa | 2.5V | 00:00:00 | 00:00:00 | 00:00:00 | |
| SP6BVK | 2026-09-04 17:58:56 | 52.10123 | 16.20058 | 105° | 35km/h | 18956m | 4.6m/s | -52.7°C | 1.2% | 68.5hPa | 2.5V | 00:00:00 | 00:00:00 | 00:00:00 | |
| OE3JTB-15 | 2026-09-04 17:58:55 | 52.10127 | 16.20030 | 102° | 37km/h | 18947m | 5.2m/s | -52.6°C | 4.1% | 68.6hPa | 2.5V | 00:00:00 | 00:00:00 | 00:00:00 | |
| 13BRC | 2026-09-04 17:58:54 | 52.10127 | 16.20030 | 103° | 35km/h | 18947m | 5.3m/s | -52.6°C | 1.2% | 68.6hPa | 2.5V | 00:00:00 | 00:00:00 | 00:00:00 | |
| DM0DOS-11 | 2026-09-04 17:58:53 | 52.10131 | 16.19987 | 96° | 37km/h | 18932m | 5.2m/s | -52.5°C | 4.1% | 68.8hPa | 2.5V | 08:30:00 | 01:41:27 | 00:00:00 | |
| S3001 | 2026-09-04 17:58:52 | 52.10131 | 16.19987 | 96° | 35km/h | 18932m | 5.2m/s | -52.5°C | 1.2% | 68.8hPa | 2.6V | 00:00:00 | 00:00:00 | 00:00:00 | |
| EDDB2-12 | 2026-09-04 17:58:45 | 52.10138 | 16.19885 | 97° | 35km/h | 18900m | 4.0m/s | -52.4°C | 1.2% | 69.1hPa | 2.6V | 00:00:00 | 00:00:00 | 00:00:00 | |
| KRY50SP-1 | 2026-09-04 17:58:44 | 52.10138 | 16.19884 | 99° | 35km/h | 18900m | 4.0m/s | -52.4°C | 1.2% | 69.1hPa | 2.6V | 00:00:00 | 00:00:00 | 00:00:00 | |
| DM0DOS-11 | 2026-09-04 17:58:43 | 52.10139 | 16.19842 | 87° | 35km/h | 18885m | 4.3m/s | -52.3°C | 3.9% | 69.3hPa | 2.6V | 08:30:00 | 01:41:17 | 00:00:00 | |
| 3Z3Z-3 | 2026-09-04 17:58:42 | 52.10139 | 16.19856 | 93° | 35km/h | 18890m | 4.9m/s | -52.3°C | 1.2% | 69.2hPa | 2.6V | 00:00:00 | 00:00:00 | 00:00:00 | |
| DB0DAN | 2026-09-04 17:58:40 | 52.10139 | 16.19813 | 92° | 35km/h | 18876m | 5.3m/s | -52.3°C | 1.2% | 69.39hPa | 2.6V | 00:00:00 | 00:00:00 | 00:00:00 | |
| SP3WXH-11 | 2026-09-04 17:58:35 | 52.10140 | 16.19740 | 90° | 37km/h | 18850m | 3.7m/s | -52.2°C | 1.2% | 69.7hPa | 2.6V | 00:00:00 | 00:00:00 | 00:00:00 | |
| SP3BTT-10 | 2026-09-04 17:58:34 | 52.10140 | 16.19724 | 89° | 46km/h | 18846m | 4.1m/s | -52.1°C | 3.9% | 69.7hPa | 2.6V | 00:00:00 | 00:00:00 | 00:00:00 | |
| DM0DOS-11 | 2026-09-04 17:58:33 | 52.10138 | 16.19695 | 80° | 37km/h | 18836m | 4.4m/s | -52.2°C | 3.9% | 69.8hPa | 2.6V | 08:30:00 | 01:41:07 | 00:00:00 | |
| 3Z3Z-3 | 2026-09-04 17:58:31 | 52.10138 | 16.19695 | 81° | 37km/h | 18837m | 4.4m/s | -52.2°C | 1.2% | 69.8hPa | 2.6V | 00:00:00 | 00:00:00 | 00:00:00 | |
| POL2MAQ | 2026-09-04 17:58:30 | 52.10136 | 16.19680 | 81° | 37km/h | 18832m | 4.0m/s | -52.3°C | 1.2% | 69.8hPa | 2.6V | 00:00:00 | 00:00:00 | 00:00:00 | |
| KRY50SP-1 | 2026-09-04 17:58:28 | 52.10133 | 16.19649 | 86° | 38km/h | 18823m | 4.8m/s | -52.4°C | 1.2% | 69.9hPa | 2.6V | 00:00:00 | 00:00:00 | 00:00:00 | |
| SONCRA | 2026-09-04 17:58:27 | 52.10132 | 16.19618 | 82° | 37km/h | 18813m | 5.7m/s | -52.5°C | 1.3% | 70.1hPa | 2.6V | 00:00:00 | 00:00:00 | 00:00:00 | |
| DB0DAN | 2026-09-04 17:58:25 | 52.10129 | 16.19588 | 82° | 35km/h | 18803m | 4.9m/s | -52.6°C | 1.2% | 70.19hPa | 2.6V | 00:00:00 | 00:00:00 | 00:00:00 | |
| DM0DOS-11 | 2026-09-04 17:58:23 | 52.10125 | 16.19542 | 78° | 37km/h | 18789m | 5.2m/s | -52.6°C | 4% | 70.3hPa | 2.5V | 08:30:00 | 01:40:57 | 00:00:00 | |
| EDDB2-11 | 2026-09-04 17:58:22 | 52.10125 | 16.19542 | 78° | 37km/h | 18789m | 5.2m/s | -52.6°C | 1.2% | 70.3hPa | 2.5V | 00:00:00 | 00:00:00 | 00:00:00 | |
| S3001 | 2026-09-04 17:58:21 | 52.10123 | 16.19528 | 74° | 37km/h | 18784m | 4.6m/s | -52.6°C | 1.2% | 70.4hPa | 2.5V | 00:00:00 | 00:00:00 | 00:00:00 | |
| 3Z3Z-3 | 2026-09-04 17:58:20 | 52.10123 | 16.19527 | 75° | 37km/h | 18784m | 4.6m/s | -52.6°C | 1.2% | 70.4hPa | 2.5V | 00:00:00 | 00:00:00 | 00:00:00 | |
| KRY50SP-1 | 2026-09-04 17:58:18 | 52.10117 | 16.19497 | 75° | 40km/h | 18774m | 4.9m/s | -52.6°C | 1.2% | 70.5hPa | 2.5V | 00:00:00 | 00:00:00 | 00:00:00 | |
| SP6BVK | 2026-09-04 17:58:14 | 52.10105 | 16.19434 | 74° | 42km/h | 18756m | 4.4m/s | -52.9°C | 1.3% | 70.7hPa | 2.5V | 00:00:00 | 00:00:00 | 00:00:00 | |
| DM0DOS-11 | 2026-09-04 17:58:13 | 52.10097 | 16.19380 | 76° | 47km/h | 18741m | 5m/s | -53°C | 4.2% | 70.8hPa | 2.5V | 08:30:00 | 01:40:47 | 00:00:00 | |
| DB0DAN | 2026-09-04 17:58:10 | 52.10091 | 16.19344 | 74° | 44km/h | 18732m | 3.9m/s | -52.9°C | 1.3% | 70.94hPa | 2.6V | 00:00:00 | 00:00:00 | 00:00:00 | |
| AA1-15 | 2026-09-04 17:58:00 | 52.10043 | 16.19164 | 64° | 47km/h | 18683m | 4.9m/s | -52.6°C | 0.8% | 71.5hPa | 2.6V | 18:12:15 | 01:40:35 | 00:00:00 | |
| SONCRA | 2026-09-04 17:57:56 | 52.10023 | 16.19097 | 63° | 46km/h | 18664m | 4.0m/s | -52.5°C | 1.2% | 71.7hPa | 2.5V | 00:00:00 | 00:00:00 | 00:00:00 | |
| DB0DAN | 2026-09-04 17:57:55 | 52.10017 | 16.19081 | 62° | 42km/h | 18660m | 5.3m/s | -52.4°C | 1.3% | 71.72hPa | 2.5V | 00:00:00 | 00:00:00 | 00:00:00 | |
| DM0DOS-11 | 2026-09-04 17:57:54 | 52.10012 | 16.19065 | 63° | 42km/h | 18655m | 4.5m/s | -52.4°C | 4.2% | 71.8hPa | 2.6V | 08:30:00 | 01:40:29 | 00:00:00 | |
| SONDE2-11 | 2026-09-04 17:57:51 | 52.09999 | 16.19017 | 66° | 44km/h | 18641m | 4.5m/s | -52.3°C | 1.3% | 71.9hPa | 2.6V | 00:00:00 | 00:00:00 | 00:00:00 | |
| S3001 | 2026-09-04 17:57:50 | 52.09994 | 16.19000 | 64° | 42km/h | 18636m | 5.7m/s | -52.2°C | 1.2% | 72.0hPa | 2.6V | 00:00:00 | 00:00:00 | 00:00:00 | |
| DM0DOS-11 | 2026-09-04 17:57:49 | 52.09965 | 16.18903 | 63° | 44km/h | 18607m | 5.3m/s | -52°C | 4% | 72.3hPa | 2.6V | 08:30:00 | 01:40:19 | 00:00:00 | |
| SP3BTT-10 | 2026-09-04 17:57:49 | 52.09989 | 16.18985 | 64° | 35km/h | 18631m | 4.5m/s | -52.1°C | 4.1% | 72.0hPa | 2.5V | 00:00:00 | 00:00:00 | 00:00:00 | |
| 3Z3Z-3 | 2026-09-04 17:57:48 | 52.09989 | 16.18984 | 64° | 42km/h | 18631m | 4.5m/s | -52.2°C | 1.3% | 72.1hPa | 2.5V | 00:00:00 | 00:00:00 | 00:00:00 | |
| KRY50SP-1 | 2026-09-04 17:57:46 | 52.09979 | 16.18954 | 64° | 44km/h | 18622m | 5.7m/s | -52.1°C | 1.3% | 72.2hPa | 2.5V | 00:00:00 | 00:00:00 | 00:00:00 | |
| EDDB2-12 | 2026-09-04 17:57:43 | 52.09955 | 16.18874 | 59° | 37km/h | 18597m | 4.3m/s | -51.9°C | 1.3% | 72.5hPa | 2.5V | 00:00:00 | 00:00:00 | 00:00:00 | |
| DB0DAN | 2026-09-04 17:57:40 | 52.09946 | 16.18848 | 62° | 35km/h | 18587m | 5m/s | -51.8°C | 1.3% | 72.56hPa | 2.5V | 00:00:00 | 00:00:00 | 00:00:00 | |
| DM0DOS-11 | 2026-09-04 17:57:39 | 52.09922 | 16.18767 | 73° | 40km/h | 18557m | 4.3m/s | -51.7°C | 3.9% | 72.9hPa | 2.5V | 08:30:00 | 01:40:09 | 00:00:00 | |
| 3Z3Z-3 | 2026-09-04 17:57:37 | 52.09938 | 16.18822 | 63° | 37km/h | 18578m | 5.4m/s | -51.8°C | 1.2% | 72.7hPa | 2.5V | 00:00:00 | 00:00:00 | 00:00:00 | |
| KRY50SP-1 | 2026-09-04 17:57:35 | 52.09929 | 16.18796 | 66° | 37km/h | 18568m | 4.8m/s | -51.7°C | 1.3% | 72.8hPa | 2.5V | 00:00:00 | 00:00:00 | 00:00:00 | |
| SP3WXH-11 | 2026-09-04 17:57:33 | 52.09920 | 16.18751 | 76° | 38km/h | 18553m | 4.7m/s | -51.7°C | 1.2% | 72.9hPa | 2.5V | 00:00:00 | 00:00:00 | 00:00:00 | |
| SP6BVK | 2026-09-04 17:57:32 | 52.09920 | 16.18751 | 77° | 40km/h | 18553m | 4.7m/s | -51.7°C | 1.2% | 72.9hPa | 2.5V | 00:00:00 | 00:00:00 | 00:00:00 | |
| POL2MAQ | 2026-09-04 17:57:29 | 52.09910 | 16.18706 | 68° | 40km/h | 18539m | 4.8m/s | -51.5°C | 1.2% | 73.1hPa | 2.5V | 00:00:00 | 00:00:00 | 00:00:00 | |
| 3Z3Z-3 | 2026-09-04 17:57:26 | 52.09897 | 16.18661 | 63° | 38km/h | 18524m | 4.9m/s | -51.4°C | 1.2% | 73.3hPa | 2.5V | 00:00:00 | 00:00:00 | 00:00:00 | |
| DB0DAN | 2026-09-04 17:57:25 | 52.09888 | 16.18637 | 56° | 31km/h | 18514m | 3.6m/s | -51.3°C | 1.2% | 73.38hPa | 2.5V | 00:00:00 | 00:00:00 | 00:00:00 | |
| KRY50SP-1 | 2026-09-04 17:57:24 | 52.09884 | 16.18626 | 60° | 31km/h | 18510m | 5.1m/s | -51.2°C | 1.2% | 73.4hPa | 2.6V | 00:00:00 | 00:00:00 | 00:00:00 | |
| SONDE2-11 | 2026-09-04 17:57:20 | 52.09874 | 16.18578 | 75° | 29km/h | 18489m | 5.9m/s | -51.1°C | 1.1% | 73.6hPa | 2.6V | 00:00:00 | 00:00:00 | 00:00:00 | |
| S3001 | 2026-09-04 17:57:19 | 52.09872 | 16.18566 | 72° | 29km/h | 18484m | 4.8m/s | -51.1°C | 1.1% | 73.7hPa | 2.6V | 00:00:00 | 00:00:00 | 00:00:00 | |
| KRY50SP-1 | 2026-09-04 17:57:17 | 52.09869 | 16.18554 | 73° | 33km/h | 18480m | 4.9m/s | -51.1°C | 1.2% | 73.8hPa | 2.6V | 00:00:00 | 00:00:00 | 00:00:00 | |
| 3Z3Z-3 | 2026-09-04 17:57:16 | 52.09867 | 16.18540 | 74° | 37km/h | 18474m | 6.3m/s | -51.1°C | 1.1% | 73.8hPa | 2.6V | 00:00:00 | 00:00:00 | 00:00:00 | |
| DM0DOS-11 | 2026-09-04 17:57:13 | 52.09850 | 16.18471 | 66° | 31km/h | 18449m | 4.4m/s | -51.4°C | 3.8% | 74.1hPa | 2.6V | 08:30:00 | 01:39:47 | 00:00:00 | |
| KRY50SP-1 | 2026-09-04 17:57:12 | 52.09853 | 16.18483 | 66° | 33km/h | 18454m | 4.3m/s | -51.3°C | 1.1% | 74.1hPa | 2.5V | 00:00:00 | 00:00:00 | 00:00:00 | |
| SP6BVK | 2026-09-04 17:57:11 | 52.09849 | 16.18471 | 68° | 31km/h | 18450m | 4.4m/s | -51.4°C | 1.2% | 74.1hPa | 2.5V | 00:00:00 | 00:00:00 | 00:00:00 | |
| DB0DAN | 2026-09-04 17:57:10 | 52.09845 | 16.18447 | 75° | 29km/h | 18439m | 5.6m/s | -51.6°C | 1.2% | 74.22hPa | 2.5V | 00:00:00 | 00:00:00 | 00:00:00 | |
| POL2MAQ | 2026-09-04 17:57:07 | 52.09841 | 16.18422 | 78° | 31km/h | 18429m | 4.6m/s | -51.7°C | 1.2% | 74.4hPa | 2.5V | 00:00:00 | 00:00:00 | 00:00:00 | |
| 3Z3Z-3 | 2026-09-04 17:57:06 | 52.09839 | 16.18410 | 76° | 31km/h | 18424m | 6.3m/s | -51.7°C | 1.2% | 74.4hPa | 2.5V | 00:00:00 | 00:00:00 | 00:00:00 | |
| SP3BTT-10 | 2026-09-04 17:57:04 | 52.09833 | 16.18374 | 79° | 24km/h | 18407m | 6.5m/s | -51.7°C | 4.0% | 74.5hPa | 2.5V | 00:00:00 | 00:00:00 | 00:00:00 | |
| KRY50SP-1 | 2026-09-04 17:57:01 | 52.09831 | 16.18346 | 92° | 37km/h | 18396m | 4.6m/s | -51.8°C | 1.2% | 74.7hPa | 2.5V | 00:00:00 | 00:00:00 | 00:00:00 | |
| SONCRA | 2026-09-04 17:56:54 | 52.09832 | 16.18234 | 80° | 27km/h | 18354m | 5.0m/s | -51.6°C | 1.2% | 75.2hPa | 2.5V | 00:00:00 | 00:00:00 | 00:00:00 | |
| SONDE2-11 | 2026-09-04 17:56:49 | 52.09828 | 16.18176 | 83° | 27km/h | 18331m | 5.2m/s | -51.5°C | 1.2% | 75.5hPa | 2.5V | 00:00:00 | 00:00:00 | 00:00:00 | |
| S3001 | 2026-09-04 17:56:48 | 52.09827 | 16.18164 | 80° | 26km/h | 18325m | 5.2m/s | -51.4°C | 1.2% | 75.5hPa | 2.5V | 00:00:00 | 00:00:00 | 00:00:00 | |
| OE3JTB-15 | 2026-09-04 17:56:47 | 52.09826 | 16.18153 | 82° | 24km/h | 18321m | 4.9m/s | -51.3°C | 3.9% | 75.5hPa | 2.5V | 00:00:00 | 00:00:00 | 08:30:00 | |
| POL2MAQ | 2026-09-04 17:56:46 | 52.09826 | 16.18153 | 82° | 27km/h | 18321m | 4.9m/s | -51.4°C | 1.2% | 75.6hPa | 2.6V | 00:00:00 | 00:00:00 | 00:00:00 | |
| DL2RXE-15 | 2026-09-04 17:56:37 | 52.09826 | 16.18069 | 89° | 24km/h | 18279m | 4.2m/s | -51.3°C | 1.2% | 76.1hPa | 2.6V | 00:00:00 | 00:00:00 | 00:00:00 | |
| KRY50SP-1 | 2026-09-04 17:56:31 | 52.09825 | 16.18004 | 86° | 24km/h | 18251m | 4.3m/s | -51.2°C | 1.2% | 76.4hPa | 2.6V | 00:00:00 | 00:00:00 | 00:00:00 | |
| SP6BVK | 2026-09-04 17:56:30 | 52.09825 | 16.17995 | 84° | 24km/h | 18247m | 4.0m/s | -51.2°C | 1.1% | 76.5hPa | 2.6V | 00:00:00 | 00:00:00 | 00:00:00 | |
| POL2MAQ | 2026-09-04 17:56:26 | 52.09825 | 16.17956 | 98° | 24km/h | 18229m | 5.1m/s | -51.1°C | 1.2% | 76.6hPa | 2.6V | 00:00:00 | 00:00:00 | 00:00:00 | |
| KRY50SP-1 | 2026-09-04 17:56:25 | 52.09826 | 16.17946 | 99° | 22km/h | 18223m | 5.0m/s | -51.0°C | 1.2% | 76.7hPa | 2.6V | 00:00:00 | 00:00:00 | 00:00:00 | |
| SONCRA | 2026-09-04 17:56:23 | 52.09831 | 16.17918 | 111° | 24km/h | 18209m | 3.6m/s | -51.0°C | 1.2% | 76.9hPa | 2.6V | 00:00:00 | 00:00:00 | 00:00:00 | |
| KRY50SP-1 | 2026-09-04 17:56:20 | 52.09835 | 16.17901 | 115° | 22km/h | 18201m | 3.8m/s | -51.0°C | 1.1% | 77.0hPa | 2.6V | 00:00:00 | 00:00:00 | 00:00:00 | |
| SP3BTT-10 | 2026-09-04 17:56:18 | 52.09843 | 16.17875 | 118° | 40km/h | 18188m | 4.0m/s | -51.0°C | 3.7% | 77.1hPa | 2.6V | 00:00:00 | 00:00:00 | 08:30:00 | |
| S3001 | 2026-09-04 17:56:17 | 52.09846 | 16.17866 | 116° | 26km/h | 18184m | 3.5m/s | -51.1°C | 1.2% | 77.2hPa | 2.5V | 00:00:00 | 00:00:00 | 00:00:00 | |
| 3Z3Z-3 | 2026-09-04 17:56:15 | 52.09849 | 16.17856 | 115° | 24km/h | 18180m | 5.0m/s | -51.1°C | 1.2% | 77.3hPa | 2.5V | 00:00:00 | 00:00:00 | 00:00:00 | |
| KRY50SP-1 | 2026-09-04 17:56:14 | 52.09851 | 16.17847 | 113° | 22km/h | 18175m | 4.2m/s | -51.0°C | 1.2% | 77.3hPa | 2.5V | 00:00:00 | 00:00:00 | 00:00:00 | |
| AA1-15 | 2026-09-04 17:55:56 | 52.09919 | 16.17644 | 127° | 35km/h | 18093m | 3.7m/s | -51.7°C | 0.7% | 78.3hPa | 2.5V | 18:12:15 | 01:38:31 | 00:00:00 | |
| DB0DAN | 2026-09-04 17:55:55 | 52.09924 | 16.17633 | 124° | 33km/h | 18089m | 4.1m/s | -51.8°C | 1.3% | 78.33hPa | 2.5V | 00:00:00 | 00:00:00 | 00:00:00 | |
| SONCRA | 2026-09-04 17:55:52 | 52.09939 | 16.17595 | 124° | 37km/h | 18076m | 4.9m/s | -51.8°C | 1.3% | 78.5hPa | 2.6V | 00:00:00 | 00:00:00 | 00:00:00 | |
| SONDE2-11 | 2026-09-04 17:55:47 | 52.09961 | 16.17530 | 117° | 38km/h | 18055m | 4.9m/s | -52.0°C | 1.3% | 78.7hPa | 2.6V | 00:00:00 | 00:00:00 | 00:00:00 | |
| S3001 | 2026-09-04 17:55:46 | 52.09966 | 16.17516 | 121° | 40km/h | 18050m | 4.4m/s | -52.2°C | 1.3% | 78.8hPa | 2.6V | 00:00:00 | 00:00:00 | 00:00:00 | |
| 3Z3Z-3 | 2026-09-04 17:55:43 | 52.09978 | 16.17487 | 125° | 42km/h | 18041m | 4.9m/s | -52.6°C | 1.3% | 78.9hPa | 2.6V | 00:00:00 | 00:00:00 | 00:00:00 | |
| KRY50SP-1 | 2026-09-04 17:55:42 | 52.09984 | 16.17472 | 125° | 46km/h | 18037m | 4.0m/s | -52.7°C | 1.4% | 79.0hPa | 2.6V | 00:00:00 | 00:00:00 | 00:00:00 | |
| DB0DAN | 2026-09-04 17:55:40 | 52.10005 | 16.17422 | 123° | 49km/h | 18023m | 4.1m/s | -52.9°C | 1.3% | 79.14hPa | 2.6V | 00:00:00 | 00:00:00 | 00:00:00 | |
| KRY50SP-1 | 2026-09-04 17:55:36 | 52.10025 | 16.17370 | 120° | 49km/h | 18011m | 4.6m/s | -52.9°C | 1.4% | 79.3hPa | 2.5V | 00:00:00 | 00:00:00 | 00:00:00 | |
| DM0DOS-11 | 2026-09-04 17:55:33 | 52.10076 | 16.17189 | 113° | 57km/h | 17971m | 4.8m/s | -53.3°C | 4.1% | 79.8hPa | 2.5V | 08:30:00 | 01:38:03 | 00:00:00 | |
| SP3BTT-10 | 2026-09-04 17:55:33 | 52.10048 | 16.17295 | 116° | 58km/h | 17993m | 3.8m/s | -52.9°C | 4.0% | 79.5hPa | 2.6V | 00:00:00 | 00:00:00 | 00:00:00 | |
| KRY50SP-1 | 2026-09-04 17:55:31 | 52.10054 | 16.17275 | 115° | 53km/h | 17989m | 4.2m/s | -53.0°C | 1.3% | 79.6hPa | 2.6V | 00:00:00 | 00:00:00 | 00:00:00 | |
| OE3JTB-15 | 2026-09-04 17:55:30 | 52.10065 | 16.17233 | 112° | 62km/h | 17979m | 4.0m/s | -53.0°C | 4.0% | 79.6hPa | 2.6V | 00:00:00 | 01:38:05 | 00:00:00 | |
| SP6BVK | 2026-09-04 17:55:28 | 52.10070 | 16.17210 | 113° | 58km/h | 17976m | 3.6m/s | -53.2°C | 1.3% | 79.7hPa | 2.6V | 00:00:00 | 00:00:00 | 00:00:00 | |
| 3Z3Z-3 | 2026-09-04 17:55:26 | 52.10081 | 16.17167 | 114° | 57km/h | 17967m | 3.8m/s | -53.6°C | 1.4% | 79.8hPa | 2.6V | 00:00:00 | 00:00:00 | 00:00:00 | |
| DB0DAN | 2026-09-04 17:55:25 | 52.10091 | 16.17124 | 108° | 55km/h | 17958m | 4.1m/s | -53.7°C | 1.4% | 79.9hPa | 2.6V | 00:00:00 | 00:00:00 | 00:00:00 | |
| DM0DOS-11 | 2026-09-04 17:55:23 | 52.10113 | 16.16956 | 97° | 66km/h | 17928m | 4.3m/s | -53.8°C | 4.2% | 80.3hPa | 2.5V | 08:30:00 | 01:37:53 | 00:00:00 | |
| POL2MAQ | 2026-09-04 17:55:22 | 52.10099 | 16.17077 | 105° | 58km/h | 17951m | 5.2m/s | -53.8°C | 1.4% | 80.0hPa | 2.6V | 00:00:00 | 00:00:00 | 00:00:00 | |
| KRY50SP-1 | 2026-09-04 17:55:21 | 52.10102 | 16.17054 | 103° | 57km/h | 17946m | 4.4m/s | -53.8°C | 1.4% | 80.0hPa | 2.6V | 00:00:00 | 00:00:00 | 00:00:00 | |
| SONDE2-11 | 2026-09-04 17:55:16 | 52.10118 | 16.16902 | 100° | 66km/h | 17920m | 4.2m/s | -54.0°C | 1.4% | 80.4hPa | 2.6V | 00:00:00 | 00:00:00 | 00:00:00 | |
| S3001 | 2026-09-04 17:55:15 | 52.10121 | 16.16875 | 100° | 64km/h | 17916m | 3.8m/s | -54.1°C | 1.4% | 80.4hPa | 2.6V | 00:00:00 | 00:00:00 | 00:00:00 | |
| 3Z3Z-3 | 2026-09-04 17:55:14 | 52.10121 | 16.16875 | 102° | 66km/h | 17916m | 3.8m/s | -54.1°C | 0% | 80.4hPa | 2.6V | 00:00:00 | 00:00:00 | 00:00:00 | |
| DM0DOS-11 | 2026-09-04 17:55:13 | 52.10139 | 16.16700 | 99° | 60km/h | 17887m | 4.9m/s | -54.7°C | 4.5% | 80.8hPa | 2.6V | 08:30:00 | 01:37:43 | 00:00:00 | |
| DB0DAN | 2026-09-04 17:55:10 | 52.10134 | 16.16748 | 101° | 57km/h | 17895m | 4.2m/s | -54.7°C | 1.5% | 80.72hPa | 2.6V | 00:00:00 | 00:00:00 | 00:00:00 | |
| KRY50SP-1 | 2026-09-04 17:55:10 | 52.10134 | 16.16748 | 102° | 60km/h | 17895m | 4.2m/s | -54.7°C | 1.5% | 80.7hPa | 2.6V | 00:00:00 | 00:00:00 | 00:00:00 | |
| SP6BVK | 2026-09-04 17:55:08 | 52.10137 | 16.16724 | 102° | 58km/h | 17891m | 4.0m/s | -54.7°C | 1.5% | 80.8hPa | 2.6V | 00:00:00 | 00:00:00 | 00:00:00 | |
| 13BRC | 2026-09-04 17:55:07 | 52.10139 | 16.16700 | 100° | 60km/h | 17887m | 4.9m/s | -54.7°C | 1.5% | 80.8hPa | 2.6V | 00:00:00 | 00:00:00 | 00:00:00 | |
| KRY50SP-1 | 2026-09-04 17:55:04 | 52.10146 | 16.16625 | 100° | 62km/h | 17874m | 4.9m/s | -54.8°C | 1.5% | 81.0hPa | 2.6V | 00:00:00 | 00:00:00 | 00:00:00 | |
| 3Z3Z-3 | 2026-09-04 17:55:03 | 52.10149 | 16.16599 | 101° | 62km/h | 17870m | 3.8m/s | -54.8°C | 0% | 81.1hPa | 2.6V | 00:00:00 | 00:00:00 | 00:00:00 | |
| POL2MAQ | 2026-09-04 17:55:01 | 52.10153 | 16.16550 | 101° | 60km/h | 17862m | 3.6m/s | -54.8°C | 1.4% | 81.1hPa | 2.6V | 00:00:00 | 00:00:00 | 00:00:00 | |
| KRY50SP-1 | 2026-09-04 17:54:59 | 52.10160 | 16.16503 | 107° | 58km/h | 17853m | 4.0m/s | -54.9°C | 1.5% | 81.3hPa | 2.6V | 00:00:00 | 00:00:00 | 00:00:00 | |
| DB0DAN | 2026-09-04 17:54:55 | 52.10177 | 16.16395 | 104° | 51km/h | 17832m | 4.8m/s | -55°C | 1.5% | 81.5hPa | 2.6V | 00:00:00 | 00:00:00 | 00:00:00 | |
| DM0DOS-11 | 2026-09-04 17:54:54 | 52.10188 | 16.16307 | 99° | 55km/h | 17814m | 4.6m/s | -55.2°C | 4.6% | 81.7hPa | 2.6V | 08:30:00 | 01:37:26 | 00:00:00 | |
| SONDE2-11 | 2026-09-04 17:54:45 | 52.10210 | 16.16147 | 106° | 57km/h | 17783m | 5.1m/s | -55.3°C | 1.5% | 82.1hPa | 2.6V | 00:00:00 | 00:00:00 | 00:00:00 | |
| S3001 | 2026-09-04 17:54:44 | 52.10210 | 16.16147 | 106° | 57km/h | 17783m | 5.1m/s | -55.3°C | 1.5% | 82.1hPa | 2.6V | 00:00:00 | 00:00:00 | 00:00:00 | |
| KRY50SP-1 | 2026-09-04 17:54:42 | 52.10214 | 16.16125 | 107° | 57km/h | 17779m | 4.4m/s | -55.3°C | 1.5% | 82.2hPa | 2.6V | 00:00:00 | 00:00:00 | 00:00:00 | |
| DM0DOS-11 | 2026-09-04 17:54:41 | 52.10241 | 16.15964 | 104° | 62km/h | 17747m | 5.4m/s | -55.2°C | 4.6% | 82.6hPa | 2.6V | 08:30:00 | 01:37:11 | 00:00:00 | |
| DB0DAN | 2026-09-04 17:54:40 | 52.10226 | 16.16059 | 108° | 55km/h | 17766m | 3.8m/s | -55.2°C | 1.5% | 82.37hPa | 2.5V | 00:00:00 | 00:00:00 | 00:00:00 | |
| KRY50SP-1 | 2026-09-04 17:54:38 | 52.10234 | 16.16012 | 104° | 60km/h | 17756m | 4.3m/s | -55.2°C | 1.5% | 82.5hPa | 2.6V | 00:00:00 | 00:00:00 | 00:00:00 | |
| EDDB2-12 | 2026-09-04 17:54:37 | 52.10241 | 16.15964 | 104° | 60km/h | 17747m | 5.4m/s | -55.2°C | 1.5% | 82.6hPa | 2.6V | 00:00:00 | 00:00:00 | 00:00:00 | |
| KRY50SP-1 | 2026-09-04 17:54:32 | 52.10253 | 16.15890 | 105° | 62km/h | 17734m | 5.1m/s | -55.2°C | 1.5% | 82.8hPa | 2.6V | 00:00:00 | 00:00:00 | 00:00:00 | |
| 3Z3Z-3 | 2026-09-04 17:54:30 | 52.10260 | 16.15841 | 105° | 60km/h | 17726m | 4.7m/s | -55.3°C | 0% | 82.9hPa | 2.6V | 00:00:00 | 00:00:00 | 00:00:00 | |
| KRY50SP-1 | 2026-09-04 17:54:27 | 52.10270 | 16.15768 | 101° | 58km/h | 17712m | 4.6m/s | -55.4°C | 1.5% | 83.0hPa | 2.6V | 00:00:00 | 00:00:00 | 00:00:00 | |
| DM0DOS-11 | 2026-09-04 17:54:26 | 52.10278 | 16.15697 | 102° | 60km/h | 17699m | 3.7m/s | -55.7°C | 4.7% | 83.2hPa | 2.6V | 08:30:00 | 01:37:00 | 00:00:00 | |
| DB0DAN | 2026-09-04 17:54:25 | 52.10278 | 16.15696 | 102° | 58km/h | 17699m | 3.7m/s | -55.7°C | 1.5% | 83.25hPa | 2.6V | 00:00:00 | 00:00:00 | 00:00:00 | |
| KRY50SP-1 | 2026-09-04 17:54:21 | 52.10287 | 16.15620 | 100° | 66km/h | 17686m | 4.3m/s | -55.7°C | 1.6% | 83.4hPa | 2.6V | 00:00:00 | 00:00:00 | 00:00:00 | |
| POL2MAQ | 2026-09-04 17:54:20 | 52.10290 | 16.15592 | 101° | 69km/h | 17681m | 5.3m/s | -55.7°C | 1.6% | 83.5hPa | 2.6V | 00:00:00 | 00:00:00 | 00:00:00 | |
| DM0DOS-11 | 2026-09-04 17:54:19 | 52.10307 | 16.15396 | 99° | 62km/h | 17650m | 4.2m/s | -55.6°C | 4.9% | 83.8hPa | 2.6V | 08:30:00 | 01:36:49 | 00:00:00 | |
| OE3JTB-15 | 2026-09-04 17:54:19 | 52.10295 | 16.15535 | 99° | 66km/h | 17673m | 4.5m/s | -55.6°C | 4.8% | 83.5hPa | 2.5V | 00:00:00 | 00:00:00 | 00:00:00 | |
| 3Z3Z-3 | 2026-09-04 17:54:18 | 52.10295 | 16.15535 | 99° | 71km/h | 17673m | 4.5m/s | -55.6°C | 0% | 83.6hPa | 2.5V | 00:00:00 | 00:00:00 | 00:00:00 | |
| SP3BTT-10 | 2026-09-04 17:54:17 | 52.10300 | 16.15477 | 97° | 68km/h | 17664m | 3.8m/s | -55.6°C | 4.9% | 83.6hPa | 2.5V | 00:00:00 | 00:00:00 | 00:00:00 | |
| KRY50SP-1 | 2026-09-04 17:54:16 | 52.10300 | 16.15477 | 97° | 69km/h | 17664m | 3.9m/s | -55.6°C | 1.6% | 83.7hPa | 2.6V | 00:00:00 | 00:00:00 | 00:00:00 | |
| SONDE2-11 | 2026-09-04 17:54:14 | 52.10310 | 16.15371 | 99° | 60km/h | 17646m | 5.0m/s | -55.6°C | 1.6% | 83.9hPa | 2.6V | 00:00:00 | 00:00:00 | 00:00:00 | |
| S3001 | 2026-09-04 17:54:13 | 52.10310 | 16.15371 | 99° | 60km/h | 17646m | 5.0m/s | -55.6°C | 1.6% | 83.9hPa | 2.6V | 00:00:00 | 00:00:00 | 00:00:00 | |
| KRY50SP-1 | 2026-09-04 17:54:11 | 52.10312 | 16.15347 | 99° | 60km/h | 17642m | 4.1m/s | -55.6°C | 1.6% | 83.9hPa | 2.6V | 00:00:00 | 00:00:00 | 00:00:00 | |
| DB0DAN | 2026-09-04 17:54:10 | 52.10317 | 16.15297 | 99° | 60km/h | 17632m | 4.9m/s | -55.6°C | 1.6% | 84.07hPa | 2.6V | 00:00:00 | 00:00:00 | 00:00:00 | |
| AA1-15 | 2026-09-04 17:54:04 | 52.10329 | 16.15127 | 95° | 73km/h | 17607m | 3.1m/s | -55.6°C | 1.1% | 84.5hPa | 2.6V | 18:12:15 | 01:36:39 | 00:00:00 | |
| DM0DOS-11 | 2026-09-04 17:54:03 | 52.10334 | 16.15009 | 94° | 69km/h | 17588m | 4.9m/s | -55.7°C | 4.8% | 84.7hPa | 2.6V | 08:30:00 | 01:36:35 | 00:00:00 | |
| SP3WXH-11 | 2026-09-04 17:53:56 | 52.10339 | 16.14877 | 94° | 64km/h | 17567m | 5.2m/s | -55.7°C | 1.6% | 85.0hPa | 2.5V | 00:00:00 | 00:00:00 | 00:00:00 | |
| DB0DAN | 2026-09-04 17:53:55 | 52.10339 | 16.14877 | 94° | 60km/h | 17567m | 5.2m/s | -55.7°C | 1.6% | 84.95hPa | 2.5V | 00:00:00 | 00:00:00 | 00:00:00 | |
| DM0DOS-11 | 2026-09-04 17:53:52 | 52.10346 | 16.14747 | 95° | 62km/h | 17546m | 4.6m/s | -55.7°C | 4.7% | 85.3hPa | 2.7V | 08:30:00 | 01:36:25 | 00:00:00 | |
| SONCRA | 2026-09-04 17:53:48 | 52.10349 | 16.14696 | 93° | 62km/h | 17536m | 4.2m/s | -55.8°C | 1.6% | 85.4hPa | 2.6V | 00:00:00 | 00:00:00 | 00:00:00 | |
| SP3BTT-10 | 2026-09-04 17:53:47 | 52.10350 | 16.14670 | 94° | 60km/h | 17532m | 4.7m/s | -55.8°C | 4.7% | 85.4hPa | 2.6V | 00:00:00 | 00:00:00 | 00:00:00 | |
| SP6BVK | 2026-09-04 17:53:45 | 52.10351 | 16.14646 | 95° | 57km/h | 17527m | 4.8m/s | -55.8°C | 1.6% | 85.5hPa | 2.6V | 00:00:00 | 00:00:00 | 00:00:00 | |
| KRY50SP-1 | 2026-09-04 17:53:44 | 52.10351 | 16.14623 | 94° | 55km/h | 17523m | 3.3m/s | -55.9°C | 1.6% | 85.5hPa | 2.6V | 00:00:00 | 00:00:00 | 00:00:00 | |
| SONDE2-11 | 2026-09-04 17:53:43 | 52.10352 | 16.14554 | 89° | 58km/h | 17511m | 3.3m/s | -56.1°C | 1.6% | 85.7hPa | 2.6V | 00:00:00 | 00:00:00 | 00:00:00 | |
| DM0DOS-11 | 2026-09-04 17:53:42 | 52.10352 | 16.14506 | 90° | 57km/h | 17502m | 4.6m/s | -56.2°C | 4.9% | 85.8hPa | 2.6V | 08:30:00 | 01:36:15 | 00:00:00 | |
| S3001 | 2026-09-04 17:53:42 | 52.10352 | 16.14554 | 89° | 58km/h | 17511m | 3.3m/s | -56.1°C | 1.6% | 85.7hPa | 2.6V | 00:00:00 | 00:00:00 | 00:00:00 | |
| DB0DAN | 2026-09-04 17:53:40 | 52.10352 | 16.14506 | 90° | 55km/h | 17502m | 4.6m/s | -56.2°C | 1.6% | 85.85hPa | 2.6V | 00:00:00 | 00:00:00 | 00:00:00 | |
| POL2MAQ | 2026-09-04 17:53:38 | 52.10352 | 16.14482 | 92° | 58km/h | 17498m | 4.0m/s | -56.2°C | 1.6% | 85.9hPa | 2.7V | 00:00:00 | 00:00:00 | 00:00:00 | |
| OE3JTB-15 | 2026-09-04 17:53:37 | 52.10353 | 16.14433 | 92° | 62km/h | 17489m | 3.9m/s | -56.1°C | 4.9% | 86.0hPa | 2.7V | 00:00:00 | 01:36:12 | 00:00:00 | |
| EDDB2-12 | 2026-09-04 17:53:34 | 52.10356 | 16.14354 | 97° | 64km/h | 17476m | 3.7m/s | -56.1°C | 1.7% | 86.2hPa | 2.7V | 00:00:00 | 00:00:00 | 00:00:00 | |
| DM0DOS-11 | 2026-09-04 17:53:32 | 52.10364 | 16.14249 | 97° | 60km/h | 17457m | 3.9m/s | -56.1°C | 5% | 86.5hPa | 2.7V | 08:30:00 | 01:36:05 | 00:00:00 | |
| 3Z3Z-3 | 2026-09-04 17:53:28 | 52.10366 | 16.14225 | 97° | 58km/h | 17453m | 4.2m/s | 0°C | 0% | 86.5hPa | 2.6V | 00:00:00 | 00:00:00 | 00:00:00 | |
| KRY50SP-1 | 2026-09-04 17:53:27 | 52.10367 | 16.14201 | 93° | 60km/h | 17449m | 4.8m/s | -56.2°C | 1.7% | 86.6hPa | 2.6V | 00:00:00 | 00:00:00 | 00:00:00 | |
| SP6BVK | 2026-09-04 17:53:25 | 52.10367 | 16.14128 | 91° | 57km/h | 17435m | 5.1m/s | -56.2°C | 1.7% | 86.7hPa | 2.6V | 00:00:00 | 00:00:00 | 00:00:00 | |
| 13BRC | 2026-09-04 17:53:24 | 52.10367 | 16.14128 | 91° | 57km/h | 17435m | 5.1m/s | -56.2°C | 1.7% | 86.7hPa | 2.6V | 00:00:00 | 00:00:00 | 00:00:00 | |
| DM0DOS-11 | 2026-09-04 17:53:22 | 52.10368 | 16.14008 | 89° | 58km/h | 17414m | 4.9m/s | -56.3°C | 5% | 87hPa | 2.6V | 08:30:00 | 01:35:55 | 00:00:00 | |
| KRY50SP-1 | 2026-09-04 17:53:21 | 52.10368 | 16.14057 | 92° | 60km/h | 17422m | 4.2m/s | -56.2°C | 1.7% | 86.9hPa | 2.7V | 00:00:00 | 00:00:00 | 00:00:00 | |
| 3Z3Z-3 | 2026-09-04 17:53:18 | 52.10368 | 16.13984 | 91° | 58km/h | 17409m | 5.0m/s | 0°C | 0% | 87.1hPa | 2.7V | 00:00:00 | 00:00:00 | 00:00:00 | |
| SP3BTT-10 | 2026-09-04 17:53:17 | 52.10369 | 16.13937 | 93° | 53km/h | 17399m | 4.7m/s | -56.3°C | 5.0% | 87.2hPa | 2.7V | 00:00:00 | 00:00:00 | 00:00:00 | |
| KRY50SP-1 | 2026-09-04 17:53:16 | 52.10369 | 16.13937 | 94° | 58km/h | 17399m | 4.8m/s | -56.3°C | 1.7% | 87.3hPa | 2.7V | 00:00:00 | 00:00:00 | 00:00:00 | |
| DM0DOS-11 | 2026-09-04 17:53:12 | 52.10363 | 16.13767 | 81° | 62km/h | 17368m | 3.9m/s | -56.1°C | 5% | 87.7hPa | 2.7V | 08:30:00 | 01:35:45 | 00:00:00 | |
| AA1-15 | 2026-09-04 17:53:11 | 52.10365 | 16.13792 | 83° | 62km/h | 17372m | 3.6m/s | -56.1°C | 1.4% | 87.6hPa | 2.6V | 18:12:15 | 01:35:46 | 00:00:00 | |
| DB0DAN | 2026-09-04 17:53:10 | 52.10363 | 16.13767 | 81° | 58km/h | 17368m | 3.9m/s | -56.1°C | 1.7% | 87.68hPa | 2.7V | 00:00:00 | 00:00:00 | 00:00:00 | |
| 3Z3Z-3 | 2026-09-04 17:53:08 | 52.10360 | 16.13742 | 79° | 60km/h | 17364m | 4.6m/s | 0°C | 0% | 0hPa | 2.6V | 00:00:00 | 00:00:00 | 00:00:00 | |
| KRY50SP-1 | 2026-09-04 17:53:05 | 52.10349 | 16.13675 | 74° | 55km/h | 17351m | 4.5m/s | -56.0°C | 1.7% | 87.9hPa | 2.6V | 00:00:00 | 00:00:00 | 00:00:00 | |
| 13BRC | 2026-09-04 17:53:04 | 52.10345 | 16.13653 | 77° | 57km/h | 17346m | 5.1m/s | -55.9°C | 1.7% | 87.9hPa | 2.6V | 00:00:00 | 00:00:00 | 00:00:00 | |
| EDDB2-12 | 2026-09-04 17:53:03 | 52.10340 | 16.13608 | 82° | 55km/h | 17337m | 4.2m/s | -55.9°C | 1.7% | 88.1hPa | 2.6V | 00:00:00 | 00:00:00 | 00:00:00 | |
| DM0DOS-11 | 2026-09-04 17:53:02 | 52.10334 | 16.13540 | 81° | 55km/h | 17324m | 3.9m/s | -55.9°C | 5.1% | 88.3hPa | 2.6V | 08:30:00 | 01:35:35 | 00:00:00 | |
| AA1-15 | 2026-09-04 17:53:00 | 52.10334 | 16.13540 | 81° | 55km/h | 17324m | 3.9m/s | -55.9°C | 1.4% | 88.3hPa | 2.6V | 18:12:15 | 01:35:35 | 00:00:00 | |
| SP3WXH-11 | 2026-09-04 17:52:54 | 52.10313 | 16.13385 | 73° | 58km/h | 17295m | 4.4m/s | -55.7°C | 1.6% | 88.7hPa | 2.7V | 00:00:00 | 00:00:00 | 00:00:00 | |
| DM0DOS-11 | 2026-09-04 17:52:52 | 52.10302 | 16.13315 | 75° | 57km/h | 17283m | 4.6m/s | -55.5°C | 4.9% | 88.8hPa | 2.7V | 08:30:00 | 01:35:25 | 00:00:00 | |
| AA1-15 | 2026-09-04 17:52:50 | 52.10302 | 16.13315 | 76° | 57km/h | 17283m | 4.6m/s | -55.5°C | 1.3% | 88.8hPa | 2.7V | 18:12:15 | 01:35:25 | 00:00:00 | |
| SONCRA | 2026-09-04 17:52:46 | 52.10292 | 16.13207 | 82° | 51km/h | 17262m | 4.8m/s | -55.3°C | 1.6% | 89.1hPa | 2.6V | 00:00:00 | 00:00:00 | 00:00:00 | |
| KRY50SP-1 | 2026-09-04 17:52:44 | 52.10290 | 16.13186 | 80° | 49km/h | 17257m | 4.4m/s | -55.3°C | 1.6% | 89.2hPa | 2.6V | 00:00:00 | 00:00:00 | 00:00:00 | |
| 13BRC | 2026-09-04 17:52:43 | 52.10290 | 16.13186 | 80° | 49km/h | 17257m | 4.4m/s | -55.3°C | 1.6% | 89.2hPa | 2.6V | 00:00:00 | 00:00:00 | 00:00:00 | |
| DM0DOS-11 | 2026-09-04 17:52:42 | 52.10279 | 16.13111 | 74° | 46km/h | 17240m | 3.7m/s | -55.5°C | 0% | 89.4hPa | 2.6V | 08:30:00 | 01:35:15 | 00:00:00 | |
| AA1-15 | 2026-09-04 17:52:39 | 52.10275 | 16.13094 | 71° | 44km/h | 17236m | 4.9m/s | -55.5°C | 1.4% | 89.5hPa | 2.6V | 18:12:15 | 01:35:14 | 00:00:00 | |
| KRY50SP-1 | 2026-09-04 17:52:37 | 52.10271 | 16.13077 | 70° | 44km/h | 17232m | 3.0m/s | -55.5°C | 1.6% | 89.6hPa | 2.7V | 00:00:00 | 00:00:00 | 00:00:00 | |
| 3Z3Z-3 | 2026-09-04 17:52:36 | 52.10268 | 16.13059 | 72° | 46km/h | 17229m | 4.5m/s | 0°C | 0% | 0hPa | 2.7V | 00:00:00 | 00:00:00 | 00:00:00 | |
| POL2MAQ | 2026-09-04 17:52:34 | 52.10261 | 16.13021 | 81° | 53km/h | 17218m | 4.4m/s | -55.5°C | 1.7% | 89.8hPa | 2.7V | 00:00:00 | 00:00:00 | 00:00:00 | |
| DM0DOS-11 | 2026-09-04 17:52:32 | 52.10253 | 16.12916 | 87° | 40km/h | 17193m | 4.9m/s | -55.4°C | 0% | 90.1hPa | 2.7V | 00:00:00 | 01:35:05 | 00:00:00 | |
| AA1-15 | 2026-09-04 17:52:28 | 52.10252 | 16.12887 | 82° | 31km/h | 17183m | 5.3m/s | -55.4°C | 1.3% | 90.2hPa | 2.6V | 18:12:15 | 01:35:03 | 00:00:00 | |
| AA1-15 | 2026-09-04 17:52:17 | 52.10230 | 16.12729 | 89° | 42km/h | 17140m | 4.5m/s | -55.2°C | 1.4% | 90.9hPa | 2.7V | 18:12:15 | 01:34:52 | 00:00:00 | |
| SONCRA | 2026-09-04 17:52:15 | 52.10229 | 16.12679 | 91° | 38km/h | 17128m | 4.8m/s | -55.1°C | 1.7% | 91.0hPa | 2.7V | 00:00:00 | 00:00:00 | 00:00:00 | |
| POL2MAQ | 2026-09-04 17:52:13 | 52.10229 | 16.12679 | 92° | 38km/h | 17128m | 4.8m/s | -55.1°C | 1.7% | 91.0hPa | 2.7V | 00:00:00 | 00:00:00 | 00:00:00 | |
| 3Z3Z-3 | 2026-09-04 17:52:11 | 52.10230 | 16.12649 | 98° | 37km/h | 17119m | 3.6m/s | 0°C | 0% | 0hPa | 2.7V | 00:00:00 | 00:00:00 | 00:00:00 | |
| SONDE2-11 | 2026-09-04 17:52:10 | 52.10231 | 16.12605 | 84° | 37km/h | 17107m | 3.2m/s | -55.0°C | 1.7% | 91.3hPa | 2.7V | 00:00:00 | 00:00:00 | 00:00:00 | |
| S3001 | 2026-09-04 17:52:09 | 52.10231 | 16.12605 | 84° | 37km/h | 17107m | 3.2m/s | -55.0°C | 1.7% | 91.3hPa | 2.7V | 00:00:00 | 00:00:00 | 00:00:00 | |
| KRY50SP-1 | 2026-09-04 17:52:05 | 52.10228 | 16.12557 | 87° | 40km/h | 17095m | 3.1m/s | -54.9°C | 1.7% | 91.5hPa | 2.7V | 00:00:00 | 00:00:00 | 00:00:00 | |
| 13BRC | 2026-09-04 17:52:02 | 52.10225 | 16.12506 | 82° | 42km/h | 17084m | 3.2m/s | -54.8°C | 1.8% | 91.7hPa | 2.7V | 00:00:00 | 00:00:00 | 00:00:00 | |
| DM0DOS-11 | 2026-09-04 17:52:01 | 52.10230 | 16.12393 | 97° | 35km/h | 17053m | 4.5m/s | -54.8°C | 0% | 92.1hPa | 2.7V | 00:00:00 | 01:34:31 | 00:00:00 | |
| 3Z3Z-3 | 2026-09-04 17:52:00 | 52.10223 | 16.12473 | 92° | 40km/h | 17075m | 4.8m/s | 0°C | 0% | 0hPa | 2.6V | 00:00:00 | 00:00:00 | 00:00:00 | |
| DL2RXE-15 | 2026-09-04 17:51:59 | 52.10223 | 16.12456 | 98° | 40km/h | 17070m | 4.5m/s | -54.8°C | 1.7% | 91.9hPa | 2.6V | 00:00:00 | 00:00:00 | 00:00:00 | |
| KRY50SP-1 | 2026-09-04 17:51:54 | 52.10231 | 16.12380 | 91° | 33km/h | 17049m | 2.4m/s | -54.8°C | 1.7% | 92.1hPa | 2.6V | 00:00:00 | 00:00:00 | 00:00:00 | |
| POL2MAQ | 2026-09-04 17:51:52 | 52.10229 | 16.12351 | 84° | 37km/h | 17042m | 4.8m/s | -54.8°C | 1.7% | 92.3hPa | 2.6V | 00:00:00 | 00:00:00 | 00:00:00 | |
| DM0DOS-11 | 2026-09-04 17:51:51 | 52.10234 | 16.12232 | 99° | 38km/h | 17012m | 3.5m/s | 0°C | 0% | 0hPa | 2.6V | 00:00:00 | 01:34:21 | 00:00:00 | |
| AA1-15 | 2026-09-04 17:51:50 | 52.10228 | 16.12300 | 93° | 44km/h | 17030m | 4.7m/s | -54.8°C | 1.5% | 92.4hPa | 2.7V | 18:12:15 | 01:34:25 | 00:00:00 | |
| AA1-15 | 2026-09-04 17:51:36 | 52.10250 | 16.12078 | 105° | 49km/h | 16966m | 4.7m/s | -55.1°C | 1.6% | 93.4hPa | 2.7V | 18:12:15 | 01:34:11 | 00:00:00 | |
| DM0DOS-11 | 2026-09-04 17:51:35 | 52.10256 | 16.12037 | 102° | 53km/h | 16957m | 5.1m/s | 0°C | 0% | 0hPa | 2.6V | 00:00:00 | 01:34:09 | 00:00:00 | |
| POL2MAQ | 2026-09-04 17:51:32 | 52.10259 | 16.12017 | 102° | 51km/h | 16952m | 4.9m/s | -55.2°C | 1.8% | 93.6hPa | 2.6V | 00:00:00 | 00:00:00 | 00:00:00 | |
| KRY50SP-1 | 2026-09-04 17:51:31 | 52.10262 | 16.11997 | 105° | 49km/h | 16947m | 5.8m/s | -55.3°C | 1.8% | 93.7hPa | 2.6V | 00:00:00 | 00:00:00 | 00:00:00 | |
| EDDB2-12 | 2026-09-04 17:51:30 | 52.10268 | 16.11959 | 108° | 46km/h | 16935m | 5.1m/s | -55.3°C | 1.7% | 93.8hPa | 2.6V | 00:00:00 | 00:00:00 | 00:00:00 | |
| DM0DOS-11 | 2026-09-04 17:51:29 | 52.10291 | 16.11851 | 109° | 49km/h | 16910m | 4.4m/s | 0°C | 0% | 0hPa | 2.6V | 00:00:00 | 01:33:59 | 00:00:00 | |
| DB0DAN | 2026-09-04 17:51:25 | 52.10287 | 16.11869 | 111° | 46km/h | 16914m | 3.3m/s | -55.5°C | 1.8% | 94.16hPa | 2.7V | 00:00:00 | 00:00:00 | 00:00:00 | |
| AA1-15 | 2026-09-04 17:51:23 | 52.10295 | 16.11831 | 107° | 51km/h | 16906m | 3.8m/s | -55.7°C | 1.5% | 94.3hPa | 2.6V | 18:12:15 | 01:33:58 | 00:00:00 | |
| 13BRC | 2026-09-04 17:51:21 | 52.10299 | 16.11811 | 108° | 53km/h | 16902m | 3.7m/s | -55.7°C | 1.8% | 94.3hPa | 2.6V | 00:00:00 | 00:00:00 | 00:00:00 | |
| 3Z3Z-3 | 2026-09-04 17:51:20 | 52.10303 | 16.11790 | 110° | 53km/h | 16898m | 4.4m/s | 0°C | 0% | 0hPa | 2.6V | 00:00:00 | 00:00:00 | 00:00:00 | |
| SP6BVK | 2026-09-04 17:51:19 | 52.10307 | 16.11770 | 112° | 53km/h | 16894m | 3.6m/s | -55.7°C | 1.8% | 94.4hPa | 2.6V | 00:00:00 | 00:00:00 | 00:00:00 | |
| DM0DOS-11 | 2026-09-04 17:51:14 | 52.10334 | 16.11640 | 107° | 60km/h | 16869m | 3.8m/s | 0°C | 0% | 0hPa | 2.6V | 00:00:00 | 01:33:49 | 00:00:00 | |
| AA1-15 | 2026-09-04 17:51:12 | 52.10341 | 16.11593 | 101° | 58km/h | 16861m | 5m/s | -55.8°C | 1.5% | 94.9hPa | 2.7V | 18:12:15 | 01:33:47 | 00:00:00 | |
| POL2MAQ | 2026-09-04 17:51:11 | 52.10341 | 16.11593 | 102° | 58km/h | 16862m | 5.0m/s | -55.8°C | 1.8% | 94.9hPa | 2.6V | 00:00:00 | 00:00:00 | 00:00:00 | |
| DB0DAN | 2026-09-04 17:51:10 | 52.10346 | 16.11546 | 99° | 55km/h | 16852m | 5m/s | -55.8°C | 1.8% | 95.04hPa | 2.6V | 00:00:00 | 00:00:00 | 00:00:00 | |
| AA1-15 | 2026-09-04 17:51:01 | 52.10372 | 16.11341 | 98° | 60km/h | 16815m | 3.5m/s | -56.1°C | 1.6% | 95.6hPa | 2.7V | 18:12:15 | 01:33:36 | 00:00:00 | |
| EDDB2-12 | 2026-09-04 17:50:59 | 52.10376 | 16.11289 | 97° | 66km/h | 16806m | 4.7m/s | -56.0°C | 1.8% | 95.8hPa | 2.7V | 00:00:00 | 00:00:00 | 00:00:00 | |
| SP6BVK | 2026-09-04 17:50:58 | 52.10376 | 16.11289 | 99° | 66km/h | 16807m | 4.7m/s | -56.0°C | 1.8% | 95.7hPa | 2.7V | 00:00:00 | 00:00:00 | 00:00:00 | |
| DB0DAN | 2026-09-04 17:50:55 | 52.10384 | 16.11179 | 94° | 62km/h | 16790m | 3.3m/s | -56.2°C | 1.8% | 95.97hPa | 2.7V | 00:00:00 | 00:00:00 | 00:00:00 | |
| AA1-15 | 2026-09-04 17:50:48 | 52.10390 | 16.11007 | 91° | 58km/h | 16762m | 4.4m/s | -56.7°C | 1.7% | 96.4hPa | 2.6V | 18:12:15 | 01:33:23 | 00:00:00 | |
| KRY50SP-1 | 2026-09-04 17:50:47 | 52.10390 | 16.11007 | 92° | 58km/h | 16762m | 4.4m/s | -56.7°C | 1.9% | 96.4hPa | 2.6V | 00:00:00 | 00:00:00 | 00:00:00 | |
| DAC517 | 2026-09-04 17:50:46 | 52.10390 | 16.10983 | 93° | 60km/h | 16758m | 3.4m/s | -56.7°C | 1.9% | 96.5hPa | 2.6V | 00:00:00 | 00:00:00 | 00:00:00 | |
| KRY50SP-1 | 2026-09-04 17:50:42 | 52.10392 | 16.10879 | 93° | 69km/h | 16740m | 3.5m/s | -56.6°C | 1.9% | 96.8hPa | 2.6V | 00:00:00 | 00:00:00 | 00:00:00 | |
| DB0DAN | 2026-09-04 17:50:40 | 52.10392 | 16.10794 | 90° | 64km/h | 16727m | 4m/s | -56.5°C | 1.9% | 96.95hPa | 2.6V | 00:00:00 | 00:00:00 | 00:00:00 | |
| AA1-15 | 2026-09-04 17:50:38 | 52.10392 | 16.10739 | 89° | 66km/h | 16719m | 3.8m/s | -56.4°C | 1.6% | 97.1hPa | 2.7V | 18:12:15 | 01:33:13 | 00:00:00 | |
| AA1-15 | 2026-09-04 17:50:28 | 52.10383 | 16.10484 | 93° | 66km/h | 16677m | 5.3m/s | -56.3°C | 1.6% | 97.7hPa | 2.6V | 18:12:15 | 01:33:03 | 00:00:00 | |
| DB0DAN | 2026-09-04 17:50:25 | 52.10386 | 16.10403 | 91° | 62km/h | 16664m | 5m/s | -56.3°C | 1.8% | 97.89hPa | 2.6V | 00:00:00 | 00:00:00 | 00:00:00 | |
| AA1-15 | 2026-09-04 17:50:17 | 52.10380 | 16.10196 | 94° | 69km/h | 16629m | 4.4m/s | -56.5°C | 1.7% | 98.5hPa | 2.6V | 18:12:15 | 01:32:52 | 00:00:00 | |
| SP3BTT-10 | 2026-09-04 17:50:17 | 52.10380 | 16.10196 | 95° | 64km/h | 16629m | 4.3m/s | -56.5°C | 5.3% | 98.4hPa | 2.6V | 00:00:00 | 00:00:00 | 08:30:00 | |
| KRY50SP-1 | 2026-09-04 17:50:15 | 52.10381 | 16.10167 | 97° | 71km/h | 16626m | 3.5m/s | -56.6°C | 1.9% | 98.5hPa | 2.6V | 00:00:00 | 00:00:00 | 00:00:00 | |
| 3Z3Z-3 | 2026-09-04 17:50:12 | 52.10388 | 16.10084 | 98° | 66km/h | 16613m | 3.6m/s | 0°C | 0% | 0hPa | 2.6V | 00:00:00 | 00:00:00 | 00:00:00 | |
| DB0DAN | 2026-09-04 17:50:10 | 52.10392 | 16.10004 | 92° | 60km/h | 16601m | 4.2m/s | -56.6°C | 1.9% | 98.91hPa | 2.6V | 00:00:00 | 00:00:00 | 00:00:00 | |
| AA1-15 | 2026-09-04 17:50:06 | 52.10394 | 16.09904 | 92° | 60km/h | 16583m | 4.7m/s | -56.6°C | 1.7% | 99.2hPa | 2.6V | 18:12:15 | 01:32:41 | 00:00:00 | |
| AA1-15 | 2026-09-04 17:49:55 | 52.10401 | 16.09617 | 94° | 68km/h | 16534m | 4.1m/s | -56.4°C | 1.7% | 99.9hPa | 2.6V | 18:12:15 | 01:32:30 | 00:00:00 | |
| DB0DAN | 2026-09-04 17:49:55 | 52.10401 | 16.09617 | 93° | 64km/h | 16534m | 4.1m/s | -56.4°C | 1.9% | 99.92hPa | 2.6V | 00:00:00 | 00:00:00 | 00:00:00 | |
| AA1-15 | 2026-09-04 17:49:45 | 52.10412 | 16.09360 | 90° | 58km/h | 16491m | 3.6m/s | -56.3°C | 1.7% | 100.6hPa | 2.7V | 18:12:15 | 01:32:20 | 00:00:00 | |
| DB0DAN | 2026-09-04 17:49:40 | 52.10415 | 16.09238 | 93° | 58km/h | 16469m | 4.7m/s | -56.2°C | 1.9% | 100.98hPa | 2.7V | 00:00:00 | 00:00:00 | 00:00:00 | |
| AA1-15 | 2026-09-04 17:49:34 | 52.10427 | 16.09078 | 100° | 68km/h | 16442m | 4.7m/s | -56°C | 1.7% | 101.4hPa | 2.6V | 18:12:15 | 01:32:09 | 00:00:00 | |
| S3001 | 2026-09-04 17:49:34 | 52.10430 | 16.09050 | 99° | 66km/h | 16438m | 3.6m/s | -55.9°C | 1.9% | 101.4hPa | 2.7V | 00:00:00 | 00:00:00 | 00:00:00 | |
| SP3BTT-10 | 2026-09-04 17:49:33 | 52.10430 | 16.09050 | 100° | 69km/h | 16438m | 3.5m/s | -55.9°C | 5.2% | 101.4hPa | 2.7V | 00:00:00 | 00:00:00 | 00:00:00 | |
| KRY50SP-1 | 2026-09-04 17:49:30 | 52.10436 | 16.08968 | 97° | 68km/h | 16426m | 3.9m/s | -55.8°C | 1.9% | 101.6hPa | 2.7V | 00:00:00 | 00:00:00 | 00:00:00 | |
| POL2MAQ | 2026-09-04 17:49:27 | 52.10440 | 16.08912 | 99° | 69km/h | 16416m | 5.5m/s | -55.8°C | 1.9% | 101.8hPa | 2.7V | 00:00:00 | 00:00:00 | 00:00:00 | |
| DB0DAN | 2026-09-04 17:49:25 | 52.10447 | 16.08828 | 97° | 66km/h | 16402m | 4.1m/s | -55.7°C | 1.9% | 102.04hPa | 2.7V | 00:00:00 | 00:00:00 | 00:00:00 | |
| AA1-15 | 2026-09-04 17:49:23 | 52.10453 | 16.08772 | 101° | 68km/h | 16393m | 3.5m/s | -55.6°C | 1.6% | 102.2hPa | 2.7V | 18:12:15 | 01:31:58 | 00:00:00 | |
| AA1-15 | 2026-09-04 17:49:11 | 52.10488 | 16.08430 | 98° | 69km/h | 16339m | 4.7m/s | -55.5°C | 1.6% | 103hPa | 2.6V | 18:12:15 | 01:31:46 | 00:00:00 | |
| DB0DAN | 2026-09-04 17:49:10 | 52.10491 | 16.08402 | 99° | 66km/h | 16334m | 4.3m/s | -55.6°C | 1.9% | 103.1hPa | 2.6V | 00:00:00 | 00:00:00 | 00:00:00 | |
| AA1-15 | 2026-09-04 17:48:59 | 52.10528 | 16.08094 | 100° | 69km/h | 16289m | 3.4m/s | -55.5°C | 1.7% | 103.8hPa | 2.6V | 18:12:15 | 01:31:34 | 00:00:00 | |
| KRY50SP-1 | 2026-09-04 17:48:57 | 52.10530 | 16.08066 | 98° | 71km/h | 16285m | 5.2m/s | -55.4°C | 1.9% | 103.9hPa | 2.6V | 00:00:00 | 00:00:00 | 00:00:00 | |
| DB0DAN | 2026-09-04 17:48:55 | 52.10537 | 16.07975 | 98° | 71km/h | 16271m | 3.6m/s | -55.4°C | 2% | 104.15hPa | 2.6V | 00:00:00 | 00:00:00 | 00:00:00 | |
| AA1-15 | 2026-09-04 17:48:48 | 52.10553 | 16.07778 | 99° | 60km/h | 16244m | 2.6m/s | -55.4°C | 1.8% | 104.6hPa | 2.6V | 18:12:15 | 01:31:23 | 00:00:00 | |
| SP3WXH-11 | 2026-09-04 17:48:45 | 52.10558 | 16.07701 | 95° | 66km/h | 16232m | 5.2m/s | -55.3°C | 2.0% | 104.8hPa | 2.6V | 00:00:00 | 00:00:00 | 00:00:00 | |
| AA1-15 | 2026-09-04 17:48:33 | 52.10579 | 16.07360 | 93° | 60km/h | 16181m | 3.9m/s | -55.1°C | 1.9% | 105.6hPa | 2.6V | 18:12:15 | 01:31:08 | 00:00:00 | |
| EDDB2-11 | 2026-09-04 17:48:33 | 52.10579 | 16.07336 | 90° | 58km/h | 16177m | 4.6m/s | -55.0°C | 2.0% | 105.7hPa | 2.7V | 00:00:00 | 00:00:00 | 00:00:00 | |
| S3001 | 2026-09-04 17:48:32 | 52.10579 | 16.07311 | 88° | 58km/h | 16172m | 4.1m/s | -55.0°C | 2.0% | 105.8hPa | 2.7V | 00:00:00 | 00:00:00 | 00:00:00 | |
| DL2RXE-15 | 2026-09-04 17:48:28 | 52.10579 | 16.07235 | 93° | 64km/h | 16160m | 3.1m/s | -54.9°C | 2.0% | 106.0hPa | 2.7V | 00:00:00 | 00:00:00 | 00:00:00 | |
| DB0DAN | 2026-09-04 17:48:25 | 52.10582 | 16.07155 | 96° | 62km/h | 16148m | 4.9m/s | -54.9°C | 2% | 106.17hPa | 2.7V | 00:00:00 | 00:00:00 | 00:00:00 | |
| AA1-15 | 2026-09-04 17:48:23 | 52.10585 | 16.07102 | 97° | 64km/h | 16140m | 3.3m/s | -54.8°C | 1.9% | 106.3hPa | 2.6V | 18:12:15 | 01:30:58 | 00:00:00 | |
| KRY50SP-1 | 2026-09-04 17:48:22 | 52.10585 | 16.07102 | 97° | 64km/h | 16140m | 3.3m/s | -54.8°C | 2.0% | 106.3hPa | 2.7V | 00:00:00 | 00:00:00 | 00:00:00 | |
| KRY50SP-1 | 2026-09-04 17:48:16 | 52.10585 | 16.06957 | 86° | 58km/h | 16115m | 4.5m/s | -54.7°C | 1.9% | 106.7hPa | 2.7V | 00:00:00 | 00:00:00 | 00:00:00 | |
| 3Z3Z-3 | 2026-09-04 17:48:15 | 52.10583 | 16.06934 | 85° | 58km/h | 16111m | 4.2m/s | 0°C | 0% | 0hPa | 2.7V | 00:00:00 | 00:00:00 | 00:00:00 | |
| SP3WXH-11 | 2026-09-04 17:48:14 | 52.10582 | 16.06885 | 90° | 60km/h | 16101m | 3.9m/s | -54.7°C | 2.0% | 107.0hPa | 2.7V | 00:00:00 | 00:00:00 | 00:00:00 | |
| SP6BVK | 2026-09-04 17:48:13 | 52.10582 | 16.06884 | 91° | 60km/h | 16101m | 3.9m/s | -54.7°C | 2.0% | 107.0hPa | 2.7V | 00:00:00 | 00:00:00 | 00:00:00 | |
| KRY50SP-1 | 2026-09-04 17:48:11 | 52.10583 | 16.06833 | 94° | 64km/h | 16093m | 4.7m/s | -54.6°C | 2.0% | 107.1hPa | 2.7V | 00:00:00 | 00:00:00 | 00:00:00 | |
| DB0DAN | 2026-09-04 17:48:10 | 52.10584 | 16.06783 | 93° | 57km/h | 16085m | 3.9m/s | -54.6°C | 2% | 107.26hPa | 2.7V | 00:00:00 | 00:00:00 | 00:00:00 | |
| AA1-15 | 2026-09-04 17:48:03 | 52.10583 | 16.06635 | 78° | 55km/h | 16058m | 3.9m/s | -54.5°C | 1.5% | 107.7hPa | 2.6V | 18:12:15 | 01:30:38 | 00:00:00 | |
| AA1-15 | 2026-09-04 17:47:52 | 52.10586 | 16.06377 | 96° | 57km/h | 16011m | 5.1m/s | -54.6°C | 1.6% | 108.5hPa | 2.6V | 18:12:15 | 01:30:27 | 00:00:00 | |
| KRY50SP-1 | 2026-09-04 17:47:48 | 52.10589 | 16.06302 | 93° | 66km/h | 15999m | 4.4m/s | -54.6°C | 1.9% | 108.7hPa | 2.7V | 00:00:00 | 00:00:00 | 00:00:00 | |
| POL2MAQ | 2026-09-04 17:47:44 | 52.10592 | 16.06196 | 94° | 62km/h | 15983m | 4.0m/s | -54.6°C | 1.8% | 109.0hPa | 2.7V | 00:00:00 | 00:00:00 | 00:00:00 | |
| SP3WXH-11 | 2026-09-04 17:47:43 | 52.10594 | 16.06146 | 94° | 60km/h | 15975m | 3.2m/s | -54.7°C | 1.8% | 109.1hPa | 2.7V | 00:00:00 | 00:00:00 | 00:00:00 | |
| KRY50SP-1 | 2026-09-04 17:47:37 | 52.10603 | 16.06029 | 99° | 58km/h | 15955m | 4.7m/s | -54.7°C | 1.8% | 109.4hPa | 2.7V | 00:00:00 | 00:00:00 | 00:00:00 | |
| SONCRA | 2026-09-04 17:47:35 | 52.10610 | 16.05953 | 100° | 62km/h | 15943m | 4.5m/s | -54.6°C | -1.0% | -1.0hPa | 2.7V | 00:00:00 | 00:00:00 | 00:00:00 | |
| 13BRC | 2026-09-04 17:47:33 | 52.10613 | 16.05927 | 101° | 64km/h | 15938m | 5.1m/s | -54.6°C | 1.8% | 109.7hPa | 2.7V | 00:00:00 | 00:00:00 | 00:00:00 | |
| KRY50SP-1 | 2026-09-04 17:47:31 | 52.10619 | 16.05875 | 101° | 64km/h | 15929m | 3.6m/s | -54.6°C | 1.8% | 109.9hPa | 2.7V | 00:00:00 | 00:00:00 | 00:00:00 | |
| S3001 | 2026-09-04 17:47:30 | 52.10631 | 16.05797 | 106° | 66km/h | 15917m | 4.1m/s | -54.5°C | 1.9% | 110.0hPa | 2.7V | 00:00:00 | 00:00:00 | 00:00:00 | |
| 3Z3Z-3 | 2026-09-04 17:47:27 | 52.10635 | 16.05771 | 107° | 68km/h | 15913m | 4.4m/s | 0°C | 0% | 0hPa | 2.7V | 00:00:00 | 00:00:00 | 00:00:00 | |
| KRY50SP-1 | 2026-09-04 17:47:25 | 52.10645 | 16.05717 | 107° | 68km/h | 15906m | 4.2m/s | -54.5°C | 1.8% | 110.3hPa | 2.7V | 00:00:00 | 00:00:00 | 00:00:00 | |
| POL2MAQ | 2026-09-04 17:47:24 | 52.10649 | 16.05691 | 108° | 68km/h | 15902m | 3.7m/s | -54.5°C | 1.9% | 110.3hPa | 2.7V | 00:00:00 | 00:00:00 | 00:00:00 | |
| EDDB2-12 | 2026-09-04 17:47:22 | 52.10664 | 16.05608 | 103° | 73km/h | 15890m | 3.7m/s | -54.5°C | 1.8% | 110.5hPa | 2.7V | 00:00:00 | 00:00:00 | 00:00:00 | |
| KRY50SP-1 | 2026-09-04 17:47:19 | 52.10671 | 16.05549 | 100° | 71km/h | 15883m | 4.5m/s | -54.5°C | 1.9% | 110.6hPa | 2.7V | 00:00:00 | 00:00:00 | 00:00:00 | |
| SP3BTT-10 | 2026-09-04 17:47:18 | 52.10675 | 16.05493 | 98° | 82km/h | 15875m | 3.5m/s | -54.5°C | 4.9% | 110.7hPa | 2.7V | 00:00:00 | 00:00:00 | 00:00:00 | |
| 3Z3Z-3 | 2026-09-04 17:47:15 | 52.10682 | 16.05439 | 103° | 66km/h | 15867m | 4.1m/s | 0°C | 0% | 0hPa | 2.7V | 00:00:00 | 00:00:00 | 00:00:00 | |
| KRY50SP-1 | 2026-09-04 17:47:13 | 52.10690 | 16.05385 | 106° | 69km/h | 15859m | 4.3m/s | -54.5°C | 1.9% | 111.1hPa | 2.7V | 00:00:00 | 00:00:00 | 00:00:00 | |
| SP3WXH-11 | 2026-09-04 17:47:12 | 52.10699 | 16.05328 | 105° | 73km/h | 15851m | 3.0m/s | -54.5°C | 1.8% | 111.2hPa | 2.7V | 00:00:00 | 00:00:00 | 00:00:00 | |
| SP6BVK | 2026-09-04 17:47:10 | 52.10703 | 16.05299 | 107° | 73km/h | 15847m | 4.7m/s | -54.5°C | 1.8% | 111.3hPa | 2.7V | 00:00:00 | 00:00:00 | 00:00:00 | |
| KRY50SP-1 | 2026-09-04 17:47:07 | 52.10719 | 16.05210 | 105° | 77km/h | 15834m | 3.3m/s | -54.4°C | 1.9% | 111.5hPa | 2.7V | 00:00:00 | 00:00:00 | 00:00:00 | |
| KRY50SP-1 | 2026-09-04 17:47:01 | 52.10748 | 16.05025 | 106° | 80km/h | 15811m | 3.5m/s | -54.4°C | 1.9% | 111.9hPa | 2.7V | 00:00:00 | 00:00:00 | 00:00:00 | |
| EDDB2-11 | 2026-09-04 17:47:00 | 52.10765 | 16.04929 | 104° | 82km/h | 15800m | 4.2m/s | -54.4°C | 1.9% | 112.1hPa | 2.7V | 00:00:00 | 00:00:00 | 00:00:00 | |
| S3001 | 2026-09-04 17:46:59 | 52.10770 | 16.04895 | 103° | 84km/h | 15796m | 4.2m/s | -54.4°C | 1.9% | 112.2hPa | 2.7V | 00:00:00 | 00:00:00 | 00:00:00 | |
| EDDB2-12 | 2026-09-04 17:46:51 | 52.10800 | 16.04672 | 103° | 78km/h | 15769m | 3.5m/s | -54.5°C | 1.9% | 112.6hPa | 2.7V | 00:00:00 | 00:00:00 | 00:00:00 | |
| SP6BVK | 2026-09-04 17:46:49 | 52.10805 | 16.04641 | 104° | 78km/h | 15765m | 4.4m/s | -54.5°C | 1.9% | 112.7hPa | 2.7V | 00:00:00 | 00:00:00 | 00:00:00 | |
| KRY50SP-1 | 2026-09-04 17:46:45 | 52.10825 | 16.04512 | 104° | 86km/h | 15751m | 2.5m/s | -54.6°C | 2.0% | 112.9hPa | 2.7V | 00:00:00 | 00:00:00 | 00:00:00 | |
| POL2MAQ | 2026-09-04 17:46:43 | 52.10834 | 16.04444 | 103° | 84km/h | 15744m | 3.5m/s | -54.7°C | 2.0% | 113.1hPa | 2.7V | 00:00:00 | 00:00:00 | 00:00:00 | |
| DB0DAN | 2026-09-04 17:46:40 | 52.10850 | 16.04306 | 99° | 82km/h | 15729m | 3.3m/s | -54.7°C | 1.9% | 113.3hPa | 2.7V | 00:00:00 | 00:00:00 | 00:00:00 | |
| KRY50SP-1 | 2026-09-04 17:46:39 | 52.10850 | 16.04306 | 100° | 88km/h | 15729m | 3.3m/s | -54.7°C | 1.9% | 113.3hPa | 2.7V | 00:00:00 | 00:00:00 | 00:00:00 | |
| 3Z3Z-3 | 2026-09-04 17:46:37 | 52.10856 | 16.04236 | 98° | 84km/h | 15722m | 3.4m/s | 0°C | 0% | 0hPa | 2.7V | 00:00:00 | 00:00:00 | 00:00:00 | |
| KRY50SP-1 | 2026-09-04 17:46:34 | 52.10866 | 16.04134 | 101° | 88km/h | 15711m | 3.5m/s | -54.8°C | 2.0% | 113.6hPa | 2.7V | 00:00:00 | 00:00:00 | 00:00:00 | |
| SONCRA | 2026-09-04 17:46:33 | 52.10874 | 16.04063 | 101° | 86km/h | 15704m | 4.1m/s | 0°C | -1.0% | -1.0hPa | 2.7V | 00:00:00 | 00:00:00 | 00:00:00 | |
| SP3BTT-10 | 2026-09-04 17:46:32 | 52.10879 | 16.04028 | 103° | 95km/h | 15700m | 3.0m/s | -55.0°C | 5.0% | 113.8hPa | 2.7V | 00:00:00 | 00:00:00 | 00:00:00 | |
| 13BRC | 2026-09-04 17:46:30 | 52.10884 | 16.03994 | 104° | 86km/h | 15697m | 3.3m/s | -55.0°C | 2.0% | 113.9hPa | 2.7V | 00:00:00 | 00:00:00 | 00:00:00 | |
| SP6BVK | 2026-09-04 17:46:29 | 52.10888 | 16.03959 | 104° | 88km/h | 15694m | 3.7m/s | -55.1°C | 2.0% | 114.0hPa | 2.7V | 00:00:00 | 00:00:00 | 00:00:00 | |
| SONDE2-11 | 2026-09-04 17:46:28 | 52.10897 | 16.03889 | 100° | 84km/h | 15687m | 4.0m/s | -55.2°C | 2.0% | 114.0hPa | 2.7V | 00:00:00 | 00:00:00 | 00:00:00 | |
| DB0DAN | 2026-09-04 17:46:25 | 52.10908 | 16.03787 | 101° | 80km/h | 15676m | 3.9m/s | -55.3°C | 2.1% | 114.24hPa | 2.7V | 00:00:00 | 00:00:00 | 00:00:00 | |
| KRY50SP-1 | 2026-09-04 17:46:23 | 52.10912 | 16.03753 | 103° | 84km/h | 15673m | 3.6m/s | -55.3°C | 2.1% | 114.3hPa | 2.7V | 00:00:00 | 00:00:00 | 00:00:00 | |
| POL2MAQ | 2026-09-04 17:46:22 | 52.10917 | 16.03719 | 103° | 86km/h | 15669m | 3.1m/s | -55.4°C | 2.0% | 114.4hPa | 2.7V | 00:00:00 | 00:00:00 | 00:00:00 | |
| DL2RXE-15 | 2026-09-04 17:46:21 | 52.10921 | 16.03684 | 103° | 86km/h | 15666m | 3.8m/s | -55.4°C | 2.1% | 114.4hPa | 2.7V | 00:00:00 | 00:00:00 | 00:00:00 | |
| EDDB2-12 | 2026-09-04 17:46:20 | 52.10930 | 16.03614 | 102° | 86km/h | 15659m | 3.8m/s | -55.5°C | 2.1% | 114.6hPa | 2.7V | 00:00:00 | 00:00:00 | 00:00:00 | |
| KRY50SP-1 | 2026-09-04 17:46:17 | 52.10940 | 16.03544 | 105° | 89km/h | 15652m | 2.8m/s | -55.6°C | 2.1% | 114.7hPa | 2.7V | 00:00:00 | 00:00:00 | 00:00:00 | |
| DB0DAN | 2026-09-04 17:46:10 | 52.10979 | 16.03257 | 102° | 89km/h | 15623m | 2.9m/s | -56.1°C | 2.2% | 115.23hPa | 2.7V | 00:00:00 | 00:00:00 | 00:00:00 | |
| KRY50SP-1 | 2026-09-04 17:45:55 | 52.11046 | 16.02714 | 101° | 100km/h | 15574m | 3.2m/s | -57.0°C | 2.4% | 116.1hPa | 2.7V | 00:00:00 | 00:00:00 | 00:00:00 | |
| EDDB2-12 | 2026-09-04 17:45:49 | 52.11069 | 16.02433 | 94° | 95km/h | 15547m | 4.1m/s | -56.8°C | 2.4% | 116.6hPa | 2.7V | 00:00:00 | 00:00:00 | 00:00:00 | |
| SP6BVK | 2026-09-04 17:45:48 | 52.11069 | 16.02432 | 96° | 97km/h | 15548m | 4.1m/s | -56.8°C | 2.4% | 116.6hPa | 2.7V | 00:00:00 | 00:00:00 | 00:00:00 | |
| AA1-15 | 2026-09-04 17:45:30 | 52.11091 | 16.01663 | 91° | 100km/h | 15473m | 4.2m/s | -56.6°C | 2.3% | 117.9hPa | 2.7V | 18:12:15 | 01:28:05 | 00:00:00 | |
| AA1-15 | 2026-09-04 17:45:13 | 52.11092 | 16.00995 | 90° | 97km/h | 15407m | 4.9m/s | -56.7°C | 2.4% | 119.2hPa | 2.6V | 18:12:15 | 01:27:48 | 00:00:00 | |
| KRY50SP-1 | 2026-09-04 17:45:11 | 52.11092 | 16.00956 | 92° | 97km/h | 15403m | 3.4m/s | -56.7°C | 2.4% | 119.2hPa | 2.7V | 00:00:00 | 00:00:00 | 00:00:00 | |
| SP3WXH-11 | 2026-09-04 17:45:08 | 52.11094 | 16.00802 | 92° | 89km/h | 15388m | 4.3m/s | -56.6°C | 2.4% | 119.5hPa | 2.7V | 00:00:00 | 00:00:00 | 00:00:00 | |
| SP6BVK | 2026-09-04 17:45:07 | 52.11095 | 16.00766 | 93° | 88km/h | 15384m | 4.1m/s | -56.6°C | 2.4% | 119.6hPa | 2.7V | 00:00:00 | 00:00:00 | 00:00:00 | |
| SP3BTT-10 | 2026-09-04 17:45:04 | 52.11097 | 16.00655 | 90° | 86km/h | 15373m | 4.4m/s | -56.5°C | 5.9% | 119.8hPa | 2.7V | 00:00:00 | 00:00:00 | 00:00:00 | |
| KRY50SP-1 | 2026-09-04 17:45:00 | 52.11094 | 16.00541 | 87° | 89km/h | 15361m | 4.3m/s | -56.4°C | 2.4% | 120.1hPa | 2.7V | 00:00:00 | 00:00:00 | 00:00:00 | |
| DB0DAN | 2026-09-04 17:44:55 | 52.11091 | 16.00332 | 94° | 80km/h | 15338m | 3.4m/s | -56.2°C | 2.4% | 120.49hPa | 2.7V | 00:00:00 | 00:00:00 | 00:00:00 | |
| AA1-15 | 2026-09-04 17:44:54 | 52.11092 | 16.00297 | 94° | 88km/h | 15334m | 4.3m/s | -56.2°C | 2.4% | 120.6hPa | 2.7V | 18:12:15 | 01:27:29 | 00:00:00 | |
| EDDB2-12 | 2026-09-04 17:44:47 | 52.11090 | 15.99999 | 88° | 89km/h | 15302m | 4.1m/s | -56.2°C | 2.4% | 121.1hPa | 2.6V | 00:00:00 | 00:00:00 | 00:00:00 | |
| SP6BVK | 2026-09-04 17:44:46 | 52.11090 | 16.00036 | 88° | 93km/h | 15307m | 4.2m/s | -56.2°C | 2.4% | 121.1hPa | 2.6V | 00:00:00 | 00:00:00 | 00:00:00 | |
| KRY50SP-1 | 2026-09-04 17:44:44 | 52.11090 | 15.99962 | 92° | 89km/h | 15299m | 3.6m/s | -56.2°C | 2.4% | 121.2hPa | 2.6V | 00:00:00 | 00:00:00 | 00:00:00 | |
| AA1-15 | 2026-09-04 17:44:43 | 52.11091 | 15.99890 | 91° | 86km/h | 15290m | 4.6m/s | -56.2°C | 2.5% | 121.4hPa | 2.6V | 18:12:15 | 01:27:18 | 00:00:00 | |
| DB0DAN | 2026-09-04 17:44:40 | 52.11095 | 15.99784 | 96° | 84km/h | 15277m | 3.8m/s | -56.3°C | 2.4% | 121.66hPa | 2.6V | 00:00:00 | 00:00:00 | 00:00:00 | |
| KRY50SP-1 | 2026-09-04 17:44:39 | 52.11095 | 15.99784 | 97° | 88km/h | 15277m | 3.8m/s | -56.3°C | 2.4% | 121.7hPa | 2.6V | 00:00:00 | 00:00:00 | 00:00:00 | |
| SP3WXH-11 | 2026-09-04 17:44:37 | 52.11103 | 15.99604 | 93° | 84km/h | 15257m | 4.5m/s | -57.0°C | 2.6% | 122.1hPa | 2.6V | 00:00:00 | 00:00:00 | 00:00:00 | |
| KRY50SP-1 | 2026-09-04 17:44:34 | 52.11103 | 15.99604 | 94° | 86km/h | 15257m | 4.5m/s | -57.0°C | 2.6% | 122.1hPa | 2.6V | 00:00:00 | 00:00:00 | 00:00:00 | |
| POL2MAQ | 2026-09-04 17:44:33 | 52.11105 | 15.99569 | 94° | 84km/h | 15252m | 4.8m/s | -57.0°C | 2.6% | 122.1hPa | 2.6V | 00:00:00 | 00:00:00 | 00:00:00 | |
| KRY50SP-1 | 2026-09-04 17:44:28 | 52.11113 | 15.99401 | 98° | 82km/h | 15231m | 4.9m/s | -57.1°C | 2.7% | 122.5hPa | 2.6V | 00:00:00 | 00:00:00 | 00:00:00 | |
| SP6BVK | 2026-09-04 17:44:26 | 52.11120 | 15.99334 | 101° | 84km/h | 15224m | 2.9m/s | -57.2°C | 2.7% | 122.7hPa | 2.6V | 00:00:00 | 00:00:00 | 00:00:00 | |
| DB0DAN | 2026-09-04 17:44:25 | 52.11127 | 15.99264 | 99° | 84km/h | 15217m | 3.1m/s | -57.3°C | 2.7% | 122.84hPa | 2.6V | 00:00:00 | 00:00:00 | 00:00:00 | |
| AA1-15 | 2026-09-04 17:44:16 | 52.11149 | 15.98949 | 94° | 84km/h | 15181m | 4.7m/s | -57.4°C | 2.9% | 123.5hPa | 2.6V | 18:12:15 | 01:26:51 | 00:00:00 | |
| EDDB2-12 | 2026-09-04 17:44:16 | 52.11151 | 15.98915 | 94° | 82km/h | 15177m | 3.8m/s | -57.4°C | 2.7% | 123.6hPa | 2.6V | 00:00:00 | 00:00:00 | 00:00:00 | |
| KRY50SP-1 | 2026-09-04 17:44:12 | 52.11154 | 15.98847 | 95° | 84km/h | 15168m | 4.9m/s | -57.4°C | 2.7% | 123.7hPa | 2.6V | 00:00:00 | 00:00:00 | 00:00:00 | |
| DB0DAN | 2026-09-04 17:44:10 | 52.11159 | 15.98742 | 96° | 84km/h | 15156m | 4.5m/s | -57.5°C | 2.8% | 123.97hPa | 2.6V | 00:00:00 | 00:00:00 | 00:00:00 | |
| SP3WXH-11 | 2026-09-04 17:44:06 | 52.11167 | 15.98599 | 94° | 84km/h | 15141m | 3.0m/s | -57.5°C | 2.8% | 124.3hPa | 2.7V | 00:00:00 | 00:00:00 | 00:00:00 | |
| 13BRC | 2026-09-04 17:44:05 | 52.11168 | 15.98599 | 96° | 86km/h | 15141m | 3.0m/s | -57.5°C | 2.8% | 124.3hPa | 2.7V | 00:00:00 | 00:00:00 | 00:00:00 | |
| KRY50SP-1 | 2026-09-04 17:44:01 | 52.11175 | 15.98460 | 95° | 86km/h | 15126m | 4.3m/s | -57.4°C | 2.8% | 124.6hPa | 2.7V | 00:00:00 | 00:00:00 | 00:00:00 | |
| DB0DAN | 2026-09-04 17:43:55 | 52.11183 | 15.98220 | 93° | 78km/h | 15099m | 3.6m/s | -57.4°C | 2.9% | 125.11hPa | 2.7V | 00:00:00 | 00:00:00 | 00:00:00 | |
| SONDE2-11 | 2026-09-04 17:43:53 | 52.11185 | 15.98154 | 93° | 78km/h | 15091m | 4.1m/s | -57.3°C | 2.8% | 125.2hPa | 2.6V | 00:00:00 | 00:00:00 | 00:00:00 | |
| POL2MAQ | 2026-09-04 17:43:52 | 52.11185 | 15.98154 | 95° | 78km/h | 15091m | 4.1m/s | -57.3°C | 2.8% | 125.3hPa | 2.6V | 00:00:00 | 00:00:00 | 00:00:00 | |
| KRY50SP-1 | 2026-09-04 17:43:50 | 52.11188 | 15.98089 | 96° | 80km/h | 15084m | 4.1m/s | -57.2°C | 2.9% | 125.4hPa | 2.6V | 00:00:00 | 00:00:00 | 00:00:00 | |
| EDDB2-12 | 2026-09-04 17:43:45 | 52.11197 | 15.97854 | 91° | 84km/h | 15057m | 3.3m/s | -57.0°C | 2.8% | 125.9hPa | 2.6V | 00:00:00 | 00:00:00 | 00:00:00 | |
| DB0DAN | 2026-09-04 17:43:40 | 52.11199 | 15.97719 | 95° | 77km/h | 15043m | 3.9m/s | -56.9°C | 2.8% | 126.2hPa | 2.6V | 00:00:00 | 00:00:00 | 00:00:00 | |
| AA1-15 | 2026-09-04 17:43:26 | 52.11225 | 15.97248 | 95° | 82km/h | 14988m | 4m/s | -56.6°C | 3% | 127.3hPa | 2.6V | 18:12:15 | 01:26:01 | 00:00:00 | |
| DB0DAN | 2026-09-04 17:43:25 | 52.11226 | 15.97214 | 94° | 77km/h | 14984m | 3.3m/s | -56.6°C | 2.8% | 127.38hPa | 2.6V | 00:00:00 | 00:00:00 | 00:00:00 | |
| AA1-15 | 2026-09-04 17:43:16 | 52.11247 | 15.96900 | 98° | 89km/h | 14948m | 4.5m/s | -56.7°C | 3.1% | 128.1hPa | 2.7V | 18:12:15 | 01:25:51 | 00:00:00 | |
| EDDB2-12 | 2026-09-04 17:43:14 | 52.11257 | 15.96795 | 100° | 82km/h | 14936m | 3.6m/s | -56.6°C | 2.9% | 128.3hPa | 2.6V | 00:00:00 | 00:00:00 | 00:00:00 | |
| DB0DAN | 2026-09-04 17:43:10 | 52.11268 | 15.96694 | 98° | 80km/h | 14924m | 3.1m/s | -56.5°C | 2.9% | 128.6hPa | 2.6V | 00:00:00 | 00:00:00 | 00:00:00 | |
| AA1-15 | 2026-09-04 17:43:05 | 52.11283 | 15.96520 | 97° | 89km/h | 14905m | 2.9m/s | -56.4°C | 3.2% | 129hPa | 2.7V | 18:12:15 | 01:25:40 | 00:00:00 | |
| SP3WXH-11 | 2026-09-04 17:43:04 | 52.11286 | 15.96483 | 97° | 89km/h | 14902m | 3.4m/s | -56.4°C | 2.9% | 129.0hPa | 2.7V | 00:00:00 | 00:00:00 | 00:00:00 | |
| SP6BVK | 2026-09-04 17:43:03 | 52.11286 | 15.96483 | 99° | 89km/h | 14902m | 3.4m/s | -56.4°C | 2.9% | 129.0hPa | 2.7V | 00:00:00 | 00:00:00 | 00:00:00 | |
| 13BRC | 2026-09-04 17:43:02 | 52.11290 | 15.96447 | 101° | 89km/h | 14898m | 4.4m/s | -56.3°C | 2.9% | 129.1hPa | 2.7V | 00:00:00 | 00:00:00 | 00:00:00 | |
| KRY50SP-1 | 2026-09-04 17:43:00 | 52.11298 | 15.96375 | 102° | 89km/h | 14890m | 4.1m/s | -56.3°C | 2.8% | 129.3hPa | 2.7V | 00:00:00 | 00:00:00 | 00:00:00 | |
| DB0DAN | 2026-09-04 17:42:55 | 52.11322 | 15.96170 | 101° | 78km/h | 14866m | 3.6m/s | -56.3°C | 2.9% | 129.77hPa | 2.7V | 00:00:00 | 00:00:00 | 00:00:00 | |
| AA1-15 | 2026-09-04 17:42:54 | 52.11326 | 15.96137 | 100° | 84km/h | 14862m | 3.8m/s | -56.3°C | 3.2% | 129.9hPa | 2.7V | 18:12:15 | 01:25:29 | 00:00:00 | |
| SONDE2-11 | 2026-09-04 17:42:51 | 52.11343 | 15.95996 | 101° | 93km/h | 14847m | 3.4m/s | -56.2°C | 2.9% | 130.2hPa | 2.6V | 00:00:00 | 00:00:00 | 00:00:00 | |
| S3001 | 2026-09-04 17:42:50 | 52.11343 | 15.95996 | 101° | 93km/h | 14847m | 3.4m/s | -56.2°C | 2.9% | 130.2hPa | 2.6V | 00:00:00 | 00:00:00 | 00:00:00 | |
| SP3BTT-10 | 2026-09-04 17:42:46 | 52.11359 | 15.95844 | 101° | 97km/h | 14832m | 3.8m/s | -56.2°C | 6.1% | 130.4hPa | 2.6V | 00:00:00 | 00:00:00 | 00:00:00 | |
| KRY50SP-1 | 2026-09-04 17:42:44 | 52.11364 | 15.95808 | 102° | 89km/h | 14829m | 3.5m/s | -56.2°C | 2.9% | 130.6hPa | 2.6V | 00:00:00 | 00:00:00 | 00:00:00 | |
| 13BRC | 2026-09-04 17:42:42 | 52.11371 | 15.95736 | 101° | 89km/h | 14821m | 4.2m/s | -56.4°C | 2.9% | 130.7hPa | 2.6V | 00:00:00 | 00:00:00 | 00:00:00 | |
| DB0DAN | 2026-09-04 17:42:40 | 52.11384 | 15.95627 | 101° | 86km/h | 14808m | 3.2m/s | -56.5°C | 3% | 130.92hPa | 2.6V | 00:00:00 | 00:00:00 | 00:00:00 | |
| KRY50SP-1 | 2026-09-04 17:42:38 | 52.11388 | 15.95591 | 102° | 89km/h | 14805m | 3.9m/s | -56.6°C | 3.0% | 131.0hPa | 2.7V | 00:00:00 | 00:00:00 | 00:00:00 | |
| DL2RXE-15 | 2026-09-04 17:42:36 | 52.11395 | 15.95518 | 100° | 89km/h | 14797m | 3.6m/s | -56.7°C | 3.0% | 131.1hPa | 2.7V | 00:00:00 | 00:00:00 | 00:00:00 | |
| SP3WXH-11 | 2026-09-04 17:42:33 | 52.11409 | 15.95377 | 98° | 86km/h | 14782m | 4.4m/s | -56.9°C | 3.1% | 131.5hPa | 2.7V | 00:00:00 | 00:00:00 | 00:00:00 | |
| KRY50SP-1 | 2026-09-04 17:42:32 | 52.11409 | 15.95377 | 99° | 88km/h | 14782m | 4.4m/s | -56.9°C | 3.1% | 131.5hPa | 2.7V | 00:00:00 | 00:00:00 | 00:00:00 | |
| POL2MAQ | 2026-09-04 17:42:30 | 52.11415 | 15.95306 | 98° | 88km/h | 14775m | 3.9m/s | -57.0°C | 3.1% | 131.7hPa | 2.7V | 00:00:00 | 00:00:00 | 00:00:00 | |
| KRY50SP-1 | 2026-09-04 17:42:26 | 52.11424 | 15.95158 | 96° | 93km/h | 14760m | 3.5m/s | -57.3°C | 3.2% | 132.0hPa | 2.7V | 00:00:00 | 00:00:00 | 00:00:00 | |
| 13BRC | 2026-09-04 17:42:22 | 52.11433 | 15.95010 | 98° | 89km/h | 14745m | 4.0m/s | -57.7°C | 3.2% | 132.3hPa | 2.7V | 00:00:00 | 00:00:00 | 00:00:00 | |
| KRY50SP-1 | 2026-09-04 17:42:21 | 52.11436 | 15.94973 | 98° | 91km/h | 14741m | 3.6m/s | -57.9°C | 3.2% | 132.3hPa | 2.7V | 00:00:00 | 00:00:00 | 00:00:00 | |
| SONDE2-11 | 2026-09-04 17:42:20 | 52.11448 | 15.94862 | 103° | 91km/h | 14730m | 2.6m/s | -58.1°C | 3.3% | 132.5hPa | 2.7V | 00:00:00 | 00:00:00 | 00:00:00 | |
| S3001 | 2026-09-04 17:42:19 | 52.11448 | 15.94862 | 103° | 91km/h | 14730m | 2.6m/s | -58.1°C | 3.3% | 132.5hPa | 2.7V | 00:00:00 | 00:00:00 | 00:00:00 | |
| KRY50SP-1 | 2026-09-04 17:42:15 | 52.11464 | 15.94746 | 103° | 100km/h | 14720m | 3.2m/s | -58.1°C | 3.4% | 132.8hPa | 2.7V | 00:00:00 | 00:00:00 | 00:00:00 | |
| EDDB2-12 | 2026-09-04 17:42:12 | 52.11487 | 15.94542 | 99° | 99km/h | 14703m | 2.1m/s | -58.1°C | 3.4% | 133.1hPa | 2.7V | 00:00:00 | 00:00:00 | 00:00:00 | |
| KRY50SP-1 | 2026-09-04 17:42:10 | 52.11490 | 15.94502 | 100° | 100km/h | 14700m | 4.0m/s | -58.1°C | 3.4% | 133.2hPa | 2.7V | 00:00:00 | 00:00:00 | 00:00:00 | |
| KRY50SP-1 | 2026-09-04 17:42:04 | 52.11505 | 15.94297 | 98° | 102km/h | 14680m | 3.1m/s | -58.3°C | 3.4% | 133.6hPa | 2.7V | 00:00:00 | 00:00:00 | 00:00:00 | |
| SP3WXH-11 | 2026-09-04 17:42:02 | 52.11512 | 15.94171 | 93° | 104km/h | 14667m | 3.4m/s | -58.4°C | 3.4% | 133.9hPa | 2.7V | 00:00:00 | 00:00:00 | 00:00:00 | |
| SONDE2-11 | 2026-09-04 17:41:49 | 52.11516 | 15.93566 | 88° | 106km/h | 14615m | 3.3m/s | -58.4°C | 3.6% | 135.0hPa | 2.7V | 00:00:00 | 00:00:00 | 00:00:00 | |
| S3001 | 2026-09-04 17:41:48 | 52.11516 | 15.93566 | 88° | 106km/h | 14615m | 3.3m/s | -58.4°C | 3.6% | 135.0hPa | 2.7V | 00:00:00 | 00:00:00 | 00:00:00 | |
| POL2MAQ | 2026-09-04 17:41:47 | 52.11516 | 15.93566 | 90° | 108km/h | 14615m | 3.3m/s | -58.4°C | 3.6% | 135.0hPa | 2.7V | 00:00:00 | 00:00:00 | 00:00:00 | |
| KRY50SP-1 | 2026-09-04 17:41:42 | 52.11513 | 15.93347 | 91° | 108km/h | 14597m | 4.2m/s | -58.4°C | 3.6% | 135.4hPa | 2.7V | 00:00:00 | 00:00:00 | 00:00:00 | |
| 13BRC | 2026-09-04 17:41:40 | 52.11513 | 15.93259 | 91° | 106km/h | 14590m | 4.3m/s | -58.4°C | 3.6% | 135.5hPa | 2.7V | 00:00:00 | 00:00:00 | 00:00:00 | |
| SP6BVK | 2026-09-04 17:41:39 | 52.11513 | 15.93216 | 91° | 104km/h | 14586m | 3.4m/s | -58.4°C | 3.6% | 135.7hPa | 2.7V | 00:00:00 | 00:00:00 | 00:00:00 | |
| KRY50SP-1 | 2026-09-04 17:41:38 | 52.11513 | 15.93130 | 92° | 106km/h | 14579m | 3.3m/s | -58.3°C | 3.6% | 135.8hPa | 2.7V | 00:00:00 | 00:00:00 | 00:00:00 | |
| DL2RXE-15 | 2026-09-04 17:41:33 | 52.11511 | 15.92916 | 90° | 106km/h | 14560m | 3.7m/s | -58.4°C | 3.7% | 136.1hPa | 2.7V | 00:00:00 | 00:00:00 | 00:00:00 | |
| KRY50SP-1 | 2026-09-04 17:41:32 | 52.11511 | 15.92916 | 90° | 106km/h | 14560m | 3.7m/s | -58.4°C | 3.7% | 136.1hPa | 2.7V | 00:00:00 | 00:00:00 | 00:00:00 | |
| SP3WXH-11 | 2026-09-04 17:41:31 | 52.11510 | 15.92828 | 87° | 106km/h | 14553m | 4.3m/s | -58.3°C | 3.7% | 136.3hPa | 2.7V | 00:00:00 | 00:00:00 | 00:00:00 | |
| POL2MAQ | 2026-09-04 17:41:27 | 52.11506 | 15.92700 | 90° | 104km/h | 14542m | 4.2m/s | 0°C | 0% | 136.6hPa | 2.7V | 00:00:00 | 00:00:00 | 00:00:00 | |
| DB0DAN | 2026-09-04 17:41:25 | 52.11506 | 15.92571 | 91° | 99km/h | 14530m | 4.1m/s | -58.4°C | 3.8% | 136.9hPa | 2.7V | 00:00:00 | 00:00:00 | 00:00:00 | |
| KRY50SP-1 | 2026-09-04 17:41:20 | 52.11509 | 15.92400 | 92° | 106km/h | 14516m | 3.4m/s | -58.4°C | 3.8% | 137.2hPa | 2.7V | 00:00:00 | 00:00:00 | 00:00:00 | |
| SP6BVK | 2026-09-04 17:41:19 | 52.11509 | 15.92357 | 91° | 106km/h | 14512m | 4.0m/s | -58.4°C | 3.8% | 137.3hPa | 2.7V | 00:00:00 | 00:00:00 | 00:00:00 | |
| SONDE2-11 | 2026-09-04 17:41:18 | 52.11509 | 15.92226 | 89° | 108km/h | 14501m | 4.6m/s | -58.5°C | 3.8% | 137.5hPa | 2.7V | 00:00:00 | 00:00:00 | 00:00:00 | |
| S3001 | 2026-09-04 17:41:17 | 52.11509 | 15.92226 | 89° | 108km/h | 14501m | 4.6m/s | -58.5°C | 3.8% | 137.5hPa | 2.7V | 00:00:00 | 00:00:00 | 00:00:00 | |
| SP3BTT-10 | 2026-09-04 17:41:16 | 52.11509 | 15.92182 | 90° | 117km/h | 14497m | 3.0m/s | -58.4°C | 7.7% | 137.6hPa | 2.7V | 00:00:00 | 00:00:00 | 00:00:00 | |
| KRY50SP-1 | 2026-09-04 17:41:14 | 52.11509 | 15.92138 | 90° | 108km/h | 14494m | 3.8m/s | -58.5°C | 3.9% | 137.7hPa | 2.6V | 00:00:00 | 00:00:00 | 00:00:00 | |
| DB0DAN | 2026-09-04 17:41:10 | 52.11514 | 15.91921 | 93° | 100km/h | 14474m | 4.3m/s | -58.5°C | 4% | 138.13hPa | 2.6V | 00:00:00 | 00:00:00 | 00:00:00 | |
| EDDB2-12 | 2026-09-04 17:41:10 | 52.11516 | 15.91877 | 93° | 106km/h | 14471m | 3.0m/s | -58.5°C | 4.0% | 138.2hPa | 2.6V | 00:00:00 | 00:00:00 | 00:00:00 | |
| KRY50SP-1 | 2026-09-04 17:41:08 | 52.11516 | 15.91877 | 94° | 108km/h | 14471m | 3.0m/s | -58.5°C | 4.0% | 138.2hPa | 2.6V | 00:00:00 | 00:00:00 | 00:00:00 | |
| POL2MAQ | 2026-09-04 17:41:06 | 52.11519 | 15.91790 | 96° | 106km/h | 14462m | 4.5m/s | 0°C | 0% | 0hPa | 2.6V | 00:00:00 | 00:00:00 | 00:00:00 | |
| KRY50SP-1 | 2026-09-04 17:41:02 | 52.11528 | 15.91615 | 95° | 106km/h | 14447m | 4.6m/s | -58.6°C | 4.0% | 138.7hPa | 2.6V | 00:00:00 | 00:00:00 | 00:00:00 | |
| SP3WXH-11 | 2026-09-04 17:41:00 | 52.11535 | 15.91484 | 94° | 108km/h | 14434m | 4.6m/s | -58.7°C | 4.0% | 139.0hPa | 2.6V | 00:00:00 | 00:00:00 | 00:00:00 | |
| SP6BVK | 2026-09-04 17:40:58 | 52.11537 | 15.91439 | 96° | 110km/h | 14430m | 3.7m/s | -58.8°C | 4.0% | 139.1hPa | 2.6V | 00:00:00 | 00:00:00 | 00:00:00 | |
| KRY50SP-1 | 2026-09-04 17:40:57 | 52.11539 | 15.91395 | 96° | 108km/h | 14425m | 5.4m/s | -58.9°C | 4.1% | 139.1hPa | 2.6V | 00:00:00 | 00:00:00 | 00:00:00 | |
| DB0DAN | 2026-09-04 17:40:55 | 52.11548 | 15.91261 | 96° | 106km/h | 14413m | 5.2m/s | -59°C | 4.1% | 139.4hPa | 2.6V | 00:00:00 | 00:00:00 | 00:00:00 | |
| AA1-15 | 2026-09-04 17:40:49 | 52.11571 | 15.90978 | 98° | 120km/h | 14389m | 3.8m/s | -59.1°C | 5.1% | 139.9hPa | 2.6V | 18:12:15 | 01:23:24 | 00:00:00 | |
| SONDE2-11 | 2026-09-04 17:40:47 | 52.11583 | 15.90833 | 97° | 117km/h | 14378m | 3.9m/s | -59.2°C | 4.2% | 140.2hPa | 2.7V | 00:00:00 | 00:00:00 | 00:00:00 | |
| S3001 | 2026-09-04 17:40:46 | 52.11583 | 15.90833 | 97° | 117km/h | 14378m | 3.9m/s | -59.2°C | 4.2% | 140.2hPa | 2.7V | 00:00:00 | 00:00:00 | 00:00:00 | |
| DB0DAN | 2026-09-04 17:40:40 | 52.11599 | 15.90545 | 94° | 115km/h | 14354m | 4.1m/s | -59.2°C | 4.3% | 140.73hPa | 2.7V | 00:00:00 | 00:00:00 | 00:00:00 | |
| AA1-15 | 2026-09-04 17:40:37 | 52.11606 | 15.90395 | 95° | 122km/h | 14343m | 4.6m/s | -59.2°C | 5.3% | 140.9hPa | 2.6V | 18:12:15 | 01:23:12 | 00:00:00 | |
| AA1-15 | 2026-09-04 17:40:26 | 52.11638 | 15.89842 | 93° | 128km/h | 14302m | 3.6m/s | -59.5°C | 5.3% | 141.9hPa | 2.7V | 18:12:15 | 01:23:01 | 00:00:00 | |
| DB0DAN | 2026-09-04 17:40:25 | 52.11640 | 15.89790 | 93° | 120km/h | 14297m | 4.6m/s | -59.5°C | 4.4% | 141.99hPa | 2.7V | 00:00:00 | 00:00:00 | 00:00:00 | |
| AA1-15 | 2026-09-04 17:40:16 | 52.11654 | 15.89322 | 91° | 126km/h | 14264m | 3.2m/s | -59.3°C | 5.4% | 142.8hPa | 2.6V | 18:12:15 | 01:22:51 | 00:00:00 | |
| POL2MAQ | 2026-09-04 17:40:15 | 52.11653 | 15.89322 | 92° | 126km/h | 14265m | 3.2m/s | 0°C | 0% | 0hPa | 2.7V | 00:00:00 | 00:00:00 | 00:00:00 | |
| KRY50SP-1 | 2026-09-04 17:40:13 | 52.11655 | 15.89218 | 92° | 128km/h | 14257m | 3.6m/s | -59.3°C | 4.4% | 142.9hPa | 2.7V | 00:00:00 | 00:00:00 | 00:00:00 | |
| DB0DAN | 2026-09-04 17:40:10 | 52.11654 | 15.89010 | 89° | 119km/h | 14242m | 4.5m/s | -59.2°C | 4.5% | 143.27hPa | 2.7V | 00:00:00 | 00:00:00 | 00:00:00 | |
| AA1-15 | 2026-09-04 17:40:06 | 52.11652 | 15.88808 | 89° | 122km/h | 14227m | 3.3m/s | -59°C | 5.5% | 143.7hPa | 2.6V | 18:12:15 | 01:22:41 | 00:00:00 | |
| AA1-15 | 2026-09-04 17:39:55 | 52.11645 | 15.88254 | 88° | 120km/h | 14188m | 4.3m/s | -58.7°C | 5.7% | 144.5hPa | 2.6V | 18:12:15 | 01:22:30 | 00:00:00 | |
| DB0DAN | 2026-09-04 17:39:55 | 52.11645 | 15.88254 | 88° | 115km/h | 14188m | 4.3m/s | -58.7°C | 4.6% | 144.53hPa | 2.6V | 00:00:00 | 00:00:00 | 00:00:00 | |
| SONCRA | 2026-09-04 17:39:50 | 52.11643 | 15.87951 | 88° | 124km/h | 14166m | 3.7m/s | -58.6°C | 4.6% | 145.0hPa | 2.7V | 00:00:00 | 00:00:00 | 00:00:00 | |
| AA1-15 | 2026-09-04 17:39:44 | 52.11637 | 15.87700 | 87° | 122km/h | 14146m | 3.4m/s | -58.5°C | 5.9% | 145.4hPa | 2.7V | 18:12:15 | 01:22:19 | 00:00:00 | |
| DB0DAN | 2026-09-04 17:39:40 | 52.11633 | 15.87500 | 89° | 117km/h | 14132m | 3.8m/s | -58.6°C | 4.7% | 145.82hPa | 2.6V | 00:00:00 | 00:00:00 | 00:00:00 | |
| AA1-15 | 2026-09-04 17:39:34 | 52.11627 | 15.87195 | 89° | 122km/h | 14110m | 3.5m/s | -58.9°C | 6.3% | 146.3hPa | 2.6V | 18:12:15 | 01:22:09 | 00:00:00 | |
| DAC517 | 2026-09-04 17:39:32 | 52.11625 | 15.87095 | 88° | 120km/h | 14103m | 3.6m/s | -58.9°C | 5.2% | 146.5hPa | 2.6V | 00:00:00 | 00:00:00 | 00:00:00 | |
| POL2MAQ | 2026-09-04 17:39:29 | 52.11622 | 15.86998 | 89° | 119km/h | 14096m | 4.2m/s | 0°C | 0% | 0hPa | 2.6V | 00:00:00 | 00:00:00 | 00:00:00 | |
| DB0DAN | 2026-09-04 17:39:25 | 52.11613 | 15.86751 | 86° | 117km/h | 14076m | 4.7m/s | -58.7°C | 5.3% | 147.07hPa | 2.6V | 00:00:00 | 00:00:00 | 00:00:00 | |
| AA1-15 | 2026-09-04 17:39:24 | 52.11608 | 15.86649 | 85° | 124km/h | 14069m | 3.7m/s | -58.7°C | 6.8% | 147.3hPa | 2.7V | 18:12:15 | 01:21:58 | 00:00:00 | |
| AA1-15 | 2026-09-04 17:39:13 | 52.11579 | 15.86179 | 84° | 115km/h | 14026m | 5.6m/s | -58.5°C | 7.4% | 148.3hPa | 2.6V | 18:12:15 | 01:21:48 | 00:00:00 | |
| KRY50SP-1 | 2026-09-04 17:39:12 | 52.11579 | 15.86179 | 85° | 115km/h | 14026m | 5.6m/s | -58.5°C | 5.6% | 148.3hPa | 2.6V | 00:00:00 | 00:00:00 | 00:00:00 | |
| DB0DAN | 2026-09-04 17:39:10 | 52.11570 | 15.86036 | 84° | 111km/h | 14013m | 4.3m/s | -58.4°C | 5.6% | 148.57hPa | 2.6V | 00:00:00 | 00:00:00 | 00:00:00 | |
| AA1-15 | 2026-09-04 17:39:01 | 52.11527 | 15.85625 | 73° | 110km/h | 13979m | 3.5m/s | -58.4°C | 8.2% | 149.4hPa | 2.6V | 18:12:15 | 01:21:36 | 00:00:00 | |
| SP3WXH-11 | 2026-09-04 17:38:56 | 52.11491 | 15.85353 | 82° | 113km/h | 13957m | 3.1m/s | -58.5°C | 6.3% | 149.9hPa | 2.6V | 00:00:00 | 00:00:00 | 00:00:00 | |
| DB0DAN | 2026-09-04 17:38:55 | 52.11491 | 15.85353 | 82° | 110km/h | 13957m | 3.1m/s | -58.5°C | 6.3% | 149.91hPa | 2.6V | 00:00:00 | 00:00:00 | 00:00:00 | |
| AA1-15 | 2026-09-04 17:38:50 | 52.11466 | 15.85128 | 77° | 110km/h | 13937m | 4.5m/s | -58.6°C | 9.3% | 150.4hPa | 2.6V | 18:12:15 | 01:21:25 | 00:00:00 | |
| DAC517 | 2026-09-04 17:38:47 | 52.11452 | 15.85039 | 76° | 111km/h | 13931m | 3.1m/s | -58.8°C | 6.9% | 150.6hPa | 2.6V | 00:00:00 | 00:00:00 | 00:00:00 | |
| POL2MAQ | 2026-09-04 17:38:46 | 52.11438 | 15.84951 | 78° | 110km/h | 13924m | 1.8m/s | 0°C | 0% | 0hPa | 2.6V | 00:00:00 | 00:00:00 | 00:00:00 | |
| KRY50SP-1 | 2026-09-04 17:38:45 | 52.11438 | 15.84951 | 78° | 110km/h | 13924m | 1.8m/s | -58.9°C | 7.1% | 150.8hPa | 2.6V | 00:00:00 | 00:00:00 | 00:00:00 | |
| EDDB2-11 | 2026-09-04 17:38:43 | 52.11421 | 15.84818 | 79° | 110km/h | 13913m | 4.6m/s | -59.2°C | 7.4% | 151.0hPa | 2.6V | 00:00:00 | 00:00:00 | 00:00:00 | |
| DB0DAN | 2026-09-04 17:38:40 | 52.11404 | 15.84689 | 77° | 100km/h | 13901m | 2.7m/s | -59.3°C | 7.6% | 151.3hPa | 2.6V | 00:00:00 | 00:00:00 | 00:00:00 | |
| AA1-15 | 2026-09-04 17:38:39 | 52.11398 | 15.84647 | 77° | 104km/h | 13898m | 2.9m/s | -59.4°C | 10.6% | 151.3hPa | 2.7V | 18:12:15 | 01:21:14 | 00:00:00 | |
| AA1-15 | 2026-09-04 17:38:26 | 52.11354 | 15.84113 | 82° | 100km/h | 13842m | 4.9m/s | -59.6°C | 12.1% | 152.7hPa | 2.7V | 18:12:15 | 01:21:01 | 00:00:00 | |
| SP3WXH-11 | 2026-09-04 17:38:25 | 52.11347 | 15.84032 | 84° | 99km/h | 13834m | 4.7m/s | -59.6°C | 9.1% | 152.9hPa | 2.7V | 00:00:00 | 00:00:00 | 00:00:00 | |
| KRY50SP-1 | 2026-09-04 17:38:23 | 52.11347 | 15.84032 | 86° | 99km/h | 13834m | 4.7m/s | -59.6°C | 9.2% | 152.9hPa | 2.7V | 00:00:00 | 00:00:00 | 00:00:00 | |
| SONCRA | 2026-09-04 17:38:17 | 52.11336 | 15.83712 | 87° | 97km/h | 13801m | 3.6m/s | -59.7°C | 9.8% | 153.8hPa | 2.7V | 00:00:00 | 00:00:00 | 00:00:00 | |
| SP3BTT-10 | 2026-09-04 17:38:15 | 52.11334 | 15.83672 | 86° | 108km/h | 13797m | 3.5m/s | -59.6°C | 15.0% | 153.8hPa | 2.7V | 00:00:00 | 00:00:00 | 00:00:00 | |
| SP6BVK | 2026-09-04 17:38:13 | 52.11333 | 15.83633 | 87° | 95km/h | 13793m | 4.4m/s | -59.7°C | 9.8% | 153.9hPa | 2.7V | 00:00:00 | 00:00:00 | 00:00:00 | |
| EDDB2-11 | 2026-09-04 17:38:12 | 52.11331 | 15.83552 | 87° | 99km/h | 13785m | 5.6m/s | -59.6°C | 9.9% | 154.1hPa | 2.7V | 00:00:00 | 00:00:00 | 00:00:00 | |
| SONDE2-11 | 2026-09-04 17:38:11 | 52.11329 | 15.83511 | 87° | 102km/h | 13780m | 4.4m/s | -59.6°C | 10.0% | 154.2hPa | 2.7V | 00:00:00 | 00:00:00 | 00:00:00 | |
| KRY50SP-1 | 2026-09-04 17:38:06 | 52.11327 | 15.83342 | 91° | 102km/h | 13765m | 3.4m/s | -59.6°C | 10.8% | 154.6hPa | 2.7V | 00:00:00 | 00:00:00 | 00:00:00 | |
| DL2RXE-15 | 2026-09-04 17:38:05 | 52.11327 | 15.83299 | 91° | 104km/h | 13761m | 4.1m/s | -59.6°C | 11.0% | 154.7hPa | 2.7V | 00:00:00 | 00:00:00 | 00:00:00 | |
| EDDB2-12 | 2026-09-04 17:38:03 | 52.11327 | 15.83171 | 89° | 102km/h | 13750m | 3.6m/s | -59.5°C | 11.6% | 155.0hPa | 2.7V | 00:00:00 | 00:00:00 | 00:00:00 | |
| SP3WXH-11 | 2026-09-04 17:37:54 | 52.11336 | 15.82749 | 93° | 102km/h | 13711m | 3.9m/s | -59.4°C | 12.3% | 156.0hPa | 2.7V | 00:00:00 | 00:00:00 | 00:00:00 | |
| SP6BVK | 2026-09-04 17:37:53 | 52.11335 | 15.82791 | 94° | 102km/h | 13715m | 4.4m/s | -59.4°C | 12.2% | 155.9hPa | 2.7V | 00:00:00 | 00:00:00 | 00:00:00 | |
| 13BRC | 2026-09-04 17:37:52 | 52.11336 | 15.82749 | 94° | 102km/h | 13711m | 3.9m/s | -59.4°C | 12.3% | 156.0hPa | 2.7V | 00:00:00 | 00:00:00 | 00:00:00 | |
| KRY50SP-1 | 2026-09-04 17:37:49 | 52.11341 | 15.82622 | 93° | 106km/h | 13699m | 3.1m/s | -59.5°C | 12.8% | 156.3hPa | 2.7V | 00:00:00 | 00:00:00 | 00:00:00 | |
| KRY50SP-1 | 2026-09-04 17:37:44 | 52.11342 | 15.82401 | 92° | 111km/h | 13680m | 3.0m/s | -59.5°C | 13.6% | 156.8hPa | 2.7V | 00:00:00 | 00:00:00 | 00:00:00 | |
| EDDB2-11 | 2026-09-04 17:37:41 | 52.11346 | 15.82222 | 94° | 108km/h | 13663m | 4.9m/s | -59.8°C | 15.3% | 157.2hPa | 2.7V | 00:00:00 | 00:00:00 | 00:00:00 | |
| SONDE2-11 | 2026-09-04 17:37:40 | 52.11348 | 15.82177 | 96° | 111km/h | 13658m | 4.5m/s | -59.8°C | 15.7% | 157.3hPa | 2.7V | 00:00:00 | 00:00:00 | 00:00:00 | |
| KRY50SP-1 | 2026-09-04 17:37:39 | 52.11348 | 15.82177 | 97° | 113km/h | 13658m | 4.5m/s | -59.8°C | 15.7% | 157.3hPa | 2.7V | 00:00:00 | 00:00:00 | 00:00:00 | |
| DAC517 | 2026-09-04 17:37:36 | 52.11357 | 15.82040 | 98° | 111km/h | 13645m | 4.5m/s | -60.3°C | 17.1% | 157.6hPa | 2.7V | 00:00:00 | 00:00:00 | 00:00:00 | |
| KRY50SP-1 | 2026-09-04 17:37:33 | 52.11369 | 15.81903 | 96° | 113km/h | 13631m | 5.7m/s | -60.4°C | 17.2% | 157.9hPa | 2.7V | 00:00:00 | 00:00:00 | 00:00:00 | |
| 13BRC | 2026-09-04 17:37:32 | 52.11373 | 15.81810 | 94° | 113km/h | 13622m | 3.8m/s | -60.4°C | 17.2% | 158.2hPa | 2.7V | 00:00:00 | 00:00:00 | 00:00:00 | |
| SP3BTT-10 | 2026-09-04 17:37:30 | 52.11375 | 15.81718 | 94° | 144km/h | 13613m | 5.8m/s | -60.4°C | 24.2% | 158.3hPa | 2.7V | 00:00:00 | 00:00:00 | 00:00:00 | |
| KRY50SP-1 | 2026-09-04 17:37:28 | 52.11378 | 15.81671 | 98° | 117km/h | 13608m | 4.5m/s | -60.5°C | 18.1% | 158.6hPa | 2.7V | 00:00:00 | 00:00:00 | 00:00:00 | |
| DB0DAN | 2026-09-04 17:37:25 | 52.11400 | 15.81479 | 103° | 113km/h | 13589m | 5m/s | -60.5°C | 18.9% | 159.06hPa | 2.7V | 00:00:00 | 00:00:00 | 00:00:00 | |
| KRY50SP-1 | 2026-09-04 17:37:22 | 52.11414 | 15.81386 | 103° | 117km/h | 13581m | 3.2m/s | -60.6°C | 19.7% | 159.3hPa | 2.6V | 00:00:00 | 00:00:00 | 00:00:00 | |
| KRY50SP-1 | 2026-09-04 17:37:17 | 52.11442 | 15.81135 | 102° | 128km/h | 13558m | 6.0m/s | -61.2°C | 21.6% | 159.9hPa | 2.6V | 00:00:00 | 00:00:00 | 00:00:00 | |
| DAC517 | 2026-09-04 17:37:15 | 52.11457 | 15.81031 | 104° | 131km/h | 13549m | 4.6m/s | -61.4°C | 22.5% | 160.1hPa | 2.6V | 00:00:00 | 00:00:00 | 00:00:00 | |
| SONCRA | 2026-09-04 17:37:14 | 52.11471 | 15.80926 | 101° | 128km/h | 13539m | 3.9m/s | -61.6°C | 23.1% | 160.3hPa | 2.6V | 00:00:00 | 00:00:00 | 00:00:00 | |
| SP6BVK | 2026-09-04 17:37:12 | 52.11477 | 15.80874 | 102° | 130km/h | 13535m | 4.2m/s | -61.6°C | 23.1% | 160.4hPa | 2.6V | 00:00:00 | 00:00:00 | 00:00:00 | |
| DB0DAN | 2026-09-04 17:37:10 | 52.11497 | 15.80720 | 103° | 122km/h | 13522m | 4.6m/s | -61.8°C | 24.2% | 160.74hPa | 2.6V | 00:00:00 | 00:00:00 | 00:00:00 | |
| AA1-15 | 2026-09-04 17:37:04 | 52.11542 | 15.80385 | 103° | 142km/h | 13490m | 5.7m/s | -62.4°C | 34% | 161.6hPa | 2.6V | 18:12:15 | 01:19:39 | 00:00:00 | |
| EDDB2-12 | 2026-09-04 17:37:01 | 52.11566 | 15.80214 | 102° | 141km/h | 13476m | 4.4m/s | -62.7°C | 26.4% | 161.9hPa | 2.7V | 00:00:00 | 00:00:00 | 00:00:00 | |
| DB0DAN | 2026-09-04 17:36:55 | 52.11617 | 15.79864 | 104° | 144km/h | 13450m | 5.4m/s | -63.3°C | 28.8% | 162.68hPa | 2.7V | 00:00:00 | 00:00:00 | 00:00:00 | |
| SP3WXH-11 | 2026-09-04 17:36:52 | 52.11655 | 15.79616 | 103° | 155km/h | 13432m | 4.0m/s | -63.4°C | 29.5% | 163.1hPa | 2.7V | 00:00:00 | 00:00:00 | 00:00:00 | |
| SP6BVK | 2026-09-04 17:36:51 | 52.11646 | 15.79678 | 105° | 157km/h | 13436m | 4.4m/s | -63.3°C | 29.3% | 163.0hPa | 2.7V | 00:00:00 | 00:00:00 | 00:00:00 | |
| KRY50SP-1 | 2026-09-04 17:36:50 | 52.11655 | 15.79616 | 105° | 157km/h | 13432m | 4.0m/s | -63.4°C | 29.5% | 163.1hPa | 2.7V | 00:00:00 | 00:00:00 | 00:00:00 | |
| SP3BTT-10 | 2026-09-04 17:36:45 | 52.11712 | 15.79236 | 104° | 168km/h | 13406m | 3.6m/s | -63.4°C | 40.2% | 163.8hPa | 2.7V | 00:00:00 | 00:00:00 | 08:30:00 | |
| KRY50SP-1 | 2026-09-04 17:36:44 | 52.11712 | 15.79236 | 104° | 161km/h | 13406m | 3.6m/s | -63.5°C | 30.5% | 163.8hPa | 2.7V | 00:00:00 | 00:00:00 | 00:00:00 | |
| DL2RXE-15 | 2026-09-04 17:36:42 | 52.11731 | 15.79106 | 104° | 164km/h | 13397m | 3.8m/s | -63.5°C | 30.9% | 164.0hPa | 2.7V | 00:00:00 | 00:00:00 | 00:00:00 | |
| DB0DAN | 2026-09-04 17:36:40 | 52.11757 | 15.78907 | 101° | 157km/h | 13385m | 3.5m/s | -63.6°C | 31.3% | 164.31hPa | 2.7V | 00:00:00 | 00:00:00 | 00:00:00 | |
| AA1-15 | 2026-09-04 17:36:30 | 52.11844 | 15.78247 | 102° | 168km/h | 13345m | 4.9m/s | -63.4°C | 36.9% | 165.4hPa | 2.6V | 18:12:15 | 01:19:05 | 00:00:00 | |
| KRY50SP-1 | 2026-09-04 17:36:28 | 52.11853 | 15.78179 | 103° | 170km/h | 13340m | 4.0m/s | -63.4°C | 30.7% | 165.6hPa | 2.6V | 00:00:00 | 00:00:00 | 00:00:00 | |
| DB0DAN | 2026-09-04 17:36:25 | 52.11884 | 15.77908 | 100° | 159km/h | 13325m | 4.6m/s | -63.3°C | 30.5% | 165.99hPa | 2.6V | 00:00:00 | 00:00:00 | 00:00:00 | |
| KRY50SP-1 | 2026-09-04 17:36:23 | 52.11892 | 15.77840 | 102° | 166km/h | 13321m | 3.5m/s | -63.2°C | 30.6% | 166.1hPa | 2.6V | 00:00:00 | 00:00:00 | 00:00:00 | |
| DL2RXE-15 | 2026-09-04 17:36:22 | 52.11900 | 15.77773 | 102° | 166km/h | 13317m | 4.3m/s | -63.2°C | 30.3% | 166.2hPa | 2.6V | 00:00:00 | 00:00:00 | 00:00:00 | |
| SP3WXH-11 | 2026-09-04 17:36:21 | 52.11923 | 15.77574 | 100° | 164km/h | 13304m | 4.6m/s | -63.1°C | 30.6% | 166.5hPa | 2.6V | 00:00:00 | 00:00:00 | 00:00:00 | |
| KRY50SP-1 | 2026-09-04 17:36:17 | 52.11938 | 15.77440 | 101° | 166km/h | 13297m | 4.7m/s | -63.0°C | 30.5% | 166.7hPa | 2.6V | 00:00:00 | 00:00:00 | 00:00:00 | |
| DAC517 | 2026-09-04 17:36:14 | 52.11960 | 15.77235 | 101° | 170km/h | 13285m | 3.7m/s | -62.9°C | 30.3% | 167.1hPa | 2.6V | 00:00:00 | 00:00:00 | 00:00:00 | |
| KRY50SP-1 | 2026-09-04 17:36:12 | 52.11975 | 15.77098 | 101° | 168km/h | 13276m | 3.8m/s | -62.9°C | 31.0% | 167.3hPa | 2.6V | 00:00:00 | 00:00:00 | 00:00:00 | |
| DB0DAN | 2026-09-04 17:36:10 | 52.11996 | 15.76893 | 100° | 161km/h | 13264m | 3.7m/s | -63.1°C | 31.6% | 167.63hPa | 2.6V | 00:00:00 | 00:00:00 | 00:00:00 | |
| AA1-15 | 2026-09-04 17:36:00 | 52.12066 | 15.76211 | 99° | 168km/h | 13224m | 4.5m/s | -63.4°C | 38.3% | 168.7hPa | 2.6V | 18:12:15 | 01:18:35 | 00:00:00 | |
| EDDB2-12 | 2026-09-04 17:35:59 | 52.12073 | 15.76143 | 98° | 166km/h | 13220m | 3.7m/s | -63.3°C | 32.2% | 168.8hPa | 2.6V | 00:00:00 | 00:00:00 | 00:00:00 | |
| DB0DAN | 2026-09-04 17:35:55 | 52.12098 | 15.75871 | 98° | 159km/h | 13204m | 4.3m/s | -63.3°C | 32.5% | 169.26hPa | 2.6V | 00:00:00 | 00:00:00 | 00:00:00 | |
| SP3WXH-11 | 2026-09-04 17:35:50 | 52.12134 | 15.75461 | 97° | 168km/h | 13182m | 3.8m/s | -63.2°C | 32.7% | 169.9hPa | 2.6V | 00:00:00 | 00:00:00 | 00:00:00 | |
| 13BRC | 2026-09-04 17:35:49 | 52.12128 | 15.75530 | 99° | 170km/h | 13187m | 4.2m/s | -63.2°C | 32.4% | 169.7hPa | 2.6V | 00:00:00 | 00:00:00 | 00:00:00 | |
| KRY50SP-1 | 2026-09-04 17:35:45 | 52.12152 | 15.75253 | 99° | 172km/h | 13171m | 3.1m/s | -63.1°C | 32.8% | 170.2hPa | 2.6V | 00:00:00 | 00:00:00 | 00:00:00 | |
| DB0DAN | 2026-09-04 17:35:40 | 52.12189 | 15.74836 | 99° | 164km/h | 13148m | 3.6m/s | -63°C | 32.1% | 170.82hPa | 2.6V | 00:00:00 | 00:00:00 | 00:00:00 | |
| AA1-15 | 2026-09-04 17:35:38 | 52.12202 | 15.74696 | 99° | 173km/h | 13141m | 4.3m/s | -63°C | 37.8% | 171.1hPa | 2.6V | 18:12:15 | 01:18:13 | 00:00:00 | |
| EDDB2-11 | 2026-09-04 17:35:37 | 52.12216 | 15.74556 | 98° | 172km/h | 13134m | 4.6m/s | -63.0°C | 31.6% | 171.2hPa | 2.8V | 00:00:00 | 00:00:00 | 00:00:00 | |
| SONDE2-11 | 2026-09-04 17:35:36 | 52.12216 | 15.74556 | 98° | 172km/h | 13134m | 4.6m/s | -63.0°C | 31.6% | 171.2hPa | 2.8V | 00:00:00 | 00:00:00 | 00:00:00 | |
| KRY50SP-1 | 2026-09-04 17:35:35 | 52.12223 | 15.74486 | 99° | 172km/h | 13130m | 3.6m/s | -63.0°C | 31.7% | 171.4hPa | 2.8V | 00:00:00 | 00:00:00 | 00:00:00 | |
| DAC517 | 2026-09-04 17:35:32 | 52.12234 | 15.74347 | 99° | 172km/h | 13122m | 3.1m/s | -62.9°C | 32.0% | 171.5hPa | 2.8V | 00:00:00 | 00:00:00 | 00:00:00 | |
| 13BRC | 2026-09-04 17:35:29 | 52.12250 | 15.74137 | 97° | 173km/h | 13112m | 2.8m/s | -62.9°C | 32.1% | 171.9hPa | 2.8V | 00:00:00 | 00:00:00 | 00:00:00 | |
| EDDB2-12 | 2026-09-04 17:35:28 | 52.12260 | 15.73995 | 97° | 173km/h | 13105m | 2.8m/s | -62.8°C | 31.9% | 172.0hPa | 2.8V | 00:00:00 | 00:00:00 | 00:00:00 | |
| DB0DAN | 2026-09-04 17:35:25 | 52.12278 | 15.73782 | 98° | 164km/h | 13095m | 3.2m/s | -62.7°C | 32.3% | 172.29hPa | 2.8V | 00:00:00 | 00:00:00 | 00:00:00 | |
| KRY50SP-1 | 2026-09-04 17:35:23 | 52.12284 | 15.73712 | 99° | 173km/h | 13091m | 4.1m/s | -62.7°C | 32.5% | 172.4hPa | 2.6V | 00:00:00 | 00:00:00 | 00:00:00 | |
| SP3WXH-11 | 2026-09-04 17:35:19 | 52.12320 | 15.73292 | 97° | 172km/h | 13069m | 3.3m/s | -62.5°C | 32.8% | 173.0hPa | 2.6V | 00:00:00 | 00:00:00 | 00:00:00 | |
| KRY50SP-1 | 2026-09-04 17:35:17 | 52.12319 | 15.73292 | 98° | 172km/h | 13069m | 3.3m/s | -62.5°C | 32.8% | 173.0hPa | 2.6V | 00:00:00 | 00:00:00 | 00:00:00 | |
| SP3BTT-10 | 2026-09-04 17:35:15 | 52.12336 | 15.73082 | 98° | 172km/h | 13058m | 2.7m/s | -62.4°C | 43.1% | 173.3hPa | 2.6V | 00:00:00 | 00:00:00 | 00:00:00 | |
| DAC517 | 2026-09-04 17:35:12 | 52.12347 | 15.72941 | 99° | 175km/h | 13051m | 3.3m/s | -62.4°C | 33.3% | 173.5hPa | 2.6V | 00:00:00 | 00:00:00 | 00:00:00 | |
| DB0DAN | 2026-09-04 17:35:10 | 52.12366 | 15.72728 | 98° | 166km/h | 13039m | 3.9m/s | -62.3°C | 33.3% | 173.82hPa | 2.6V | 00:00:00 | 00:00:00 | 00:00:00 | |
| AA1-15 | 2026-09-04 17:35:06 | 52.12389 | 15.72445 | 98° | 172km/h | 13025m | 3.2m/s | -62.1°C | 39.1% | 174.2hPa | 2.6V | 18:12:15 | 01:17:41 | 00:00:00 | |
| EDDB2-11 | 2026-09-04 17:35:06 | 52.12395 | 15.72375 | 97° | 172km/h | 13021m | 4.3m/s | -62.1°C | 33.1% | 174.4hPa | 2.7V | 00:00:00 | 00:00:00 | 00:00:00 | |
| SONDE2-11 | 2026-09-04 17:35:05 | 52.12395 | 15.72375 | 97° | 172km/h | 13021m | 4.3m/s | -62.1°C | 33.1% | 174.4hPa | 2.7V | 00:00:00 | 00:00:00 | 00:00:00 | |
| S3001 | 2026-09-04 17:35:04 | 52.12427 | 15.71956 | 96° | 172km/h | 12999m | 3.6m/s | -61.9°C | 33.0% | 175.0hPa | 2.7V | 00:00:00 | 00:00:00 | 00:00:00 | |
| EDDB2-12 | 2026-09-04 17:34:57 | 52.12438 | 15.71816 | 97° | 170km/h | 12991m | 3.0m/s | -61.9°C | 33.4% | 175.2hPa | 2.7V | 00:00:00 | 00:00:00 | 00:00:00 | |
| DB0DAN | 2026-09-04 17:34:55 | 52.12449 | 15.71675 | 97° | 166km/h | 12984m | 3.2m/s | -61.8°C | 33.9% | 175.43hPa | 2.7V | 00:00:00 | 00:00:00 | 00:00:00 | |
| SP3WXH-11 | 2026-09-04 17:34:48 | 52.12491 | 15.71114 | 96° | 170km/h | 12956m | 4.2m/s | -61.7°C | 35.6% | 176.2hPa | 2.6V | 00:00:00 | 00:00:00 | 00:00:00 | |
| SP6BVK | 2026-09-04 17:34:47 | 52.12486 | 15.71184 | 98° | 173km/h | 12960m | 3.4m/s | -61.7°C | 35.8% | 176.1hPa | 2.6V | 00:00:00 | 00:00:00 | 00:00:00 | |
| KRY50SP-1 | 2026-09-04 17:34:45 | 52.12496 | 15.71044 | 97° | 172km/h | 12953m | 3.1m/s | -61.6°C | 35.5% | 176.3hPa | 2.6V | 00:00:00 | 00:00:00 | 00:00:00 | |
| DB0DAN | 2026-09-04 17:34:40 | 52.12527 | 15.70622 | 96° | 164km/h | 12931m | 3.9m/s | -61.5°C | 36.2% | 176.89hPa | 2.6V | 00:00:00 | 00:00:00 | 00:00:00 | |
| SONCRA | 2026-09-04 17:34:39 | 52.12531 | 15.70551 | 96° | 172km/h | 12927m | 3.3m/s | -61.4°C | 36.4% | 177.0hPa | 2.7V | 00:00:00 | 00:00:00 | 00:00:00 | |
| DL2RXE-15 | 2026-09-04 17:34:36 | 52.12541 | 15.70411 | 97° | 170km/h | 12921m | 4.1m/s | -61.4°C | 0% | 0hPa | 2.7V | 00:00:00 | 00:00:00 | 00:00:00 | |
| EDDB2-11 | 2026-09-04 17:34:35 | 52.12552 | 15.70201 | 94° | 172km/h | 12909m | 3.5m/s | -61.3°C | 36.7% | 177.5hPa | 2.7V | 00:00:00 | 00:00:00 | 00:00:00 | |
| SONDE2-11 | 2026-09-04 17:34:34 | 52.12552 | 15.70201 | 94° | 172km/h | 12909m | 3.5m/s | -61.3°C | 36.7% | 177.5hPa | 2.7V | 00:00:00 | 00:00:00 | 00:00:00 | |
| SP3BTT-10 | 2026-09-04 17:34:30 | 52.12568 | 15.69921 | 96° | 172km/h | 12895m | 4.5m/s | -61.1°C | 48.1% | 177.9hPa | 2.7V | 00:00:00 | 00:00:00 | 00:00:00 | |
| OE3JTB-15 | 2026-09-04 17:34:29 | 52.12572 | 15.69850 | 97° | 172km/h | 12892m | 2.8m/s | -61.1°C | 48.4% | 178.0hPa | 2.7V | 00:00:00 | 00:00:00 | 08:30:00 | |
| 13BRC | 2026-09-04 17:34:28 | 52.12572 | 15.69850 | 97° | 173km/h | 12892m | 2.8m/s | -61.2°C | 38.4% | 178.0hPa | 2.8V | 00:00:00 | 00:00:00 | 00:00:00 | |
| SP6BVK | 2026-09-04 17:34:27 | 52.12577 | 15.69779 | 97° | 173km/h | 12889m | 3.8m/s | -61.2°C | 38.2% | 178.2hPa | 2.8V | 00:00:00 | 00:00:00 | 00:00:00 | |
| DB0DAN | 2026-09-04 17:34:25 | 52.12591 | 15.69568 | 96° | 164km/h | 12878m | 4.2m/s | -61.2°C | 39% | 178.46hPa | 2.8V | 00:00:00 | 00:00:00 | 00:00:00 | |
| KRY50SP-1 | 2026-09-04 17:34:24 | 52.12590 | 15.69568 | 97° | 172km/h | 12878m | 4.2m/s | -61.2°C | 39.1% | 178.5hPa | 2.7V | 00:00:00 | 00:00:00 | 00:00:00 | |
| KRY50SP-1 | 2026-09-04 17:34:19 | 52.12612 | 15.69222 | 97° | 170km/h | 12860m | 3.7m/s | -61.5°C | 41.1% | 179.0hPa | 2.7V | 00:00:00 | 00:00:00 | 00:00:00 | |
| DAC517 | 2026-09-04 17:34:18 | 52.12617 | 15.69153 | 98° | 170km/h | 12857m | 3.0m/s | -61.5°C | 41.0% | 179.1hPa | 2.7V | 00:00:00 | 00:00:00 | 00:00:00 | |
| SP3WXH-11 | 2026-09-04 17:34:17 | 52.12631 | 15.68947 | 96° | 170km/h | 12846m | 4.5m/s | -61.9°C | 42.2% | 179.4hPa | 2.7V | 00:00:00 | 00:00:00 | 00:00:00 | |
| DL2RXE-15 | 2026-09-04 17:34:15 | 52.12631 | 15.68947 | 97° | 172km/h | 12846m | 4.5m/s | -61.9°C | 42.2% | 179.4hPa | 2.7V | 00:00:00 | 00:00:00 | 00:00:00 | |
| KRY50SP-1 | 2026-09-04 17:34:13 | 52.12640 | 15.68806 | 97° | 173km/h | 12838m | 4.0m/s | -61.9°C | 42.3% | 179.6hPa | 2.7V | 00:00:00 | 00:00:00 | 00:00:00 | |
| DB0DAN | 2026-09-04 17:34:10 | 52.12659 | 15.68523 | 96° | 164km/h | 12824m | 2.5m/s | -62°C | 43.2% | 180.06hPa | 2.7V | 00:00:00 | 00:00:00 | 00:00:00 | |
| SONCRA | 2026-09-04 17:34:08 | 52.12669 | 15.68383 | 96° | 170km/h | 12817m | 3.3m/s | -62.0°C | 44.0% | 180.2hPa | 2.8V | 00:00:00 | 00:00:00 | 00:00:00 | |
| 13BRC | 2026-09-04 17:34:07 | 52.12669 | 15.68383 | 98° | 170km/h | 12817m | 3.3m/s | -62.0°C | 44.0% | 180.2hPa | 2.8V | 00:00:00 | 00:00:00 | 00:00:00 | |
| SP6BVK | 2026-09-04 17:34:06 | 52.12673 | 15.68314 | 97° | 170km/h | 12814m | 3.0m/s | -62.0°C | 44.2% | 180.3hPa | 2.8V | 00:00:00 | 00:00:00 | 00:00:00 | |
| EDDB2-11 | 2026-09-04 17:34:04 | 52.12688 | 15.68034 | 93° | 170km/h | 12799m | 3.7m/s | -62.1°C | 45.9% | 180.7hPa | 2.8V | 00:00:00 | 00:00:00 | 00:00:00 | |
| SONDE2-11 | 2026-09-04 17:34:03 | 52.12688 | 15.68034 | 93° | 170km/h | 12799m | 3.7m/s | -62.1°C | 45.9% | 180.7hPa | 2.8V | 00:00:00 | 00:00:00 | 00:00:00 | |
| S3001 | 2026-09-04 17:34:02 | 52.12712 | 15.67398 | 94° | 172km/h | 12767m | 3.8m/s | -62.3°C | 51.1% | 181.7hPa | 2.8V | 00:00:00 | 00:00:00 | 00:00:00 | |
| KRY50SP-1 | 2026-09-04 17:33:57 | 52.12699 | 15.67680 | 95° | 170km/h | 12781m | 3.3m/s | -62.2°C | 48.8% | 181.3hPa | 2.8V | 00:00:00 | 00:00:00 | 00:00:00 | |
| DB0DAN | 2026-09-04 17:33:55 | 52.12708 | 15.67469 | 94° | 164km/h | 12771m | 2.7m/s | -62.3°C | 50.3% | 181.55hPa | 2.8V | 00:00:00 | 00:00:00 | 00:00:00 | |
| SP3WXH-11 | 2026-09-04 17:33:46 | 52.12735 | 15.66758 | 92° | 175km/h | 12736m | 3.9m/s | -62.6°C | 56.5% | 182.6hPa | 2.6V | 00:00:00 | 00:00:00 | 00:00:00 | |
| SP3BTT-10 | 2026-09-04 17:33:45 | 52.12735 | 15.66758 | 93° | 172km/h | 12736m | 3.8m/s | -62.6°C | 69.4% | 182.5hPa | 2.6V | 00:00:00 | 00:00:00 | 00:00:00 | |
| DB0DAN | 2026-09-04 17:33:40 | 52.12745 | 15.66400 | 93° | 166km/h | 12718m | 4.3m/s | -62.6°C | 57.3% | 183.11hPa | 2.6V | 00:00:00 | 00:00:00 | 00:00:00 | |
| SONCRA | 2026-09-04 17:33:37 | 52.12750 | 15.66186 | 91° | 172km/h | 12707m | 3.5m/s | -62.5°C | 57.9% | 183.4hPa | 2.8V | 00:00:00 | 00:00:00 | 00:00:00 | |
| KRY50SP-1 | 2026-09-04 17:33:36 | 52.12750 | 15.66186 | 93° | 172km/h | 12707m | 3.5m/s | -62.5°C | 57.9% | 183.4hPa | 2.8V | 00:00:00 | 00:00:00 | 00:00:00 | |
| DAC517 | 2026-09-04 17:33:34 | 52.12753 | 15.66045 | 93° | 172km/h | 12700m | 3.3m/s | -62.4°C | 58.2% | 183.7hPa | 2.8V | 00:00:00 | 00:00:00 | 00:00:00 | |
| EDDB2-11 | 2026-09-04 17:33:33 | 52.12754 | 15.65834 | 89° | 170km/h | 12689m | 3.3m/s | -62.3°C | 0% | 184.0hPa | 2.8V | 00:00:00 | 00:00:00 | 00:00:00 | |
| SONDE2-11 | 2026-09-04 17:33:32 | 52.12754 | 15.65834 | 89° | 170km/h | 12689m | 3.3m/s | -62.3°C | 0% | 184.0hPa | 2.8V | 00:00:00 | 00:00:00 | 00:00:00 | |
| S3001 | 2026-09-04 17:33:31 | 52.12754 | 15.65764 | 89° | 172km/h | 12685m | 4.2m/s | -62.3°C | 57.9% | 184.1hPa | 2.8V | 00:00:00 | 00:00:00 | 00:00:00 | |
| 13BRC | 2026-09-04 17:33:27 | 52.12754 | 15.65551 | 91° | 173km/h | 12674m | 4.5m/s | -62.2°C | 57.2% | 184.4hPa | 2.8V | 00:00:00 | 00:00:00 | 00:00:00 | |
| DB0DAN | 2026-09-04 17:33:25 | 52.12755 | 15.65339 | 91° | 162km/h | 12663m | 3.6m/s | -62.1°C | 56% | 184.71hPa | 2.8V | 00:00:00 | 00:00:00 | 00:00:00 | |
| EDDB2-12 | 2026-09-04 17:33:24 | 52.12755 | 15.65269 | 91° | 168km/h | 12660m | 3.5m/s | -62.0°C | 56.0% | 184.8hPa | 2.8V | 00:00:00 | 00:00:00 | 00:00:00 | |
| KRY50SP-1 | 2026-09-04 17:33:20 | 52.12757 | 15.65061 | 92° | 170km/h | 12649m | 4.7m/s | -61.9°C | 56.5% | 185.2hPa | 2.8V | 00:00:00 | 00:00:00 | 00:00:00 | |
| KRY50SP-1 | 2026-09-04 17:33:14 | 52.12757 | 15.64637 | 91° | 175km/h | 12627m | 3.8m/s | -61.7°C | 58.7% | 185.8hPa | 2.8V | 00:00:00 | 00:00:00 | 00:00:00 | |
| KRY50SP-1 | 2026-09-04 17:33:09 | 52.12761 | 15.64278 | 93° | 170km/h | 12610m | 3.5m/s | -61.6°C | 58.4% | 186.3hPa | 2.8V | 00:00:00 | 00:00:00 | 00:00:00 | |
| SONCRA | 2026-09-04 17:33:06 | 52.12763 | 15.64003 | 90° | 166km/h | 12596m | 3.9m/s | -61.8°C | 61.2% | 186.7hPa | 2.8V | 00:00:00 | 00:00:00 | 00:00:00 | |
| KRY50SP-1 | 2026-09-04 17:33:04 | 52.12764 | 15.63933 | 92° | 168km/h | 12593m | 3.6m/s | -61.7°C | 61.9% | 186.8hPa | 2.8V | 00:00:00 | 00:00:00 | 00:00:00 | |
| SP6BVK | 2026-09-04 17:33:03 | 52.12764 | 15.63864 | 92° | 170km/h | 12589m | 3.4m/s | -61.7°C | 62.3% | 187.0hPa | 2.8V | 00:00:00 | 00:00:00 | 00:00:00 | |
| EDDB2-11 | 2026-09-04 17:33:02 | 52.12765 | 15.63653 | 90° | 172km/h | 12579m | 4.2m/s | -61.7°C | 62.8% | 187.3hPa | 2.8V | 00:00:00 | 00:00:00 | 00:00:00 | |
| SONDE2-11 | 2026-09-04 17:33:01 | 52.12765 | 15.63653 | 90° | 172km/h | 12579m | 4.2m/s | -61.7°C | 62.8% | 187.3hPa | 2.8V | 00:00:00 | 00:00:00 | 00:00:00 | |
| SP3BTT-10 | 2026-09-04 17:33:00 | 52.12765 | 15.63582 | 91° | 164km/h | 12575m | 2.7m/s | -61.7°C | 76.8% | 187.3hPa | 2.8V | 00:00:00 | 00:00:00 | 00:00:00 | |
| KRY50SP-1 | 2026-09-04 17:32:59 | 52.12766 | 15.63582 | 92° | 172km/h | 12575m | 2.8m/s | -61.7°C | 63.5% | 187.3hPa | 2.8V | 00:00:00 | 00:00:00 | 00:00:00 | |
| AA1-15 | 2026-09-04 17:32:41 | 52.12770 | 15.62262 | 91° | 166km/h | 12505m | 2.6m/s | -61.3°C | 69% | 189.5hPa | 2.8V | 18:12:15 | 01:15:16 | 00:00:00 | |
| AA1-15 | 2026-09-04 17:32:30 | 52.12768 | 15.61517 | 88° | 166km/h | 12462m | 2.5m/s | -61°C | 70.6% | 190.8hPa | 2.7V | 18:12:15 | 01:15:05 | 00:00:00 | |
| SONDE2-11 | 2026-09-04 17:32:30 | 52.12768 | 15.61517 | 88° | 164km/h | 12462m | 2.5m/s | -61.0°C | 66.4% | 190.8hPa | 2.7V | 00:00:00 | 00:00:00 | 00:00:00 | |
| S3001 | 2026-09-04 17:32:29 | 52.12766 | 15.61449 | 87° | 164km/h | 12458m | 5.0m/s | -61.0°C | 65.8% | 190.9hPa | 2.7V | 00:00:00 | 00:00:00 | 00:00:00 | |
| KRY50SP-1 | 2026-09-04 17:32:27 | 52.12765 | 15.61382 | 89° | 164km/h | 12454m | 3.5m/s | -60.9°C | 65.8% | 191.1hPa | 2.7V | 00:00:00 | 00:00:00 | 00:00:00 | |
| 13BRC | 2026-09-04 17:32:24 | 52.12761 | 15.61179 | 90° | 162km/h | 12441m | 3.2m/s | -60.9°C | 66.7% | 191.5hPa | 2.7V | 00:00:00 | 00:00:00 | 00:00:00 | |
| EDDB2-12 | 2026-09-04 17:32:22 | 52.12758 | 15.60981 | 87° | 159km/h | 12429m | 3.2m/s | -60.8°C | 67.8% | 191.9hPa | 2.7V | 00:00:00 | 00:00:00 | 00:00:00 | |
| SP6BVK | 2026-09-04 17:32:21 | 52.12758 | 15.60980 | 89° | 159km/h | 12429m | 3.2m/s | -60.8°C | 67.8% | 191.9hPa | 2.7V | 00:00:00 | 00:00:00 | 00:00:00 | |
| KRY50SP-1 | 2026-09-04 17:32:16 | 52.12749 | 15.60657 | 88° | 159km/h | 12411m | 3.5m/s | -60.6°C | 66.5% | 192.4hPa | 2.7V | 00:00:00 | 00:00:00 | 00:00:00 | |
| SP3BTT-10 | 2026-09-04 17:32:15 | 52.12745 | 15.60525 | 88° | 159km/h | 12403m | 3.5m/s | -60.6°C | 80.3% | 192.7hPa | 2.7V | 00:00:00 | 00:00:00 | 00:00:00 | |
| SP3WXH-11 | 2026-09-04 17:32:12 | 52.12739 | 15.60330 | 86° | 159km/h | 12391m | 3.3m/s | -60.5°C | 68.1% | 193.1hPa | 2.7V | 00:00:00 | 00:00:00 | 00:00:00 | |
| KRY50SP-1 | 2026-09-04 17:32:10 | 52.12736 | 15.60264 | 88° | 159km/h | 12388m | 4.6m/s | -60.5°C | 68.1% | 193.1hPa | 2.7V | 00:00:00 | 00:00:00 | 00:00:00 | |
| OE3JTB-15 | 2026-09-04 17:32:04 | 52.12726 | 15.59813 | 88° | 159km/h | 12361m | 3.0m/s | -60.2°C | 81.6% | 194.0hPa | 2.7V | 00:00:00 | 00:00:00 | 00:00:00 | |
| 13BRC | 2026-09-04 17:32:03 | 52.12726 | 15.59813 | 89° | 157km/h | 12361m | 3.1m/s | -60.2°C | 68.4% | 194.0hPa | 2.7V | 00:00:00 | 00:00:00 | 00:00:00 | |
| EDDB2-11 | 2026-09-04 17:32:00 | 52.12717 | 15.59489 | 87° | 155km/h | 12341m | 4.1m/s | -60.0°C | 67.0% | 194.6hPa | 2.7V | 00:00:00 | 00:00:00 | 00:00:00 | |
| SONDE2-11 | 2026-09-04 17:31:59 | 52.12717 | 15.59489 | 87° | 155km/h | 12341m | 4.1m/s | -60.0°C | 67.0% | 194.6hPa | 2.7V | 00:00:00 | 00:00:00 | 00:00:00 | |
| S3001 | 2026-09-04 17:31:58 | 52.12715 | 15.59425 | 87° | 155km/h | 12337m | 4.8m/s | -60.0°C | 66.8% | 194.8hPa | 2.7V | 00:00:00 | 00:00:00 | 00:00:00 | |
| EDDB2-12 | 2026-09-04 17:31:51 | 52.12706 | 15.58970 | 88° | 159km/h | 12307m | 3.2m/s | -59.7°C | 67.9% | 195.7hPa | 2.7V | 00:00:00 | 00:00:00 | 00:00:00 | |
| AA1-15 | 2026-09-04 17:31:32 | 52.12683 | 15.57733 | 89° | 159km/h | 12234m | 4m/s | -59.3°C | 79.3% | 197.9hPa | 2.7V | 18:12:15 | 01:14:07 | 00:00:00 | |
| EDDB2-11 | 2026-09-04 17:31:29 | 52.12679 | 15.57473 | 88° | 159km/h | 12219m | 3.2m/s | -59.2°C | 77.1% | 198.5hPa | 2.7V | 00:00:00 | 00:00:00 | 00:00:00 | |
| DB0DAN | 2026-09-04 17:31:25 | 52.12676 | 15.57276 | 88° | 151km/h | 12208m | 3.9m/s | -59.1°C | 76.9% | 198.73hPa | 2.7V | 00:00:00 | 00:00:00 | 00:00:00 | |
| AA1-15 | 2026-09-04 17:31:21 | 52.12673 | 15.57012 | 90° | 161km/h | 12193m | 4.3m/s | -58.9°C | 79.3% | 199.3hPa | 2.8V | 18:12:15 | 01:13:56 | 00:00:00 | |
| AA1-15 | 2026-09-04 17:31:10 | 52.12677 | 15.56315 | 90° | 157km/h | 12152m | 4.1m/s | -58.6°C | 77.2% | 200.6hPa | 2.8V | 18:12:15 | 01:13:45 | 00:00:00 | |
| DB0DAN | 2026-09-04 17:31:10 | 52.12677 | 15.56315 | 90° | 150km/h | 12152m | 4.1m/s | -58.6°C | 72.2% | 200.58hPa | 2.8V | 00:00:00 | 00:00:00 | 00:00:00 | |
| AA1-15 | 2026-09-04 17:31:00 | 52.12682 | 15.55674 | 90° | 157km/h | 12111m | 4.3m/s | -58.2°C | 77.3% | 201.9hPa | 2.8V | 18:12:15 | 01:13:35 | 00:00:00 | |
| EDDB2-11 | 2026-09-04 17:30:58 | 52.12683 | 15.55480 | 90° | 155km/h | 12098m | 3.7m/s | -58.1°C | 74.6% | 202.3hPa | 2.8V | 00:00:00 | 00:00:00 | 00:00:00 | |
| SONDE2-11 | 2026-09-04 17:30:57 | 52.12683 | 15.55416 | 90° | 155km/h | 12095m | 3.7m/s | -58.0°C | 74.0% | 202.5hPa | 2.8V | 00:00:00 | 00:00:00 | 00:00:00 | |
| S3001 | 2026-09-04 17:30:56 | 52.12683 | 15.55416 | 90° | 155km/h | 12095m | 3.7m/s | -58.0°C | 74.0% | 202.5hPa | 2.8V | 00:00:00 | 00:00:00 | 00:00:00 | |
| DB0DAN | 2026-09-04 17:30:55 | 52.12683 | 15.55352 | 90° | 150km/h | 12091m | 4.6m/s | -58°C | 73.9% | 202.53hPa | 2.8V | 00:00:00 | 00:00:00 | 00:00:00 | |
| AA1-15 | 2026-09-04 17:30:50 | 52.12683 | 15.55037 | 90° | 151km/h | 12070m | 3.7m/s | -57.9°C | 78.7% | 203.2hPa | 2.8V | 18:12:15 | 01:13:25 | 00:00:00 | |
| EDDB2-12 | 2026-09-04 17:30:49 | 52.12684 | 15.54913 | 90° | 150km/h | 12061m | 3.8m/s | -57.8°C | 75.3% | 203.5hPa | 2.7V | 00:00:00 | 00:00:00 | 00:00:00 | |
| DAC517 | 2026-09-04 17:30:46 | 52.12684 | 15.54851 | 91° | 151km/h | 12057m | 4.9m/s | -57.8°C | 75.5% | 203.6hPa | 2.7V | 00:00:00 | 00:00:00 | 00:00:00 | |
| SP3BTT-10 | 2026-09-04 17:30:45 | 52.12684 | 15.54725 | 91° | 153km/h | 12049m | 4.8m/s | -57.6°C | 88.3% | 203.9hPa | 2.7V | 00:00:00 | 00:00:00 | 08:30:00 | |
| DB0DAN | 2026-09-04 17:30:40 | 52.12687 | 15.54403 | 91° | 150km/h | 12027m | 4m/s | -57.5°C | 75.6% | 204.55hPa | 2.8V | 00:00:00 | 00:00:00 | 00:00:00 | |
| AA1-15 | 2026-09-04 17:30:33 | 52.12688 | 15.53960 | 90° | 157km/h | 11999m | 3.3m/s | -57.3°C | 78.1% | 205.5hPa | 2.8V | 18:12:15 | 01:13:08 | 00:00:00 | |
| AA1-15 | 2026-09-04 17:30:22 | 52.12695 | 15.53258 | 90° | 153km/h | 11954m | 4.1m/s | -56.9°C | 78.1% | 207hPa | 2.8V | 18:12:15 | 01:12:57 | 00:00:00 | |
| 13BRC | 2026-09-04 17:30:20 | 52.12695 | 15.53195 | 91° | 151km/h | 11950m | 3.9m/s | -56.9°C | 75.3% | 207.1hPa | 2.7V | 00:00:00 | 00:00:00 | 00:00:00 | |
| KRY50SP-1 | 2026-09-04 17:30:19 | 52.12695 | 15.53133 | 91° | 151km/h | 11946m | 3.7m/s | -56.8°C | 74.8% | 207.2hPa | 2.7V | 00:00:00 | 00:00:00 | 00:00:00 | |
| EDDB2-12 | 2026-09-04 17:30:18 | 52.12696 | 15.52945 | 91° | 150km/h | 11933m | 5.2m/s | -56.8°C | 75.1% | 207.6hPa | 2.7V | 00:00:00 | 00:00:00 | 00:00:00 | |
| SP3BTT-10 | 2026-09-04 17:30:15 | 52.12698 | 15.52821 | 92° | 155km/h | 11925m | 4.7m/s | -56.6°C | 88.7% | 207.9hPa | 2.7V | 00:00:00 | 00:00:00 | 00:00:00 | |
| KRY50SP-1 | 2026-09-04 17:30:13 | 52.12699 | 15.52758 | 93° | 153km/h | 11921m | 3.4m/s | -56.6°C | 76.5% | 208.1hPa | 2.7V | 00:00:00 | 00:00:00 | 00:00:00 | |
| DB0DAN | 2026-09-04 17:30:10 | 52.12703 | 15.52507 | 91° | 146km/h | 11904m | 3.9m/s | -56.6°C | 77.7% | 208.63hPa | 2.7V | 00:00:00 | 00:00:00 | 00:00:00 | |
| SP3WXH-11 | 2026-09-04 17:30:08 | 52.12705 | 15.52381 | 90° | 151km/h | 11896m | 3.6m/s | -56.5°C | 78.6% | 208.8hPa | 2.8V | 00:00:00 | 00:00:00 | 00:00:00 | |
| DAC517 | 2026-09-04 17:30:05 | 52.12705 | 15.52191 | 91° | 153km/h | 11884m | 4.3m/s | -56.4°C | 78.3% | 209.2hPa | 2.8V | 00:00:00 | 00:00:00 | 00:00:00 | |
| SONCRA | 2026-09-04 17:30:00 | 52.12710 | 15.51817 | 91° | 150km/h | 11859m | 3.4m/s | -56.2°C | 78.4% | 210.1hPa | 2.8V | 00:00:00 | 00:00:00 | 00:00:00 | |
| KRY50SP-1 | 2026-09-04 17:29:57 | 52.12711 | 15.51755 | 93° | 153km/h | 11854m | 5.2m/s | -56.1°C | 78.2% | 210.3hPa | 2.8V | 00:00:00 | 00:00:00 | 00:00:00 | |
| DB0DAN | 2026-09-04 17:29:55 | 52.12715 | 15.51563 | 92° | 150km/h | 11841m | 4.9m/s | -56°C | 77.4% | 210.67hPa | 2.8V | 00:00:00 | 00:00:00 | 00:00:00 | |
| SONDE2-11 | 2026-09-04 17:29:55 | 52.12716 | 15.51498 | 91° | 157km/h | 11837m | 3.5m/s | -56.0°C | 77.1% | 210.8hPa | 2.7V | 00:00:00 | 00:00:00 | 00:00:00 | |
| S3001 | 2026-09-04 17:29:54 | 52.12717 | 15.51433 | 91° | 157km/h | 11833m | 4.5m/s | -56.0°C | 76.5% | 210.9hPa | 2.7V | 00:00:00 | 00:00:00 | 00:00:00 | |
| EDDB2-12 | 2026-09-04 17:29:47 | 52.12728 | 15.50985 | 92° | 153km/h | 11803m | 3.7m/s | -55.7°C | 75.3% | 211.9hPa | 2.7V | 00:00:00 | 00:00:00 | 00:00:00 | |
| KRY50SP-1 | 2026-09-04 17:29:46 | 52.12726 | 15.51048 | 93° | 155km/h | 11807m | 3.9m/s | -55.7°C | 75.8% | 211.9hPa | 2.7V | 00:00:00 | 00:00:00 | 00:00:00 | |
| SP3BTT-10 | 2026-09-04 17:29:45 | 52.12729 | 15.50922 | 93° | 159km/h | 11800m | 4.2m/s | -55.6°C | 87.4% | 212.0hPa | 2.7V | 00:00:00 | 00:00:00 | 00:00:00 | |
| DB0DAN | 2026-09-04 17:29:40 | 52.12739 | 15.50597 | 93° | 153km/h | 11779m | 4.7m/s | -55.5°C | 75.1% | 212.78hPa | 2.7V | 00:00:00 | 00:00:00 | 00:00:00 | |
| AA1-15 | 2026-09-04 17:29:38 | 52.12742 | 15.50466 | 92° | 161km/h | 11772m | 4.1m/s | -55.4°C | 77.8% | 213hPa | 2.8V | 18:12:15 | 01:12:13 | 00:00:00 | |
| SP6BVK | 2026-09-04 17:29:37 | 52.12744 | 15.50400 | 94° | 157km/h | 11768m | 3.7m/s | -55.4°C | 74.8% | 213.1hPa | 2.7V | 00:00:00 | 00:00:00 | 00:00:00 | |
| KRY50SP-1 | 2026-09-04 17:29:36 | 52.12744 | 15.50400 | 94° | 157km/h | 11768m | 3.7m/s | -55.4°C | 74.8% | 213.1hPa | 2.7V | 00:00:00 | 00:00:00 | 00:00:00 | |
| KRY50SP-1 | 2026-09-04 17:29:30 | 52.12757 | 15.50018 | 95° | 157km/h | 11743m | 4.5m/s | -55.1°C | 72.8% | 214.0hPa | 2.7V | 00:00:00 | 00:00:00 | 00:00:00 | |
| SONCRA | 2026-09-04 17:29:29 | 52.12764 | 15.49821 | 92° | 161km/h | 11730m | 5.2m/s | -55.0°C | 72.0% | 214.4hPa | 2.7V | 00:00:00 | 00:00:00 | 00:00:00 | |
| DB0DAN | 2026-09-04 17:29:25 | 52.12771 | 15.49623 | 94° | 151km/h | 11717m | 3.5m/s | -54.9°C | 72.2% | 214.86hPa | 2.7V | 00:00:00 | 00:00:00 | 00:00:00 | |
| SONDE2-11 | 2026-09-04 17:29:24 | 52.12776 | 15.49491 | 93° | 159km/h | 11709m | 3.2m/s | -54.9°C | 72.0% | 215.1hPa | 2.7V | 00:00:00 | 00:00:00 | 00:00:00 | |
| S3001 | 2026-09-04 17:29:23 | 52.12776 | 15.49491 | 93° | 159km/h | 11709m | 3.2m/s | -54.9°C | 72.0% | 215.1hPa | 2.7V | 00:00:00 | 00:00:00 | 00:00:00 | |
| KRY50SP-1 | 2026-09-04 17:29:20 | 52.12781 | 15.49361 | 94° | 157km/h | 11701m | 4.7m/s | -54.8°C | 71.3% | 215.4hPa | 2.7V | 00:00:00 | 00:00:00 | 00:00:00 | |
| 13BRC | 2026-09-04 17:29:19 | 52.12783 | 15.49297 | 94° | 157km/h | 11697m | 3.3m/s | -54.8°C | 71.6% | 215.5hPa | 2.7V | 00:00:00 | 00:00:00 | 00:00:00 | |
| DAC517 | 2026-09-04 17:29:18 | 52.12787 | 15.49167 | 94° | 159km/h | 11689m | 3.5m/s | -54.7°C | 71.7% | 215.8hPa | 2.7V | 00:00:00 | 00:00:00 | 00:00:00 | |
| SP6BVK | 2026-09-04 17:29:17 | 52.12789 | 15.49102 | 94° | 159km/h | 11685m | 3.9m/s | -54.7°C | 71.2% | 215.9hPa | 2.7V | 00:00:00 | 00:00:00 | 00:00:00 | |
| EDDB2-12 | 2026-09-04 17:29:16 | 52.12793 | 15.48970 | 92° | 161km/h | 11677m | 3.7m/s | -54.6°C | 71.4% | 216.2hPa | 2.7V | 00:00:00 | 00:00:00 | 00:00:00 | |
| SP3BTT-10 | 2026-09-04 17:29:15 | 52.12793 | 15.48970 | 93° | 161km/h | 11677m | 3.7m/s | -54.6°C | 82.8% | 216.2hPa | 2.7V | 00:00:00 | 00:00:00 | 00:00:00 | |
| DB0DAN | 2026-09-04 17:29:10 | 52.12807 | 15.48637 | 94° | 155km/h | 11656m | 4.7m/s | -54.4°C | 71.9% | 216.89hPa | 2.8V | 00:00:00 | 00:00:00 | 00:00:00 | |
| KRY50SP-1 | 2026-09-04 17:29:09 | 52.12807 | 15.48637 | 95° | 162km/h | 11656m | 4.7m/s | -54.4°C | 71.9% | 216.9hPa | 2.7V | 00:00:00 | 00:00:00 | 00:00:00 | |
| SP3WXH-11 | 2026-09-04 17:29:06 | 52.12820 | 15.48374 | 94° | 159km/h | 11641m | 4.7m/s | -54.3°C | 71.9% | 217.4hPa | 2.7V | 00:00:00 | 00:00:00 | 00:00:00 | |
| KRY50SP-1 | 2026-09-04 17:29:04 | 52.12823 | 15.48309 | 95° | 161km/h | 11637m | 4.0m/s | -54.2°C | 72.3% | 217.7hPa | 2.7V | 00:00:00 | 00:00:00 | 00:00:00 | |
| DL2RXE-15 | 2026-09-04 17:29:03 | 52.12829 | 15.48178 | 96° | 159km/h | 11628m | 4.7m/s | -54.2°C | 72.9% | 217.9hPa | 2.7V | 00:00:00 | 00:00:00 | 00:00:00 | |
| SONCRA | 2026-09-04 17:28:58 | 52.12853 | 15.47781 | 95° | 162km/h | 11604m | 4.9m/s | -54.0°C | 71.8% | 218.8hPa | 2.7V | 00:00:00 | 00:00:00 | 00:00:00 | |
| DB0DAN | 2026-09-04 17:28:55 | 52.12860 | 15.47648 | 95° | 153km/h | 11596m | 4.6m/s | -53.9°C | 71.4% | 219.05hPa | 2.7V | 00:00:00 | 00:00:00 | 00:00:00 | |
| SONDE2-11 | 2026-09-04 17:28:53 | 52.12870 | 15.47452 | 94° | 159km/h | 11585m | 3.9m/s | -53.8°C | 71.9% | 219.5hPa | 2.7V | 00:00:00 | 00:00:00 | 00:00:00 | |
| S3001 | 2026-09-04 17:28:52 | 52.12874 | 15.47386 | 95° | 159km/h | 11581m | 4.3m/s | -53.8°C | 71.8% | 219.6hPa | 2.7V | 00:00:00 | 00:00:00 | 00:00:00 | |
| KRY50SP-1 | 2026-09-04 17:28:49 | 52.12877 | 15.47321 | 97° | 161km/h | 11576m | 5.7m/s | -53.7°C | 72.3% | 219.8hPa | 2.7V | 00:00:00 | 00:00:00 | 00:00:00 | |
| SP3BTT-10 | 2026-09-04 17:28:45 | 52.12901 | 15.46989 | 97° | 161km/h | 11551m | 3.8m/s | -53.5°C | 84.7% | 220.4hPa | 2.7V | 00:00:00 | 00:00:00 | 00:00:00 | |
| KRY50SP-1 | 2026-09-04 17:28:44 | 52.12901 | 15.46989 | 98° | 162km/h | 11551m | 3.8m/s | -53.5°C | 73.5% | 220.4hPa | 2.7V | 00:00:00 | 00:00:00 | 00:00:00 | |
| DB0DAN | 2026-09-04 17:28:40 | 52.12923 | 15.46657 | 96° | 153km/h | 11532m | 3.9m/s | -53.4°C | 72.4% | 221.09hPa | 2.7V | 00:00:00 | 00:00:00 | 00:00:00 | |
| KRY50SP-1 | 2026-09-04 17:28:39 | 52.12927 | 15.46591 | 97° | 161km/h | 11528m | 3.9m/s | -53.3°C | 72.4% | 221.2hPa | 2.7V | 00:00:00 | 00:00:00 | 00:00:00 | |
| 13BRC | 2026-09-04 17:28:38 | 52.12927 | 15.46591 | 97° | 161km/h | 11528m | 3.9m/s | -53.3°C | 72.4% | 221.2hPa | 2.7V | 00:00:00 | 00:00:00 | 00:00:00 | |
| DAC517 | 2026-09-04 17:28:36 | 52.12940 | 15.46394 | 96° | 161km/h | 11516m | 4.6m/s | -53.2°C | 72.1% | 221.7hPa | 2.7V | 00:00:00 | 00:00:00 | 00:00:00 | |
| SP3WXH-11 | 2026-09-04 17:28:35 | 52.12944 | 15.46328 | 95° | 161km/h | 11511m | 3.7m/s | -53.2°C | 72.3% | 221.8hPa | 2.7V | 00:00:00 | 00:00:00 | 00:00:00 | |
| KRY50SP-1 | 2026-09-04 17:28:32 | 52.12951 | 15.46194 | 96° | 164km/h | 11503m | 3.6m/s | -53.2°C | 72.9% | 222.1hPa | 2.7V | 00:00:00 | 00:00:00 | 00:00:00 | |
| OE3JTB-15 | 2026-09-04 17:28:29 | 52.12966 | 15.45927 | 97° | 161km/h | 11488m | 3.4m/s | -53.0°C | 85.4% | 222.6hPa | 2.7V | 00:00:00 | 01:11:04 | 00:00:00 | |
| DB0DAN | 2026-09-04 17:28:25 | 52.12984 | 15.45663 | 96° | 153km/h | 11472m | 4.7m/s | -52.9°C | 73.5% | 223.12hPa | 2.7V | 00:00:00 | 00:00:00 | 00:00:00 | |
| EDDB2-11 | 2026-09-04 17:28:22 | 52.12997 | 15.45466 | 95° | 159km/h | 11460m | 3.5m/s | -52.8°C | 73.2% | 223.6hPa | 2.8V | 00:00:00 | 00:00:00 | 00:00:00 | |
| S3001 | 2026-09-04 17:28:21 | 52.13004 | 15.45335 | 95° | 161km/h | 11452m | 3.5m/s | -52.8°C | 73.2% | 223.9hPa | 2.8V | 00:00:00 | 00:00:00 | 00:00:00 | |
| 13BRC | 2026-09-04 17:28:17 | 52.13012 | 15.45203 | 96° | 161km/h | 11444m | 3.8m/s | -52.7°C | 72.7% | 224.1hPa | 2.8V | 00:00:00 | 00:00:00 | 00:00:00 | |
| AA1-15 | 2026-09-04 17:27:59 | 52.13084 | 15.43952 | 95° | 162km/h | 11370m | 4.8m/s | -52.1°C | 74.3% | 226.7hPa | 2.8V | 18:12:15 | 01:10:34 | 00:00:00 | |
| SONCRA | 2026-09-04 17:27:55 | 52.13098 | 15.43691 | 94° | 155km/h | 11355m | 4.7m/s | -52.0°C | 69.3% | 227.3hPa | 2.7V | 00:00:00 | 00:00:00 | 00:00:00 | |
| EDDB2-11 | 2026-09-04 17:27:51 | 52.13112 | 15.43435 | 95° | 157km/h | 11338m | 4.4m/s | -51.9°C | 68.8% | 227.8hPa | 2.7V | 00:00:00 | 00:00:00 | 00:00:00 | |
| S3001 | 2026-09-04 17:27:50 | 52.13119 | 15.43305 | 95° | 159km/h | 11330m | 4.4m/s | -51.8°C | 68.2% | 228.1hPa | 2.7V | 00:00:00 | 00:00:00 | 00:00:00 | |
| AA1-15 | 2026-09-04 17:27:42 | 52.13141 | 15.42852 | 94° | 157km/h | 11301m | 3.2m/s | -51.6°C | 71.6% | 229.1hPa | 2.7V | 18:12:15 | 01:10:17 | 00:00:00 | |
| DB0DAN | 2026-09-04 17:27:40 | 52.13147 | 15.42722 | 95° | 151km/h | 11293m | 3.3m/s | -51.6°C | 67.5% | 229.39hPa | 2.8V | 00:00:00 | 00:00:00 | 00:00:00 | |
| AA1-15 | 2026-09-04 17:27:27 | 52.13185 | 15.41874 | 94° | 159km/h | 11241m | 4.5m/s | -51.1°C | 74.7% | 231.2hPa | 2.7V | 18:12:15 | 01:10:02 | 00:00:00 | |
| DB0DAN | 2026-09-04 17:27:25 | 52.13190 | 15.41743 | 93° | 151km/h | 11232m | 4.8m/s | -51.1°C | 72.1% | 231.63hPa | 2.8V | 00:00:00 | 00:00:00 | 00:00:00 | |
| SONCRA | 2026-09-04 17:27:25 | 52.13192 | 15.41678 | 92° | 159km/h | 11228m | 3.6m/s | -51.0°C | 72.2% | 231.7hPa | 2.8V | 00:00:00 | 00:00:00 | 00:00:00 | |
| DAC517 | 2026-09-04 17:27:23 | 52.13192 | 15.41678 | 93° | 159km/h | 11229m | 3.6m/s | -51.0°C | 72.2% | 231.7hPa | 2.8V | 00:00:00 | 00:00:00 | 00:00:00 | |
| KRY50SP-1 | 2026-09-04 17:27:21 | 52.13195 | 15.41546 | 93° | 161km/h | 11221m | 3.6m/s | -50.9°C | 72.8% | 232.0hPa | 2.8V | 00:00:00 | 00:00:00 | 00:00:00 | |
| EDDB2-11 | 2026-09-04 17:27:20 | 52.13199 | 15.41414 | 92° | 159km/h | 11212m | 3.3m/s | -50.9°C | 73.6% | 232.3hPa | 2.8V | 00:00:00 | 00:00:00 | 00:00:00 | |
| SONDE2-11 | 2026-09-04 17:27:19 | 52.13200 | 15.41348 | 92° | 161km/h | 11208m | 4.9m/s | -50.8°C | 73.4% | 232.4hPa | 2.8V | 00:00:00 | 00:00:00 | 00:00:00 | |
| S3001 | 2026-09-04 17:27:18 | 52.13205 | 15.41215 | 93° | 161km/h | 11200m | 3.8m/s | -50.8°C | 73.2% | 232.7hPa | 2.8V | 00:00:00 | 00:00:00 | 00:00:00 | |
| 13BRC | 2026-09-04 17:27:16 | 52.13205 | 15.41215 | 94° | 161km/h | 11200m | 3.8m/s | -50.8°C | 73.2% | 232.7hPa | 2.8V | 00:00:00 | 00:00:00 | 00:00:00 | |
| SP3BTT-10 | 2026-09-04 17:27:15 | 52.13208 | 15.41084 | 93° | 157km/h | 11193m | 3.8m/s | -50.6°C | 83.1% | 232.9hPa | 2.8V | 00:00:00 | 00:00:00 | 00:00:00 | |
| SP6BVK | 2026-09-04 17:27:13 | 52.13210 | 15.41018 | 93° | 161km/h | 11188m | 5.1m/s | -50.6°C | 73.0% | 233.1hPa | 2.8V | 00:00:00 | 00:00:00 | 00:00:00 | |
| DB0DAN | 2026-09-04 17:27:10 | 52.13216 | 15.40755 | 92° | 153km/h | 11171m | 5.6m/s | -50.5°C | 71.6% | 233.75hPa | 2.8V | 00:00:00 | 00:00:00 | 00:00:00 | |
| KRY50SP-1 | 2026-09-04 17:27:06 | 52.13223 | 15.40492 | 94° | 159km/h | 11153m | 4.6m/s | -50.4°C | 72.2% | 234.3hPa | 2.8V | 00:00:00 | 00:00:00 | 00:00:00 | |
| OE3JTB-15 | 2026-09-04 17:27:02 | 52.13230 | 15.40233 | 92° | 157km/h | 11136m | 3.9m/s | -50.2°C | 81.8% | 234.9hPa | 2.8V | 00:00:00 | 01:09:37 | 00:00:00 | |
| KRY50SP-1 | 2026-09-04 17:26:59 | 52.13232 | 15.40104 | 93° | 157km/h | 11127m | 3.7m/s | -50.1°C | 72.2% | 235.3hPa | 2.8V | 00:00:00 | 00:00:00 | 00:00:00 | |
| DB0DAN | 2026-09-04 17:26:55 | 52.13240 | 15.39781 | 93° | 151km/h | 11106m | 4.9m/s | -49.9°C | 73.3% | 236.04hPa | 2.8V | 00:00:00 | 00:00:00 | 00:00:00 | |
| SONCRA | 2026-09-04 17:26:53 | 52.13243 | 15.39652 | 92° | 157km/h | 11097m | 4.3m/s | -49.9°C | 73.7% | 236.4hPa | 2.8V | 00:00:00 | 00:00:00 | 00:00:00 | |
| EDDB2-11 | 2026-09-04 17:26:49 | 52.13248 | 15.39393 | 91° | 155km/h | 11080m | 3.6m/s | -49.7°C | 74.9% | 237.0hPa | 2.8V | 00:00:00 | 00:00:00 | 00:00:00 | |
| SONDE2-11 | 2026-09-04 17:26:48 | 52.13249 | 15.39329 | 91° | 155km/h | 11076m | 4.5m/s | -49.7°C | 75.3% | 237.2hPa | 2.8V | 00:00:00 | 00:00:00 | 00:00:00 | |
| S3001 | 2026-09-04 17:26:47 | 52.13251 | 15.39265 | 92° | 155km/h | 11072m | 3.7m/s | -49.6°C | 75.5% | 237.2hPa | 2.8V | 00:00:00 | 00:00:00 | 00:00:00 | |
| AA1-15 | 2026-09-04 17:26:40 | 52.13261 | 15.38820 | 92° | 157km/h | 11043m | 3.5m/s | -49.4°C | 79.7% | 238.3hPa | 2.8V | 18:12:15 | 01:09:15 | 00:00:00 | |
| AA1-15 | 2026-09-04 17:26:30 | 52.13274 | 15.38179 | 92° | 157km/h | 11003m | 4.1m/s | -49°C | 81.4% | 239.8hPa | 2.8V | 18:12:15 | 01:09:05 | 00:00:00 | |
| KRY50SP-1 | 2026-09-04 17:26:26 | 52.13279 | 15.37986 | 93° | 157km/h | 10991m | 3.4m/s | -48.9°C | 78.6% | 240.3hPa | 2.7V | 00:00:00 | 00:00:00 | 00:00:00 | |
| SONCRA | 2026-09-04 17:26:22 | 52.13285 | 15.37666 | 91° | 153km/h | 10970m | 5.1m/s | -48.7°C | 77.5% | 240.9hPa | 2.7V | 00:00:00 | 00:00:00 | 00:00:00 | |
| KRY50SP-1 | 2026-09-04 17:26:20 | 52.13286 | 15.37603 | 93° | 153km/h | 10965m | 3.7m/s | -48.7°C | 78.0% | 241.2hPa | 2.7V | 00:00:00 | 00:00:00 | 00:00:00 | |
| EDDB2-11 | 2026-09-04 17:26:18 | 52.13290 | 15.37415 | 92° | 153km/h | 10953m | 3.7m/s | -48.6°C | 77.6% | 241.7hPa | 2.7V | 00:00:00 | 00:00:00 | 00:00:00 | |
| SONDE2-11 | 2026-09-04 17:26:17 | 52.13292 | 15.37352 | 92° | 155km/h | 10949m | 4.0m/s | -48.5°C | 77.4% | 241.8hPa | 2.7V | 00:00:00 | 00:00:00 | 00:00:00 | |
| SP3BTT-10 | 2026-09-04 17:26:15 | 52.13296 | 15.37225 | 93° | 155km/h | 10942m | 4.7m/s | -48.4°C | 86.4% | 242.0hPa | 2.7V | 00:00:00 | 00:00:00 | 08:30:00 | |
| 13BRC | 2026-09-04 17:26:14 | 52.13296 | 15.37225 | 93° | 155km/h | 10942m | 4.8m/s | -48.5°C | 76.6% | 242.1hPa | 2.7V | 00:00:00 | 00:00:00 | 00:00:00 | |
| DB0DAN | 2026-09-04 17:26:10 | 52.13304 | 15.36903 | 92° | 148km/h | 10922m | 3.9m/s | -48.3°C | 75.4% | 242.8hPa | 2.7V | 00:00:00 | 00:00:00 | 00:00:00 | |
| AA1-15 | 2026-09-04 17:26:08 | 52.13307 | 15.36775 | 92° | 157km/h | 10914m | 4.3m/s | -48.2°C | 76.9% | 243.1hPa | 2.8V | 18:12:15 | 01:08:43 | 00:00:00 | |
| AA1-15 | 2026-09-04 17:25:57 | 52.13325 | 15.36067 | 93° | 155km/h | 10871m | 4.1m/s | -47.8°C | 73.9% | 244.6hPa | 2.8V | 18:12:15 | 01:08:32 | 00:00:00 | |
| DB0DAN | 2026-09-04 17:25:55 | 52.13329 | 15.35939 | 93° | 150km/h | 10863m | 4.3m/s | -47.8°C | 70.5% | 244.95hPa | 2.7V | 00:00:00 | 00:00:00 | 00:00:00 | |
| SONCRA | 2026-09-04 17:25:51 | 52.13338 | 15.35683 | 93° | 155km/h | 10847m | 4.5m/s | -47.6°C | 69.6% | 245.6hPa | 2.8V | 00:00:00 | 00:00:00 | 00:00:00 | |
| EDDB2-11 | 2026-09-04 17:25:47 | 52.13345 | 15.35428 | 92° | 153km/h | 10830m | 4.2m/s | -47.5°C | 69.1% | 246.2hPa | 2.8V | 00:00:00 | 00:00:00 | 00:00:00 | |
| SONDE2-11 | 2026-09-04 17:25:46 | 52.13347 | 15.35364 | 92° | 155km/h | 10826m | 3.6m/s | -47.4°C | 69.0% | 246.4hPa | 2.8V | 00:00:00 | 00:00:00 | 00:00:00 | |
| S3001 | 2026-09-04 17:25:45 | 52.13348 | 15.35300 | 92° | 153km/h | 10823m | 4.4m/s | -47.4°C | 68.5% | 246.5hPa | 2.8V | 00:00:00 | 00:00:00 | 00:00:00 | |
| AA1-15 | 2026-09-04 17:25:42 | 52.13353 | 15.35110 | 92° | 157km/h | 10810m | 4.4m/s | -47.3°C | 71.4% | 247hPa | 2.8V | 18:12:15 | 01:08:17 | 00:00:00 | |
| DB0DAN | 2026-09-04 17:25:40 | 52.13357 | 15.34982 | 93° | 148km/h | 10802m | 5.3m/s | -47.2°C | 67.9% | 247.29hPa | 2.8V | 00:00:00 | 00:00:00 | 00:00:00 | |
| AA1-15 | 2026-09-04 17:25:32 | 52.13378 | 15.34472 | 94° | 159km/h | 10769m | 3.5m/s | -46.9°C | 72.2% | 248.5hPa | 2.8V | 18:12:15 | 01:08:07 | 00:00:00 | |
| KRY50SP-1 | 2026-09-04 17:25:31 | 52.13380 | 15.34407 | 95° | 157km/h | 10765m | 4.6m/s | -46.9°C | 68.5% | 248.7hPa | 2.8V | 00:00:00 | 00:00:00 | 00:00:00 | |
| SP6BVK | 2026-09-04 17:25:30 | 52.13380 | 15.34407 | 95° | 157km/h | 10765m | 4.6m/s | -46.9°C | 68.5% | 248.7hPa | 2.8V | 00:00:00 | 00:00:00 | 00:00:00 | |
| SP3WXH-11 | 2026-09-04 17:25:29 | 52.13385 | 15.34279 | 93° | 153km/h | 10757m | 3.8m/s | -46.8°C | 68.8% | 249.0hPa | 2.8V | 00:00:00 | 00:00:00 | 00:00:00 | |
| DB0DAN | 2026-09-04 17:25:25 | 52.13394 | 15.34027 | 93° | 144km/h | 10741m | 4m/s | -46.7°C | 68.9% | 249.56hPa | 2.8V | 00:00:00 | 00:00:00 | 00:00:00 | |
| AA1-15 | 2026-09-04 17:25:19 | 52.13409 | 15.33650 | 93° | 157km/h | 10717m | 2.8m/s | 0°C | 0% | 250.5hPa | 2.8V | 18:12:15 | 01:07:54 | 00:00:00 | |
| KRY50SP-1 | 2026-09-04 17:25:18 | 52.13409 | 15.33650 | 94° | 157km/h | 10717m | 2.8m/s | -46.4°C | 68.7% | 250.5hPa | 2.8V | 00:00:00 | 00:00:00 | 00:00:00 | |
| EDDB2-11 | 2026-09-04 17:25:16 | 52.13416 | 15.33458 | 92° | 153km/h | 10706m | 3.5m/s | -46.3°C | 68.5% | 250.9hPa | 2.8V | 00:00:00 | 00:00:00 | 00:00:00 | |
| SP3BTT-10 | 2026-09-04 17:25:15 | 52.13417 | 15.33394 | 93° | 151km/h | 10703m | 3.7m/s | -46.3°C | 77.2% | 251.0hPa | 2.8V | 00:00:00 | 00:00:00 | 00:00:00 | |
| S3001 | 2026-09-04 17:25:14 | 52.13419 | 15.33330 | 93° | 155km/h | 10699m | 3.8m/s | -46.3°C | 68.5% | 251.2hPa | 2.8V | 00:00:00 | 00:00:00 | 00:00:00 | |
| 13BRC | 2026-09-04 17:25:13 | 52.13419 | 15.33330 | 95° | 155km/h | 10699m | 3.8m/s | -46.3°C | 68.5% | 251.2hPa | 2.8V | 00:00:00 | 00:00:00 | 00:00:00 | |
| DL2RXE-15 | 2026-09-04 17:25:12 | 52.13422 | 15.33267 | 95° | 153km/h | 10695m | 4.4m/s | -46.2°C | 68.3% | 251.3hPa | 2.8V | 00:00:00 | 00:00:00 | 00:00:00 | |
| DB0DAN | 2026-09-04 17:25:10 | 52.13432 | 15.33080 | 95° | 146km/h | 10683m | 5m/s | -46.1°C | 68.6% | 251.74hPa | 2.8V | 00:00:00 | 00:00:00 | 00:00:00 | |
| AA1-15 | 2026-09-04 17:25:08 | 52.13439 | 15.32954 | 95° | 153km/h | 10675m | 4.6m/s | 0°C | 0% | 0hPa | 2.8V | 18:12:15 | 01:07:43 | 00:00:00 | |
| EDDB2-12 | 2026-09-04 17:25:07 | 52.13443 | 15.32892 | 94° | 150km/h | 10671m | 3.4m/s | -46.0°C | 68.9% | 252.2hPa | 2.7V | 00:00:00 | 00:00:00 | 00:00:00 | |
| KRY50SP-1 | 2026-09-04 17:25:06 | 52.13442 | 15.32892 | 96° | 151km/h | 10671m | 3.4m/s | -46.0°C | 68.9% | 252.2hPa | 2.7V | 00:00:00 | 00:00:00 | 00:00:00 | |
| OE3JTB-15 | 2026-09-04 17:25:03 | 52.13455 | 15.32642 | 95° | 151km/h | 10655m | 4.0m/s | -45.8°C | 76.9% | 252.7hPa | 2.7V | 00:00:00 | 00:00:00 | 08:30:00 | |
| SP3WXH-11 | 2026-09-04 17:24:58 | 52.13471 | 15.32328 | 94° | 151km/h | 10635m | 4.7m/s | -45.7°C | 69.2% | 253.5hPa | 2.7V | 00:00:00 | 00:00:00 | 00:00:00 | |
| AA1-15 | 2026-09-04 17:24:58 | 52.13471 | 15.32328 | 95° | 151km/h | 10635m | 4.7m/s | 0°C | 0% | 0hPa | 2.8V | 18:12:15 | 01:07:33 | 00:00:00 | |
| DB0DAN | 2026-09-04 17:24:55 | 52.13480 | 15.32142 | 95° | 144km/h | 10624m | 4.8m/s | -45.6°C | 69.5% | 253.95hPa | 2.7V | 00:00:00 | 00:00:00 | 00:00:00 | |
| AA1-15 | 2026-09-04 17:24:47 | 52.13507 | 15.31648 | 95° | 151km/h | 10593m | 4m/s | 0°C | 0% | 0hPa | 2.8V | 18:12:15 | 01:07:22 | 00:00:00 | |
| KRY50SP-1 | 2026-09-04 17:24:45 | 52.13514 | 15.31524 | 96° | 151km/h | 10586m | 4.6m/s | -45.3°C | 71.2% | 255.4hPa | 2.8V | 00:00:00 | 00:00:00 | 00:00:00 | |
| SONDE2-11 | 2026-09-04 17:24:44 | 52.13518 | 15.31462 | 94° | 150km/h | 10581m | 3.8m/s | -45.3°C | 71.7% | 255.6hPa | 2.8V | 00:00:00 | 00:00:00 | 00:00:00 | |
| S3001 | 2026-09-04 17:24:43 | 52.13521 | 15.31400 | 94° | 151km/h | 10577m | 4.2m/s | -45.2°C | 71.9% | 255.7hPa | 2.8V | 00:00:00 | 00:00:00 | 00:00:00 | |
| DB0DAN | 2026-09-04 17:24:40 | 52.13529 | 15.31211 | 94° | 144km/h | 10566m | 3.6m/s | -45.1°C | 73.2% | 256.21hPa | 2.8V | 00:00:00 | 00:00:00 | 00:00:00 | |
| AA1-15 | 2026-09-04 17:24:27 | 52.13568 | 15.30408 | 95° | 148km/h | 10515m | 3.5m/s | 0°C | 0% | 0hPa | 2.7V | 18:12:15 | 01:07:02 | 00:00:00 | |
| DB0DAN | 2026-09-04 17:24:25 | 52.13575 | 15.30286 | 95° | 142km/h | 10507m | 3.5m/s | -44.6°C | 78.7% | 258.53hPa | 2.8V | 00:00:00 | 00:00:00 | 00:00:00 | |
| DL2RXE-15 | 2026-09-04 17:24:24 | 52.13575 | 15.30286 | 96° | 150km/h | 10507m | 3.5m/s | -44.6°C | 78.8% | 258.5hPa | 2.7V | 00:00:00 | 00:00:00 | 00:00:00 | |
| KRY50SP-1 | 2026-09-04 17:24:21 | 52.13584 | 15.30103 | 95° | 150km/h | 10494m | 4.9m/s | -44.5°C | 79.1% | 258.9hPa | 2.7V | 00:00:00 | 00:00:00 | 00:00:00 | |
| SONCRA | 2026-09-04 17:24:18 | 52.13594 | 15.29860 | 94° | 146km/h | 10479m | 3.5m/s | -44.4°C | 80.0% | 259.5hPa | 2.7V | 00:00:00 | 00:00:00 | 00:00:00 | |
| SP3BTT-10 | 2026-09-04 17:24:15 | 52.13605 | 15.29678 | 97° | 148km/h | 10468m | 4.0m/s | -44.3°C | 88.6% | 259.9hPa | 2.7V | 00:00:00 | 00:00:00 | 00:00:00 | |
| EDDB2-11 | 2026-09-04 17:24:14 | 52.13609 | 15.29617 | 96° | 146km/h | 10464m | 3.5m/s | -44.3°C | 80.0% | 260.1hPa | 2.7V | 00:00:00 | 00:00:00 | 00:00:00 | |
| SONDE2-11 | 2026-09-04 17:24:13 | 52.13614 | 15.29557 | 96° | 148km/h | 10460m | 3.5m/s | -44.3°C | 79.6% | 260.3hPa | 2.7V | 00:00:00 | 00:00:00 | 00:00:00 | |
| DB0DAN | 2026-09-04 17:24:10 | 52.13626 | 15.29374 | 96° | 141km/h | 10449m | 3.9m/s | -44.2°C | 79.2% | 260.64hPa | 2.7V | 00:00:00 | 00:00:00 | 00:00:00 | |
| SP6BVK | 2026-09-04 17:24:07 | 52.13632 | 15.29252 | 96° | 150km/h | 10442m | 4.0m/s | -44.1°C | 78.4% | 261.0hPa | 2.8V | 00:00:00 | 00:00:00 | 00:00:00 | |
| DAC517 | 2026-09-04 17:24:06 | 52.13636 | 15.29192 | 96° | 148km/h | 10438m | 4.0m/s | -44.1°C | 78.3% | 261.1hPa | 2.8V | 00:00:00 | 00:00:00 | 00:00:00 | |
| EDDB2-12 | 2026-09-04 17:24:05 | 52.13643 | 15.29071 | 95° | 146km/h | 10431m | 4.1m/s | -44.0°C | 79.0% | 261.4hPa | 2.8V | 00:00:00 | 00:00:00 | 00:00:00 | |
| KRY50SP-1 | 2026-09-04 17:24:04 | 52.13642 | 15.29071 | 96° | 148km/h | 10431m | 4.1m/s | -44.0°C | 79.0% | 261.4hPa | 2.8V | 00:00:00 | 00:00:00 | 00:00:00 | |
| SP3WXH-11 | 2026-09-04 17:23:56 | 52.13680 | 15.28521 | 95° | 148km/h | 10398m | 4.2m/s | -43.8°C | 81.6% | 262.7hPa | 2.8V | 00:00:00 | 00:00:00 | 00:00:00 | |
| DB0DAN | 2026-09-04 17:23:55 | 52.13684 | 15.28460 | 95° | 142km/h | 10394m | 3.7m/s | -43.7°C | 81.5% | 262.87hPa | 2.8V | 00:00:00 | 00:00:00 | 00:00:00 | |
| SONCRA | 2026-09-04 17:23:47 | 52.13717 | 15.27977 | 98° | 148km/h | 10361m | 4.0m/s | -43.4°C | 80.6% | 264.1hPa | 2.8V | 00:00:00 | 00:00:00 | 00:00:00 | |
| SP6BVK | 2026-09-04 17:23:46 | 52.13717 | 15.27977 | 100° | 148km/h | 10361m | 4.0m/s | -43.4°C | 80.6% | 264.1hPa | 2.8V | 00:00:00 | 00:00:00 | 00:00:00 | |
| DAC517 | 2026-09-04 17:23:45 | 52.13722 | 15.27916 | 99° | 150km/h | 10357m | 4.0m/s | -43.4°C | 81.1% | 264.2hPa | 2.8V | 00:00:00 | 00:00:00 | 00:00:00 | |
| EDDB2-11 | 2026-09-04 17:23:43 | 52.13738 | 15.27733 | 97° | 148km/h | 10347m | 3.0m/s | -43.3°C | 81.7% | 264.7hPa | 2.8V | 00:00:00 | 00:00:00 | 00:00:00 | |
| KRY50SP-1 | 2026-09-04 17:23:42 | 52.13738 | 15.27732 | 99° | 150km/h | 10347m | 3.0m/s | -43.3°C | 81.7% | 264.7hPa | 2.8V | 00:00:00 | 00:00:00 | 00:00:00 | |
| DB0DAN | 2026-09-04 17:23:40 | 52.13752 | 15.27551 | 97° | 141km/h | 10337m | 4.1m/s | -43.2°C | 81.6% | 265.07hPa | 2.8V | 00:00:00 | 00:00:00 | 00:00:00 | |
| AA1-15 | 2026-09-04 17:23:27 | 52.13814 | 15.26762 | 97° | 148km/h | 10291m | 3.7m/s | 0°C | 0% | 0hPa | 2.8V | 18:12:15 | 01:06:02 | 00:00:00 | |
| DB0DAN | 2026-09-04 17:23:25 | 52.13824 | 15.26642 | 97° | 139km/h | 10284m | 3.2m/s | -42.8°C | 81.1% | 267.18hPa | 2.8V | 00:00:00 | 00:00:00 | 00:00:00 | |
| AA1-15 | 2026-09-04 17:23:15 | 52.13872 | 15.26036 | 95° | 150km/h | 10249m | 4.6m/s | 0°C | 0% | 0hPa | 2.8V | 18:12:15 | 01:05:50 | 00:00:00 | |
| SP3BTT-10 | 2026-09-04 17:23:15 | 52.13872 | 15.26036 | 96° | 150km/h | 10249m | 4.5m/s | -42.4°C | 87.5% | 268.3hPa | 2.7V | 00:00:00 | 00:00:00 | 00:00:00 | |
| DB0DAN | 2026-09-04 17:23:10 | 52.13889 | 15.25728 | 95° | 142km/h | 10229m | 4.4m/s | -42.3°C | 78.3% | 269.32hPa | 2.8V | 00:00:00 | 00:00:00 | 00:00:00 | |
| AA1-15 | 2026-09-04 17:23:03 | 52.13919 | 15.25306 | 96° | 150km/h | 10203m | 3.8m/s | 0°C | 0% | 0hPa | 2.8V | 18:12:15 | 01:05:38 | 00:00:00 | |
| KRY50SP-1 | 2026-09-04 17:23:00 | 52.13927 | 15.25183 | 97° | 151km/h | 10196m | 4.5m/s | -42.0°C | 75.9% | 270.6hPa | 2.8V | 00:00:00 | 00:00:00 | 00:00:00 | |
| DB0DAN | 2026-09-04 17:22:55 | 52.13948 | 15.24815 | 96° | 142km/h | 10172m | 4.3m/s | -41.7°C | 74.6% | 271.54hPa | 2.8V | 00:00:00 | 00:00:00 | 00:00:00 | |
| AA1-15 | 2026-09-04 17:22:53 | 52.13956 | 15.24693 | 96° | 151km/h | 10165m | 4.1m/s | 0°C | 0% | 0hPa | 2.7V | 18:12:15 | 01:05:28 | 00:00:00 | |
| SONCRA | 2026-09-04 17:22:45 | 52.13987 | 15.24202 | 94° | 150km/h | 10134m | 4.5m/s | 0°C | -1.0% | -1.0hPa | 2.7V | 00:00:00 | 00:00:00 | 00:00:00 | |
| AA1-15 | 2026-09-04 17:22:41 | 52.13999 | 15.23958 | 95° | 150km/h | 10119m | 3m/s | 0°C | 0% | 0hPa | 2.7V | 18:12:15 | 01:05:16 | 00:00:00 | |
| DB0DAN | 2026-09-04 17:22:40 | 52.14003 | 15.23896 | 95° | 144km/h | 10116m | 4.2m/s | -41.2°C | 71.8% | 273.77hPa | 2.8V | 00:00:00 | 00:00:00 | 00:00:00 | |
| AA1-15 | 2026-09-04 17:22:30 | 52.14044 | 15.23279 | 96° | 151km/h | 10078m | 4.7m/s | 0°C | 0% | 0hPa | 2.7V | 18:12:15 | 01:05:05 | 00:00:00 | |
| 13BRC | 2026-09-04 17:22:28 | 52.14048 | 15.23217 | 97° | 151km/h | 10074m | 3.6m/s | -40.8°C | 69.2% | 275.5hPa | 2.8V | 00:00:00 | 00:00:00 | 00:00:00 | |
| DB0DAN | 2026-09-04 17:22:25 | 52.14065 | 15.22971 | 97° | 142km/h | 10059m | 2.9m/s | -40.7°C | 68.2% | 276.16hPa | 2.8V | 00:00:00 | 00:00:00 | 00:00:00 | |
| AA1-15 | 2026-09-04 17:22:19 | 52.14090 | 15.22603 | 95° | 151km/h | 10037m | 3.3m/s | 0°C | 0% | 0hPa | 2.8V | 18:12:15 | 01:04:54 | 00:00:00 | |
| DL2RXE-15 | 2026-09-04 17:22:17 | 52.14093 | 15.22541 | 96° | 151km/h | 10034m | 3.2m/s | -40.4°C | 0% | 0hPa | 2.7V | 00:00:00 | 00:00:00 | 00:00:00 | |
| KRY50SP-1 | 2026-09-04 17:22:16 | 52.14099 | 15.22416 | 96° | 153km/h | 10027m | 2.9m/s | -40.4°C | 67.6% | 277.4hPa | 2.7V | 00:00:00 | 00:00:00 | 00:00:00 | |
| SP3BTT-10 | 2026-09-04 17:22:14 | 52.14106 | 15.22292 | 96° | 151km/h | 10019m | 3.5m/s | -40.2°C | 74.0% | 277.7hPa | 2.7V | 00:00:00 | 00:00:00 | 00:00:00 | |
| DB0DAN | 2026-09-04 17:22:10 | 52.14123 | 15.22044 | 97° | 142km/h | 10005m | 4m/s | -40.2°C | 66.5% | 278.31hPa | 2.7V | 00:00:00 | 00:00:00 | 00:00:00 | |
| AA1-15 | 2026-09-04 17:22:07 | 52.14137 | 15.21860 | 97° | 151km/h | 9995m | 3.8m/s | 0°C | 0% | 0hPa | 2.8V | 18:12:15 | 01:04:42 | 00:00:00 | |
| KRY50SP-1 | 2026-09-04 17:22:03 | 52.14151 | 15.21676 | 97° | 150km/h | 9983m | 3.1m/s | -40.0°C | 66.2% | 279.2hPa | 2.8V | 00:00:00 | 00:00:00 | 00:00:00 | |
| SP6BVK | 2026-09-04 17:22:02 | 52.14154 | 15.21614 | 97° | 151km/h | 9980m | 4.0m/s | -39.9°C | 65.8% | 279.3hPa | 2.8V | 00:00:00 | 00:00:00 | 00:00:00 | |
| EDDB2-12 | 2026-09-04 17:22:01 | 52.14162 | 15.21490 | 95° | 151km/h | 9972m | 4.2m/s | -39.9°C | 65.1% | 279.6hPa | 2.8V | 00:00:00 | 00:00:00 | 00:00:00 | |
| KRY50SP-1 | 2026-09-04 17:21:57 | 52.14175 | 15.21304 | 98° | 153km/h | 9961m | 3.4m/s | -39.8°C | 65.1% | 280.2hPa | 2.8V | 00:00:00 | 00:00:00 | 00:00:00 | |
| DB0DAN | 2026-09-04 17:21:55 | 52.14190 | 15.21119 | 98° | 144km/h | 9951m | 2.8m/s | -39.7°C | 64.8% | 280.54hPa | 2.8V | 00:00:00 | 00:00:00 | 00:00:00 | |
| AA1-15 | 2026-09-04 17:21:47 | 52.14230 | 15.20627 | 97° | 150km/h | 9922m | 3m/s | 0°C | 0% | 0hPa | 2.8V | 18:12:15 | 01:04:22 | 00:00:00 | |
| KRY50SP-1 | 2026-09-04 17:21:45 | 52.14234 | 15.20566 | 97° | 151km/h | 9919m | 4.2m/s | -39.4°C | 64.1% | 281.9hPa | 2.7V | 00:00:00 | 00:00:00 | 00:00:00 | |
| SP3BTT-10 | 2026-09-04 17:21:43 | 52.14245 | 15.20380 | 97° | 153km/h | 9908m | 4.8m/s | -39.2°C | 70.7% | 282.2hPa | 2.7V | 00:00:00 | 00:00:00 | 08:30:00 | |
| SP6BVK | 2026-09-04 17:21:42 | 52.14245 | 15.20380 | 97° | 151km/h | 9908m | 4.9m/s | -39.3°C | 64.1% | 282.3hPa | 2.7V | 00:00:00 | 00:00:00 | 00:00:00 | |
| AA1-15 | 2026-09-04 17:21:25 | 52.14334 | 15.19267 | 99° | 153km/h | 9843m | 3.7m/s | 0°C | 0% | 0hPa | 2.7V | 18:12:15 | 01:04:00 | 00:00:00 | |
| AA1-15 | 2026-09-04 17:21:11 | 52.14405 | 15.18392 | 99° | 151km/h | 9793m | 3m/s | 0°C | 0% | 0hPa | 2.7V | 18:12:15 | 01:03:46 | 00:00:00 | |
| KRY50SP-1 | 2026-09-04 17:21:10 | 52.14405 | 15.18392 | 100° | 151km/h | 9793m | 3.0m/s | -38.2°C | 61.7% | 287.0hPa | 2.7V | 00:00:00 | 00:00:00 | 00:00:00 | |
| EDDB2-11 | 2026-09-04 17:21:08 | 52.14426 | 15.18143 | 97° | 153km/h | 9780m | 4.4m/s | -38.1°C | 60.2% | 287.6hPa | 2.7V | 00:00:00 | 00:00:00 | 00:00:00 | |
| SONDE2-11 | 2026-09-04 17:21:07 | 52.14426 | 15.18143 | 97° | 153km/h | 9780m | 4.4m/s | -38.1°C | 60.2% | 287.6hPa | 2.7V | 00:00:00 | 00:00:00 | 00:00:00 | |
| S3001 | 2026-09-04 17:21:06 | 52.14431 | 15.18080 | 98° | 153km/h | 9776m | 4.2m/s | -38.0°C | 60.1% | 287.7hPa | 2.7V | 00:00:00 | 00:00:00 | 00:00:00 | |
| KRY50SP-1 | 2026-09-04 17:21:05 | 52.14431 | 15.18080 | 99° | 153km/h | 9776m | 4.2m/s | -38.0°C | 60.1% | 287.7hPa | 2.7V | 00:00:00 | 00:00:00 | 00:00:00 | |
| EDDB2-12 | 2026-09-04 17:20:59 | 52.14471 | 15.17636 | 98° | 159km/h | 9751m | 3.1m/s | -37.8°C | 58.7% | 288.8hPa | 2.7V | 00:00:00 | 00:00:00 | 00:00:00 | |
| SP3WXH-11 | 2026-09-04 17:20:50 | 52.14524 | 15.17008 | 96° | 153km/h | 9718m | 3.1m/s | -37.4°C | 57.9% | 290.2hPa | 2.7V | 00:00:00 | 00:00:00 | 00:00:00 | |
| KRY50SP-1 | 2026-09-04 17:20:49 | 52.14519 | 15.17070 | 98° | 153km/h | 9721m | 3.2m/s | -37.5°C | 58.5% | 290.1hPa | 2.7V | 00:00:00 | 00:00:00 | 00:00:00 | |
| 13BRC | 2026-09-04 17:20:46 | 52.14534 | 15.16881 | 98° | 155km/h | 9710m | 3.7m/s | -37.4°C | 58.0% | 290.6hPa | 2.7V | 00:00:00 | 00:00:00 | 00:00:00 | |
| KRY50SP-1 | 2026-09-04 17:20:44 | 52.14544 | 15.16754 | 99° | 157km/h | 9703m | 3.3m/s | -37.3°C | 57.7% | 290.9hPa | 2.7V | 00:00:00 | 00:00:00 | 00:00:00 | |
| SP3BTT-10 | 2026-09-04 17:20:43 | 52.14556 | 15.16627 | 100° | 153km/h | 9695m | 2.9m/s | -37.2°C | 64.1% | 291.0hPa | 2.7V | 00:00:00 | 00:00:00 | 00:00:00 | |
| SP6BVK | 2026-09-04 17:20:41 | 52.14569 | 15.16501 | 100° | 153km/h | 9688m | 4.0m/s | -37.2°C | 58.5% | 291.4hPa | 2.7V | 00:00:00 | 00:00:00 | 00:00:00 | |
| DL2RXE-15 | 2026-09-04 17:20:40 | 52.14569 | 15.16501 | 100° | 153km/h | 9688m | 4.0m/s | -37.2°C | 0% | 0hPa | 2.7V | 00:00:00 | 00:00:00 | 00:00:00 | |
| DAC517 | 2026-09-04 17:20:38 | 52.14580 | 15.16378 | 99° | 151km/h | 9682m | 4.0m/s | -37.1°C | 58.1% | 291.7hPa | 2.7V | 00:00:00 | 00:00:00 | 00:00:00 | |
| EDDB2-11 | 2026-09-04 17:20:37 | 52.14595 | 15.16192 | 97° | 151km/h | 9670m | 3.7m/s | -37.0°C | 57.7% | 292.2hPa | 2.7V | 00:00:00 | 00:00:00 | 00:00:00 | |
| SONDE2-11 | 2026-09-04 17:20:36 | 52.14600 | 15.16130 | 97° | 153km/h | 9666m | 4.5m/s | -37.0°C | 57.4% | 292.4hPa | 2.7V | 00:00:00 | 00:00:00 | 00:00:00 | |
| OE3JTB-15 | 2026-09-04 17:20:35 | 52.14599 | 15.16130 | 98° | 153km/h | 9666m | 4.4m/s | 0°C | 0% | 0hPa | 2.7V | 00:00:00 | 00:00:00 | 00:00:00 | |
| KRY50SP-1 | 2026-09-04 17:20:33 | 52.14604 | 15.16067 | 98° | 155km/h | 9662m | 3.0m/s | -37.0°C | 57.4% | 292.5hPa | 2.7V | 00:00:00 | 00:00:00 | 00:00:00 | |
| EDDB2-12 | 2026-09-04 17:20:29 | 52.14635 | 15.15687 | 98° | 155km/h | 9640m | 4.2m/s | -36.8°C | 56.4% | 293.4hPa | 2.7V | 00:00:00 | 00:00:00 | 00:00:00 | |
| 13BRC | 2026-09-04 17:20:25 | 52.14647 | 15.15561 | 99° | 153km/h | 9631m | 2.8m/s | -36.7°C | 57.2% | 293.8hPa | 2.7V | 00:00:00 | 00:00:00 | 00:00:00 | |
| KRY50SP-1 | 2026-09-04 17:20:23 | 52.14658 | 15.15437 | 100° | 153km/h | 9624m | 3.9m/s | -36.6°C | 56.6% | 294.1hPa | 2.7V | 00:00:00 | 00:00:00 | 00:00:00 | |
| DAC517 | 2026-09-04 17:20:19 | 52.14685 | 15.15125 | 99° | 153km/h | 9606m | 3.7m/s | -36.4°C | 56.8% | 294.8hPa | 2.7V | 00:00:00 | 00:00:00 | 00:00:00 | |
| KRY50SP-1 | 2026-09-04 17:20:17 | 52.14691 | 15.15063 | 99° | 153km/h | 9603m | 2.8m/s | -36.4°C | 56.6% | 295.0hPa | 2.7V | 00:00:00 | 00:00:00 | 00:00:00 | |
| SP3BTT-10 | 2026-09-04 17:20:13 | 52.14721 | 15.14752 | 100° | 155km/h | 9586m | 4.1m/s | -36.2°C | 63.0% | 295.7hPa | 2.7V | 00:00:00 | 00:00:00 | 00:00:00 | |
| KRY50SP-1 | 2026-09-04 17:20:11 | 52.14727 | 15.14690 | 100° | 153km/h | 9583m | 2.8m/s | -36.2°C | 58.1% | 296.0hPa | 2.7V | 00:00:00 | 00:00:00 | 00:00:00 | |
| OE3JTB-15 | 2026-09-04 17:20:06 | 52.14766 | 15.14315 | 100° | 155km/h | 9561m | 2.8m/s | 0°C | 0% | 0hPa | 2.7V | 00:00:00 | 01:02:41 | 00:00:00 | |
| SONDE2-11 | 2026-09-04 17:20:05 | 52.14778 | 15.14189 | 98° | 153km/h | 9554m | 2.8m/s | -36.0°C | 61.1% | 297.2hPa | 2.7V | 00:00:00 | 00:00:00 | 00:00:00 | |
| S3001 | 2026-09-04 17:20:04 | 52.14790 | 15.14063 | 98° | 153km/h | 9547m | 3.3m/s | -35.9°C | 61.2% | 297.5hPa | 2.7V | 00:00:00 | 00:00:00 | 00:00:00 | |
| EDDB2-12 | 2026-09-04 17:19:57 | 52.14821 | 15.13751 | 99° | 153km/h | 9530m | 3.4m/s | -35.8°C | 60.5% | 298.3hPa | 2.7V | 00:00:00 | 00:00:00 | 00:00:00 | |
| SP3WXH-11 | 2026-09-04 17:19:48 | 52.14880 | 15.13120 | 97° | 151km/h | 9489m | 3.8m/s | -35.5°C | 63.7% | 299.9hPa | 2.7V | 00:00:00 | 00:00:00 | 00:00:00 | |
| KRY50SP-1 | 2026-09-04 17:19:44 | 52.14890 | 15.12995 | 99° | 155km/h | 9482m | 3.6m/s | -35.5°C | 64.7% | 300.2hPa | 2.7V | 00:00:00 | 00:00:00 | 00:00:00 | |
| SP3BTT-10 | 2026-09-04 17:19:43 | 52.14901 | 15.12868 | 98° | 151km/h | 9475m | 4.4m/s | -35.5°C | 71.3% | 300.5hPa | 2.7V | 00:00:00 | 00:00:00 | 00:00:00 | |
| SP6BVK | 2026-09-04 17:19:38 | 52.14925 | 15.12615 | 101° | 153km/h | 9460m | 4.5m/s | -35.5°C | 66.9% | 301.2hPa | 2.7V | 00:00:00 | 00:00:00 | 00:00:00 | |
| OE3JTB-15 | 2026-09-04 17:19:37 | 52.14938 | 15.12490 | 100° | 155km/h | 9454m | 4.2m/s | 0°C | 0% | 0hPa | 2.7V | 00:00:00 | 00:00:00 | 00:00:00 | |
| EDDB2-11 | 2026-09-04 17:19:35 | 52.14956 | 15.12301 | 98° | 155km/h | 9442m | 3.4m/s | -35.3°C | 67.0% | 301.9hPa | 2.7V | 00:00:00 | 00:00:00 | 00:00:00 | |
| KRY50SP-1 | 2026-09-04 17:19:32 | 52.14962 | 15.12238 | 100° | 155km/h | 9438m | 4.9m/s | -35.3°C | 67.0% | 302.1hPa | 2.7V | 00:00:00 | 00:00:00 | 00:00:00 | |
| DL2RXE-15 | 2026-09-04 17:19:30 | 52.14975 | 15.12113 | 101° | 153km/h | 9430m | 3.9m/s | -35.3°C | 67.8% | 302.5hPa | 2.7V | 00:00:00 | 00:00:00 | 00:00:00 | |
| EDDB2-12 | 2026-09-04 17:19:26 | 52.15005 | 15.11803 | 96° | 151km/h | 9409m | 4.2m/s | -35.2°C | 71.0% | 303.4hPa | 2.7V | 00:00:00 | 00:00:00 | 00:00:00 | |
| 13BRC | 2026-09-04 17:19:24 | 52.15009 | 15.11740 | 98° | 151km/h | 9405m | 3.5m/s | -35.2°C | 71.7% | 303.6hPa | 2.7V | 00:00:00 | 00:00:00 | 00:00:00 | |
| KRY50SP-1 | 2026-09-04 17:19:21 | 52.15024 | 15.11558 | 100° | 148km/h | 9393m | 4.5m/s | -35.1°C | 71.2% | 304.1hPa | 2.7V | 00:00:00 | 00:00:00 | 00:00:00 | |
| KRY50SP-1 | 2026-09-04 17:19:17 | 52.15052 | 15.11253 | 98° | 151km/h | 9370m | 5.9m/s | -34.9°C | 70.8% | 305.0hPa | 2.7V | 00:00:00 | 00:00:00 | 00:00:00 | |
| DAC517 | 2026-09-04 17:19:16 | 52.15052 | 15.11253 | 98° | 151km/h | 9370m | 5.9m/s | -34.9°C | 70.8% | 305.0hPa | 2.7V | 00:00:00 | 00:00:00 | 00:00:00 | |
| SP3BTT-10 | 2026-09-04 17:19:13 | 52.15066 | 15.11005 | 95° | 146km/h | 9354m | 3.3m/s | -34.7°C | 77.6% | 305.7hPa | 2.7V | 00:00:00 | 00:00:00 | 00:00:00 | |
| KRY50SP-1 | 2026-09-04 17:19:11 | 52.15070 | 15.10943 | 96° | 151km/h | 9350m | 4.5m/s | -34.8°C | 71.2% | 306.0hPa | 2.7V | 00:00:00 | 00:00:00 | 00:00:00 | |
| KRY50SP-1 | 2026-09-04 17:19:05 | 52.15092 | 15.10579 | 97° | 148km/h | 9327m | 4.4m/s | -34.7°C | 75.5% | 306.9hPa | 2.7V | 00:00:00 | 00:00:00 | 00:00:00 | |
| EDDB2-11 | 2026-09-04 17:19:04 | 52.15103 | 15.10397 | 95° | 148km/h | 9313m | 4.8m/s | -34.7°C | 76.5% | 307.5hPa | 2.7V | 00:00:00 | 00:00:00 | 00:00:00 | |
| SONDE2-11 | 2026-09-04 17:19:03 | 52.15106 | 15.10336 | 95° | 148km/h | 9310m | 3.3m/s | -34.7°C | 77.5% | 307.7hPa | 2.7V | 00:00:00 | 00:00:00 | 00:00:00 | |
| S3001 | 2026-09-04 17:19:02 | 52.15113 | 15.10214 | 95° | 148km/h | 9302m | 3.2m/s | -34.6°C | 77.0% | 308.1hPa | 2.7V | 00:00:00 | 00:00:00 | 00:00:00 | |
| EDDB2-12 | 2026-09-04 17:18:55 | 52.15133 | 15.09911 | 95° | 146km/h | 9284m | 3.1m/s | -34.5°C | 78.5% | 308.8hPa | 2.7V | 00:00:00 | 00:00:00 | 00:00:00 | |
| SP3WXH-11 | 2026-09-04 17:18:46 | 52.15173 | 15.09314 | 96° | 146km/h | 9249m | 4.2m/s | -34.2°C | 81.4% | 310.3hPa | 2.7V | 00:00:00 | 00:00:00 | 00:00:00 | |
| KRY50SP-1 | 2026-09-04 17:18:45 | 52.15169 | 15.09373 | 98° | 146km/h | 9253m | 3.0m/s | -34.2°C | 81.4% | 310.2hPa | 2.7V | 00:00:00 | 00:00:00 | 00:00:00 | |
| SP3BTT-10 | 2026-09-04 17:18:43 | 52.15180 | 15.09194 | 96° | 144km/h | 9242m | 3.7m/s | -34.1°C | 87.7% | 310.6hPa | 2.7V | 00:00:00 | 00:00:00 | 00:00:00 | |
| 13BRC | 2026-09-04 17:18:42 | 52.15180 | 15.09194 | 97° | 146km/h | 9242m | 3.7m/s | -34.1°C | 81.0% | 310.7hPa | 2.9V | 00:00:00 | 00:00:00 | 00:00:00 | |
| DL2RXE-15 | 2026-09-04 17:18:41 | 52.15184 | 15.09134 | 97° | 146km/h | 9238m | 3.7m/s | -34.1°C | 81.1% | 310.8hPa | 2.9V | 00:00:00 | 00:00:00 | 00:00:00 | |
| KRY50SP-1 | 2026-09-04 17:18:39 | 52.15191 | 15.09015 | 96° | 146km/h | 9232m | 4.2m/s | -34.0°C | 81.4% | 311.1hPa | 2.9V | 00:00:00 | 00:00:00 | 00:00:00 | |
| SP6BVK | 2026-09-04 17:18:36 | 52.15201 | 15.08836 | 96° | 146km/h | 9221m | 3.1m/s | -33.9°C | 81.6% | 311.6hPa | 2.9V | 00:00:00 | 00:00:00 | 00:00:00 | |
| DAC517 | 2026-09-04 17:18:35 | 52.15204 | 15.08776 | 96° | 148km/h | 9218m | 3.5m/s | -33.9°C | 81.5% | 311.8hPa | 2.9V | 00:00:00 | 00:00:00 | 00:00:00 | |
| KRY50SP-1 | 2026-09-04 17:18:34 | 52.15207 | 15.08716 | 95° | 146km/h | 9214m | 3.9m/s | -33.9°C | 81.5% | 311.9hPa | 2.9V | 00:00:00 | 00:00:00 | 00:00:00 | |
| SONDE2-11 | 2026-09-04 17:18:32 | 52.15219 | 15.08479 | 95° | 146km/h | 9200m | 3.0m/s | -33.8°C | 82.8% | 312.6hPa | 2.9V | 00:00:00 | 00:00:00 | 00:00:00 | |
| S3001 | 2026-09-04 17:18:31 | 52.15219 | 15.08479 | 95° | 146km/h | 9200m | 3.0m/s | -33.8°C | 82.8% | 312.6hPa | 2.9V | 00:00:00 | 00:00:00 | 00:00:00 | |
| KRY50SP-1 | 2026-09-04 17:18:28 | 52.15225 | 15.08359 | 96° | 146km/h | 9193m | 2.9m/s | -33.8°C | 83.8% | 312.9hPa | 2.9V | 00:00:00 | 00:00:00 | 00:00:00 | |
| EDDB2-12 | 2026-09-04 17:18:24 | 52.15244 | 15.08062 | 95° | 144km/h | 9176m | 3.4m/s | -33.7°C | 84.1% | 313.6hPa | 2.9V | 00:00:00 | 00:00:00 | 00:00:00 | |
| KRY50SP-1 | 2026-09-04 17:18:22 | 52.15247 | 15.08003 | 96° | 142km/h | 9172m | 3.7m/s | -33.6°C | 83.9% | 313.8hPa | 2.9V | 00:00:00 | 00:00:00 | 00:00:00 | |
| 13BRC | 2026-09-04 17:18:21 | 52.15251 | 15.07945 | 97° | 142km/h | 9169m | 3.5m/s | -33.6°C | 84.3% | 314.0hPa | 2.9V | 00:00:00 | 00:00:00 | 00:00:00 | |
| KRY50SP-1 | 2026-09-04 17:18:16 | 52.15269 | 15.07652 | 96° | 142km/h | 9150m | 4.5m/s | -33.5°C | 85.4% | 314.8hPa | 2.9V | 00:00:00 | 00:00:00 | 00:00:00 | |
| SP3WXH-11 | 2026-09-04 17:18:15 | 52.15280 | 15.07476 | 95° | 144km/h | 9138m | 4.4m/s | -33.4°C | 86.6% | 315.4hPa | 2.9V | 00:00:00 | 00:00:00 | 00:00:00 | |
| SP3BTT-10 | 2026-09-04 17:18:13 | 52.15284 | 15.07416 | 97° | 141km/h | 9134m | 3.2m/s | -33.3°C | 93.3% | 315.5hPa | 2.9V | 00:00:00 | 00:00:00 | 00:00:00 | |
| KRY50SP-1 | 2026-09-04 17:18:10 | 52.15293 | 15.07297 | 98° | 144km/h | 9126m | 3.7m/s | -33.3°C | 86.5% | 315.9hPa | 2.9V | 00:00:00 | 00:00:00 | 00:00:00 | |
| KRY50SP-1 | 2026-09-04 17:18:05 | 52.15312 | 15.07006 | 97° | 142km/h | 9105m | 2.8m/s | -33.2°C | 86.1% | 316.8hPa | 2.9V | 00:00:00 | 00:00:00 | 00:00:00 | |
| EDDB2-11 | 2026-09-04 17:18:02 | 52.15329 | 15.06711 | 96° | 144km/h | 9085m | 3.1m/s | -33.0°C | 84.8% | 317.7hPa | 2.9V | 00:00:00 | 00:00:00 | 00:00:00 | |
| SONDE2-11 | 2026-09-04 17:18:01 | 52.15334 | 15.06652 | 96° | 144km/h | 9082m | 4.6m/s | -33.0°C | 84.2% | 317.9hPa | 2.9V | 00:00:00 | 00:00:00 | 00:00:00 | |
| S3001 | 2026-09-04 17:18:00 | 52.15338 | 15.06593 | 96° | 142km/h | 9077m | 4.5m/s | -32.9°C | 84.6% | 318.1hPa | 2.9V | 00:00:00 | 00:00:00 | 00:00:00 | |
| KRY50SP-1 | 2026-09-04 17:17:59 | 52.15334 | 15.06652 | 98° | 144km/h | 9082m | 4.6m/s | -33.0°C | 84.2% | 317.9hPa | 2.9V | 00:00:00 | 00:00:00 | 00:00:00 | |
| DAC517 | 2026-09-04 17:17:54 | 52.15356 | 15.06359 | 98° | 142km/h | 9062m | 3.8m/s | -32.8°C | 85.8% | 318.8hPa | 2.9V | 00:00:00 | 00:00:00 | 00:00:00 | |
| KRY50SP-1 | 2026-09-04 17:17:53 | 52.15360 | 15.06301 | 98° | 141km/h | 9058m | 4.0m/s | -32.8°C | 85.7% | 318.9hPa | 2.9V | 00:00:00 | 00:00:00 | 00:00:00 | |
| DL2RXE-15 | 2026-09-04 17:17:52 | 52.15365 | 15.06244 | 98° | 139km/h | 9054m | 3.8m/s | -32.8°C | 85.5% | 319.1hPa | 2.9V | 00:00:00 | 00:00:00 | 00:00:00 | |
| KRY50SP-1 | 2026-09-04 17:17:47 | 52.15393 | 15.05964 | 100° | 141km/h | 9033m | 4.5m/s | -32.6°C | 85.2% | 320.1hPa | 2.9V | 00:00:00 | 00:00:00 | 00:00:00 | |
| SP3WXH-11 | 2026-09-04 17:17:44 | 52.15413 | 15.05679 | 94° | 137km/h | 9012m | 4.2m/s | -32.5°C | 87.6% | 321.0hPa | 2.9V | 00:00:00 | 00:00:00 | 00:00:00 | |
| SP3BTT-10 | 2026-09-04 17:17:43 | 52.15413 | 15.05679 | 95° | 139km/h | 9012m | 4.2m/s | -32.4°C | 94.4% | 321.0hPa | 2.9V | 00:00:00 | 00:00:00 | 00:00:00 | |
| KRY50SP-1 | 2026-09-04 17:17:42 | 52.15413 | 15.05679 | 95° | 139km/h | 9012m | 4.2m/s | -32.5°C | 87.6% | 321.0hPa | 2.9V | 00:00:00 | 00:00:00 | 00:00:00 | |
| 13BRC | 2026-09-04 17:17:40 | 52.15419 | 15.05566 | 96° | 139km/h | 9004m | 4.0m/s | -32.5°C | 88.3% | 321.4hPa | 2.9V | 00:00:00 | 00:00:00 | 00:00:00 | |
| KRY50SP-1 | 2026-09-04 17:17:36 | 52.15432 | 15.05337 | 98° | 141km/h | 8989m | 3.9m/s | -32.3°C | 88.6% | 322.1hPa | 2.9V | 00:00:00 | 00:00:00 | 00:00:00 | |
| DAC517 | 2026-09-04 17:17:34 | 52.15442 | 15.05223 | 99° | 139km/h | 8981m | 4.1m/s | -32.3°C | 88.6% | 322.4hPa | 2.9V | 00:00:00 | 00:00:00 | 00:00:00 | |
| SP6BVK | 2026-09-04 17:17:33 | 52.15447 | 15.05167 | 99° | 139km/h | 8976m | 4.4m/s | -32.3°C | 88.9% | 322.7hPa | 2.9V | 00:00:00 | 00:00:00 | 00:00:00 | |
| EDDB2-11 | 2026-09-04 17:17:31 | 52.15468 | 15.04944 | 97° | 135km/h | 8960m | 4.6m/s | -32.1°C | 89.4% | 323.4hPa | 2.9V | 00:00:00 | 00:00:00 | 00:00:00 | |
| S3001 | 2026-09-04 17:17:29 | 52.15476 | 15.04831 | 95° | 137km/h | 8953m | 4.6m/s | -32.1°C | 89.2% | 323.8hPa | 2.9V | 00:00:00 | 00:00:00 | 00:00:00 | |
| KRY50SP-1 | 2026-09-04 17:17:26 | 52.15479 | 15.04774 | 96° | 141km/h | 8949m | 3.9m/s | -32.0°C | 89.4% | 323.9hPa | 2.9V | 00:00:00 | 00:00:00 | 00:00:00 | |
| EDDB2-12 | 2026-09-04 17:17:22 | 52.15502 | 15.04431 | 96° | 139km/h | 8924m | 4.7m/s | -31.8°C | 89.0% | 325.1hPa | 2.9V | 00:00:00 | 00:00:00 | 00:00:00 | |
| 13BRC | 2026-09-04 17:17:20 | 52.15502 | 15.04431 | 98° | 139km/h | 8924m | 4.7m/s | -31.8°C | 89.0% | 325.1hPa | 2.9V | 00:00:00 | 00:00:00 | 00:00:00 | |
| KRY50SP-1 | 2026-09-04 17:17:14 | 52.15531 | 15.04091 | 99° | 141km/h | 8900m | 4.3m/s | -31.6°C | 89.0% | 326.1hPa | 2.9V | 00:00:00 | 00:00:00 | 00:00:00 | |
| SP3BTT-10 | 2026-09-04 17:17:13 | 52.15540 | 15.03978 | 97° | 141km/h | 8891m | 2.7m/s | -31.5°C | 95.7% | 326.5hPa | 2.9V | 00:00:00 | 00:00:00 | 08:30:00 | |
| SP6BVK | 2026-09-04 17:17:12 | 52.15540 | 15.03978 | 98° | 137km/h | 8891m | 2.8m/s | -31.5°C | 89.0% | 326.5hPa | 2.7V | 00:00:00 | 00:00:00 | 00:00:00 | |
| KRY50SP-1 | 2026-09-04 17:17:09 | 52.15551 | 15.03808 | 96° | 139km/h | 8879m | 4.8m/s | -31.4°C | 87.8% | 327.1hPa | 2.7V | 00:00:00 | 00:00:00 | 00:00:00 | |
| KRY50SP-1 | 2026-09-04 17:17:04 | 52.15570 | 15.03522 | 99° | 142km/h | 8858m | 3.7m/s | -31.2°C | 86.2% | 328.1hPa | 2.7V | 00:00:00 | 00:00:00 | 00:00:00 | |
| EDDB2-11 | 2026-09-04 17:17:00 | 52.15606 | 15.03174 | 99° | 137km/h | 8834m | 4.7m/s | -31.0°C | 85.1% | 329.2hPa | 2.7V | 00:00:00 | 00:00:00 | 00:00:00 | |
| S3001 | 2026-09-04 17:16:58 | 52.15617 | 15.03061 | 98° | 139km/h | 8825m | 5.4m/s | -31.0°C | 86.1% | 329.6hPa | 2.7V | 00:00:00 | 00:00:00 | 00:00:00 | |
| EDDB2-12 | 2026-09-04 17:16:51 | 52.15647 | 15.02657 | 96° | 141km/h | 8797m | 3.8m/s | -30.7°C | 85.5% | 330.9hPa | 2.7V | 00:00:00 | 00:00:00 | 00:00:00 | |
| KRY50SP-1 | 2026-09-04 17:16:48 | 52.15652 | 15.02599 | 98° | 142km/h | 8793m | 4.1m/s | -30.7°C | 85.3% | 331.1hPa | 2.7V | 00:00:00 | 00:00:00 | 00:00:00 | |
| DAC517 | 2026-09-04 17:16:43 | 52.15675 | 15.02312 | 99° | 139km/h | 8772m | 4.4m/s | -30.5°C | 86.3% | 332.0hPa | 2.7V | 00:00:00 | 00:00:00 | 00:00:00 | |
| SP3WXH-11 | 2026-09-04 17:16:42 | 52.15689 | 15.02141 | 96° | 139km/h | 8761m | 3.5m/s | -30.4°C | 85.6% | 332.6hPa | 2.7V | 00:00:00 | 00:00:00 | 00:00:00 | |
| 13BRC | 2026-09-04 17:16:39 | 52.15693 | 15.02084 | 98° | 141km/h | 8757m | 4.7m/s | -30.4°C | 85.2% | 332.8hPa | 2.7V | 00:00:00 | 00:00:00 | 00:00:00 | |
| KRY50SP-1 | 2026-09-04 17:16:37 | 52.15701 | 15.01970 | 97° | 137km/h | 8749m | 5.5m/s | -30.3°C | 84.5% | 333.1hPa | 2.7V | 00:00:00 | 00:00:00 | 00:00:00 | |
| KRY50SP-1 | 2026-09-04 17:16:32 | 52.15721 | 15.01694 | 99° | 135km/h | 8728m | 3.5m/s | -30.1°C | 83.6% | 334.1hPa | 2.7V | 00:00:00 | 00:00:00 | 00:00:00 | |
| DL2RXE-15 | 2026-09-04 17:16:31 | 52.15726 | 15.01639 | 98° | 137km/h | 8724m | 4.8m/s | -30.1°C | 0% | 0hPa | 2.7V | 00:00:00 | 00:00:00 | 00:00:00 | |
| EDDB2-11 | 2026-09-04 17:16:29 | 52.15743 | 15.01412 | 96° | 141km/h | 8706m | 4.8m/s | -29.9°C | 81.7% | 335.1hPa | 2.7V | 00:00:00 | 00:00:00 | 00:00:00 | |
| SONDE2-11 | 2026-09-04 17:16:27 | 52.15747 | 15.01354 | 96° | 139km/h | 8702m | 3.6m/s | -29.9°C | 81.9% | 335.3hPa | 2.7V | 00:00:00 | 00:00:00 | 00:00:00 | |
| KRY50SP-1 | 2026-09-04 17:16:26 | 52.15747 | 15.01354 | 98° | 141km/h | 8702m | 3.6m/s | -29.9°C | 81.9% | 335.3hPa | 2.7V | 00:00:00 | 00:00:00 | 00:00:00 | |
| KRY50SP-1 | 2026-09-04 17:16:21 | 52.15768 | 15.01076 | 99° | 137km/h | 8683m | 4.5m/s | -29.7°C | 81.0% | 336.2hPa | 2.7V | 00:00:00 | 00:00:00 | 00:00:00 | |
| EDDB2-12 | 2026-09-04 17:16:20 | 52.15781 | 15.00906 | 96° | 141km/h | 8669m | 5.3m/s | -29.6°C | 81.9% | 336.8hPa | 2.7V | 00:00:00 | 00:00:00 | 00:00:00 | |
| 13BRC | 2026-09-04 17:16:18 | 52.15781 | 15.00906 | 97° | 141km/h | 8670m | 5.3m/s | -29.6°C | 81.9% | 336.8hPa | 2.7V | 00:00:00 | 00:00:00 | 00:00:00 | |
| KRY50SP-1 | 2026-09-04 17:16:15 | 52.15793 | 15.00733 | 99° | 139km/h | 8657m | 4.3m/s | -29.6°C | 83.1% | 337.5hPa | 2.7V | 00:00:00 | 00:00:00 | 00:00:00 | |
| SP3BTT-10 | 2026-09-04 17:16:13 | 52.15808 | 15.00569 | 99° | 137km/h | 8645m | 3.2m/s | -29.5°C | 88.4% | 337.9hPa | 2.7V | 00:00:00 | 00:00:00 | 00:00:00 | |
| DL2RXE-15 | 2026-09-04 17:16:11 | 52.15812 | 15.00515 | 99° | 133km/h | 8641m | 4.0m/s | -29.5°C | 0% | 0hPa | 2.7V | 00:00:00 | 00:00:00 | 00:00:00 | |
| KRY50SP-1 | 2026-09-04 17:16:10 | 52.15817 | 15.00460 | 98° | 133km/h | 8638m | 3.5m/s | -29.5°C | 82.4% | 338.3hPa | 2.7V | 00:00:00 | 00:00:00 | 00:00:00 | |
| DAC517 | 2026-09-04 17:16:08 | 52.15825 | 15.00350 | 97° | 137km/h | 8630m | 3.8m/s | -29.4°C | 82.0% | 338.7hPa | 2.7V | 00:00:00 | 00:00:00 | 00:00:00 | |
| KRY50SP-1 | 2026-09-04 17:16:04 | 52.15844 | 15.00122 | 100° | 141km/h | 8615m | 2.9m/s | -29.3°C | 82.0% | 339.4hPa | 2.7V | 00:00:00 | 00:00:00 | 00:00:00 | |
| EDDB2-11 | 2026-09-04 17:15:57 | 52.15886 | 14.99677 | 98° | 137km/h | 8586m | 3.5m/s | -29.0°C | 82.6% | 340.9hPa | 2.7V | 00:00:00 | 00:00:00 | 00:00:00 | |
| S3001 | 2026-09-04 17:15:56 | 52.15897 | 14.99565 | 97° | 137km/h | 8578m | 4.8m/s | -29.0°C | 81.6% | 341.1hPa | 2.7V | 00:00:00 | 00:00:00 | 00:00:00 | |
| EDDB2-12 | 2026-09-04 17:15:49 | 52.15932 | 14.99171 | 98° | 135km/h | 8549m | 4.9m/s | -28.8°C | 77.1% | 342.6hPa | 2.7V | 00:00:00 | 00:00:00 | 00:00:00 | |
| KRY50SP-1 | 2026-09-04 17:15:46 | 52.15937 | 14.99116 | 100° | 137km/h | 8546m | 2.8m/s | -28.7°C | 76.9% | 342.8hPa | 2.7V | 00:00:00 | 00:00:00 | 00:00:00 | |
| SP3BTT-10 | 2026-09-04 17:15:43 | 52.15958 | 14.98895 | 99° | 137km/h | 8530m | 3.8m/s | -28.5°C | 82.8% | 343.4hPa | 2.7V | 00:00:00 | 00:00:00 | 00:00:00 | |
| KRY50SP-1 | 2026-09-04 17:15:41 | 52.15963 | 14.98838 | 99° | 139km/h | 8526m | 3.2m/s | -28.5°C | 77.4% | 343.6hPa | 2.7V | 00:00:00 | 00:00:00 | 00:00:00 | |
| SP3WXH-11 | 2026-09-04 17:15:40 | 52.15978 | 14.98669 | 98° | 139km/h | 8514m | 4.2m/s | -28.4°C | 77.3% | 344.3hPa | 2.7V | 00:00:00 | 00:00:00 | 00:00:00 | |
| 13BRC | 2026-09-04 17:15:37 | 52.15983 | 14.98612 | 99° | 141km/h | 8511m | 3.1m/s | -28.4°C | 77.8% | 344.4hPa | 2.7V | 00:00:00 | 00:00:00 | 00:00:00 | |
| KRY50SP-1 | 2026-09-04 17:15:36 | 52.15988 | 14.98556 | 100° | 139km/h | 8507m | 5.1m/s | -28.4°C | 77.7% | 344.5hPa | 2.7V | 00:00:00 | 00:00:00 | 00:00:00 | |
| KRY50SP-1 | 2026-09-04 17:15:30 | 52.16022 | 14.98223 | 100° | 139km/h | 8483m | 4.2m/s | -28.2°C | 78.5% | 345.7hPa | 2.7V | 00:00:00 | 00:00:00 | 00:00:00 | |
| SP6BVK | 2026-09-04 17:15:29 | 52.16028 | 14.98166 | 100° | 141km/h | 8479m | 3.4m/s | -28.2°C | 80.2% | 345.8hPa | 2.7V | 00:00:00 | 00:00:00 | 00:00:00 | |
| EDDB2-11 | 2026-09-04 17:15:26 | 52.16051 | 14.97941 | 100° | 135km/h | 8464m | 4.6m/s | -28.1°C | 81.4% | 346.6hPa | 2.7V | 00:00:00 | 00:00:00 | 00:00:00 | |
| SONDE2-11 | 2026-09-04 17:15:25 | 52.16057 | 14.97886 | 99° | 135km/h | 8460m | 4.2m/s | -28.1°C | 80.2% | 346.8hPa | 2.7V | 00:00:00 | 00:00:00 | 00:00:00 | |
| KRY50SP-1 | 2026-09-04 17:15:24 | 52.16057 | 14.97886 | 101° | 137km/h | 8460m | 4.2m/s | -28.1°C | 80.2% | 346.8hPa | 2.7V | 00:00:00 | 00:00:00 | 00:00:00 | |
| DL2RXE-15 | 2026-09-04 17:15:19 | 52.16084 | 14.97600 | 99° | 141km/h | 8438m | 3.0m/s | -27.9°C | 0% | 0hPa | 2.7V | 00:00:00 | 00:00:00 | 00:00:00 | |
| 13BRC | 2026-09-04 17:15:17 | 52.16093 | 14.97487 | 98° | 139km/h | 8430m | 3.6m/s | -27.8°C | 80.4% | 348.2hPa | 2.7V | 00:00:00 | 00:00:00 | 00:00:00 | |
| SP3BTT-10 | 2026-09-04 17:15:13 | 52.16118 | 14.97220 | 99° | 133km/h | 8412m | 3.1m/s | -27.6°C | 85.3% | 349.1hPa | 2.7V | 00:00:00 | 00:00:00 | 00:00:00 | |
| SP6BVK | 2026-09-04 17:15:08 | 52.16135 | 14.97006 | 96° | 133km/h | 8397m | 4.4m/s | -27.5°C | 80.7% | 349.8hPa | 2.7V | 00:00:00 | 00:00:00 | 00:00:00 | |
| KRY50SP-1 | 2026-09-04 17:15:07 | 52.16138 | 14.96952 | 96° | 133km/h | 8393m | 3.3m/s | -27.5°C | 80.7% | 350.0hPa | 2.7V | 00:00:00 | 00:00:00 | 00:00:00 | |
| EDDB2-11 | 2026-09-04 17:14:55 | 52.16197 | 14.96222 | 95° | 137km/h | 8340m | 5.0m/s | -27.0°C | 78.3% | 352.6hPa | 2.7V | 00:00:00 | 00:00:00 | 00:00:00 | |
| SONDE2-11 | 2026-09-04 17:14:54 | 52.16201 | 14.96166 | 95° | 135km/h | 8336m | 4.0m/s | -26.9°C | 77.9% | 352.9hPa | 2.7V | 00:00:00 | 00:00:00 | 00:00:00 | |
| S3001 | 2026-09-04 17:14:53 | 52.16204 | 14.96110 | 95° | 135km/h | 8331m | 5.2m/s | -26.9°C | 76.7% | 353.1hPa | 2.7V | 00:00:00 | 00:00:00 | 00:00:00 | |
| EDDB2-12 | 2026-09-04 17:14:47 | 52.16230 | 14.95736 | 97° | 130km/h | 8304m | 3.8m/s | -26.7°C | 73.8% | 354.3hPa | 2.7V | 00:00:00 | 00:00:00 | 00:00:00 | |
| KRY50SP-1 | 2026-09-04 17:14:44 | 52.16234 | 14.95682 | 98° | 131km/h | 8301m | 3.7m/s | -26.6°C | 73.8% | 354.6hPa | 2.7V | 00:00:00 | 00:00:00 | 00:00:00 | |
| SP3BTT-10 | 2026-09-04 17:14:43 | 52.16242 | 14.95573 | 97° | 131km/h | 8293m | 3.8m/s | -26.5°C | 79.1% | 354.9hPa | 2.7V | 00:00:00 | 00:00:00 | 00:00:00 | |
| KRY50SP-1 | 2026-09-04 17:14:38 | 52.16256 | 14.95356 | 96° | 135km/h | 8277m | 3.5m/s | -26.4°C | 74.4% | 355.7hPa | 2.7V | 00:00:00 | 00:00:00 | 00:00:00 | |
| SP3WXH-11 | 2026-09-04 17:14:37 | 52.16263 | 14.95245 | 95° | 133km/h | 8269m | 4.5m/s | -26.4°C | 73.1% | 356.1hPa | 2.7V | 00:00:00 | 00:00:00 | 00:00:00 | |
| 13BRC | 2026-09-04 17:14:35 | 52.16266 | 14.95189 | 97° | 137km/h | 8266m | 2.4m/s | -26.3°C | 73.4% | 356.2hPa | 2.7V | 00:00:00 | 00:00:00 | 00:00:00 | |
| KRY50SP-1 | 2026-09-04 17:14:34 | 52.16273 | 14.95076 | 97° | 139km/h | 8257m | 3.8m/s | -26.3°C | 73.6% | 356.6hPa | 2.7V | 00:00:00 | 00:00:00 | 00:00:00 | |
| DL2RXE-15 | 2026-09-04 17:14:29 | 52.16289 | 14.94856 | 99° | 133km/h | 8242m | 3.9m/s | -26.2°C | 0% | 0hPa | 2.7V | 00:00:00 | 00:00:00 | 00:00:00 | |
| SP6BVK | 2026-09-04 17:14:28 | 52.16294 | 14.94802 | 99° | 131km/h | 8238m | 4.4m/s | -26.2°C | 74.4% | 357.6hPa | 2.7V | 00:00:00 | 00:00:00 | 00:00:00 | |
| KRY50SP-1 | 2026-09-04 17:14:27 | 52.16298 | 14.94748 | 98° | 131km/h | 8233m | 4.3m/s | -26.1°C | 74.6% | 357.8hPa | 2.7V | 00:00:00 | 00:00:00 | 00:00:00 | |
| EDDB2-11 | 2026-09-04 17:14:24 | 52.16314 | 14.94534 | 96° | 130km/h | 8219m | 3.1m/s | -26.0°C | 77.4% | 358.6hPa | 2.7V | 00:00:00 | 00:00:00 | 00:00:00 | |
| SONDE2-11 | 2026-09-04 17:14:23 | 52.16318 | 14.94480 | 96° | 131km/h | 8215m | 4.1m/s | -26.0°C | 77.0% | 358.7hPa | 2.7V | 00:00:00 | 00:00:00 | 00:00:00 | |
| KRY50SP-1 | 2026-09-04 17:14:22 | 52.16318 | 14.94480 | 97° | 131km/h | 8216m | 4.1m/s | -26.0°C | 77.0% | 358.7hPa | 2.7V | 00:00:00 | 00:00:00 | 00:00:00 | |
| KRY50SP-1 | 2026-09-04 17:14:18 | 52.16334 | 14.94209 | 97° | 131km/h | 8196m | 3.6m/s | -25.8°C | 77.4% | 359.7hPa | 2.7V | 00:00:00 | 00:00:00 | 00:00:00 | |
| 13BRC | 2026-09-04 17:14:15 | 52.16342 | 14.94102 | 98° | 133km/h | 8188m | 2.7m/s | -25.8°C | 77.5% | 360.1hPa | 2.7V | 00:00:00 | 00:00:00 | 00:00:00 | |
| SP3BTT-10 | 2026-09-04 17:14:13 | 52.16353 | 14.93939 | 97° | 131km/h | 8178m | 3.5m/s | -25.7°C | 82.4% | 360.6hPa | 2.7V | 00:00:00 | 00:00:00 | 00:00:00 | |
| KRY50SP-1 | 2026-09-04 17:14:11 | 52.16356 | 14.93884 | 98° | 133km/h | 8174m | 4.9m/s | -25.7°C | 77.3% | 360.7hPa | 2.9V | 00:00:00 | 00:00:00 | 00:00:00 | |
| DL2RXE-15 | 2026-09-04 17:14:09 | 52.16364 | 14.93776 | 97° | 133km/h | 8165m | 2.4m/s | -25.6°C | 0% | 0hPa | 2.9V | 00:00:00 | 00:00:00 | 00:00:00 | |
| SP6BVK | 2026-09-04 17:14:07 | 52.16371 | 14.93666 | 97° | 135km/h | 8158m | 2.4m/s | -25.6°C | 76.5% | 361.5hPa | 2.9V | 00:00:00 | 00:00:00 | 00:00:00 | |
| SP3WXH-11 | 2026-09-04 17:14:06 | 52.16378 | 14.93556 | 95° | 133km/h | 8150m | 3.8m/s | -25.5°C | 76.6% | 362.0hPa | 2.9V | 00:00:00 | 00:00:00 | 00:00:00 | |
| KRY50SP-1 | 2026-09-04 17:14:05 | 52.16378 | 14.93556 | 97° | 133km/h | 8150m | 3.8m/s | -25.5°C | 76.6% | 362.0hPa | 2.9V | 00:00:00 | 00:00:00 | 00:00:00 | |
| EDDB2-11 | 2026-09-04 17:13:53 | 52.16417 | 14.92855 | 94° | 131km/h | 8104m | 3.0m/s | -25.2°C | 77.5% | 364.3hPa | 2.9V | 00:00:00 | 00:00:00 | 00:00:00 | |
| SONDE2-11 | 2026-09-04 17:13:52 | 52.16420 | 14.92801 | 94° | 130km/h | 8100m | 4.4m/s | -25.2°C | 76.7% | 364.5hPa | 2.9V | 00:00:00 | 00:00:00 | 00:00:00 | |
| S3001 | 2026-09-04 17:13:51 | 52.16423 | 14.92748 | 95° | 128km/h | 8097m | 2.6m/s | -25.1°C | 76.6% | 364.6hPa | 2.9V | 00:00:00 | 00:00:00 | 00:00:00 | |
| KRY50SP-1 | 2026-09-04 17:13:48 | 52.16427 | 14.92643 | 95° | 130km/h | 8089m | 3.2m/s | -25.1°C | 76.8% | 365.1hPa | 2.9V | 00:00:00 | 00:00:00 | 00:00:00 | |
| SP6BVK | 2026-09-04 17:13:46 | 52.16432 | 14.92537 | 96° | 130km/h | 8083m | 3.6m/s | -25.0°C | 76.9% | 365.3hPa | 2.9V | 00:00:00 | 00:00:00 | 00:00:00 | |
| EDDB2-12 | 2026-09-04 17:13:44 | 52.16440 | 14.92378 | 93° | 130km/h | 8072m | 3.4m/s | -25.0°C | 78.8% | 365.9hPa | 2.9V | 00:00:00 | 00:00:00 | 00:00:00 | |
| SP3BTT-10 | 2026-09-04 17:13:43 | 52.16442 | 14.92324 | 95° | 128km/h | 8069m | 4.2m/s | -24.9°C | 84.4% | 366.1hPa | 2.9V | 00:00:00 | 00:00:00 | 00:00:00 | |
| KRY50SP-1 | 2026-09-04 17:13:42 | 52.16442 | 14.92324 | 96° | 131km/h | 8069m | 4.2m/s | -25.0°C | 79.4% | 366.1hPa | 2.9V | 00:00:00 | 00:00:00 | 00:00:00 | |
| DL2RXE-15 | 2026-09-04 17:13:41 | 52.16445 | 14.92269 | 95° | 133km/h | 8064m | 4.2m/s | 0°C | 0% | 0hPa | 2.9V | 00:00:00 | 00:00:00 | 00:00:00 | |
| KRY50SP-1 | 2026-09-04 17:13:36 | 52.16460 | 14.91999 | 96° | 131km/h | 8045m | 2.8m/s | -24.9°C | 80.9% | 367.3hPa | 2.9V | 00:00:00 | 00:00:00 | 00:00:00 | |
| SP3WXH-11 | 2026-09-04 17:13:35 | 52.16465 | 14.91894 | 94° | 126km/h | 8038m | 4.2m/s | -24.8°C | 80.5% | 367.6hPa | 2.9V | 00:00:00 | 00:00:00 | 00:00:00 | |
| 13BRC | 2026-09-04 17:13:33 | 52.16468 | 14.91841 | 95° | 128km/h | 8034m | 3.9m/s | -24.8°C | 80.2% | 367.8hPa | 2.9V | 00:00:00 | 00:00:00 | 00:00:00 | |
| KRY50SP-1 | 2026-09-04 17:13:31 | 52.16471 | 14.91736 | 93° | 130km/h | 8026m | 3.0m/s | -24.7°C | 80.3% | 368.2hPa | 2.9V | 00:00:00 | 00:00:00 | 00:00:00 | |
| SP6BVK | 2026-09-04 17:13:26 | 52.16482 | 14.91468 | 96° | 131km/h | 8007m | 3.9m/s | -24.6°C | 79.3% | 369.1hPa | 2.9V | 00:00:00 | 00:00:00 | 00:00:00 | |
| KRY50SP-1 | 2026-09-04 17:13:25 | 52.16485 | 14.91414 | 97° | 130km/h | 8003m | 3.8m/s | -24.5°C | 79.1% | 369.4hPa | 2.9V | 00:00:00 | 00:00:00 | 00:00:00 | |
| EDDB2-11 | 2026-09-04 17:13:22 | 52.16495 | 14.91204 | 93° | 124km/h | 7990m | 4.1m/s | -24.4°C | 78.6% | 370.1hPa | 2.9V | 00:00:00 | 00:00:00 | 00:00:00 | |
| SONDE2-11 | 2026-09-04 17:13:21 | 52.16497 | 14.91153 | 92° | 124km/h | 7986m | 4.0m/s | -24.4°C | 78.3% | 370.2hPa | 2.9V | 00:00:00 | 00:00:00 | 00:00:00 | |
| S3001 | 2026-09-04 17:13:20 | 52.16498 | 14.91102 | 92° | 124km/h | 7982m | 3.6m/s | -24.4°C | 78.3% | 370.3hPa | 2.9V | 00:00:00 | 00:00:00 | 00:00:00 | |
| KRY50SP-1 | 2026-09-04 17:13:19 | 52.16498 | 14.91101 | 94° | 124km/h | 7982m | 3.6m/s | -24.4°C | 78.3% | 370.3hPa | 2.9V | 00:00:00 | 00:00:00 | 00:00:00 | |
| KRY50SP-1 | 2026-09-04 17:13:15 | 52.16508 | 14.90838 | 95° | 130km/h | 7965m | 4.1m/s | -24.3°C | 78.9% | 371.2hPa | 2.9V | 00:00:00 | 00:00:00 | 00:00:00 | |
| SP3BTT-10 | 2026-09-04 17:13:13 | 52.16512 | 14.90731 | 94° | 126km/h | 7958m | 3.0m/s | -24.2°C | 83.2% | 371.5hPa | 2.9V | 00:00:00 | 00:00:00 | 00:00:00 | |
| 13BRC | 2026-09-04 17:13:12 | 52.16513 | 14.90731 | 95° | 131km/h | 7958m | 3.0m/s | -24.2°C | 78.4% | 371.5hPa | 2.9V | 00:00:00 | 00:00:00 | 00:00:00 | |
| KRY50SP-1 | 2026-09-04 17:13:09 | 52.16519 | 14.90570 | 95° | 130km/h | 7948m | 3.9m/s | -24.2°C | 77.2% | 372.0hPa | 2.9V | 00:00:00 | 00:00:00 | 00:00:00 | |
| SP6BVK | 2026-09-04 17:13:05 | 52.16525 | 14.90358 | 94° | 130km/h | 7933m | 4.2m/s | -24.1°C | 77.0% | 372.9hPa | 2.9V | 00:00:00 | 00:00:00 | 00:00:00 | |
| SP3WXH-11 | 2026-09-04 17:13:04 | 52.16529 | 14.90253 | 93° | 128km/h | 7926m | 3.1m/s | -24.1°C | 78.0% | 373.1hPa | 2.9V | 00:00:00 | 00:00:00 | 00:00:00 | |
| KRY50SP-1 | 2026-09-04 17:13:03 | 52.16529 | 14.90253 | 94° | 130km/h | 7926m | 3.1m/s | -24.1°C | 78.0% | 373.1hPa | 2.9V | 00:00:00 | 00:00:00 | 00:00:00 | |
| EDDB2-11 | 2026-09-04 17:12:51 | 52.16549 | 14.89570 | 90° | 126km/h | 7881m | 2.7m/s | -23.8°C | 79.8% | 375.6hPa | 2.9V | 00:00:00 | 00:00:00 | 00:00:00 | |
| SONDE2-11 | 2026-09-04 17:12:50 | 52.16550 | 14.89519 | 91° | 124km/h | 7877m | 4.4m/s | -23.8°C | 79.5% | 375.7hPa | 2.9V | 00:00:00 | 00:00:00 | 00:00:00 | |
| S3001 | 2026-09-04 17:12:49 | 52.16551 | 14.89467 | 92° | 124km/h | 7873m | 3.5m/s | -23.8°C | 79.6% | 376.0hPa | 2.9V | 00:00:00 | 00:00:00 | 00:00:00 | |
| KRY50SP-1 | 2026-09-04 17:12:46 | 52.16553 | 14.89365 | 94° | 124km/h | 7867m | 4.4m/s | -23.7°C | 79.0% | 376.3hPa | 2.9V | 00:00:00 | 00:00:00 | 00:00:00 | |
| SP6BVK | 2026-09-04 17:12:44 | 52.16556 | 14.89262 | 93° | 126km/h | 7858m | 2.9m/s | -23.7°C | 79.2% | 376.7hPa | 2.9V | 00:00:00 | 00:00:00 | 00:00:00 | |
| SP3BTT-10 | 2026-09-04 17:12:43 | 52.16560 | 14.89158 | 94° | 124km/h | 7851m | 2.4m/s | -23.5°C | 83.9% | 377.0hPa | 2.9V | 00:00:00 | 00:00:00 | 08:30:00 | |
| EDDB2-12 | 2026-09-04 17:12:42 | 52.16562 | 14.89105 | 93° | 128km/h | 7848m | 4.2m/s | -23.6°C | 78.7% | 377.2hPa | 2.9V | 00:00:00 | 00:00:00 | 00:00:00 | |
| KRY50SP-1 | 2026-09-04 17:12:36 | 52.16568 | 14.88846 | 94° | 124km/h | 7830m | 3.6m/s | -23.4°C | 78.4% | 378.1hPa | 2.9V | 00:00:00 | 00:00:00 | 00:00:00 | |
| SP3WXH-11 | 2026-09-04 17:12:33 | 52.16573 | 14.88643 | 91° | 120km/h | 7817m | 3.2m/s | -23.3°C | 79.5% | 378.8hPa | 2.9V | 00:00:00 | 00:00:00 | 00:00:00 | |
| DL2RXE-15 | 2026-09-04 17:12:32 | 52.16573 | 14.88643 | 93° | 120km/h | 7817m | 3.2m/s | -23.3°C | 0% | 0hPa | 2.9V | 00:00:00 | 00:00:00 | 00:00:00 | |
| KRY50SP-1 | 2026-09-04 17:12:31 | 52.16574 | 14.88593 | 93° | 119km/h | 7814m | 3.1m/s | -23.3°C | 80.1% | 379.0hPa | 2.9V | 00:00:00 | 00:00:00 | 00:00:00 | |
| 13BRC | 2026-09-04 17:12:30 | 52.16574 | 14.88545 | 93° | 120km/h | 7812m | 2.0m/s | -23.2°C | 79.9% | 379.0hPa | 2.9V | 00:00:00 | 00:00:00 | 00:00:00 | |
| KRY50SP-1 | 2026-09-04 17:12:26 | 52.16576 | 14.88343 | 92° | 124km/h | 7799m | 4.5m/s | -23.2°C | 79.7% | 379.8hPa | 2.9V | 00:00:00 | 00:00:00 | 00:00:00 | |
| SP6BVK | 2026-09-04 17:12:23 | 52.16579 | 14.88191 | 92° | 122km/h | 7787m | 2.8m/s | -23.1°C | 79.6% | 380.5hPa | 2.9V | 00:00:00 | 00:00:00 | 00:00:00 | |
| DAC517 | 2026-09-04 17:12:22 | 52.16579 | 14.88140 | 93° | 122km/h | 7784m | 3.7m/s | -23.1°C | 78.8% | 380.6hPa | 2.9V | 00:00:00 | 00:00:00 | 00:00:00 | |
| KRY50SP-1 | 2026-09-04 17:12:21 | 52.16581 | 14.88090 | 94° | 122km/h | 7780m | 4.0m/s | -23.0°C | 78.8% | 380.8hPa | 2.9V | 00:00:00 | 00:00:00 | 00:00:00 | |
| EDDB2-11 | 2026-09-04 17:12:20 | 52.16584 | 14.87989 | 92° | 122km/h | 7774m | 4.3m/s | -23.0°C | 77.8% | 381.1hPa | 2.9V | 00:00:00 | 00:00:00 | 00:00:00 | |
| S3001 | 2026-09-04 17:12:18 | 52.16585 | 14.87837 | 90° | 120km/h | 7763m | 4.2m/s | -22.9°C | 76.4% | 381.7hPa | 2.9V | 00:00:00 | 00:00:00 | 00:00:00 | |
| KRY50SP-1 | 2026-09-04 17:12:15 | 52.16586 | 14.87787 | 92° | 120km/h | 7759m | 3.1m/s | -22.9°C | 76.6% | 381.8hPa | 2.9V | 00:00:00 | 00:00:00 | 00:00:00 | |
| SP3BTT-10 | 2026-09-04 17:12:13 | 52.16586 | 14.87637 | 90° | 124km/h | 7749m | 2.5m/s | -22.7°C | 81.1% | 382.2hPa | 2.9V | 00:00:00 | 00:00:00 | 00:00:00 | |
| EDDB2-12 | 2026-09-04 17:12:11 | 52.16587 | 14.87535 | 92° | 122km/h | 7742m | 4.0m/s | -22.7°C | 76.1% | 382.6hPa | 2.9V | 00:00:00 | 00:00:00 | 00:00:00 | |
| KRY50SP-1 | 2026-09-04 17:12:10 | 52.16587 | 14.87535 | 93° | 124km/h | 7742m | 4.0m/s | -22.7°C | 76.1% | 382.6hPa | 2.9V | 00:00:00 | 00:00:00 | 00:00:00 | |
| 13BRC | 2026-09-04 17:12:09 | 52.16588 | 14.87485 | 95° | 122km/h | 7739m | 2.3m/s | -22.7°C | 76.2% | 382.9hPa | 2.9V | 00:00:00 | 00:00:00 | 00:00:00 | |
| SP6BVK | 2026-09-04 17:12:04 | 52.16598 | 14.87182 | 93° | 120km/h | 7717m | 3.7m/s | -22.5°C | 76.1% | 384.0hPa | 2.9V | 00:00:00 | 00:00:00 | 00:00:00 | |
| DL2RXE-15 | 2026-09-04 17:12:03 | 52.16598 | 14.87182 | 93° | 120km/h | 7717m | 3.7m/s | 0°C | 0% | 0hPa | 2.9V | 00:00:00 | 00:00:00 | 00:00:00 | |
| SP3WXH-11 | 2026-09-04 17:12:02 | 52.16600 | 14.87083 | 90° | 120km/h | 7710m | 4.3m/s | -22.5°C | 77.0% | 384.3hPa | 2.9V | 00:00:00 | 00:00:00 | 00:00:00 | |
| EDDB2-11 | 2026-09-04 17:11:49 | 52.16613 | 14.86415 | 93° | 122km/h | 7666m | 1.9m/s | -22.1°C | 78.3% | 386.6hPa | 2.9V | 00:00:00 | 00:00:00 | 00:00:00 | |
| SONDE2-11 | 2026-09-04 17:11:48 | 52.16615 | 14.86365 | 93° | 122km/h | 7663m | 4.0m/s | -22.1°C | 77.8% | 386.7hPa | 2.9V | 00:00:00 | 00:00:00 | 00:00:00 | |
| S3001 | 2026-09-04 17:11:47 | 52.16617 | 14.86315 | 92° | 122km/h | 7660m | 2.7m/s | -22.1°C | 77.7% | 386.9hPa | 2.9V | 00:00:00 | 00:00:00 | 00:00:00 | |
| SP3BTT-10 | 2026-09-04 17:11:43 | 52.16620 | 14.86113 | 93° | 128km/h | 7647m | 2.8m/s | -21.9°C | 81.6% | 387.6hPa | 2.9V | 00:00:00 | 00:00:00 | 00:00:00 | |
| KRY50SP-1 | 2026-09-04 17:11:42 | 52.16620 | 14.86113 | 94° | 126km/h | 7647m | 2.8m/s | -22.0°C | 77.2% | 387.6hPa | 2.9V | 00:00:00 | 00:00:00 | 00:00:00 | |
| EDDB2-12 | 2026-09-04 17:11:40 | 52.16624 | 14.85957 | 91° | 128km/h | 7636m | 2.4m/s | -21.9°C | 77.8% | 388.2hPa | 2.9V | 00:00:00 | 00:00:00 | 00:00:00 | |
| KRY50SP-1 | 2026-09-04 17:11:36 | 52.16627 | 14.85796 | 93° | 131km/h | 7627m | 2.6m/s | -21.9°C | 77.8% | 388.7hPa | 2.9V | 00:00:00 | 00:00:00 | 00:00:00 | |
| SP3WXH-11 | 2026-09-04 17:11:31 | 52.16637 | 14.85479 | 95° | 126km/h | 7606m | 2.3m/s | -21.8°C | 81.7% | 389.9hPa | 2.9V | 00:00:00 | 00:00:00 | 00:00:00 | |
| KRY50SP-1 | 2026-09-04 17:11:30 | 52.16637 | 14.85479 | 96° | 128km/h | 7607m | 2.3m/s | -21.8°C | 81.7% | 389.9hPa | 2.9V | 00:00:00 | 00:00:00 | 00:00:00 | |
| 13BRC | 2026-09-04 17:11:29 | 52.16640 | 14.85427 | 95° | 126km/h | 7604m | 3.4m/s | -21.8°C | 81.5% | 389.9hPa | 2.9V | 00:00:00 | 00:00:00 | 00:00:00 | |
| DB0DAN | 2026-09-04 17:11:25 | 52.16647 | 14.85169 | 93° | 119km/h | 7587m | 3.3m/s | -21.6°C | 80.1% | 390.73hPa | 2.9V | 00:00:00 | 00:00:00 | 00:00:00 | |
| KRY50SP-1 | 2026-09-04 17:11:24 | 52.16647 | 14.85169 | 94° | 124km/h | 7587m | 3.3m/s | -21.6°C | 80.1% | 390.7hPa | 2.9V | 00:00:00 | 00:00:00 | 00:00:00 | |
| SP6BVK | 2026-09-04 17:11:22 | 52.16650 | 14.85065 | 95° | 128km/h | 7580m | 2.7m/s | -21.6°C | 79.5% | 391.2hPa | 2.9V | 00:00:00 | 00:00:00 | 00:00:00 | |
| DAC517 | 2026-09-04 17:11:20 | 52.16658 | 14.84910 | 96° | 124km/h | 7572m | 2.4m/s | -21.5°C | 80.4% | 391.6hPa | 2.9V | 00:00:00 | 00:00:00 | 00:00:00 | |
| KRY50SP-1 | 2026-09-04 17:11:19 | 52.16658 | 14.84910 | 96° | 124km/h | 7572m | 2.4m/s | -21.5°C | 80.4% | 391.6hPa | 2.9V | 00:00:00 | 00:00:00 | 00:00:00 | |
| EDDB2-11 | 2026-09-04 17:11:18 | 52.16662 | 14.84806 | 93° | 128km/h | 7565m | 3.1m/s | -21.5°C | 80.6% | 392.0hPa | 2.9V | 00:00:00 | 00:00:00 | 00:00:00 | |
| SONDE2-11 | 2026-09-04 17:11:17 | 52.16663 | 14.84753 | 92° | 128km/h | 7563m | 2.7m/s | -21.5°C | 80.7% | 392.2hPa | 2.9V | 00:00:00 | 00:00:00 | 00:00:00 | |
| DL2RXE-15 | 2026-09-04 17:11:14 | 52.16665 | 14.84647 | 92° | 130km/h | 7556m | 3.5m/s | 0°C | 0% | 0hPa | 2.9V | 00:00:00 | 00:00:00 | 00:00:00 | |
| SP3BTT-10 | 2026-09-04 17:11:13 | 52.16666 | 14.84541 | 92° | 130km/h | 7551m | 4.0m/s | -21.4°C | 84.9% | 392.8hPa | 2.9V | 00:00:00 | 00:00:00 | 00:00:00 | |
| EDDB2-12 | 2026-09-04 17:11:09 | 52.16673 | 14.84329 | 93° | 128km/h | 7538m | 3.5m/s | -21.4°C | 81.8% | 393.5hPa | 2.9V | 00:00:00 | 00:00:00 | 00:00:00 | |
| 13BRC | 2026-09-04 17:11:08 | 52.16673 | 14.84329 | 95° | 128km/h | 7538m | 3.5m/s | -21.4°C | 81.8% | 393.5hPa | 2.9V | 00:00:00 | 00:00:00 | 00:00:00 | |
| KRY50SP-1 | 2026-09-04 17:11:04 | 52.16680 | 14.84117 | 94° | 130km/h | 7524m | 2.8m/s | -21.3°C | 81.9% | 394.3hPa | 2.9V | 00:00:00 | 00:00:00 | 00:00:00 | |
| SP3WXH-11 | 2026-09-04 17:11:00 | 52.16690 | 14.83855 | 95° | 126km/h | 7508m | 3.3m/s | -21.2°C | 81.2% | 395.2hPa | 2.9V | 00:00:00 | 00:00:00 | 00:00:00 | |
| DAC517 | 2026-09-04 17:10:58 | 52.16696 | 14.83751 | 95° | 128km/h | 7503m | 3.7m/s | -21.1°C | 80.7% | 395.4hPa | 2.9V | 00:00:00 | 00:00:00 | 00:00:00 | |
| DB0DAN | 2026-09-04 17:10:55 | 52.16701 | 14.83595 | 93° | 120km/h | 7491m | 4.3m/s | -21.1°C | 80.2% | 396.04hPa | 2.9V | 00:00:00 | 00:00:00 | 00:00:00 | |
| EDDB2-11 | 2026-09-04 17:10:47 | 52.16712 | 14.83170 | 94° | 130km/h | 7463m | 2.9m/s | -21.1°C | 81.3% | 397.6hPa | 2.8V | 00:00:00 | 00:00:00 | 00:00:00 | |
| SONDE2-11 | 2026-09-04 17:10:46 | 52.16717 | 14.83064 | 93° | 126km/h | 7456m | 2.7m/s | -21.0°C | 81.3% | 398.0hPa | 2.8V | 00:00:00 | 00:00:00 | 00:00:00 | |
| S3001 | 2026-09-04 17:10:45 | 52.16717 | 14.83064 | 93° | 126km/h | 7456m | 2.7m/s | -21.0°C | 81.3% | 398.0hPa | 2.8V | 00:00:00 | 00:00:00 | 00:00:00 | |
| SP3BTT-10 | 2026-09-04 17:10:43 | 52.16721 | 14.82959 | 94° | 130km/h | 7449m | 4.9m/s | -20.9°C | 85.1% | 398.2hPa | 2.8V | 00:00:00 | 00:00:00 | 00:00:00 | |
| DB0DAN | 2026-09-04 17:10:40 | 52.16724 | 14.82801 | 91° | 122km/h | 7438m | 2.9m/s | -20.9°C | 80.8% | 398.89hPa | 2.8V | 00:00:00 | 00:00:00 | 00:00:00 | |
| EDDB2-12 | 2026-09-04 17:10:38 | 52.16726 | 14.82694 | 91° | 131km/h | 7430m | 2.9m/s | -20.8°C | 81.0% | 399.3hPa | 2.8V | 00:00:00 | 00:00:00 | 00:00:00 | |
| DAC517 | 2026-09-04 17:10:37 | 52.16726 | 14.82694 | 93° | 133km/h | 7431m | 2.9m/s | -20.8°C | 81.0% | 399.3hPa | 2.8V | 00:00:00 | 00:00:00 | 00:00:00 | |
| KRY50SP-1 | 2026-09-04 17:10:36 | 52.16727 | 14.82639 | 94° | 133km/h | 7427m | 3.8m/s | -20.8°C | 80.9% | 399.5hPa | 2.8V | 00:00:00 | 00:00:00 | 00:00:00 | |
| KRY50SP-1 | 2026-09-04 17:10:30 | 52.16742 | 14.82316 | 96° | 131km/h | 7406m | 2.8m/s | -20.7°C | 80.5% | 400.6hPa | 2.8V | 00:00:00 | 00:00:00 | 00:00:00 | |
| SP3WXH-11 | 2026-09-04 17:10:29 | 52.16746 | 14.82208 | 93° | 131km/h | 7398m | 3.9m/s | -20.6°C | 80.1% | 400.9hPa | 2.8V | 00:00:00 | 00:00:00 | 00:00:00 | |
| DB0DAN | 2026-09-04 17:10:25 | 52.16755 | 14.81985 | 94° | 128km/h | 7387m | 4.8m/s | -20.5°C | 79.8% | 401.75hPa | 2.8V | 00:00:00 | 00:00:00 | 00:00:00 | |
| DL2RXE-15 | 2026-09-04 17:10:25 | 52.16753 | 14.82041 | 95° | 137km/h | 7390m | 1.8m/s | 0°C | 0% | 0hPa | 2.9V | 00:00:00 | 00:00:00 | 00:00:00 | |
| KRY50SP-1 | 2026-09-04 17:10:24 | 52.16755 | 14.81985 | 95° | 135km/h | 7387m | 4.8m/s | -20.5°C | 79.8% | 401.7hPa | 2.9V | 00:00:00 | 00:00:00 | 00:00:00 | |
| SP6BVK | 2026-09-04 17:10:19 | 52.16766 | 14.81715 | 96° | 126km/h | 7367m | 4.9m/s | -20.5°C | 79.7% | 402.8hPa | 2.9V | 00:00:00 | 00:00:00 | 00:00:00 | |
| EDDB2-11 | 2026-09-04 17:10:16 | 52.16778 | 14.81511 | 94° | 128km/h | 7353m | 4.9m/s | -20.4°C | 79.6% | 403.4hPa | 2.9V | 00:00:00 | 00:00:00 | 00:00:00 | |
| SONDE2-11 | 2026-09-04 17:10:15 | 52.16783 | 14.81402 | 94° | 135km/h | 7341m | 7.8m/s | -20.4°C | 79.3% | 404.0hPa | 2.9V | 00:00:00 | 00:00:00 | 00:00:00 | |
| S3001 | 2026-09-04 17:10:14 | 52.16783 | 14.81402 | 94° | 135km/h | 7341m | 7.8m/s | -20.4°C | 79.3% | 404.0hPa | 2.9V | 00:00:00 | 00:00:00 | 00:00:00 | |
| SP3BTT-10 | 2026-09-04 17:10:13 | 52.16786 | 14.81345 | 95° | 144km/h | 7333m | 7.7m/s | -20.3°C | 83.8% | 404.5hPa | 2.9V | 00:00:00 | 00:00:00 | 00:00:00 | |
| DB0DAN | 2026-09-04 17:10:10 | 52.16795 | 14.81175 | 96° | 133km/h | 7316m | 5m/s | -20.3°C | 80.5% | 405.5hPa | 2.9V | 00:00:00 | 00:00:00 | 00:00:00 | |
| KRY50SP-1 | 2026-09-04 17:10:08 | 52.16799 | 14.81117 | 98° | 141km/h | 7312m | 2.3m/s | -20.3°C | 81.1% | 405.6hPa | 2.9V | 00:00:00 | 00:00:00 | 00:00:00 | |
| EDDB2-12 | 2026-09-04 17:10:07 | 52.16808 | 14.81004 | 96° | 137km/h | 7305m | 3.6m/s | -20.2°C | 81.2% | 406.1hPa | 2.9V | 00:00:00 | 00:00:00 | 00:00:00 | |
| 13BRC | 2026-09-04 17:10:06 | 52.16808 | 14.81004 | 98° | 139km/h | 7305m | 3.6m/s | -20.2°C | 81.2% | 406.1hPa | 2.9V | 00:00:00 | 00:00:00 | 00:00:00 | |
| DL2RXE-15 | 2026-09-04 17:10:04 | 52.16816 | 14.80890 | 97° | 139km/h | 7298m | 5.5m/s | -20.2°C | 0% | 0hPa | 2.9V | 00:00:00 | 00:00:00 | 00:00:00 | |
| KRY50SP-1 | 2026-09-04 17:10:02 | 52.16822 | 14.80776 | 96° | 141km/h | 7290m | 2.3m/s | -20.1°C | 82.0% | 407.0hPa | 2.9V | 00:00:00 | 00:00:00 | 00:00:00 | |
| SP3WXH-11 | 2026-09-04 17:09:58 | 52.16839 | 14.80487 | 96° | 139km/h | 7273m | 3.5m/s | -20.0°C | 81.1% | 407.9hPa | 2.9V | 00:00:00 | 00:00:00 | 00:00:00 | |
| DB0DAN | 2026-09-04 17:09:55 | 52.16851 | 14.80311 | 95° | 141km/h | 7260m | 3.4m/s | -19.9°C | 80.5% | 408.52hPa | 2.9V | 00:00:00 | 00:00:00 | 00:00:00 | |
| EDDB2-11 | 2026-09-04 17:09:45 | 52.16884 | 14.79718 | 95° | 139km/h | 7226m | 2.5m/s | -19.6°C | 79.0% | 410.5hPa | 2.9V | 00:00:00 | 00:00:00 | 00:00:00 | |
| SONDE2-11 | 2026-09-04 17:09:44 | 52.16887 | 14.79660 | 95° | 141km/h | 7223m | 3.7m/s | -19.5°C | 78.5% | 410.6hPa | 2.9V | 00:00:00 | 00:00:00 | 00:00:00 | |
| SP3BTT-10 | 2026-09-04 17:09:43 | 52.16890 | 14.79602 | 96° | 142km/h | 7219m | 3.2m/s | -19.4°C | 82.3% | 410.8hPa | 2.9V | 00:00:00 | 00:00:00 | 00:00:00 | |
| KRY50SP-1 | 2026-09-04 17:09:40 | 52.16897 | 14.79486 | 97° | 141km/h | 7212m | 3.1m/s | -19.4°C | 78.4% | 411.3hPa | 2.9V | 00:00:00 | 00:00:00 | 00:00:00 | |
| DB0DAN | 2026-09-04 17:09:40 | 52.16901 | 14.79428 | 96° | 135km/h | 7209m | 3.8m/s | -19.4°C | 78% | 411.33hPa | 2.9V | 00:00:00 | 00:00:00 | 00:00:00 | |
| DL2RXE-15 | 2026-09-04 17:09:36 | 52.16916 | 14.79190 | 97° | 146km/h | 7194m | 3.0m/s | 0°C | 0% | 0hPa | 2.9V | 00:00:00 | 00:00:00 | 00:00:00 | |
| DAC517 | 2026-09-04 17:09:35 | 52.16916 | 14.79190 | 97° | 146km/h | 7194m | 3.0m/s | -19.3°C | 77.8% | 412.3hPa | 2.9V | 00:00:00 | 00:00:00 | 00:00:00 | |
| KRY50SP-1 | 2026-09-04 17:09:34 | 52.16920 | 14.79130 | 97° | 148km/h | 7191m | 4.6m/s | -19.3°C | 77.2% | 412.4hPa | 2.9V | 00:00:00 | 00:00:00 | 00:00:00 | |
| SP6BVK | 2026-09-04 17:09:32 | 52.16927 | 14.79010 | 96° | 146km/h | 7182m | 4.3m/s | -19.2°C | 77.0% | 412.8hPa | 2.9V | 00:00:00 | 00:00:00 | 00:00:00 | |
| KRY50SP-1 | 2026-09-04 17:09:29 | 52.16939 | 14.78833 | 98° | 144km/h | 7170m | 5.1m/s | -19.1°C | 76.5% | 413.4hPa | 2.9V | 00:00:00 | 00:00:00 | 00:00:00 | |
| SP3WXH-11 | 2026-09-04 17:09:27 | 52.16949 | 14.78656 | 95° | 144km/h | 7156m | 4.4m/s | -19.0°C | 76.2% | 414.2hPa | 2.9V | 00:00:00 | 00:00:00 | 00:00:00 | |
| 13BRC | 2026-09-04 17:09:25 | 52.16953 | 14.78597 | 97° | 142km/h | 7153m | 2.4m/s | -18.9°C | 76.6% | 414.4hPa | 2.9V | 00:00:00 | 00:00:00 | 00:00:00 | |
| DB0DAN | 2026-09-04 17:09:25 | 52.16957 | 14.78538 | 96° | 137km/h | 7149m | 4.6m/s | -18.9°C | 75.8% | 414.5hPa | 2.9V | 00:00:00 | 00:00:00 | 00:00:00 | |
| KRY50SP-1 | 2026-09-04 17:09:24 | 52.16960 | 14.78480 | 97° | 142km/h | 7145m | 2.9m/s | -18.9°C | 76.0% | 414.8hPa | 2.9V | 00:00:00 | 00:00:00 | 00:00:00 | |
| KRY50SP-1 | 2026-09-04 17:09:17 | 52.16990 | 14.78130 | 99° | 144km/h | 7121m | 4.6m/s | -18.6°C | 72.9% | 416.1hPa | 2.9V | 00:00:00 | 00:00:00 | 00:00:00 | |
| DL2RXE-15 | 2026-09-04 17:09:15 | 52.16999 | 14.78012 | 97° | 144km/h | 7114m | 4.6m/s | -18.6°C | 0% | 0hPa | 2.9V | 00:00:00 | 00:00:00 | 00:00:00 | |
| EDDB2-11 | 2026-09-04 17:09:14 | 52.17005 | 14.77895 | 94° | 142km/h | 7107m | 3.5m/s | -18.5°C | 70.5% | 417.0hPa | 2.9V | 00:00:00 | 00:00:00 | 00:00:00 | |
| SP3BTT-10 | 2026-09-04 17:09:13 | 52.17008 | 14.77836 | 94° | 148km/h | 7103m | 3.5m/s | -18.4°C | 71.2% | 417.2hPa | 2.9V | 00:00:00 | 00:00:00 | 00:00:00 | |
| DB0DAN | 2026-09-04 17:09:10 | 52.17016 | 14.77658 | 94° | 137km/h | 7093m | 3.2m/s | -18.4°C | 66.1% | 417.81hPa | 2.9V | 00:00:00 | 00:00:00 | 00:00:00 | |
| KRY50SP-1 | 2026-09-04 17:09:06 | 52.17027 | 14.77482 | 97° | 144km/h | 7080m | 4.4m/s | -18.2°C | 64.8% | 418.6hPa | 2.9V | 00:00:00 | 00:00:00 | 00:00:00 | |
| EDDB2-12 | 2026-09-04 17:09:05 | 52.17036 | 14.77363 | 97° | 144km/h | 7073m | 3.9m/s | -18.2°C | 63.9% | 418.9hPa | 2.9V | 00:00:00 | 00:00:00 | 00:00:00 | |
| 13BRC | 2026-09-04 17:09:04 | 52.17036 | 14.77363 | 99° | 146km/h | 7073m | 3.9m/s | -18.2°C | 63.9% | 418.9hPa | 2.9V | 00:00:00 | 00:00:00 | 00:00:00 | |
| SP3WXH-11 | 2026-09-04 17:08:56 | 52.17074 | 14.76828 | 96° | 144km/h | 7034m | 4.5m/s | -17.8°C | 61.3% | 421.2hPa | 2.9V | 00:00:00 | 00:00:00 | 00:00:00 | |
| DB0DAN | 2026-09-04 17:08:55 | 52.17079 | 14.76769 | 98° | 139km/h | 7030m | 3.4m/s | -17.7°C | 61.1% | 421.44hPa | 2.9V | 00:00:00 | 00:00:00 | 00:00:00 | |
| KRY50SP-1 | 2026-09-04 17:08:55 | 52.17079 | 14.76769 | 99° | 146km/h | 7030m | 3.4m/s | -17.7°C | 61.1% | 421.4hPa | 2.9V | 00:00:00 | 00:00:00 | 00:00:00 | |
| DAC517 | 2026-09-04 17:08:54 | 52.17079 | 14.76769 | 99° | 146km/h | 7030m | 3.4m/s | -17.7°C | 61.1% | 421.4hPa | 2.9V | 00:00:00 | 00:00:00 | 00:00:00 | |
| SP6BVK | 2026-09-04 17:08:51 | 52.17096 | 14.76591 | 100° | 144km/h | 7019m | 3.9m/s | -17.6°C | 59.9% | 422.1hPa | 2.9V | 00:00:00 | 00:00:00 | 00:00:00 | |
| KRY50SP-1 | 2026-09-04 17:08:48 | 52.17114 | 14.76416 | 100° | 146km/h | 7005m | 5.0m/s | -17.5°C | 57.9% | 422.8hPa | 2.9V | 00:00:00 | 00:00:00 | 00:00:00 | |
| DL2RXE-15 | 2026-09-04 17:08:47 | 52.17119 | 14.76356 | 99° | 150km/h | 7000m | 5.0m/s | 0°C | 0% | 0hPa | 2.9V | 00:00:00 | 00:00:00 | 00:00:00 | |
| 13BRC | 2026-09-04 17:08:44 | 52.17129 | 14.76169 | 93° | 153km/h | 6985m | 4.2m/s | -17.4°C | 56.5% | 423.9hPa | 2.9V | 00:00:00 | 00:00:00 | 00:00:00 | |
| SP3BTT-10 | 2026-09-04 17:08:43 | 52.17131 | 14.76043 | 91° | 148km/h | 6976m | 3.8m/s | -17.3°C | 59.3% | 424.2hPa | 2.9V | 00:00:00 | 00:00:00 | 00:00:00 | |
| KRY50SP-1 | 2026-09-04 17:08:42 | 52.17131 | 14.76043 | 92° | 153km/h | 6976m | 3.9m/s | -17.4°C | 56.4% | 424.2hPa | 2.9V | 00:00:00 | 00:00:00 | 00:00:00 | |
| DB0DAN | 2026-09-04 17:08:40 | 52.17135 | 14.75856 | 93° | 141km/h | 6962m | 6m/s | -17.2°C | 56.5% | 425.07hPa | 2.9V | 00:00:00 | 00:00:00 | 00:00:00 | |
| KRY50SP-1 | 2026-09-04 17:08:36 | 52.17144 | 14.75680 | 98° | 142km/h | 6943m | 5.6m/s | -17.2°C | 60.1% | 426.2hPa | 2.7V | 00:00:00 | 00:00:00 | 00:00:00 | |
| EDDB2-12 | 2026-09-04 17:08:34 | 52.17156 | 14.75502 | 94° | 148km/h | 6924m | 6.0m/s | -17.2°C | 59.2% | 427.2hPa | 2.7V | 00:00:00 | 00:00:00 | 00:00:00 | |
| KRY50SP-1 | 2026-09-04 17:08:32 | 52.17162 | 14.75378 | 95° | 151km/h | 6912m | 5.0m/s | -17.1°C | 57.4% | 427.9hPa | 2.7V | 00:00:00 | 00:00:00 | 00:00:00 | |
| SP6BVK | 2026-09-04 17:08:30 | 52.17165 | 14.75316 | 96° | 150km/h | 6906m | 5.9m/s | -17.1°C | 55.7% | 428.1hPa | 2.7V | 00:00:00 | 00:00:00 | 00:00:00 | |
| DL2RXE-15 | 2026-09-04 17:08:26 | 52.17179 | 14.75079 | 96° | 144km/h | 6887m | 3.0m/s | -16.9°C | 0% | 0hPa | 2.7V | 00:00:00 | 00:00:00 | 00:00:00 | |
| SP3WXH-11 | 2026-09-04 17:08:25 | 52.17185 | 14.74960 | 94° | 144km/h | 6879m | 4.2m/s | -16.8°C | 31.2% | 429.9hPa | 2.7V | 00:00:00 | 00:00:00 | 00:00:00 | |
| DB0DAN | 2026-09-04 17:08:25 | 52.17185 | 14.74960 | 94° | 139km/h | 6879m | 4.2m/s | -16.8°C | 31.2% | 429.93hPa | 2.9V | 00:00:00 | 00:00:00 | 00:00:00 | |
| 13BRC | 2026-09-04 17:08:23 | 52.17188 | 14.74900 | 95° | 146km/h | 6875m | 3.6m/s | -16.8°C | 28.9% | 430.2hPa | 2.7V | 00:00:00 | 00:00:00 | 00:00:00 | |
| KRY50SP-1 | 2026-09-04 17:08:20 | 52.17195 | 14.74720 | 96° | 146km/h | 6863m | 5.8m/s | -16.7°C | 31.6% | 430.9hPa | 2.7V | 00:00:00 | 00:00:00 | 00:00:00 | |
| KRY50SP-1 | 2026-09-04 17:08:15 | 52.17214 | 14.74419 | 97° | 146km/h | 6839m | 5.2m/s | -16.7°C | 27.7% | 432.3hPa | 2.7V | 00:00:00 | 00:00:00 | 00:00:00 | |
| DAC517 | 2026-09-04 17:08:14 | 52.17218 | 14.74359 | 97° | 144km/h | 6835m | 2.9m/s | -16.6°C | 26.2% | 432.6hPa | 2.7V | 00:00:00 | 00:00:00 | 00:00:00 | |
| SP3BTT-10 | 2026-09-04 17:08:13 | 52.17224 | 14.74242 | 95° | 144km/h | 6827m | 4.1m/s | -16.5°C | 23.6% | 433.0hPa | 2.7V | 00:00:00 | 00:00:00 | 08:30:00 | |
| DB0DAN | 2026-09-04 17:08:10 | 52.17231 | 14.74062 | 94° | 142km/h | 6814m | 4.5m/s | -16.5°C | 21.2% | 433.79hPa | 2.9V | 00:00:00 | 00:00:00 | 00:00:00 | |
| KRY50SP-1 | 2026-09-04 17:08:10 | 52.17231 | 14.74062 | 95° | 150km/h | 6815m | 4.5m/s | -16.5°C | 21.2% | 433.8hPa | 2.9V | 00:00:00 | 00:00:00 | 00:00:00 | |
| SP6BVK | 2026-09-04 17:08:09 | 52.17231 | 14.74062 | 95° | 150km/h | 6815m | 4.5m/s | -16.5°C | 21.2% | 433.8hPa | 2.9V | 00:00:00 | 00:00:00 | 00:00:00 | |
| KRY50SP-1 | 2026-09-04 17:08:05 | 52.17243 | 14.73755 | 94° | 148km/h | 6791m | 3.1m/s | -16.4°C | 23.4% | 435.1hPa | 2.9V | 00:00:00 | 00:00:00 | 00:00:00 | |
| EDDB2-12 | 2026-09-04 17:08:04 | 52.17247 | 14.73635 | 93° | 144km/h | 6782m | 4.1m/s | -16.3°C | 22.8% | 435.6hPa | 2.9V | 00:00:00 | 00:00:00 | 00:00:00 | |
| KRY50SP-1 | 2026-09-04 17:08:00 | 52.17255 | 14.73394 | 94° | 148km/h | 6764m | 3.0m/s | -16.1°C | 22.5% | 436.6hPa | 2.9V | 00:00:00 | 00:00:00 | 00:00:00 | |
| DL2RXE-15 | 2026-09-04 17:07:58 | 52.17256 | 14.73333 | 93° | 148km/h | 6760m | 4.9m/s | 0°C | 0% | 0hPa | 2.9V | 00:00:00 | 00:00:00 | 00:00:00 | |
| DB0DAN | 2026-09-04 17:07:55 | 52.17261 | 14.73149 | 93° | 141km/h | 6747m | 4.5m/s | -16°C | 22.3% | 437.74hPa | 2.9V | 00:00:00 | 00:00:00 | 00:00:00 | |
| SP3WXH-11 | 2026-09-04 17:07:55 | 52.17263 | 14.73089 | 92° | 146km/h | 6742m | 3.8m/s | -15.9°C | 22.4% | 437.9hPa | 2.9V | 00:00:00 | 00:00:00 | 00:00:00 | |
| DAC517 | 2026-09-04 17:07:54 | 52.17262 | 14.73088 | 94° | 148km/h | 6743m | 3.8m/s | -15.9°C | 22.4% | 437.9hPa | 2.9V | 00:00:00 | 00:00:00 | 00:00:00 | |
| SP6BVK | 2026-09-04 17:07:49 | 52.17268 | 14.72850 | 94° | 144km/h | 6724m | 4.5m/s | -15.8°C | 21.6% | 439.1hPa | 2.9V | 00:00:00 | 00:00:00 | 00:00:00 | |
| KRY50SP-1 | 2026-09-04 17:07:48 | 52.17270 | 14.72791 | 93° | 142km/h | 6719m | 5.2m/s | -15.7°C | 21.7% | 439.4hPa | 2.9V | 00:00:00 | 00:00:00 | 00:00:00 | |
| SP3BTT-10 | 2026-09-04 17:07:43 | 52.17278 | 14.72436 | 92° | 146km/h | 6692m | 5.3m/s | -15.4°C | 22.6% | 440.9hPa | 2.9V | 00:00:00 | 00:00:00 | 00:00:00 | |
| KRY50SP-1 | 2026-09-04 17:07:42 | 52.17278 | 14.72436 | 92° | 144km/h | 6692m | 5.3m/s | -15.5°C | 21.3% | 441.0hPa | 2.9V | 00:00:00 | 00:00:00 | 00:00:00 | |
| DB0DAN | 2026-09-04 17:07:40 | 52.17280 | 14.72256 | 90° | 139km/h | 6677m | 5.8m/s | -15.4°C | 21.5% | 441.8hPa | 2.9V | 00:00:00 | 00:00:00 | 00:00:00 | |
| SONDE2-11 | 2026-09-04 17:07:40 | 52.17280 | 14.72196 | 90° | 144km/h | 6672m | 3.8m/s | -15.3°C | 22.1% | 442.0hPa | 2.9V | 00:00:00 | 00:00:00 | 00:00:00 | |
| S3001 | 2026-09-04 17:07:39 | 52.17280 | 14.72196 | 90° | 144km/h | 6672m | 3.8m/s | -15.3°C | 22.1% | 442.0hPa | 2.9V | 00:00:00 | 00:00:00 | 00:00:00 | |
| DL2RXE-15 | 2026-09-04 17:07:37 | 52.17281 | 14.72137 | 93° | 142km/h | 6668m | 5.2m/s | -15.3°C | 0% | 0hPa | 2.9V | 00:00:00 | 00:00:00 | 00:00:00 | |
| KRY50SP-1 | 2026-09-04 17:07:36 | 52.17282 | 14.72078 | 93° | 142km/h | 6664m | 3.5m/s | -15.3°C | 23.0% | 442.6hPa | 2.9V | 00:00:00 | 00:00:00 | 00:00:00 | |
| EDDB2-12 | 2026-09-04 17:07:32 | 52.17294 | 14.71783 | 93° | 146km/h | 6642m | 4.5m/s | -15.1°C | 23.4% | 443.8hPa | 2.9V | 00:00:00 | 00:00:00 | 00:00:00 | |
| KRY50SP-1 | 2026-09-04 17:07:31 | 52.17294 | 14.71782 | 95° | 146km/h | 6642m | 4.5m/s | -15.1°C | 23.4% | 443.8hPa | 2.9V | 00:00:00 | 00:00:00 | 00:00:00 | |
| SP6BVK | 2026-09-04 17:07:28 | 52.17298 | 14.71603 | 92° | 144km/h | 6629m | 5.1m/s | -15.0°C | 27.0% | 444.5hPa | 2.9V | 00:00:00 | 00:00:00 | 00:00:00 | |
| DB0DAN | 2026-09-04 17:07:25 | 52.17300 | 14.71365 | 92° | 139km/h | 6612m | 4m/s | -14.9°C | 31% | 445.57hPa | 2.9V | 00:00:00 | 00:00:00 | 00:00:00 | |
| KRY50SP-1 | 2026-09-04 17:07:24 | 52.17299 | 14.71365 | 93° | 146km/h | 6612m | 4.0m/s | -14.9°C | 31.0% | 445.6hPa | 2.9V | 00:00:00 | 00:00:00 | 00:00:00 | |
| SP3WXH-11 | 2026-09-04 17:07:23 | 52.17302 | 14.71246 | 91° | 144km/h | 6603m | 5.1m/s | -14.8°C | -1.0% | -1.0hPa | 2.9V | 00:00:00 | 00:00:00 | 00:00:00 | |
| 13BRC | 2026-09-04 17:07:22 | 52.17302 | 14.71245 | 93° | 146km/h | 6603m | 5.1m/s | -14.8°C | 31.3% | 446.1hPa | 2.9V | 00:00:00 | 00:00:00 | 00:00:00 | |
| SP3BTT-10 | 2026-09-04 17:07:13 | 52.17310 | 14.70643 | 92° | 146km/h | 6557m | 4.5m/s | -14.4°C | 40.8% | 448.9hPa | 2.9V | 00:00:00 | 00:00:00 | 00:00:00 | |
| DB0DAN | 2026-09-04 17:07:10 | 52.17313 | 14.70464 | 91° | 137km/h | 6544m | 4.7m/s | -14.3°C | 38.7% | 449.63hPa | 2.9V | 00:00:00 | 00:00:00 | 00:00:00 | |
| EDDB2-11 | 2026-09-04 17:07:10 | 52.17313 | 14.70464 | 90° | 144km/h | 6544m | 4.7m/s | -14.3°C | 38.7% | 449.6hPa | 2.9V | 00:00:00 | 00:00:00 | 00:00:00 | |
| SONDE2-11 | 2026-09-04 17:07:09 | 52.17314 | 14.70345 | 91° | 144km/h | 6535m | 4.1m/s | -14.3°C | 38.6% | 450.1hPa | 2.9V | 00:00:00 | 00:00:00 | 00:00:00 | |
| KRY50SP-1 | 2026-09-04 17:07:08 | 52.17314 | 14.70345 | 92° | 144km/h | 6535m | 4.1m/s | -14.3°C | 38.6% | 450.1hPa | 2.9V | 00:00:00 | 00:00:00 | 00:00:00 | |
| SP6BVK | 2026-09-04 17:07:07 | 52.17314 | 14.70345 | 92° | 144km/h | 6535m | 4.1m/s | -14.3°C | 38.6% | 450.1hPa | 2.9V | 00:00:00 | 00:00:00 | 00:00:00 | |
| EDDB2-12 | 2026-09-04 17:07:01 | 52.17316 | 14.69922 | 90° | 146km/h | 6503m | 4.8m/s | -14.2°C | 38.7% | 452.1hPa | 2.9V | 00:00:00 | 00:00:00 | 00:00:00 | |
| DB0DAN | 2026-09-04 17:06:55 | 52.17317 | 14.69561 | 90° | 139km/h | 6475m | 4.1m/s | -13.9°C | 39.7% | 453.75hPa | 2.9V | 00:00:00 | 00:00:00 | 00:00:00 | |
| SP3WXH-11 | 2026-09-04 17:06:52 | 52.17317 | 14.69383 | 90° | 142km/h | 6461m | 4.4m/s | -13.8°C | -1.0% | -1.0hPa | 2.9V | 00:00:00 | 00:00:00 | 00:00:00 | |
| DAC517 | 2026-09-04 17:06:51 | 52.17317 | 14.69383 | 91° | 142km/h | 6461m | 4.4m/s | -13.8°C | 37.5% | 454.5hPa | 2.9V | 00:00:00 | 00:00:00 | 00:00:00 | |
| KRY50SP-1 | 2026-09-04 17:06:50 | 52.17317 | 14.69325 | 92° | 142km/h | 6456m | 4.1m/s | -13.8°C | 0% | 454.9hPa | 2.9V | 00:00:00 | 00:00:00 | 00:00:00 | |
| DL2RXE-15 | 2026-09-04 17:06:49 | 52.17318 | 14.69205 | 91° | 148km/h | 6448m | 5.8m/s | -13.8°C | 0% | 0hPa | 2.9V | 00:00:00 | 00:00:00 | 00:00:00 | |
| SP6BVK | 2026-09-04 17:06:46 | 52.17318 | 14.69082 | 91° | 148km/h | 6437m | 6.9m/s | -13.7°C | 35.4% | 456.0hPa | 2.9V | 00:00:00 | 00:00:00 | 00:00:00 | |
| KRY50SP-1 | 2026-09-04 17:06:44 | 52.17318 | 14.68960 | 91° | 150km/h | 6427m | 4.5m/s | 0°C | 0% | 456.6hPa | 2.9V | 00:00:00 | 00:00:00 | 00:00:00 | |
| SP3BTT-10 | 2026-09-04 17:06:43 | 52.17318 | 14.68834 | 91° | 153km/h | 6416m | 4.6m/s | -13.6°C | 38.6% | 457.2hPa | 2.9V | 00:00:00 | 00:00:00 | 00:00:00 | |
| 13BRC | 2026-09-04 17:06:40 | 52.17320 | 14.68708 | 92° | 151km/h | 6406m | 3.9m/s | -13.6°C | 37.1% | 458.0hPa | 2.9V | 00:00:00 | 00:00:00 | 00:00:00 | |
| DB0DAN | 2026-09-04 17:06:40 | 52.17321 | 14.68646 | 91° | 142km/h | 6401m | 6.6m/s | -13.6°C | 37% | 458.13hPa | 2.9V | 00:00:00 | 00:00:00 | 00:00:00 | |
| EDDB2-11 | 2026-09-04 17:06:39 | 52.17321 | 14.68585 | 90° | 150km/h | 6395m | 4.8m/s | -13.5°C | 37.3% | 458.5hPa | 2.9V | 00:00:00 | 00:00:00 | 00:00:00 | |
| SONDE2-11 | 2026-09-04 17:06:38 | 52.17323 | 14.68461 | 91° | 150km/h | 6386m | 3.7m/s | -13.5°C | 39.4% | 459.1hPa | 2.9V | 00:00:00 | 00:00:00 | 00:00:00 | |
| S3001 | 2026-09-04 17:06:37 | 52.17323 | 14.68461 | 91° | 150km/h | 6386m | 3.7m/s | -13.5°C | 39.4% | 459.1hPa | 2.9V | 00:00:00 | 00:00:00 | 00:00:00 | |
| KRY50SP-1 | 2026-09-04 17:06:33 | 52.17325 | 14.68277 | 93° | 148km/h | 6371m | 4.3m/s | 0°C | 0% | 460.0hPa | 2.9V | 00:00:00 | 00:00:00 | 00:00:00 | |
| EDDB2-12 | 2026-09-04 17:06:30 | 52.17332 | 14.68029 | 92° | 153km/h | 6353m | 3.5m/s | -13.4°C | 31.0% | 461.1hPa | 2.9V | 00:00:00 | 00:00:00 | 00:00:00 | |
| KRY50SP-1 | 2026-09-04 17:06:27 | 52.17335 | 14.67903 | 93° | 153km/h | 6344m | 3.9m/s | 0°C | 0% | 0hPa | 2.9V | 00:00:00 | 00:00:00 | 00:00:00 | |
| SP6BVK | 2026-09-04 17:06:25 | 52.17337 | 14.67777 | 92° | 153km/h | 6335m | 4.4m/s | -13.3°C | 29.5% | 462.1hPa | 2.9V | 00:00:00 | 00:00:00 | 00:00:00 | |
| DB0DAN | 2026-09-04 17:06:25 | 52.17338 | 14.67714 | 91° | 146km/h | 6330m | 5.2m/s | -13.3°C | 30.4% | 462.5hPa | 2.9V | 00:00:00 | 00:00:00 | 00:00:00 | |
| KRY50SP-1 | 2026-09-04 17:06:22 | 52.17340 | 14.67589 | 92° | 151km/h | 6321m | 6.0m/s | 0°C | 0% | 0hPa | 2.9V | 00:00:00 | 00:00:00 | 00:00:00 | |
| 13BRC | 2026-09-04 17:06:20 | 52.17341 | 14.67465 | 93° | 150km/h | 6311m | 5.8m/s | -13.5°C | 44.8% | 463.6hPa | 2.9V | 00:00:00 | 00:00:00 | 00:00:00 | |
| DL2RXE-15 | 2026-09-04 17:06:19 | 52.17342 | 14.67403 | 93° | 151km/h | 6306m | 3.2m/s | 0°C | 0% | 0hPa | 2.9V | 00:00:00 | 00:00:00 | 00:00:00 | |
| KRY50SP-1 | 2026-09-04 17:06:17 | 52.17345 | 14.67278 | 93° | 153km/h | 6297m | 5.8m/s | 0°C | 0% | 0hPa | 2.9V | 00:00:00 | 00:00:00 | 00:00:00 | |
| SP3BTT-10 | 2026-09-04 17:06:13 | 52.17353 | 14.66962 | 92° | 146km/h | 6273m | 3.7m/s | -13.2°C | 53.9% | 465.8hPa | 2.9V | 00:00:00 | 00:00:00 | 00:00:00 | |
| DB0DAN | 2026-09-04 17:06:10 | 52.17357 | 14.66771 | 92° | 146km/h | 6259m | 4.8m/s | -13.2°C | 54.6% | 466.78hPa | 2.9V | 00:00:00 | 00:00:00 | 00:00:00 | |
| DAC517 | 2026-09-04 17:06:09 | 52.17356 | 14.66771 | 93° | 153km/h | 6259m | 4.8m/s | -13.2°C | 54.6% | 466.8hPa | 2.9V | 00:00:00 | 00:00:00 | 00:00:00 | |
| EDDB2-11 | 2026-09-04 17:06:08 | 52.17360 | 14.66645 | 92° | 151km/h | 6250m | 5.3m/s | -13.1°C | 55.5% | 467.3hPa | 2.9V | 00:00:00 | 00:00:00 | 00:00:00 | |
| S3001 | 2026-09-04 17:06:06 | 52.17362 | 14.66521 | 92° | 151km/h | 6241m | 4.8m/s | -13.1°C | 56.4% | 467.9hPa | 2.9V | 00:00:00 | 00:00:00 | 00:00:00 | |
| KRY50SP-1 | 2026-09-04 17:06:05 | 52.17362 | 14.66521 | 93° | 151km/h | 6241m | 4.8m/s | 0°C | 0% | 0hPa | 2.9V | 00:00:00 | 00:00:00 | 00:00:00 | |
| SP6BVK | 2026-09-04 17:06:04 | 52.17364 | 14.66458 | 94° | 153km/h | 6237m | 4.3m/s | -13.0°C | 56.5% | 468.2hPa | 2.9V | 00:00:00 | 00:00:00 | 00:00:00 | |
| EDDB2-12 | 2026-09-04 17:05:59 | 52.17374 | 14.66087 | 92° | 148km/h | 6209m | 4.5m/s | -13.1°C | 62.9% | 470.0hPa | 2.9V | 00:00:00 | 00:00:00 | 00:00:00 | |
| DB0DAN | 2026-09-04 17:05:55 | 52.17378 | 14.65848 | 92° | 135km/h | 6189m | 3.9m/s | -13°C | 62.8% | 471.23hPa | 2.9V | 00:00:00 | 00:00:00 | 00:00:00 | |
| KRY50SP-1 | 2026-09-04 17:05:54 | 52.17378 | 14.65847 | 93° | 142km/h | 6190m | 3.9m/s | 0°C | 0% | 0hPa | 2.9V | 00:00:00 | 00:00:00 | 00:00:00 | |
| KRY50SP-1 | 2026-09-04 17:05:48 | 52.17388 | 14.65495 | 93° | 146km/h | 6158m | 5.5m/s | 0°C | 0% | 0hPa | 2.9V | 00:00:00 | 00:00:00 | 00:00:00 | |
| SP3BTT-10 | 2026-09-04 17:05:43 | 52.17397 | 14.65129 | 94° | 151km/h | 6132m | 4.8m/s | -12.7°C | 67.1% | 474.6hPa | 2.9V | 00:00:00 | 00:00:00 | 00:00:00 | |
| DB0DAN | 2026-09-04 17:05:40 | 52.17405 | 14.64952 | 95° | 137km/h | 6119m | 3.5m/s | -12.7°C | 65.5% | 475.53hPa | 2.9V | 00:00:00 | 00:00:00 | 00:00:00 | |
| 13BRC | 2026-09-04 17:05:39 | 52.17405 | 14.64952 | 96° | 144km/h | 6119m | 3.5m/s | -12.7°C | 65.5% | 475.5hPa | 2.9V | 00:00:00 | 00:00:00 | 00:00:00 | |
| EDDB2-11 | 2026-09-04 17:05:37 | 52.17412 | 14.64774 | 92° | 144km/h | 6106m | 4.2m/s | -12.7°C | 66.0% | 476.2hPa | 2.9V | 00:00:00 | 00:00:00 | 00:00:00 | |
| S3001 | 2026-09-04 17:05:35 | 52.17417 | 14.64530 | 90° | 151km/h | 6088m | 4.5m/s | -12.8°C | 69.1% | 477.4hPa | 2.9V | 00:00:00 | 00:00:00 | 00:00:00 | |
| KRY50SP-1 | 2026-09-04 17:05:32 | 52.17417 | 14.64530 | 92° | 151km/h | 6088m | 4.5m/s | 0°C | 0% | 0hPa | 2.9V | 00:00:00 | 00:00:00 | 00:00:00 | |
| EDDB2-12 | 2026-09-04 17:05:28 | 52.17422 | 14.64214 | 92° | 150km/h | 6066m | 4.4m/s | -12.6°C | 68.5% | 478.8hPa | 2.9V | 00:00:00 | 00:00:00 | 00:00:00 | |
| DB0DAN | 2026-09-04 17:05:25 | 52.17425 | 14.64031 | 92° | 142km/h | 6053m | 4.8m/s | -12.5°C | 68.1% | 479.5hPa | 2.9V | 00:00:00 | 00:00:00 | 00:00:00 | |
| SP6BVK | 2026-09-04 17:05:23 | 52.17425 | 14.63969 | 92° | 151km/h | 6049m | 3.4m/s | -12.5°C | 68.7% | 479.8hPa | 2.9V | 00:00:00 | 00:00:00 | 00:00:00 | |
| DL2RXE-15 | 2026-09-04 17:05:19 | 52.17428 | 14.63715 | 92° | 153km/h | 6031m | 4.4m/s | 0°C | 0% | 0hPa | 2.9V | 00:00:00 | 00:00:00 | 00:00:00 | |
| 13BRC | 2026-09-04 17:05:18 | 52.17429 | 14.63652 | 92° | 153km/h | 6027m | 4.1m/s | -12.4°C | 70.4% | 481.2hPa | 2.9V | 00:00:00 | 00:00:00 | 00:00:00 | |
| EDDB2-11 | 2026-09-04 17:05:06 | 52.17447 | 14.62808 | 94° | 164km/h | 5972m | 3.9m/s | -12.0°C | 71.3% | 484.6hPa | 2.9V | 00:00:00 | 00:00:00 | 00:00:00 | |
| DAC517 | 2026-09-04 17:05:05 | 52.17447 | 14.62808 | 96° | 164km/h | 5972m | 3.9m/s | -12.0°C | 71.3% | 484.6hPa | 2.9V | 00:00:00 | 00:00:00 | 00:00:00 | |
| S3001 | 2026-09-04 17:05:04 | 52.17457 | 14.62612 | 95° | 151km/h | 5960m | 4.3m/s | -12.0°C | 73.9% | 485.4hPa | 2.9V | 00:00:00 | 00:00:00 | 00:00:00 | |
| SP6BVK | 2026-09-04 17:05:02 | 52.17458 | 14.62612 | 96° | 151km/h | 5960m | 4.3m/s | -12.0°C | 73.9% | 485.4hPa | 2.9V | 00:00:00 | 00:00:00 | 00:00:00 | |
| EDDB2-12 | 2026-09-04 17:04:57 | 52.17463 | 14.62246 | 87° | 155km/h | 5934m | 4.7m/s | -11.8°C | 74.3% | 487.1hPa | 2.9V | 00:00:00 | 00:00:00 | 00:00:00 | |
| SP3BTT-10 | 2026-09-04 17:04:43 | 52.17474 | 14.61370 | 92° | 148km/h | 5871m | 3.0m/s | -11.4°C | 80.5% | 491.0hPa | 2.9V | 00:00:00 | 00:00:00 | 00:00:00 | |
| SP6BVK | 2026-09-04 17:04:41 | 52.17475 | 14.61310 | 93° | 144km/h | 5867m | 5.5m/s | -11.4°C | 0% | 0hPa | 2.9V | 00:00:00 | 00:00:00 | 00:00:00 | |
| DAC517 | 2026-09-04 17:04:38 | 52.17481 | 14.61130 | 95° | 146km/h | 5853m | 4.6m/s | -11.3°C | 76.9% | 492.1hPa | 2.9V | 00:00:00 | 00:00:00 | 00:00:00 | |
| 13BRC | 2026-09-04 17:04:37 | 52.17483 | 14.61070 | 95° | 146km/h | 5849m | 4.4m/s | -11.3°C | 76.8% | 492.5hPa | 2.9V | 00:00:00 | 00:00:00 | 00:00:00 | |
| EDDB2-11 | 2026-09-04 17:04:35 | 52.17489 | 14.60887 | 90° | 148km/h | 5835m | 5.4m/s | -11.3°C | 77.3% | 493.3hPa | 2.9V | 00:00:00 | 00:00:00 | 00:00:00 | |
| S3001 | 2026-09-04 17:04:33 | 52.17489 | 14.60707 | 90° | 144km/h | 5823m | 2.6m/s | -11.2°C | 77.2% | 494.2hPa | 2.9V | 00:00:00 | 00:00:00 | 00:00:00 | |
| DL2RXE-15 | 2026-09-04 17:04:30 | 52.17489 | 14.60648 | 92° | 144km/h | 5819m | 5.1m/s | 0°C | 0% | 0hPa | 2.9V | 00:00:00 | 00:00:00 | 00:00:00 | |
| DB0DAN | 2026-09-04 17:04:25 | 52.17495 | 14.60295 | 91° | 139km/h | 5796m | 2.6m/s | -10.9°C | 76.4% | 495.95hPa | 2.9V | 00:00:00 | 00:00:00 | 00:00:00 | |
| SP6BVK | 2026-09-04 17:04:20 | 52.17497 | 14.60056 | 92° | 146km/h | 5782m | 3.1m/s | -10.8°C | 0% | 0hPa | 2.9V | 00:00:00 | 00:00:00 | 00:00:00 | |
| DAC517 | 2026-09-04 17:04:18 | 52.17499 | 14.59934 | 92° | 150km/h | 5774m | 3.1m/s | -10.7°C | 75.5% | 497.4hPa | 2.9V | 00:00:00 | 00:00:00 | 00:00:00 | |
| 13BRC | 2026-09-04 17:04:16 | 52.17500 | 14.59811 | 93° | 148km/h | 5767m | 2.6m/s | -10.7°C | 75.5% | 497.9hPa | 2.9V | 00:00:00 | 00:00:00 | 00:00:00 | |
| SP3BTT-10 | 2026-09-04 17:04:13 | 52.17509 | 14.59565 | 94° | 148km/h | 5752m | 3.8m/s | -10.5°C | 78.0% | 498.8hPa | 2.9V | 00:00:00 | 00:00:00 | 00:00:00 | |
| DB0DAN | 2026-09-04 17:04:10 | 52.17513 | 14.59386 | 91° | 137km/h | 5742m | 3.7m/s | -10.5°C | 74.9% | 499.49hPa | 2.9V | 00:00:00 | 00:00:00 | 00:00:00 | |
| DL2RXE-15 | 2026-09-04 17:04:09 | 52.17514 | 14.59386 | 92° | 144km/h | 5742m | 3.7m/s | -10.5°C | 0% | 0hPa | 2.9V | 00:00:00 | 00:00:00 | 00:00:00 | |
| EDDB2-11 | 2026-09-04 17:04:04 | 52.17507 | 14.59033 | 90° | 142km/h | 5722m | 4.0m/s | -10.4°C | 74.3% | 500.6hPa | 2.9V | 00:00:00 | 00:00:00 | 00:00:00 | |
| S3001 | 2026-09-04 17:04:02 | 52.17510 | 14.58853 | 90° | 150km/h | 5706m | 5.5m/s | -10.2°C | 74.6% | 501.6hPa | 2.9V | 00:00:00 | 00:00:00 | 00:00:00 | |
| SP6BVK | 2026-09-04 17:03:59 | 52.17510 | 14.58791 | 91° | 150km/h | 5702m | 5.0m/s | 0°C | 0% | 0hPa | 2.9V | 00:00:00 | 00:00:00 | 00:00:00 | |
| DAC517 | 2026-09-04 17:03:58 | 52.17510 | 14.58729 | 90° | 151km/h | 5697m | 5.1m/s | -10.2°C | 74.3% | 502.3hPa | 2.9V | 00:00:00 | 00:00:00 | 00:00:00 | |
| DB0DAN | 2026-09-04 17:03:55 | 52.17508 | 14.58484 | 90° | 142km/h | 5679m | 6m/s | -10.1°C | 75.2% | 503.4hPa | 2.9V | 00:00:00 | 00:00:00 | 00:00:00 | |
| EDDB2-12 | 2026-09-04 17:03:55 | 52.17508 | 14.58484 | 89° | 148km/h | 5679m | 6.0m/s | -10.1°C | 75.2% | 503.4hPa | 2.9V | 00:00:00 | 00:00:00 | 00:00:00 | |
| SP3BTT-10 | 2026-09-04 17:03:43 | 52.17495 | 14.57747 | 91° | 153km/h | 5625m | 5.0m/s | -10.1°C | 84.8% | 507.0hPa | 2.9V | 00:00:00 | 00:00:00 | 08:30:00 | |
| DB0DAN | 2026-09-04 17:03:40 | 52.17500 | 14.57552 | 94° | 142km/h | 5609m | 6.4m/s | -10°C | 81.7% | 507.89hPa | 2.9V | 00:00:00 | 00:00:00 | 00:00:00 | |
| DAC517 | 2026-09-04 17:03:38 | 52.17503 | 14.57491 | 95° | 148km/h | 5603m | 6.1m/s | -10.0°C | 81.6% | 508.4hPa | 2.9V | 00:00:00 | 00:00:00 | 00:00:00 | |
| 13BRC | 2026-09-04 17:03:34 | 52.17514 | 14.57249 | 94° | 150km/h | 5586m | 3.8m/s | -10.1°C | 84.4% | 509.4hPa | 2.9V | 00:00:00 | 00:00:00 | 00:00:00 | |
| EDDB2-11 | 2026-09-04 17:03:33 | 52.17520 | 14.57063 | 93° | 150km/h | 5576m | 1.7m/s | -10.0°C | 85.3% | 510.1hPa | 2.9V | 00:00:00 | 00:00:00 | 00:00:00 | |
| SONDE2-11 | 2026-09-04 17:03:31 | 52.17522 | 14.57001 | 93° | 150km/h | 5573m | 4.0m/s | -10.0°C | 85.0% | 510.4hPa | 2.9V | 00:00:00 | 00:00:00 | 00:00:00 | |
| DB0DAN | 2026-09-04 17:03:25 | 52.17535 | 14.56631 | 94° | 146km/h | 5554m | 3.6m/s | -10°C | 86% | 511.5hPa | 2.9V | 00:00:00 | 00:00:00 | 00:00:00 | |
| EDDB2-12 | 2026-09-04 17:03:24 | 52.17541 | 14.56505 | 94° | 151km/h | 5549m | 2.8m/s | -9.9°C | 86.0% | 511.9hPa | 2.9V | 00:00:00 | 00:00:00 | 00:00:00 | |
| DL2RXE-15 | 2026-09-04 17:03:20 | 52.17547 | 14.56380 | 95° | 151km/h | 5543m | 2.9m/s | -9.9°C | 0% | 0hPa | 2.9V | 00:00:00 | 00:00:00 | 00:00:00 | |
| DAC517 | 2026-09-04 17:03:18 | 52.17553 | 14.56255 | 96° | 151km/h | 5536m | 2.4m/s | -9.8°C | 85.6% | 512.8hPa | 2.9V | 00:00:00 | 00:00:00 | 00:00:00 | |
| 13BRC | 2026-09-04 17:03:14 | 52.17567 | 14.56011 | 96° | 148km/h | 5524m | 1.8m/s | -9.9°C | 86.8% | 513.6hPa | 2.9V | 00:00:00 | 00:00:00 | 00:00:00 | |
| SP3BTT-10 | 2026-09-04 17:03:13 | 52.17573 | 14.55890 | 94° | 146km/h | 5519m | 2.1m/s | -9.8°C | 90.0% | 513.8hPa | 2.9V | 00:00:00 | 00:00:00 | 00:00:00 | |
| DB0DAN | 2026-09-04 17:03:10 | 52.17581 | 14.55705 | 94° | 144km/h | 5511m | 3.3m/s | -9.8°C | 86.6% | 514.51hPa | 2.9V | 00:00:00 | 00:00:00 | 00:00:00 | |
| EDDB2-11 | 2026-09-04 17:03:02 | 52.17612 | 14.55156 | 97° | 153km/h | 5485m | 1.9m/s | -9.9°C | 91.1% | 516.2hPa | 2.8V | 00:00:00 | 00:00:00 | 00:00:00 | |
| SONDE2-11 | 2026-09-04 17:03:00 | 52.17617 | 14.55094 | 96° | 151km/h | 5483m | 2.5m/s | -9.9°C | 91.2% | 516.4hPa | 2.8V | 00:00:00 | 00:00:00 | 00:00:00 | |
| DAC517 | 2026-09-04 17:02:58 | 52.17622 | 14.55031 | 97° | 151km/h | 5479m | 4.6m/s | -9.9°C | 91.1% | 516.6hPa | 2.8V | 00:00:00 | 00:00:00 | 00:00:00 | |
| DB0DAN | 2026-09-04 17:02:55 | 52.17633 | 14.54786 | 92° | 137km/h | 5466m | 2.6m/s | -9.8°C | 90.4% | 517.49hPa | 2.8V | 00:00:00 | 00:00:00 | 00:00:00 | |
| EDDB2-12 | 2026-09-04 17:02:53 | 52.17635 | 14.54669 | 92° | 141km/h | 5461m | 2.4m/s | -9.8°C | 90.4% | 517.8hPa | 2.9V | 00:00:00 | 00:00:00 | 00:00:00 | |
| DL2RXE-15 | 2026-09-04 17:02:52 | 52.17635 | 14.54669 | 93° | 141km/h | 5461m | 2.4m/s | 0°C | 0% | 0hPa | 2.9V | 00:00:00 | 00:00:00 | 00:00:00 | |
| SP3BTT-10 | 2026-09-04 17:02:43 | 52.17679 | 14.54072 | 97° | 141km/h | 5420m | 3.9m/s | -9.6°C | 92.0% | 520.5hPa | 2.9V | 00:00:00 | 00:00:00 | 00:00:00 | |
| DB0DAN | 2026-09-04 17:02:40 | 52.17690 | 14.53899 | 95° | 131km/h | 5411m | 1.7m/s | -9.7°C | 87.3% | 521.1hPa | 2.9V | 00:00:00 | 00:00:00 | 00:00:00 | |
| DAC517 | 2026-09-04 17:02:37 | 52.17696 | 14.53784 | 97° | 142km/h | 5404m | 3.4m/s | -9.7°C | 87.4% | 521.6hPa | 2.9V | 00:00:00 | 00:00:00 | 00:00:00 | |
| DL2RXE-15 | 2026-09-04 17:02:32 | 52.17720 | 14.53477 | 100° | 151km/h | 5391m | 2.0m/s | -9.6°C | 0% | 0hPa | 2.9V | 00:00:00 | 00:00:00 | 00:00:00 | |
| EDDB2-11 | 2026-09-04 17:02:31 | 52.17737 | 14.53294 | 97° | 146km/h | 5380m | 4.4m/s | -9.6°C | 87.5% | 523.2hPa | 2.9V | 00:00:00 | 00:00:00 | 00:00:00 | |
| SONDE2-11 | 2026-09-04 17:02:29 | 52.17742 | 14.53234 | 98° | 146km/h | 5375m | 5.8m/s | -9.5°C | 87.2% | 523.6hPa | 2.9V | 00:00:00 | 00:00:00 | 00:00:00 | |
| DB0DAN | 2026-09-04 17:02:25 | 52.17762 | 14.52995 | 96° | 133km/h | 5356m | 4m/s | -9.4°C | 87.2% | 524.92hPa | 2.9V | 00:00:00 | 00:00:00 | 00:00:00 | |
| SP6BVK | 2026-09-04 17:02:24 | 52.17762 | 14.52995 | 97° | 141km/h | 5356m | 4.0m/s | 0°C | 0% | 0hPa | 2.9V | 00:00:00 | 00:00:00 | 00:00:00 | |
| EDDB2-12 | 2026-09-04 17:02:22 | 52.17777 | 14.52776 | 97° | 133km/h | 5333m | 4.7m/s | -9.2°C | 88.8% | 526.4hPa | 2.9V | 00:00:00 | 00:00:00 | 00:00:00 | |
| DAC517 | 2026-09-04 17:02:17 | 52.17790 | 14.52603 | 96° | 146km/h | 5318m | 5.9m/s | -9.1°C | 90.6% | 527.5hPa | 2.9V | 00:00:00 | 00:00:00 | 00:00:00 | |
| SP3BTT-10 | 2026-09-04 17:02:13 | 52.17819 | 14.52308 | 104° | 137km/h | 5296m | 4.0m/s | -9.1°C | 0% | 528.8hPa | 2.9V | 00:00:00 | 00:00:00 | 00:00:00 | |
| 13BRC | 2026-09-04 17:02:12 | 52.17819 | 14.52308 | 104° | 139km/h | 5296m | 4.0m/s | -9.2°C | 92.9% | 528.9hPa | 2.9V | 00:00:00 | 00:00:00 | 00:00:00 | |
| DB0DAN | 2026-09-04 17:02:10 | 52.17843 | 14.52140 | 102° | 137km/h | 5281m | 5m/s | -9.2°C | 93.8% | 530hPa | 2.9V | 00:00:00 | 00:00:00 | 00:00:00 | |
| DL2RXE-15 | 2026-09-04 17:02:04 | 52.17863 | 14.51853 | 94° | 137km/h | 5257m | 6.2m/s | 0°C | 0% | 0hPa | 2.9V | 00:00:00 | 00:00:00 | 00:00:00 | |
| EDDB2-11 | 2026-09-04 17:02:00 | 52.17876 | 14.51517 | 95° | 131km/h | 5224m | 4.1m/s | -8.9°C | 95.4% | 533.9hPa | 2.9V | 00:00:00 | 00:00:00 | 00:00:00 | |
| SONDE2-11 | 2026-09-04 17:01:58 | 52.17880 | 14.51463 | 97° | 130km/h | 5219m | 4.6m/s | -8.9°C | 96.5% | 534.2hPa | 2.9V | 00:00:00 | 00:00:00 | 00:00:00 | |
| DAC517 | 2026-09-04 17:01:57 | 52.17880 | 14.51463 | 98° | 131km/h | 5219m | 4.6m/s | -8.9°C | 96.5% | 534.2hPa | 2.9V | 00:00:00 | 00:00:00 | 00:00:00 | |
| DB0DAN | 2026-09-04 17:01:55 | 52.17891 | 14.51302 | 96° | 130km/h | 5203m | 5.4m/s | -8.8°C | 98.1% | 535.35hPa | 2.9V | 00:00:00 | 00:00:00 | 00:00:00 | |
| EDDB2-12 | 2026-09-04 17:01:51 | 52.17915 | 14.51021 | 97° | 130km/h | 5178m | 5.4m/s | -8.7°C | 98.1% | 537.0hPa | 2.9V | 00:00:00 | 00:00:00 | 00:00:00 | |
| SP3BTT-10 | 2026-09-04 17:01:43 | 52.17942 | 14.50634 | 93° | 141km/h | 5138m | 5.5m/s | -8.5°C | 0% | 539.7hPa | 2.9V | 00:00:00 | 00:00:00 | 00:00:00 | |
| DB0DAN | 2026-09-04 17:01:40 | 52.17946 | 14.50469 | 93° | 128km/h | 5122m | 6.1m/s | -8.4°C | 99.4% | 540.82hPa | 2.9V | 00:00:00 | 00:00:00 | 00:00:00 | |
| DAC517 | 2026-09-04 17:01:36 | 52.17953 | 14.50297 | 95° | 142km/h | 5108m | 6.1m/s | -8.3°C | 99.3% | 541.9hPa | 2.9V | 00:00:00 | 00:00:00 | 00:00:00 | |
| SP6BVK | 2026-09-04 17:01:33 | 52.17958 | 14.50125 | 95° | 137km/h | 5091m | 3.8m/s | 0°C | 0% | 0hPa | 2.9V | 00:00:00 | 00:00:00 | 00:00:00 | |
| 13BRC | 2026-09-04 17:01:31 | 52.17964 | 14.50013 | 96° | 141km/h | 5082m | 5.5m/s | -8.1°C | 98.9% | 543.8hPa | 2.9V | 00:00:00 | 00:00:00 | 00:00:00 | |
| EDDB2-11 | 2026-09-04 17:01:29 | 52.17972 | 14.49781 | 92° | 135km/h | 5058m | 4.3m/s | -8.1°C | 98.0% | 545.4hPa | 2.9V | 00:00:00 | 00:00:00 | 00:00:00 | |
| DB0DAN | 2026-09-04 17:01:25 | 52.17982 | 14.49616 | 97° | 131km/h | 5042m | 4.7m/s | -8°C | 98.2% | 546.43hPa | 2.9V | 00:00:00 | 00:00:00 | 00:00:00 | |
| EDDB2-12 | 2026-09-04 17:01:20 | 52.18007 | 14.49267 | 98° | 144km/h | 5009m | 5.1m/s | -7.8°C | 98.0% | 548.7hPa | 2.9V | 00:00:00 | 00:00:00 | 00:00:00 | |
| DL2RXE-15 | 2026-09-04 17:01:16 | 52.18019 | 14.49094 | 94° | 142km/h | 4994m | 4.7m/s | 0°C | 0% | 0hPa | 2.9V | 00:00:00 | 00:00:00 | 00:00:00 | |
| SP3BTT-10 | 2026-09-04 17:01:13 | 52.18023 | 14.48914 | 93° | 146km/h | 4978m | 6.9m/s | -7.4°C | 0% | 550.8hPa | 2.9V | 00:00:00 | 00:00:00 | 00:00:00 | |
| DB0DAN | 2026-09-04 17:01:10 | 52.18031 | 14.48733 | 96° | 142km/h | 4962m | 4.9m/s | -7.4°C | 95.3% | 552.14hPa | 2.9V | 00:00:00 | 00:00:00 | 00:00:00 | |
| SONDE2-11 | 2026-09-04 17:00:56 | 52.18072 | 14.47879 | 94° | 144km/h | 4882m | 5.2m/s | -6.9°C | 97.8% | 557.7hPa | 2.9V | 00:00:00 | 00:00:00 | 00:00:00 | |
| DB0DAN | 2026-09-04 17:00:55 | 52.18075 | 14.47819 | 96° | 139km/h | 4876m | 5.3m/s | -6.8°C | 97.2% | 558.15hPa | 2.9V | 00:00:00 | 00:00:00 | 00:00:00 | |
| EDDB2-12 | 2026-09-04 17:00:49 | 52.18102 | 14.47404 | 96° | 148km/h | 4837m | 5.5m/s | -6.6°C | 96.0% | 560.9hPa | 2.9V | 00:00:00 | 00:00:00 | 00:00:00 | |
| SP3BTT-10 | 2026-09-04 17:00:43 | 52.18118 | 14.47100 | 96° | 144km/h | 4811m | 5.8m/s | -6.3°C | 97.9% | 562.8hPa | 2.9V | 00:00:00 | 00:00:00 | 00:00:00 | |
| DAC517 | 2026-09-04 17:00:34 | 52.18147 | 14.46627 | 98° | 142km/h | 4769m | 5.7m/s | -6.0°C | 96.1% | 566.1hPa | 2.9V | 00:00:00 | 00:00:00 | 00:00:00 | |
| 13BRC | 2026-09-04 17:00:29 | 52.18172 | 14.46326 | 99° | 142km/h | 4742m | 6.1m/s | -5.9°C | 96.3% | 567.9hPa | 2.9V | 00:00:00 | 00:00:00 | 00:00:00 | |
| DB0DAN | 2026-09-04 17:00:25 | 52.18191 | 14.46041 | 97° | 135km/h | 4712m | 5.6m/s | -5.7°C | 95.6% | 570.11hPa | 2.9V | 00:00:00 | 00:00:00 | 00:00:00 | |
| SONDE2-11 | 2026-09-04 17:00:25 | 52.18191 | 14.46041 | 96° | 141km/h | 4712m | 5.6m/s | -5.7°C | 95.6% | 570.1hPa | 2.9V | 00:00:00 | 00:00:00 | 00:00:00 | |
| S3001 | 2026-09-04 17:00:24 | 52.18195 | 14.45983 | 97° | 141km/h | 4706m | 4.9m/s | -5.6°C | 95.3% | 570.4hPa | 2.9V | 00:00:00 | 00:00:00 | 00:00:00 | |
| EDDB2-12 | 2026-09-04 17:00:18 | 52.18226 | 14.45573 | 99° | 144km/h | 4668m | 5.8m/s | -5.4°C | 95.3% | 573.3hPa | 2.9V | 00:00:00 | 00:00:00 | 00:00:00 | |
| SP3BTT-10 | 2026-09-04 17:00:13 | 52.18242 | 14.45336 | 95° | 137km/h | 4647m | 4.8m/s | -5.3°C | 0% | 574.6hPa | 2.9V | 00:00:00 | 00:00:00 | 00:00:00 | |
| DB0DAN | 2026-09-04 17:00:10 | 52.18253 | 14.45160 | 96° | 135km/h | 4628m | 7.4m/s | -5.4°C | 99.6% | 576.05hPa | 2.9V | 00:00:00 | 00:00:00 | 00:00:00 | |
| 13BRC | 2026-09-04 17:00:09 | 52.18253 | 14.45160 | 97° | 141km/h | 4628m | 7.4m/s | -5.4°C | 99.6% | 576.0hPa | 2.9V | 00:00:00 | 00:00:00 | 00:00:00 | |
| DL2RXE-15 | 2026-09-04 17:00:04 | 52.18272 | 14.44881 | 97° | 139km/h | 4601m | 4.1m/s | -5.1°C | 0% | 0hPa | 2.9V | 00:00:00 | 00:00:00 | 00:00:00 | |
| DB0DAN | 2026-09-04 16:59:55 | 52.18299 | 14.44326 | 97° | 126km/h | 4549m | 4.9m/s | -4.8°C | 98.4% | 581.89hPa | 2.9V | 00:00:00 | 00:00:00 | 00:00:00 | |
| SONDE2-11 | 2026-09-04 16:59:54 | 52.18303 | 14.44272 | 98° | 133km/h | 4544m | 4.5m/s | -4.8°C | 98.4% | 582.2hPa | 2.9V | 00:00:00 | 00:00:00 | 00:00:00 | |
| S3001 | 2026-09-04 16:59:53 | 52.18308 | 14.44217 | 97° | 137km/h | 4540m | 4.3m/s | -4.8°C | -1.0% | 582.7hPa | 2.9V | 00:00:00 | 00:00:00 | 00:00:00 | |
| EDDB2-12 | 2026-09-04 16:59:47 | 52.18329 | 14.43831 | 94° | 137km/h | 4507m | 4.8m/s | -4.4°C | 97.6% | 584.9hPa | 2.9V | 00:00:00 | 00:00:00 | 00:00:00 | |
| SP3BTT-10 | 2026-09-04 16:59:43 | 52.18334 | 14.43661 | 92° | 128km/h | 4494m | 3.9m/s | -4.4°C | 0% | 586.0hPa | 2.9V | 00:00:00 | 00:00:00 | 00:00:00 | |
| DB0DAN | 2026-09-04 16:59:40 | 52.18339 | 14.43496 | 95° | 130km/h | 4477m | 6.4m/s | -4.3°C | 97.8% | 587.29hPa | 2.9V | 00:00:00 | 00:00:00 | 00:00:00 | |
| DL2RXE-15 | 2026-09-04 16:59:38 | 52.18342 | 14.43440 | 96° | 137km/h | 4471m | 5.3m/s | 0°C | 0% | 0hPa | 2.9V | 00:00:00 | 00:00:00 | 00:00:00 | |
| DAC517 | 2026-09-04 16:59:32 | 52.18357 | 14.43117 | 95° | 130km/h | 4438m | 6.2m/s | -3.9°C | 96.4% | 590.1hPa | 2.9V | 00:00:00 | 00:00:00 | 00:00:00 | |
| 13BRC | 2026-09-04 16:59:28 | 52.18361 | 14.42912 | 93° | 120km/h | 4418m | 5.5m/s | -3.8°C | 96.4% | 591.6hPa | 2.9V | 00:00:00 | 00:00:00 | 00:00:00 | |
| DB0DAN | 2026-09-04 16:59:25 | 52.18369 | 14.42703 | 93° | 124km/h | 4399m | 4.9m/s | -3.8°C | 100% | 592.92hPa | 2.9V | 00:00:00 | 00:00:00 | 00:00:00 | |
| EDDB2-11 | 2026-09-04 16:59:24 | 52.18370 | 14.42649 | 91° | 130km/h | 4394m | 4.7m/s | -3.8°C | 100.0% | 593.3hPa | 2.9V | 00:00:00 | 00:00:00 | 00:00:00 | |
| SONDE2-11 | 2026-09-04 16:59:23 | 52.18371 | 14.42596 | 91° | 128km/h | 4389m | 6.0m/s | -3.7°C | 100.0% | 593.7hPa | 2.9V | 00:00:00 | 00:00:00 | 00:00:00 | |
| S3001 | 2026-09-04 16:59:22 | 52.18372 | 14.42543 | 92° | 126km/h | 4382m | 6.8m/s | -3.7°C | -1.0% | 594.2hPa | 2.9V | 00:00:00 | 00:00:00 | 00:00:00 | |
| DL2RXE-15 | 2026-09-04 16:59:17 | 52.18378 | 14.42336 | 93° | 122km/h | 4357m | 4.0m/s | -3.5°C | 0% | 0hPa | 2.9V | 00:00:00 | 00:00:00 | 00:00:00 | |
| EDDB2-12 | 2026-09-04 16:59:16 | 52.18386 | 14.42187 | 96° | 122km/h | 4341m | 5.5m/s | -3.4°C | 99.9% | 597.2hPa | 2.9V | 00:00:00 | 00:00:00 | 00:00:00 | |
| SP3BTT-10 | 2026-09-04 16:59:13 | 52.18393 | 14.42085 | 98° | 117km/h | 4330m | 3.8m/s | -3.3°C | 0% | 598.1hPa | 2.9V | 00:00:00 | 00:00:00 | 08:30:00 | |
| DB0DAN | 2026-09-04 16:59:10 | 52.18407 | 14.41934 | 97° | 115km/h | 4312m | 4.9m/s | -3.2°C | 100% | 599.47hPa | 2.9V | 00:00:00 | 00:00:00 | 00:00:00 | |
| 13BRC | 2026-09-04 16:59:08 | 52.18411 | 14.41885 | 98° | 120km/h | 4308m | 3.5m/s | -3.2°C | 0% | 599.7hPa | 2.9V | 00:00:00 | 00:00:00 | 00:00:00 | |
| DB0DAN | 2026-09-04 16:58:55 | 52.18440 | 14.41191 | 90° | 115km/h | 4226m | 6m/s | -2.7°C | 99.7% | 606.02hPa | 2.9V | 00:00:00 | 00:00:00 | 00:00:00 | |
| EDDB2-11 | 2026-09-04 16:58:54 | 52.18439 | 14.41097 | 89° | 110km/h | 4216m | 4.7m/s | -2.6°C | 98.8% | 606.8hPa | 2.9V | 00:00:00 | 00:00:00 | 00:00:00 | |
| SONDE2-11 | 2026-09-04 16:58:52 | 52.18439 | 14.41052 | 90° | 104km/h | 4211m | 4.0m/s | -2.6°C | 99.1% | 607.0hPa | 2.9V | 00:00:00 | 00:00:00 | 00:00:00 | |
| S3001 | 2026-09-04 16:58:51 | 52.18439 | 14.41008 | 90° | 106km/h | 4207m | 4.8m/s | -2.6°C | -1.0% | 607.3hPa | 2.9V | 00:00:00 | 00:00:00 | 00:00:00 | |
| 13BRC | 2026-09-04 16:58:47 | 52.18440 | 14.40870 | 92° | 117km/h | 4193m | 5.8m/s | -2.4°C | 99.2% | 608.4hPa | 2.9V | 00:00:00 | 00:00:00 | 00:00:00 | |
| EDDB2-12 | 2026-09-04 16:58:44 | 52.18448 | 14.40671 | 96° | 119km/h | 4172m | 3.9m/s | -2.3°C | 98.2% | 610.3hPa | 2.9V | 00:00:00 | 00:00:00 | 00:00:00 | |
| SP3BTT-10 | 2026-09-04 16:58:43 | 52.18451 | 14.40623 | 95° | 117km/h | 4168m | 5.1m/s | -2.2°C | 0% | 610.6hPa | 2.9V | 00:00:00 | 00:00:00 | 00:00:00 | |
| DB0DAN | 2026-09-04 16:58:40 | 52.18453 | 14.40477 | 89° | 117km/h | 4153m | 5m/s | -2.1°C | 96.7% | 611.79hPa | 2.9V | 00:00:00 | 00:00:00 | 00:00:00 | |
| DL2RXE-15 | 2026-09-04 16:58:31 | 52.18456 | 14.40079 | 92° | 126km/h | 4115m | 6.3m/s | -1.7°C | 0% | 0hPa | 2.9V | 00:00:00 | 00:00:00 | 00:00:00 | |
| DAC517 | 2026-09-04 16:58:30 | 52.18456 | 14.40028 | 94° | 124km/h | 4109m | 5.6m/s | -1.8°C | 96.0% | 615.3hPa | 2.9V | 00:00:00 | 00:00:00 | 00:00:00 | |
| 13BRC | 2026-09-04 16:58:26 | 52.18461 | 14.39834 | 94° | 115km/h | 4087m | 6.8m/s | -1.8°C | 99.5% | 616.9hPa | 2.9V | 00:00:00 | 00:00:00 | 00:00:00 | |
| EDDB2-11 | 2026-09-04 16:58:22 | 52.18465 | 14.39595 | 87° | 117km/h | 4063m | 2.9m/s | -1.6°C | 99.7% | 618.8hPa | 2.9V | 00:00:00 | 00:00:00 | 00:00:00 | |
| SONDE2-11 | 2026-09-04 16:58:21 | 52.18464 | 14.39547 | 88° | 119km/h | 4059m | 5.3m/s | -1.6°C | 99.3% | 619.1hPa | 2.9V | 00:00:00 | 00:00:00 | 00:00:00 | |
| S3001 | 2026-09-04 16:58:20 | 52.18465 | 14.39448 | 93° | 117km/h | 4048m | 4.9m/s | -1.5°C | -1.0% | 620.0hPa | 2.9V | 00:00:00 | 00:00:00 | 00:00:00 | |
| SP3BTT-10 | 2026-09-04 16:58:13 | 52.18474 | 14.39167 | 90° | 111km/h | 4017m | 4.8m/s | -1.3°C | 0% | 622.4hPa | 2.9V | 00:00:00 | 00:00:00 | 00:00:00 | |
| DB0DAN | 2026-09-04 16:58:10 | 52.18472 | 14.39025 | 88° | 106km/h | 4003m | 4.6m/s | -1.2°C | 98.3% | 623.61hPa | 2.9V | 00:00:00 | 00:00:00 | 00:00:00 | |
| DAC517 | 2026-09-04 16:58:09 | 52.18472 | 14.39025 | 89° | 111km/h | 4003m | 4.6m/s | -1.2°C | 98.3% | 623.6hPa | 2.9V | 00:00:00 | 00:00:00 | 00:00:00 | |
| 13BRC | 2026-09-04 16:58:06 | 52.18473 | 14.38885 | 91° | 115km/h | 3990m | 3.5m/s | -1.2°C | 98.5% | 624.5hPa | 2.9V | 00:00:00 | 00:00:00 | 00:00:00 | |
| DB0DAN | 2026-09-04 16:57:55 | 52.18474 | 14.38340 | 91° | 99km/h | 3934m | 5m/s | -0.7°C | 96.5% | 628.86hPa | 2.9V | 00:00:00 | 00:00:00 | 00:00:00 | |
| EDDB2-11 | 2026-09-04 16:57:51 | 52.18473 | 14.38167 | 90° | 111km/h | 3914m | 6.7m/s | -0.6°C | 96.4% | 630.4hPa | 2.9V | 00:00:00 | 00:00:00 | 00:00:00 | |
| SONDE2-11 | 2026-09-04 16:57:50 | 52.18476 | 14.38071 | 94° | 119km/h | 3904m | 5.8m/s | -0.6°C | 96.1% | 631.2hPa | 2.9V | 00:00:00 | 00:00:00 | 00:00:00 | |
| S3001 | 2026-09-04 16:57:49 | 52.18483 | 14.37878 | 91° | 113km/h | 3887m | 6.4m/s | -0.4°C | -1.0% | -1.0hPa | 2.9V | 00:00:00 | 00:00:00 | 00:00:00 | |
| 13BRC | 2026-09-04 16:57:45 | 52.18482 | 14.37926 | 94° | 117km/h | 3891m | 3.3m/s | -0.4°C | 96.1% | 632.2hPa | 2.9V | 00:00:00 | 00:00:00 | 00:00:00 | |
| SP3BTT-10 | 2026-09-04 16:57:43 | 52.18483 | 14.37790 | 90° | 106km/h | 3876m | 5.5m/s | -0.3°C | 97.3% | 633.4hPa | 2.9V | 00:00:00 | 00:00:00 | 00:00:00 | |
| DB0DAN | 2026-09-04 16:57:40 | 52.18485 | 14.37666 | 93° | 99km/h | 3860m | 3.9m/s | -0.3°C | 96.8% | 634.77hPa | 2.9V | 00:00:00 | 00:00:00 | 00:00:00 | |
| DB0DAN | 2026-09-04 16:57:25 | 52.18485 | 14.36991 | 94° | 104km/h | 3785m | 4.3m/s | 0.2°C | 95.6% | 640.58hPa | 2.9V | 00:00:00 | 00:00:00 | 00:00:00 | |
| DL2RXE-15 | 2026-09-04 16:57:24 | 52.18485 | 14.36990 | 95° | 110km/h | 3785m | 4.3m/s | 0°C | 0% | 0hPa | 2.9V | 00:00:00 | 00:00:00 | 00:00:00 | |
| 13BRC | 2026-09-04 16:57:23 | 52.18486 | 14.36946 | 93° | 108km/h | 3781m | 4.5m/s | 0.2°C | 95.4% | 641.0hPa | 2.9V | 00:00:00 | 00:00:00 | 00:00:00 | |
| EDDB2-11 | 2026-09-04 16:57:20 | 52.18480 | 14.36768 | 84° | 110km/h | 3761m | 5.4m/s | 0.3°C | 95.4% | 642.5hPa | 2.9V | 00:00:00 | 00:00:00 | 00:00:00 | |
| SONDE2-11 | 2026-09-04 16:57:19 | 52.18476 | 14.36679 | 87° | 104km/h | 3751m | 3.4m/s | 0.2°C | 97.9% | 643.4hPa | 2.9V | 00:00:00 | 00:00:00 | 00:00:00 | |
| S3001 | 2026-09-04 16:57:18 | 52.18476 | 14.36679 | 87° | 104km/h | 3751m | 3.4m/s | 0.2°C | -1.0% | -1.0hPa | 2.9V | 00:00:00 | 00:00:00 | 00:00:00 | |
| SP3BTT-10 | 2026-09-04 16:57:13 | 52.18478 | 14.36458 | 91° | 104km/h | 3728m | 7.0m/s | 0.2°C | 0% | 645.2hPa | 2.9V | 00:00:00 | 00:00:00 | 00:00:00 | |
| DB0DAN | 2026-09-04 16:57:10 | 52.18472 | 14.36329 | 83° | 100km/h | 3714m | 3.7m/s | 0.3°C | 98.3% | 646.32hPa | 2.9V | 00:00:00 | 00:00:00 | 00:00:00 | |
| DL2RXE-15 | 2026-09-04 16:57:03 | 52.18464 | 14.36064 | 90° | 113km/h | 3685m | 6.1m/s | 0°C | 0% | 0hPa | 2.9V | 00:00:00 | 00:00:00 | 00:00:00 | |
| 13BRC | 2026-09-04 16:57:02 | 52.18463 | 14.36016 | 87° | 117km/h | 3680m | 3.5m/s | 0.5°C | 97.9% | 649.1hPa | 2.9V | 00:00:00 | 00:00:00 | 00:00:00 | |
| DAC517 | 2026-09-04 16:56:58 | 52.18456 | 14.35830 | 88° | 106km/h | 3661m | 3.9m/s | 0.6°C | 97.9% | 650.6hPa | 2.9V | 00:00:00 | 00:00:00 | 00:00:00 | |
| DB0DAN | 2026-09-04 16:56:55 | 52.18451 | 14.35657 | 85° | 100km/h | 3641m | 4.8m/s | 0.7°C | 98.3% | 652.37hPa | 2.9V | 00:00:00 | 00:00:00 | 00:00:00 | |
| EDDB2-11 | 2026-09-04 16:56:49 | 52.18445 | 14.35406 | 88° | 108km/h | 3611m | 4.3m/s | 0.8°C | 98.4% | 654.6hPa | 2.9V | 00:00:00 | 00:00:00 | 00:00:00 | |
| SONDE2-11 | 2026-09-04 16:56:48 | 52.18442 | 14.35315 | 86° | 110km/h | 3602m | 6.9m/s | 0.8°C | 99.1% | 655.4hPa | 2.9V | 00:00:00 | 00:00:00 | 00:00:00 | |
| S3001 | 2026-09-04 16:56:47 | 52.18442 | 14.35315 | 86° | 110km/h | 3602m | 6.9m/s | 0.8°C | -1.0% | -1.0hPa | 2.9V | 00:00:00 | 00:00:00 | 00:00:00 | |
| SP3BTT-10 | 2026-09-04 16:56:43 | 52.18432 | 14.35140 | 84° | 102km/h | 3583m | 5.9m/s | 0.9°C | 0% | 656.8hPa | 2.9V | 00:00:00 | 00:00:00 | 00:00:00 | |
| 13BRC | 2026-09-04 16:56:42 | 52.18432 | 14.35140 | 84° | 106km/h | 3583m | 5.9m/s | 1.0°C | 98.7% | 656.9hPa | 2.9V | 00:00:00 | 00:00:00 | 00:00:00 | |
| DB0DAN | 2026-09-04 16:56:40 | 52.18421 | 14.35015 | 82° | 93km/h | 3567m | 5m/s | 1.1°C | 98.5% | 658.25hPa | 2.9V | 00:00:00 | 00:00:00 | 00:00:00 | |
| DAC517 | 2026-09-04 16:56:38 | 52.18418 | 14.34975 | 85° | 97km/h | 3563m | 4.2m/s | 1.1°C | 98.5% | 658.6hPa | 2.9V | 00:00:00 | 00:00:00 | 00:00:00 | |
| DB0DAN | 2026-09-04 16:56:25 | 52.18379 | 14.34402 | 84° | 99km/h | 3494m | 6m/s | 1.4°C | 98.9% | 664.22hPa | 2.9V | 00:00:00 | 00:00:00 | 00:00:00 | |
| 13BRC | 2026-09-04 16:56:21 | 52.18373 | 14.34280 | 86° | 95km/h | 3478m | 4.4m/s | 1.6°C | 98.7% | 665.4hPa | 2.9V | 00:00:00 | 00:00:00 | 00:00:00 | |
| EDDB2-11 | 2026-09-04 16:56:18 | 52.18360 | 14.34120 | 83° | 102km/h | 3461m | 3.9m/s | 1.6°C | 100.0% | 667.0hPa | 2.9V | 00:00:00 | 00:00:00 | 00:00:00 | |
| SONDE2-11 | 2026-09-04 16:56:17 | 52.18354 | 14.34034 | 85° | 104km/h | 3453m | 4.8m/s | 1.7°C | 0% | 667.8hPa | 2.9V | 00:00:00 | 00:00:00 | 00:00:00 | |
| SP3BTT-10 | 2026-09-04 16:56:13 | 52.18348 | 14.33903 | 85° | 106km/h | 3437m | 5.0m/s | 1.8°C | 0% | 668.9hPa | 2.9V | 00:00:00 | 00:00:00 | 00:00:00 | |
| DB0DAN | 2026-09-04 16:56:10 | 52.18340 | 14.33770 | 86° | 99km/h | 3421m | 5.7m/s | 1.9°C | 100% | 670.15hPa | 2.9V | 00:00:00 | 00:00:00 | 00:00:00 | |
| EDDB2-12 | 2026-09-04 16:56:09 | 52.18339 | 14.33728 | 85° | 99km/h | 3417m | 3.2m/s | 1.9°C | 100.0% | 670.5hPa | 2.9V | 00:00:00 | 00:00:00 | 00:00:00 | |
| 13BRC | 2026-09-04 16:56:00 | 52.18313 | 14.33384 | 82° | 111km/h | 3380m | 4.7m/s | 2.1°C | 0% | 673.7hPa | 2.9V | 00:00:00 | 00:00:00 | 00:00:00 | |
| DB0DAN | 2026-09-04 16:55:55 | 52.18292 | 14.33125 | 81° | 99km/h | 3352m | 5.9m/s | 2.3°C | 100% | 676.21hPa | 2.9V | 00:00:00 | 00:00:00 | 00:00:00 | |
| EDDB2-11 | 2026-09-04 16:55:47 | 52.18267 | 14.32787 | 82° | 99km/h | 3314m | 4.4m/s | 2.5°C | 100.0% | 679.4hPa | 2.9V | 00:00:00 | 00:00:00 | 00:00:00 | |
| SONDE2-11 | 2026-09-04 16:55:46 | 52.18259 | 14.32703 | 80° | 106km/h | 3304m | 4.9m/s | 2.5°C | 100.0% | 680.2hPa | 2.9V | 00:00:00 | 00:00:00 | 00:00:00 | |
| SP3BTT-10 | 2026-09-04 16:55:43 | 52.18248 | 14.32618 | 78° | 102km/h | 3294m | 6.6m/s | 2.5°C | 0% | 680.8hPa | 2.9V | 00:00:00 | 00:00:00 | 00:00:00 | |
| DB0DAN | 2026-09-04 16:55:40 | 52.18231 | 14.32501 | 78° | 88km/h | 3279m | 4.6m/s | 2.7°C | 100% | 682.11hPa | 2.9V | 00:00:00 | 00:00:00 | 00:00:00 | |
| EDDB2-12 | 2026-09-04 16:55:38 | 52.18223 | 14.32423 | 81° | 100km/h | 3271m | 4.5m/s | 2.7°C | 100.0% | 682.8hPa | 2.9V | 00:00:00 | 00:00:00 | 00:00:00 | |
| DAC517 | 2026-09-04 16:55:35 | 52.18216 | 14.32336 | 83° | 110km/h | 3261m | 4.8m/s | 2.7°C | 100.1% | 683.6hPa | 2.9V | 00:00:00 | 00:00:00 | 00:00:00 | |
| DB0DAN | 2026-09-04 16:55:25 | 52.18161 | 14.31864 | 79° | 100km/h | 3209m | 4.2m/s | 3°C | 100% | 688.21hPa | 2.9V | 00:00:00 | 00:00:00 | 00:00:00 | |
| DL2RXE-15 | 2026-09-04 16:55:23 | 52.18155 | 14.31821 | 80° | 110km/h | 3204m | 5.2m/s | 0°C | 0% | 0hPa | 2.9V | 00:00:00 | 00:00:00 | 00:00:00 | |
| 13BRC | 2026-09-04 16:55:19 | 52.18141 | 14.31645 | 85° | 100km/h | 3185m | 4.5m/s | 0°C | 0% | 0hPa | 2.9V | 00:00:00 | 00:00:00 | 00:00:00 | |
| EDDB2-11 | 2026-09-04 16:55:16 | 52.18119 | 14.31486 | 73° | 100km/h | 3167m | 4.8m/s | 3.2°C | 100.0% | 691.6hPa | 2.9V | 00:00:00 | 00:00:00 | 00:00:00 | |
| SONDE2-11 | 2026-09-04 16:55:15 | 52.18105 | 14.31406 | 74° | 99km/h | 3158m | 5.4m/s | 3.3°C | 100.0% | 692.5hPa | 2.9V | 00:00:00 | 00:00:00 | 00:00:00 | |
| SP3BTT-10 | 2026-09-04 16:55:13 | 52.18098 | 14.31366 | 76° | 108km/h | 3153m | 3.5m/s | 3.2°C | 0% | 692.9hPa | 2.9V | 00:00:00 | 00:00:00 | 00:00:00 | |
| DB0DAN | 2026-09-04 16:55:10 | 52.18080 | 14.31241 | 78° | 104km/h | 3139m | 5.4m/s | 3.4°C | 100% | 694.23hPa | 2.9V | 00:00:00 | 00:00:00 | 00:00:00 | |
| EDDB2-12 | 2026-09-04 16:55:07 | 52.18065 | 14.31109 | 79° | 104km/h | 3126m | 4.7m/s | 3.4°C | 100.0% | 695.3hPa | 2.9V | 00:00:00 | 00:00:00 | 00:00:00 | |
| 13BRC | 2026-09-04 16:54:58 | 52.18017 | 14.30768 | 83° | 110km/h | 3093m | 4.0m/s | 0°C | 0% | 0hPa | 2.9V | 00:00:00 | 00:00:00 | 00:00:00 | |
| DB0DAN | 2026-09-04 16:54:55 | 52.17995 | 14.30587 | 75° | 110km/h | 3075m | 3.3m/s | 3.7°C | 100% | 699.71hPa | 2.9V | 00:00:00 | 00:00:00 | 00:00:00 | |
| EDDB2-11 | 2026-09-04 16:54:45 | 52.17935 | 14.30157 | 75° | 115km/h | 3030m | 4.0m/s | 3.9°C | 100.0% | 703.7hPa | 2.9V | 00:00:00 | 00:00:00 | 00:00:00 | |
| SP3BTT-10 | 2026-09-04 16:54:43 | 52.17920 | 14.30065 | 74° | 106km/h | 3022m | 5.1m/s | 0°C | 0% | 0hPa | 2.9V | 00:00:00 | 00:00:00 | 08:30:00 | |
| DB0DAN | 2026-09-04 16:54:40 | 52.17898 | 14.29926 | 78° | 113km/h | 3008m | 4.1m/s | 4.1°C | 100% | 705.52hPa | 2.9V | 00:00:00 | 00:00:00 | 00:00:00 | |
| 13BRC | 2026-09-04 16:54:38 | 52.17892 | 14.29879 | 79° | 117km/h | 3003m | 4.7m/s | 0°C | 0% | 0hPa | 2.9V | 00:00:00 | 00:00:00 | 00:00:00 | |
| EDDB2-12 | 2026-09-04 16:54:36 | 52.17871 | 14.29745 | 73° | 108km/h | 2988m | 5.9m/s | 4.1°C | 99.7% | 707.4hPa | 2.9V | 00:00:00 | 00:00:00 | 00:00:00 | |
| DAC517 | 2026-09-04 16:54:34 | 52.17863 | 14.29702 | 73° | 106km/h | 2983m | 4.0m/s | 4.2°C | 0% | 707.6hPa | 2.9V | 00:00:00 | 00:00:00 | 00:00:00 | |
| DB0DAN | 2026-09-04 16:54:25 | 52.17811 | 14.29282 | 78° | 91km/h | 2938m | 3.9m/s | 4.5°C | 100% | 711.76hPa | 2.9V | 00:00:00 | 00:00:00 | 00:00:00 | |
| 13BRC | 2026-09-04 16:54:17 | 52.17767 | 14.28998 | 78° | 100km/h | 2907m | 4.5m/s | 0°C | 0% | 0hPa | 2.9V | 00:00:00 | 00:00:00 | 00:00:00 | |
| EDDB2-11 | 2026-09-04 16:54:14 | 52.17739 | 14.28834 | 75° | 106km/h | 2886m | 4.5m/s | 4.7°C | 100.0% | 716.1hPa | 2.9V | 00:00:00 | 00:00:00 | 00:00:00 | |
| SP3BTT-10 | 2026-09-04 16:54:13 | 52.17732 | 14.28791 | 75° | 97km/h | 2881m | 5.3m/s | 0°C | 0% | 0hPa | 2.9V | 00:00:00 | 00:00:00 | 00:00:00 | |
| DB0DAN | 2026-09-04 16:54:10 | 52.17711 | 14.28666 | 74° | 100km/h | 2866m | 5m/s | 4.7°C | 100% | 717.94hPa | 2.9V | 00:00:00 | 00:00:00 | 00:00:00 | |
| DAC517 | 2026-09-04 16:54:09 | 52.17704 | 14.28624 | 76° | 108km/h | 2862m | 3.7m/s | 4.8°C | 0% | 718.4hPa | 2.9V | 00:00:00 | 00:00:00 | 00:00:00 | |
| EDDB2-12 | 2026-09-04 16:54:05 | 52.17682 | 14.28451 | 78° | 104km/h | 2844m | 6.2m/s | 4.8°C | 100.0% | 719.8hPa | 2.9V | 00:00:00 | 00:00:00 | 00:00:00 | |
| DB0DAN | 2026-09-04 16:53:55 | 52.17627 | 14.28048 | 83° | 95km/h | 2797m | 6.3m/s | 5.1°C | 100% | 724.02hPa | 2.9V | 00:00:00 | 00:00:00 | 00:00:00 | |
| DAC517 | 2026-09-04 16:53:46 | 52.17586 | 14.27744 | 74° | 91km/h | 2751m | 5.8m/s | 4.8°C | 0% | 728.1hPa | 2.9V | 00:00:00 | 00:00:00 | 00:00:00 | |
| SP3BTT-10 | 2026-09-04 16:53:43 | 52.17568 | 14.27594 | 81° | 88km/h | 2726m | 4.9m/s | 0°C | 0% | 0hPa | 2.9V | 00:00:00 | 00:00:00 | 00:00:00 | |
| DB0DAN | 2026-09-04 16:53:40 | 52.17557 | 14.27484 | 81° | 82km/h | 2712m | 5.6m/s | 4.9°C | 100% | 731.52hPa | 2.9V | 00:00:00 | 00:00:00 | 00:00:00 | |
| EDDB2-12 | 2026-09-04 16:53:34 | 52.17532 | 14.27261 | 77° | 95km/h | 2685m | 5.5m/s | 5.1°C | 100.0% | 734.0hPa | 2.9V | 00:00:00 | 00:00:00 | 00:00:00 | |
| DB0DAN | 2026-09-04 16:53:25 | 52.17510 | 14.26931 | 84° | 82km/h | 2634m | 4.6m/s | 5.3°C | 100% | 738.31hPa | 2.9V | 00:00:00 | 00:00:00 | 00:00:00 | |
| SP3BTT-10 | 2026-09-04 16:53:13 | 52.17500 | 14.26501 | 85° | 88km/h | 2571m | 3.8m/s | 0°C | 0% | 0hPa | 2.9V | 00:00:00 | 00:00:00 | 00:00:00 | |
| DB0DAN | 2026-09-04 16:53:10 | 52.17493 | 14.26385 | 87° | 89km/h | 2556m | 6.2m/s | 5.7°C | 0% | 745.47hPa | 2.9V | 00:00:00 | 00:00:00 | 00:00:00 | |
| EDDB2-12 | 2026-09-04 16:53:03 | 52.17498 | 14.26133 | 88° | 84km/h | 2520m | 5.8m/s | 5.8°C | 100.0% | 748.6hPa | 2.9V | 00:00:00 | 00:00:00 | 00:00:00 | |
| DB0DAN | 2026-09-04 16:52:55 | 52.17485 | 14.25844 | 82° | 82km/h | 2477m | 5.6m/s | 6°C | 0% | 0hPa | 2.9V | 00:00:00 | 00:00:00 | 00:00:00 | |
| SP3BTT-10 | 2026-09-04 16:52:43 | 52.17477 | 14.25421 | 90° | 86km/h | 2413m | 4.5m/s | 0°C | 0% | 0hPa | 2.9V | 00:00:00 | 00:00:00 | 00:00:00 | |
| DB0DAN | 2026-09-04 16:52:40 | 52.17481 | 14.25316 | 97° | 78km/h | 2398m | 6.7m/s | 6°C | 0% | 0hPa | 2.9V | 00:00:00 | 00:00:00 | 00:00:00 | |
| SONDE2-11 | 2026-09-04 16:52:39 | 52.17484 | 14.25283 | 98° | 80km/h | 2390m | 7.0m/s | 6.1°C | 98.6% | 760.7hPa | 0V | 00:00:00 | 00:00:00 | 00:00:00 | |
| DL2RXE-15 | 2026-09-04 16:52:36 | 52.17491 | 14.25218 | 100° | 77km/h | 2379m | 6.5m/s | 0°C | 0% | 0hPa | 0V | 00:00:00 | 00:00:00 | 00:00:00 | |
| EDDB2-12 | 2026-09-04 16:52:32 | 52.17507 | 14.25059 | 98° | 84km/h | 2349m | 7.8m/s | 6.4°C | 96.9% | 764.5hPa | 0V | 00:00:00 | 00:00:00 | 00:00:00 | |
| DAC517 | 2026-09-04 16:52:25 | 52.17522 | 14.24858 | 100° | 77km/h | 2321m | 4.7m/s | 6.6°C | 0% | 767.4hPa | 0V | 00:00:00 | 00:00:00 | 00:00:00 | |
| SP3BTT-10 | 2026-09-04 16:52:13 | 52.17573 | 14.24416 | 107° | 82km/h | 2258m | 6.9m/s | 0°C | 0% | 0hPa | 0V | 00:00:00 | 00:00:00 | 00:00:00 | |
| EDDB2-11 | 2026-09-04 16:52:10 | 52.17588 | 14.24319 | 102° | 77km/h | 2245m | 4.0m/s | 6.8°C | 93.1% | 774.3hPa | 0V | 00:00:00 | 00:00:00 | 00:00:00 | |
| DAC517 | 2026-09-04 16:52:08 | 52.17611 | 14.24187 | 111° | 89km/h | 2227m | 4.9m/s | 0°C | 0% | 0hPa | 0V | 00:00:00 | 00:00:00 | 00:00:00 | |
| EDDB2-12 | 2026-09-04 16:52:01 | 52.17653 | 14.24019 | 112° | 80km/h | 2205m | 3.7m/s | 6.8°C | 93.5% | 777.9hPa | 0V | 00:00:00 | 00:00:00 | 00:00:00 | |
| SP3BTT-10 | 2026-09-04 16:51:43 | 52.17784 | 14.23469 | 116° | 86km/h | 2121m | 6.0m/s | 0°C | 0% | 0hPa | 0V | 00:00:00 | 00:00:00 | 00:00:00 | |
| EDDB2-11 | 2026-09-04 16:51:39 | 52.17820 | 14.23354 | 120° | 84km/h | 2102m | 4.8m/s | 7.5°C | 90.0% | 787.8hPa | 0V | 00:00:00 | 00:00:00 | 00:00:00 | |
| SONDE2-11 | 2026-09-04 16:51:37 | 52.17842 | 14.23292 | 118° | 86km/h | 2093m | 6.0m/s | 7.6°C | 89.6% | 788.6hPa | 0V | 00:00:00 | 00:00:00 | 00:00:00 | |
| EDDB2-12 | 2026-09-04 16:51:30 | 52.17898 | 14.23058 | 109° | 82km/h | 2063m | 4.5m/s | 7.7°C | 88.9% | 791.4hPa | 0V | 00:00:00 | 00:00:00 | 00:00:00 | |
| 13BRC | 2026-09-04 16:51:18 | 52.18001 | 14.22714 | 112° | 89km/h | 2016m | 3.9m/s | 0°C | 0% | 0hPa | 0V | 00:00:00 | 00:00:00 | 00:00:00 | |
| SP3BTT-10 | 2026-09-04 16:51:13 | 52.18053 | 14.22519 | 115° | 97km/h | 1988m | 5.5m/s | 0°C | 0% | 0hPa | 0V | 00:00:00 | 00:00:00 | 00:00:00 | |
| EDDB2-11 | 2026-09-04 16:51:08 | 52.18109 | 14.22352 | 122° | 91km/h | 1963m | 5.5m/s | 8.3°C | 85.9% | 801.3hPa | 0V | 00:00:00 | 00:00:00 | 00:00:00 | |
| SONDE2-11 | 2026-09-04 16:51:06 | 52.18133 | 14.22286 | 118° | 95km/h | 1952m | 4.4m/s | 8.4°C | 85.8% | 802.4hPa | 0V | 00:00:00 | 00:00:00 | 00:00:00 | |
| EDDB2-12 | 2026-09-04 16:50:59 | 52.18218 | 14.22018 | 119° | 91km/h | 1908m | 5.2m/s | 8.5°C | 83.7% | 806.3hPa | 0V | 00:00:00 | 00:00:00 | 00:00:00 | |
| 13BRC | 2026-09-04 16:50:58 | 52.18207 | 14.22051 | 120° | 89km/h | 1914m | 4.9m/s | 0°C | 0% | 0hPa | 0V | 00:00:00 | 00:00:00 | 00:00:00 | |
| SP3BTT-10 | 2026-09-04 16:50:43 | 52.18400 | 14.21492 | 121° | 93km/h | 1836m | 4.3m/s | 0°C | 0% | 0hPa | 0V | 00:00:00 | 00:00:00 | 00:00:00 | |
| EDDB2-11 | 2026-09-04 16:50:37 | 52.18475 | 14.21289 | 121° | 93km/h | 1809m | 5.8m/s | 9.3°C | 80.9% | 816.3hPa | 0V | 00:00:00 | 00:00:00 | 00:00:00 | |
| SONDE2-11 | 2026-09-04 16:50:35 | 52.18499 | 14.21221 | 119° | 93km/h | 1799m | 4.7m/s | 9.4°C | 80.9% | 817.4hPa | 0V | 00:00:00 | 00:00:00 | 00:00:00 | |
| EDDB2-12 | 2026-09-04 16:50:28 | 52.18587 | 14.20993 | 120° | 91km/h | 1763m | 6.0m/s | 9.7°C | 79.7% | 820.6hPa | 0V | 00:00:00 | 00:00:00 | 00:00:00 | |
| 13BRC | 2026-09-04 16:50:27 | 52.18587 | 14.20993 | 121° | 93km/h | 1763m | 6.0m/s | 0°C | 0% | 0hPa | 0V | 00:00:00 | 00:00:00 | 00:00:00 | |
| SP3BTT-10 | 2026-09-04 16:50:13 | 52.18756 | 14.20508 | 119° | 86km/h | 1692m | 5.2m/s | 0°C | 0% | 0hPa | 0V | 00:00:00 | 00:00:00 | 00:00:00 | |
| EDDB2-11 | 2026-09-04 16:50:06 | 52.18836 | 14.20291 | 117° | 84km/h | 1657m | 3.7m/s | 10.7°C | 76.3% | 831.5hPa | 0V | 00:00:00 | 00:00:00 | 00:00:00 | |
| SONDE2-11 | 2026-09-04 16:50:04 | 52.18856 | 14.20227 | 117° | 88km/h | 1649m | 6.7m/s | 10.8°C | 75.8% | 832.3hPa | 0V | 00:00:00 | 00:00:00 | 00:00:00 | |
| EDDB2-12 | 2026-09-04 16:49:57 | 52.18940 | 14.19980 | 115° | 82km/h | 1608m | 3.1m/s | 10.9°C | 75.2% | 836.4hPa | 0V | 00:00:00 | 00:00:00 | 00:00:00 | |
| DAC517 | 2026-09-04 16:49:49 | 52.18999 | 14.19802 | 120° | 86km/h | 1576m | 6.2m/s | 0°C | 0% | 0hPa | 0V | 00:00:00 | 00:00:00 | 00:00:00 | |
| EDDB2-11 | 2026-09-04 16:49:35 | 52.19145 | 14.19361 | 118° | 78km/h | 1497m | 4.6m/s | 11.7°C | 67.5% | 847.6hPa | 0V | 00:00:00 | 00:00:00 | 00:00:00 | |
| SONDE2-11 | 2026-09-04 16:49:33 | 52.19165 | 14.19303 | 120° | 80km/h | 1485m | 7.4m/s | 11.8°C | 66.8% | 848.7hPa | 0V | 00:00:00 | 00:00:00 | 00:00:00 | |
| EDDB2-12 | 2026-09-04 16:49:26 | 52.19246 | 14.19090 | 122° | 77km/h | 1439m | 6.1m/s | 12.1°C | 65.0% | 853.4hPa | 0V | 00:00:00 | 00:00:00 | 00:00:00 | |
| DAC517 | 2026-09-04 16:49:22 | 52.19267 | 14.19036 | 121° | 77km/h | 1429m | 5.2m/s | 0°C | 0% | 0hPa | 0V | 00:00:00 | 00:00:00 | 00:00:00 | |
| EDDB2-11 | 2026-09-04 16:49:04 | 52.19472 | 14.18558 | 122° | 78km/h | 1334m | 4.5m/s | 12.7°C | 59.4% | 864.0hPa | 0V | 00:00:00 | 00:00:00 | 00:00:00 | |
| EDDB2-12 | 2026-09-04 16:48:55 | 52.19572 | 14.18332 | 125° | 73km/h | 1288m | 6.7m/s | 13.2°C | 57.9% | 868.9hPa | 0V | 00:00:00 | 00:00:00 | 00:00:00 | |
| EDDB2-11 | 2026-09-04 16:48:33 | 52.19789 | 14.17752 | 123° | 78km/h | 1162m | 5.6m/s | 14.4°C | 53.9% | 881.6hPa | 0V | 00:00:00 | 00:00:00 | 00:00:00 | |
| SONDE2-11 | 2026-09-04 16:48:31 | 52.19810 | 14.17698 | 122° | 77km/h | 1152m | 4.9m/s | 14.5°C | 53.7% | 882.7hPa | 0V | 00:00:00 | 00:00:00 | 00:00:00 | |
| EDDB2-12 | 2026-09-04 16:48:24 | 52.19896 | 14.17484 | 122° | 77km/h | 1113m | 5.9m/s | 14.9°C | 52.5% | 886.8hPa | 0V | 00:00:00 | 00:00:00 | 00:00:00 | |
| EDDB2-11 | 2026-09-04 16:48:02 | 52.20120 | 14.16896 | 116° | 77km/h | 1003m | 4.7m/s | 15.3°C | 53.9% | 898.6hPa | 0V | 00:00:00 | 00:00:00 | 00:00:00 | |
| SONDE2-11 | 2026-09-04 16:48:00 | 52.20129 | 14.16867 | 115° | 77km/h | 999m | 5.6m/s | 15.4°C | 53.8% | 899.0hPa | 0V | 00:00:00 | 00:00:00 | 00:00:00 | |
| EDDB2-12 | 2026-09-04 16:47:53 | 52.20203 | 14.16632 | 117° | 80km/h | 959m | 3.8m/s | 15.6°C | 55.0% | 903.2hPa | 0V | 00:00:00 | 00:00:00 | 00:00:00 | |
| EDDB2-11 | 2026-09-04 16:47:31 | 52.20384 | 14.15980 | 113° | 82km/h | 850m | 5.7m/s | 16.3°C | 55.5% | 915.1hPa | 0V | 00:00:00 | 00:00:00 | 00:00:00 | |
| SONDE2-11 | 2026-09-04 16:47:29 | 52.20401 | 14.15917 | 111° | 82km/h | 841m | 6.8m/s | 16.4°C | 55.6% | 916.1hPa | 0V | 00:00:00 | 00:00:00 | 00:00:00 | |
| EDDB2-12 | 2026-09-04 16:47:22 | 52.20452 | 14.15691 | 109° | 80km/h | 804m | 5.5m/s | 16.6°C | 57.1% | 920.1hPa | 0V | 00:00:00 | 00:00:00 | 00:00:00 | |
| EDDB2-11 | 2026-09-04 16:47:00 | 52.20580 | 14.15007 | 107° | 73km/h | 696m | 4.5m/s | 17.2°C | 55.2% | 932.0hPa | 0V | 00:00:00 | 00:00:00 | 00:00:00 | |
| SONDE2-11 | 2026-09-04 16:46:58 | 52.20592 | 14.14947 | 108° | 78km/h | 688m | 5.1m/s | 17.2°C | 55.5% | 933.0hPa | 0V | 00:00:00 | 00:00:00 | 00:00:00 | |
| EDDB2-12 | 2026-09-04 16:46:51 | 52.20631 | 14.14723 | 106° | 84km/h | 653m | 6.5m/s | 17.5°C | 54.8% | 936.7hPa | 0V | 00:00:00 | 00:00:00 | 00:00:00 | |
| EDDB2-11 | 2026-09-04 16:46:29 | 52.20757 | 14.13972 | 98° | 88km/h | 545m | 4.1m/s | 17.7°C | 63.0% | 948.9hPa | 0V | 00:00:00 | 00:00:00 | 00:00:00 | |
| SONDE2-11 | 2026-09-04 16:46:27 | 52.20765 | 14.13903 | 104° | 84km/h | 537m | 3.5m/s | 17.6°C | 65.2% | 949.8hPa | 0V | 00:00:00 | 00:00:00 | 00:00:00 | |
| EDDB2-12 | 2026-09-04 16:46:20 | 52.20804 | 14.13664 | 106° | 86km/h | 503m | 4.5m/s | 17.3°C | 71.4% | 953.5hPa | 0V | 00:00:00 | 00:00:00 | 00:00:00 | |
| EDDB2-11 | 2026-09-04 16:46:00 | 52.20877 | 14.13013 | 115° | 60km/h | 394m | 3.5m/s | 17.0°C | -1.0% | -1.0hPa | 0V | 00:00:00 | 00:00:00 | 00:00:00 | |
| SONDE2-11 | 2026-09-04 16:45:56 | 52.20888 | 14.12968 | 110° | 58km/h | 385m | 7.1m/s | 17.1°C | 83.5% | -1.0hPa | 0V | 00:00:00 | 00:00:00 | 00:00:00 | |
| EDDB2-12 | 2026-09-04 16:45:49 | 52.20903 | 14.12794 | 87° | 60km/h | 345m | 6.8m/s | 17.4°C | 82.1% | -1.0hPa | 0V | 00:00:00 | 00:00:00 | 00:00:00 | |
| SONDE2-11 | 2026-09-04 16:45:25 | 52.20921 | 14.12261 | 87° | 46km/h | 222m | 5.2m/s | 0°C | -1.0% | -1.0hPa | 0V | 00:00:00 | 00:00:00 | 00:00:00 |